<?xml version='1.0' encoding='UTF-8'?><gpx version="1.1" creator="JPX - https://github.com/jenetics/jpx" xmlns="http://www.topografix.com/GPX/1/1"><trk><trkseg><trkpt lat="45.4088283" lon="10.53914"><ele>129.0</ele><time>2026-04-18T09:22:29.733Z</time></trkpt><trkpt lat="45.4089183" lon="10.5390983"><ele>129.0</ele><time>2026-04-18T09:22:56.738Z</time></trkpt><trkpt lat="45.409005" lon="10.53911"><ele>129.0</ele><time>2026-04-18T09:22:58.753Z</time></trkpt><trkpt lat="45.4091167" lon="10.539145"><ele>129.0</ele><time>2026-04-18T09:23:00.729Z</time></trkpt><trkpt lat="45.40925" lon="10.5391517"><ele>129.0</ele><time>2026-04-18T09:23:02.735Z</time></trkpt><trkpt lat="45.409325" lon="10.53917"><ele>129.0</ele><time>2026-04-18T09:23:03.729Z</time></trkpt><trkpt lat="45.409405" lon="10.5391867"><ele>129.0</ele><time>2026-04-18T09:23:04.726Z</time></trkpt><trkpt lat="45.4094967" lon="10.5391983"><ele>129.0</ele><time>2026-04-18T09:23:05.731Z</time></trkpt><trkpt lat="45.4095983" lon="10.5392067"><ele>129.0</ele><time>2026-04-18T09:23:06.732Z</time></trkpt><trkpt lat="45.4097017" lon="10.5392167"><ele>129.0</ele><time>2026-04-18T09:23:07.73Z</time></trkpt><trkpt lat="45.4098133" lon="10.5392317"><ele>130.0</ele><time>2026-04-18T09:23:08.733Z</time></trkpt><trkpt lat="45.409935" lon="10.53925"><ele>131.0</ele><time>2026-04-18T09:23:09.731Z</time></trkpt><trkpt lat="45.4100617" lon="10.5392733"><ele>132.0</ele><time>2026-04-18T09:23:10.727Z</time></trkpt><trkpt lat="45.4101883" lon="10.5393"><ele>133.0</ele><time>2026-04-18T09:23:11.73Z</time></trkpt><trkpt lat="45.41031" lon="10.5393267"><ele>133.0</ele><time>2026-04-18T09:23:12.732Z</time></trkpt><trkpt lat="45.4104267" lon="10.53935"><ele>133.0</ele><time>2026-04-18T09:23:13.728Z</time></trkpt><trkpt lat="45.4105517" lon="10.5393817"><ele>133.0</ele><time>2026-04-18T09:23:14.738Z</time></trkpt><trkpt lat="45.4106833" lon="10.5394217"><ele>133.0</ele><time>2026-04-18T09:23:15.731Z</time></trkpt><trkpt lat="45.4108217" lon="10.53947"><ele>133.25</ele><time>2026-04-18T09:23:16.727Z</time></trkpt><trkpt lat="45.4109533" lon="10.53952"><ele>133.5</ele><time>2026-04-18T09:23:17.735Z</time></trkpt><trkpt lat="45.4110783" lon="10.53957"><ele>133.75</ele><time>2026-04-18T09:23:18.739Z</time></trkpt><trkpt lat="45.4111933" lon="10.5396167"><ele>134.0</ele><time>2026-04-18T09:23:19.732Z</time></trkpt><trkpt lat="45.4112933" lon="10.5396667"><ele>132.2</ele><time>2026-04-18T09:23:20.737Z</time></trkpt><trkpt lat="45.4113767" lon="10.5397183"><ele>130.4</ele><time>2026-04-18T09:23:21.732Z</time></trkpt><trkpt lat="45.4114467" lon="10.5397817"><ele>128.6</ele><time>2026-04-18T09:23:22.728Z</time></trkpt><trkpt lat="45.4115083" lon="10.5398617"><ele>126.8</ele><time>2026-04-18T09:23:23.728Z</time></trkpt><trkpt lat="45.4115683" lon="10.539965"><ele>125.0</ele><time>2026-04-18T09:23:24.733Z</time></trkpt><trkpt lat="45.41163" lon="10.540085"><ele>125.0</ele><time>2026-04-18T09:23:25.728Z</time></trkpt><trkpt lat="45.4116933" lon="10.5402283"><ele>125.0</ele><time>2026-04-18T09:23:26.738Z</time></trkpt><trkpt lat="45.41176" lon="10.5403733"><ele>125.0</ele><time>2026-04-18T09:23:27.737Z</time></trkpt><trkpt lat="45.41183" lon="10.5405233"><ele>125.0</ele><time>2026-04-18T09:23:28.733Z</time></trkpt><trkpt lat="45.4119033" lon="10.54067"><ele>125.8</ele><time>2026-04-18T09:23:29.729Z</time></trkpt><trkpt lat="45.411965" lon="10.5408233"><ele>126.6</ele><time>2026-04-18T09:23:30.737Z</time></trkpt><trkpt lat="45.4120367" lon="10.54094"><ele>127.4</ele><time>2026-04-18T09:23:31.729Z</time></trkpt><trkpt lat="45.4121017" lon="10.54104"><ele>128.2</ele><time>2026-04-18T09:23:32.739Z</time></trkpt><trkpt lat="45.41216" lon="10.5411233"><ele>129.0</ele><time>2026-04-18T09:23:33.744Z</time></trkpt><trkpt lat="45.4122083" lon="10.541235"><ele>129.2</ele><time>2026-04-18T09:23:35.728Z</time></trkpt><trkpt lat="45.4121717" lon="10.541365"><ele>129.4</ele><time>2026-04-18T09:23:37.726Z</time></trkpt><trkpt lat="45.4121233" lon="10.541455"><ele>129.6</ele><time>2026-04-18T09:23:38.731Z</time></trkpt><trkpt lat="45.4120633" lon="10.5415617"><ele>129.8</ele><time>2026-04-18T09:23:39.734Z</time></trkpt><trkpt lat="45.41198" lon="10.5416917"><ele>130.0</ele><time>2026-04-18T09:23:40.734Z</time></trkpt><trkpt lat="45.4118933" lon="10.541845"><ele>129.0</ele><time>2026-04-18T09:23:41.728Z</time></trkpt><trkpt lat="45.4118" lon="10.542015"><ele>128.0</ele><time>2026-04-18T09:23:42.729Z</time></trkpt><trkpt lat="45.4117083" lon="10.542195"><ele>127.0</ele><time>2026-04-18T09:23:43.731Z</time></trkpt><trkpt lat="45.41161" lon="10.542385"><ele>126.66666666666667</ele><time>2026-04-18T09:23:44.731Z</time></trkpt><trkpt lat="45.4115133" lon="10.542585"><ele>126.33333333333334</ele><time>2026-04-18T09:23:45.731Z</time></trkpt><trkpt lat="45.4114117" lon="10.54279"><ele>126.0</ele><time>2026-04-18T09:23:46.736Z</time></trkpt><trkpt lat="45.4113217" lon="10.54299"><ele>125.0</ele><time>2026-04-18T09:23:47.729Z</time></trkpt><trkpt lat="45.411245" lon="10.543175"><ele>124.0</ele><time>2026-04-18T09:23:48.73Z</time></trkpt><trkpt lat="45.4111783" lon="10.543355"><ele>123.0</ele><time>2026-04-18T09:23:49.732Z</time></trkpt><trkpt lat="45.4111367" lon="10.5435483"><ele>122.0</ele><time>2026-04-18T09:23:50.733Z</time></trkpt><trkpt lat="45.41109" lon="10.543735"><ele>122.0</ele><time>2026-04-18T09:23:51.734Z</time></trkpt><trkpt lat="45.4110417" lon="10.54391"><ele>122.0</ele><time>2026-04-18T09:23:52.728Z</time></trkpt><trkpt lat="45.4109767" lon="10.54406"><ele>122.0</ele><time>2026-04-18T09:23:53.722Z</time></trkpt><trkpt lat="45.4108917" lon="10.54419"><ele>122.0</ele><time>2026-04-18T09:23:54.731Z</time></trkpt><trkpt lat="45.4107917" lon="10.5443233"><ele>122.0</ele><time>2026-04-18T09:23:55.728Z</time></trkpt><trkpt lat="45.410685" lon="10.5444583"><ele>122.0</ele><time>2026-04-18T09:23:56.734Z</time></trkpt><trkpt lat="45.4105617" lon="10.5445983"><ele>122.0</ele><time>2026-04-18T09:23:57.726Z</time></trkpt><trkpt lat="45.410435" lon="10.5447433"><ele>121.66666666666666</ele><time>2026-04-18T09:23:58.733Z</time></trkpt><trkpt lat="45.41029" lon="10.54489"><ele>121.33333333333334</ele><time>2026-04-18T09:23:59.742Z</time></trkpt><trkpt lat="45.410155" lon="10.545035"><ele>121.0</ele><time>2026-04-18T09:24:00.732Z</time></trkpt><trkpt lat="45.4100267" lon="10.5451733"><ele>121.0</ele><time>2026-04-18T09:24:01.733Z</time></trkpt><trkpt lat="45.4099" lon="10.545315"><ele>121.0</ele><time>2026-04-18T09:24:02.737Z</time></trkpt><trkpt lat="45.40978" lon="10.5454533"><ele>121.0</ele><time>2026-04-18T09:24:03.731Z</time></trkpt><trkpt lat="45.4096617" lon="10.5455783"><ele>119.25</ele><time>2026-04-18T09:24:04.735Z</time></trkpt><trkpt lat="45.4095517" lon="10.5456867"><ele>117.5</ele><time>2026-04-18T09:24:05.739Z</time></trkpt><trkpt lat="45.4094467" lon="10.5457717"><ele>115.75</ele><time>2026-04-18T09:24:06.738Z</time></trkpt><trkpt lat="45.4093367" lon="10.545835"><ele>114.0</ele><time>2026-04-18T09:24:07.728Z</time></trkpt><trkpt lat="45.4092233" lon="10.545875"><ele>114.0</ele><time>2026-04-18T09:24:08.729Z</time></trkpt><trkpt lat="45.4091117" lon="10.5459"><ele>114.0</ele><time>2026-04-18T09:24:09.732Z</time></trkpt><trkpt lat="45.4090017" lon="10.54591"><ele>114.0</ele><time>2026-04-18T09:24:10.734Z</time></trkpt><trkpt lat="45.4088833" lon="10.5459"><ele>114.0</ele><time>2026-04-18T09:24:11.732Z</time></trkpt><trkpt lat="45.408755" lon="10.5458767"><ele>113.5</ele><time>2026-04-18T09:24:12.74Z</time></trkpt><trkpt lat="45.4086217" lon="10.5458467"><ele>113.0</ele><time>2026-04-18T09:24:13.724Z</time></trkpt><trkpt lat="45.4084883" lon="10.54582"><ele>112.5</ele><time>2026-04-18T09:24:14.743Z</time></trkpt><trkpt lat="45.4083567" lon="10.5458"><ele>112.0</ele><time>2026-04-18T09:24:15.737Z</time></trkpt><trkpt lat="45.4082383" lon="10.545785"><ele>112.0</ele><time>2026-04-18T09:24:16.724Z</time></trkpt><trkpt lat="45.40812" lon="10.5457783"><ele>112.0</ele><time>2026-04-18T09:24:17.724Z</time></trkpt><trkpt lat="45.40799" lon="10.5457867"><ele>112.0</ele><time>2026-04-18T09:24:18.729Z</time></trkpt><trkpt lat="45.40786" lon="10.5458183"><ele>112.0</ele><time>2026-04-18T09:24:19.735Z</time></trkpt><trkpt lat="45.40772" lon="10.5458517"><ele>112.0</ele><time>2026-04-18T09:24:20.731Z</time></trkpt><trkpt lat="45.4075767" lon="10.5458833"><ele>112.0</ele><time>2026-04-18T09:24:21.739Z</time></trkpt><trkpt lat="45.4074383" lon="10.5459183"><ele>112.0</ele><time>2026-04-18T09:24:22.753Z</time></trkpt><trkpt lat="45.407315" lon="10.5459583"><ele>112.0</ele><time>2026-04-18T09:24:23.732Z</time></trkpt><trkpt lat="45.4072067" lon="10.5460133"><ele>112.66666666666667</ele><time>2026-04-18T09:24:24.73Z</time></trkpt><trkpt lat="45.4069933" lon="10.5462033"><ele>113.33333333333334</ele><time>2026-04-18T09:24:26.737Z</time></trkpt><trkpt lat="45.4068867" lon="10.5463417"><ele>114.0</ele><time>2026-04-18T09:24:27.733Z</time></trkpt><trkpt lat="45.40678" lon="10.5464933"><ele>114.5</ele><time>2026-04-18T09:24:28.732Z</time></trkpt><trkpt lat="45.4066767" lon="10.5466433"><ele>115.0</ele><time>2026-04-18T09:24:29.732Z</time></trkpt><trkpt lat="45.4065683" lon="10.5467983"><ele>115.5</ele><time>2026-04-18T09:24:30.738Z</time></trkpt><trkpt lat="45.4064567" lon="10.546935"><ele>116.0</ele><time>2026-04-18T09:24:31.739Z</time></trkpt><trkpt lat="45.406345" lon="10.5470517"><ele>117.5</ele><time>2026-04-18T09:24:32.735Z</time></trkpt><trkpt lat="45.406225" lon="10.5471533"><ele>119.0</ele><time>2026-04-18T09:24:33.736Z</time></trkpt><trkpt lat="45.4060967" lon="10.5472333"><ele>120.5</ele><time>2026-04-18T09:24:34.739Z</time></trkpt><trkpt lat="45.4059533" lon="10.5472983"><ele>122.0</ele><time>2026-04-18T09:24:35.733Z</time></trkpt><trkpt lat="45.4058167" lon="10.5473567"><ele>122.0</ele><time>2026-04-18T09:24:36.732Z</time></trkpt><trkpt lat="45.405695" lon="10.547405"><ele>122.0</ele><time>2026-04-18T09:24:37.728Z</time></trkpt><trkpt lat="45.405575" lon="10.5474633"><ele>122.0</ele><time>2026-04-18T09:24:38.732Z</time></trkpt><trkpt lat="45.40546" lon="10.547525"><ele>122.0</ele><time>2026-04-18T09:24:39.734Z</time></trkpt><trkpt lat="45.4053467" lon="10.5476017"><ele>122.25</ele><time>2026-04-18T09:24:40.727Z</time></trkpt><trkpt lat="45.4052317" lon="10.5476933"><ele>122.5</ele><time>2026-04-18T09:24:41.734Z</time></trkpt><trkpt lat="45.4051083" lon="10.547795"><ele>122.75</ele><time>2026-04-18T09:24:42.732Z</time></trkpt><trkpt lat="45.4049867" lon="10.5479017"><ele>123.0</ele><time>2026-04-18T09:24:43.743Z</time></trkpt><trkpt lat="45.4048617" lon="10.548005"><ele>123.0</ele><time>2026-04-18T09:24:44.802Z</time></trkpt><trkpt lat="45.4047317" lon="10.5481083"><ele>123.0</ele><time>2026-04-18T09:24:45.727Z</time></trkpt><trkpt lat="45.4046" lon="10.5482183"><ele>123.0</ele><time>2026-04-18T09:24:46.73Z</time></trkpt><trkpt lat="45.4044683" lon="10.54833"><ele>122.75</ele><time>2026-04-18T09:24:47.743Z</time></trkpt><trkpt lat="45.4043333" lon="10.548445"><ele>122.5</ele><time>2026-04-18T09:24:48.74Z</time></trkpt><trkpt lat="45.4042083" lon="10.5485617"><ele>122.25</ele><time>2026-04-18T09:24:49.728Z</time></trkpt><trkpt lat="45.404095" lon="10.5486683"><ele>122.0</ele><time>2026-04-18T09:24:50.738Z</time></trkpt><trkpt lat="45.4039967" lon="10.548765"><ele>122.0</ele><time>2026-04-18T09:24:51.736Z</time></trkpt><trkpt lat="45.4038983" lon="10.5488733"><ele>122.0</ele><time>2026-04-18T09:24:52.731Z</time></trkpt><trkpt lat="45.4038033" lon="10.549"><ele>122.0</ele><time>2026-04-18T09:24:53.733Z</time></trkpt><trkpt lat="45.4037033" lon="10.5491317"><ele>122.0</ele><time>2026-04-18T09:24:54.742Z</time></trkpt><trkpt lat="45.4035917" lon="10.5492483"><ele>120.75</ele><time>2026-04-18T09:24:55.735Z</time></trkpt><trkpt lat="45.403475" lon="10.5493383"><ele>119.5</ele><time>2026-04-18T09:24:56.752Z</time></trkpt><trkpt lat="45.40335" lon="10.5494117"><ele>118.25</ele><time>2026-04-18T09:24:57.732Z</time></trkpt><trkpt lat="45.4032317" lon="10.5494717"><ele>117.0</ele><time>2026-04-18T09:24:58.723Z</time></trkpt><trkpt lat="45.4031167" lon="10.5494983"><ele>117.0</ele><time>2026-04-18T09:24:59.732Z</time></trkpt><trkpt lat="45.4029983" lon="10.549495"><ele>117.0</ele><time>2026-04-18T09:25:00.731Z</time></trkpt><trkpt lat="45.402875" lon="10.5494667"><ele>117.0</ele><time>2026-04-18T09:25:01.737Z</time></trkpt><trkpt lat="45.4027667" lon="10.5494517"><ele>117.0</ele><time>2026-04-18T09:25:02.735Z</time></trkpt><trkpt lat="45.4026617" lon="10.5494483"><ele>117.19999999999999</ele><time>2026-04-18T09:25:03.737Z</time></trkpt><trkpt lat="45.40256" lon="10.5494633"><ele>117.39999999999999</ele><time>2026-04-18T09:25:04.739Z</time></trkpt><trkpt lat="45.402475" lon="10.5495133"><ele>117.60000000000001</ele><time>2026-04-18T09:25:05.742Z</time></trkpt><trkpt lat="45.4023833" lon="10.5495833"><ele>117.80000000000001</ele><time>2026-04-18T09:25:06.735Z</time></trkpt><trkpt lat="45.402285" lon="10.54967"><ele>118.0</ele><time>2026-04-18T09:25:07.733Z</time></trkpt><trkpt lat="45.4021883" lon="10.5497817"><ele>117.5</ele><time>2026-04-18T09:25:08.738Z</time></trkpt><trkpt lat="45.402085" lon="10.549915"><ele>117.0</ele><time>2026-04-18T09:25:09.736Z</time></trkpt><trkpt lat="45.40198" lon="10.5500567"><ele>116.5</ele><time>2026-04-18T09:25:10.727Z</time></trkpt><trkpt lat="45.4018767" lon="10.5502067"><ele>116.0</ele><time>2026-04-18T09:25:11.732Z</time></trkpt><trkpt lat="45.4017783" lon="10.5503517"><ele>116.25</ele><time>2026-04-18T09:25:12.734Z</time></trkpt><trkpt lat="45.40168" lon="10.5504983"><ele>116.5</ele><time>2026-04-18T09:25:13.733Z</time></trkpt><trkpt lat="45.4015833" lon="10.550635"><ele>116.75</ele><time>2026-04-18T09:25:14.728Z</time></trkpt><trkpt lat="45.401495" lon="10.5507567"><ele>117.0</ele><time>2026-04-18T09:25:15.735Z</time></trkpt><trkpt lat="45.40142" lon="10.5508617"><ele>117.0</ele><time>2026-04-18T09:25:16.728Z</time></trkpt><trkpt lat="45.40135" lon="10.550955"><ele>117.0</ele><time>2026-04-18T09:25:17.739Z</time></trkpt><trkpt lat="45.4012883" lon="10.5510167"><ele>117.0</ele><time>2026-04-18T09:25:18.73Z</time></trkpt><trkpt lat="45.4012283" lon="10.5510583"><ele>117.0</ele><time>2026-04-18T09:25:19.731Z</time></trkpt><trkpt lat="45.4011667" lon="10.55109"><ele>117.0</ele><time>2026-04-18T09:25:20.728Z</time></trkpt><trkpt lat="45.4010967" lon="10.5511117"><ele>117.0</ele><time>2026-04-18T09:25:21.731Z</time></trkpt><trkpt lat="45.4010183" lon="10.5511183"><ele>116.39999999999999</ele><time>2026-04-18T09:25:22.736Z</time></trkpt><trkpt lat="45.4009333" lon="10.551125"><ele>115.79999999999998</ele><time>2026-04-18T09:25:23.736Z</time></trkpt><trkpt lat="45.4008433" lon="10.55112"><ele>115.2</ele><time>2026-04-18T09:25:24.729Z</time></trkpt><trkpt lat="45.4007633" lon="10.5510967"><ele>114.6</ele><time>2026-04-18T09:25:25.734Z</time></trkpt><trkpt lat="45.4006667" lon="10.5510917"><ele>114.0</ele><time>2026-04-18T09:25:26.732Z</time></trkpt><trkpt lat="45.40057" lon="10.5510717"><ele>114.25</ele><time>2026-04-18T09:25:27.727Z</time></trkpt><trkpt lat="45.4004617" lon="10.551085"><ele>114.5</ele><time>2026-04-18T09:25:28.735Z</time></trkpt><trkpt lat="45.400345" lon="10.55113"><ele>114.75</ele><time>2026-04-18T09:25:29.733Z</time></trkpt><trkpt lat="45.40023" lon="10.5511933"><ele>115.0</ele><time>2026-04-18T09:25:30.731Z</time></trkpt><trkpt lat="45.4001133" lon="10.5512783"><ele>115.0</ele><time>2026-04-18T09:25:31.734Z</time></trkpt><trkpt lat="45.4" lon="10.55137"><ele>115.0</ele><time>2026-04-18T09:25:32.732Z</time></trkpt><trkpt lat="45.3998917" lon="10.5514467"><ele>115.0</ele><time>2026-04-18T09:25:33.739Z</time></trkpt><trkpt lat="45.39978" lon="10.5515067"><ele>115.0</ele><time>2026-04-18T09:25:34.735Z</time></trkpt><trkpt lat="45.3996633" lon="10.5515383"><ele>115.0</ele><time>2026-04-18T09:25:35.736Z</time></trkpt><trkpt lat="45.3995333" lon="10.5515583"><ele>115.0</ele><time>2026-04-18T09:25:36.738Z</time></trkpt><trkpt lat="45.3993933" lon="10.5515667"><ele>115.0</ele><time>2026-04-18T09:25:37.737Z</time></trkpt><trkpt lat="45.39926" lon="10.551565"><ele>115.0</ele><time>2026-04-18T09:25:38.734Z</time></trkpt><trkpt lat="45.3991383" lon="10.5515533"><ele>115.0</ele><time>2026-04-18T09:25:39.731Z</time></trkpt><trkpt lat="45.3990217" lon="10.5515433"><ele>115.0</ele><time>2026-04-18T09:25:40.728Z</time></trkpt><trkpt lat="45.3989117" lon="10.5515567"><ele>115.0</ele><time>2026-04-18T09:25:41.736Z</time></trkpt><trkpt lat="45.3987967" lon="10.5515883"><ele>115.0</ele><time>2026-04-18T09:25:42.734Z</time></trkpt><trkpt lat="45.398685" lon="10.551635"><ele>117.0</ele><time>2026-04-18T09:25:43.727Z</time></trkpt><trkpt lat="45.3985667" lon="10.5516867"><ele>119.0</ele><time>2026-04-18T09:25:44.733Z</time></trkpt><trkpt lat="45.39845" lon="10.5517533"><ele>121.0</ele><time>2026-04-18T09:25:45.739Z</time></trkpt><trkpt lat="45.3983433" lon="10.5518067"><ele>123.0</ele><time>2026-04-18T09:25:46.729Z</time></trkpt><trkpt lat="45.39823" lon="10.55185"><ele>123.0</ele><time>2026-04-18T09:25:47.733Z</time></trkpt><trkpt lat="45.398105" lon="10.551865"><ele>123.0</ele><time>2026-04-18T09:25:48.73Z</time></trkpt><trkpt lat="45.3979833" lon="10.551865"><ele>123.0</ele><time>2026-04-18T09:25:49.733Z</time></trkpt><trkpt lat="45.3978483" lon="10.55183"><ele>123.0</ele><time>2026-04-18T09:25:50.728Z</time></trkpt><trkpt lat="45.39772" lon="10.5517883"><ele>122.75</ele><time>2026-04-18T09:25:51.734Z</time></trkpt><trkpt lat="45.3975817" lon="10.5517667"><ele>122.5</ele><time>2026-04-18T09:25:52.73Z</time></trkpt><trkpt lat="45.3974467" lon="10.5517383"><ele>122.25</ele><time>2026-04-18T09:25:53.736Z</time></trkpt><trkpt lat="45.3973233" lon="10.551715"><ele>122.0</ele><time>2026-04-18T09:25:54.74Z</time></trkpt><trkpt lat="45.397215" lon="10.5516967"><ele>121.8</ele><time>2026-04-18T09:25:55.734Z</time></trkpt><trkpt lat="45.3971183" lon="10.551685"><ele>121.6</ele><time>2026-04-18T09:25:56.728Z</time></trkpt><trkpt lat="45.39703" lon="10.551685"><ele>121.39999999999999</ele><time>2026-04-18T09:25:57.75Z</time></trkpt><trkpt lat="45.39693" lon="10.551735"><ele>121.19999999999999</ele><time>2026-04-18T09:25:59.726Z</time></trkpt><trkpt lat="45.3968817" lon="10.5519"><ele>121.0</ele><time>2026-04-18T09:26:01.727Z</time></trkpt><trkpt lat="45.3968783" lon="10.5520317"><ele>122.8</ele><time>2026-04-18T09:26:02.729Z</time></trkpt><trkpt lat="45.39688" lon="10.552165"><ele>124.6</ele><time>2026-04-18T09:26:03.731Z</time></trkpt><trkpt lat="45.3969067" lon="10.5523183"><ele>126.4</ele><time>2026-04-18T09:26:04.74Z</time></trkpt><trkpt lat="45.3969517" lon="10.5524733"><ele>128.2</ele><time>2026-04-18T09:26:05.727Z</time></trkpt><trkpt lat="45.3970067" lon="10.5526233"><ele>130.0</ele><time>2026-04-18T09:26:06.732Z</time></trkpt><trkpt lat="45.3970417" lon="10.552765"><ele>130.0</ele><time>2026-04-18T09:26:07.733Z</time></trkpt><trkpt lat="45.3970833" lon="10.5529133"><ele>130.0</ele><time>2026-04-18T09:26:08.723Z</time></trkpt><trkpt lat="45.3971167" lon="10.5530733"><ele>130.0</ele><time>2026-04-18T09:26:09.73Z</time></trkpt><trkpt lat="45.39716" lon="10.5532417"><ele>130.0</ele><time>2026-04-18T09:26:10.732Z</time></trkpt><trkpt lat="45.397205" lon="10.553405"><ele>126.25</ele><time>2026-04-18T09:26:11.736Z</time></trkpt><trkpt lat="45.3972617" lon="10.55357"><ele>122.5</ele><time>2026-04-18T09:26:12.757Z</time></trkpt><trkpt lat="45.3973233" lon="10.55373"><ele>118.75</ele><time>2026-04-18T09:26:13.735Z</time></trkpt><trkpt lat="45.3973833" lon="10.5539133"><ele>115.0</ele><time>2026-04-18T09:26:14.723Z</time></trkpt><trkpt lat="45.3974433" lon="10.5540983"><ele>114.5</ele><time>2026-04-18T09:26:15.732Z</time></trkpt><trkpt lat="45.3974933" lon="10.5542717"><ele>114.0</ele><time>2026-04-18T09:26:16.73Z</time></trkpt><trkpt lat="45.3975483" lon="10.5544367"><ele>113.5</ele><time>2026-04-18T09:26:17.737Z</time></trkpt><trkpt lat="45.397585" lon="10.5546033"><ele>113.0</ele><time>2026-04-18T09:26:18.732Z</time></trkpt><trkpt lat="45.3976017" lon="10.5547733"><ele>112.25</ele><time>2026-04-18T09:26:19.73Z</time></trkpt><trkpt lat="45.3976" lon="10.5549417"><ele>111.5</ele><time>2026-04-18T09:26:20.731Z</time></trkpt><trkpt lat="45.39758" lon="10.55511"><ele>110.75</ele><time>2026-04-18T09:26:21.737Z</time></trkpt><trkpt lat="45.3975433" lon="10.555275"><ele>110.0</ele><time>2026-04-18T09:26:22.727Z</time></trkpt><trkpt lat="45.3974967" lon="10.55544"><ele>108.75</ele><time>2026-04-18T09:26:23.746Z</time></trkpt><trkpt lat="45.3974467" lon="10.5556133"><ele>107.5</ele><time>2026-04-18T09:26:24.733Z</time></trkpt><trkpt lat="45.3973983" lon="10.5557967"><ele>106.25</ele><time>2026-04-18T09:26:25.747Z</time></trkpt><trkpt lat="45.3973583" lon="10.5559883"><ele>105.0</ele><time>2026-04-18T09:26:26.731Z</time></trkpt><trkpt lat="45.3973283" lon="10.55618"><ele>105.25</ele><time>2026-04-18T09:26:27.727Z</time></trkpt><trkpt lat="45.397305" lon="10.5563733"><ele>105.5</ele><time>2026-04-18T09:26:28.735Z</time></trkpt><trkpt lat="45.3972867" lon="10.5565667"><ele>105.75</ele><time>2026-04-18T09:26:29.739Z</time></trkpt><trkpt lat="45.3972667" lon="10.5567517"><ele>106.0</ele><time>2026-04-18T09:26:30.741Z</time></trkpt><trkpt lat="45.397245" lon="10.5569233"><ele>106.0</ele><time>2026-04-18T09:26:31.731Z</time></trkpt><trkpt lat="45.39722" lon="10.5570783"><ele>106.0</ele><time>2026-04-18T09:26:32.746Z</time></trkpt><trkpt lat="45.397195" lon="10.5572167"><ele>106.0</ele><time>2026-04-18T09:26:33.731Z</time></trkpt><trkpt lat="45.3971583" lon="10.55734"><ele>106.0</ele><time>2026-04-18T09:26:34.737Z</time></trkpt><trkpt lat="45.397115" lon="10.5574583"><ele>106.0</ele><time>2026-04-18T09:26:35.733Z</time></trkpt><trkpt lat="45.3970517" lon="10.5575917"><ele>105.5</ele><time>2026-04-18T09:26:36.741Z</time></trkpt><trkpt lat="45.39697" lon="10.5577433"><ele>105.0</ele><time>2026-04-18T09:26:37.734Z</time></trkpt><trkpt lat="45.3968883" lon="10.557905"><ele>104.5</ele><time>2026-04-18T09:26:38.737Z</time></trkpt><trkpt lat="45.396815" lon="10.5580717"><ele>104.0</ele><time>2026-04-18T09:26:39.749Z</time></trkpt><trkpt lat="45.3967717" lon="10.5582683"><ele>104.0</ele><time>2026-04-18T09:26:40.742Z</time></trkpt><trkpt lat="45.396745" lon="10.558495"><ele>104.0</ele><time>2026-04-18T09:26:41.733Z</time></trkpt><trkpt lat="45.3967367" lon="10.5587417"><ele>104.0</ele><time>2026-04-18T09:26:42.744Z</time></trkpt><trkpt lat="45.3967633" lon="10.5590133"><ele>104.0</ele><time>2026-04-18T09:26:43.732Z</time></trkpt><trkpt lat="45.396785" lon="10.5592833"><ele>104.0</ele><time>2026-04-18T09:26:44.733Z</time></trkpt><trkpt lat="45.3968083" lon="10.559545"><ele>104.0</ele><time>2026-04-18T09:26:45.744Z</time></trkpt><trkpt lat="45.3968267" lon="10.5597883"><ele>104.0</ele><time>2026-04-18T09:26:46.738Z</time></trkpt><trkpt lat="45.3968433" lon="10.560005"><ele>104.0</ele><time>2026-04-18T09:26:47.735Z</time></trkpt><trkpt lat="45.3968583" lon="10.5601933"><ele>104.0</ele><time>2026-04-18T09:26:48.738Z</time></trkpt><trkpt lat="45.396865" lon="10.560325"><ele>104.0</ele><time>2026-04-18T09:26:49.736Z</time></trkpt><trkpt lat="45.39687" lon="10.560425"><ele>104.0</ele><time>2026-04-18T09:26:50.744Z</time></trkpt><trkpt lat="45.3968583" lon="10.560515"><ele>104.0</ele><time>2026-04-18T09:26:52.727Z</time></trkpt><trkpt lat="45.396865" lon="10.5607083"><ele>104.0</ele><time>2026-04-18T09:27:21.732Z</time></trkpt><trkpt lat="45.3968667" lon="10.5608367"><ele>104.0</ele><time>2026-04-18T09:27:22.728Z</time></trkpt><trkpt lat="45.3968617" lon="10.5609883"><ele>104.0</ele><time>2026-04-18T09:27:23.731Z</time></trkpt><trkpt lat="45.3968467" lon="10.561155"><ele>104.0</ele><time>2026-04-18T09:27:24.732Z</time></trkpt><trkpt lat="45.3968183" lon="10.5613317"><ele>104.0</ele><time>2026-04-18T09:27:25.726Z</time></trkpt><trkpt lat="45.396765" lon="10.561565"><ele>104.0</ele><time>2026-04-18T09:27:26.74Z</time></trkpt><trkpt lat="45.3967233" lon="10.5617733"><ele>104.0</ele><time>2026-04-18T09:27:27.729Z</time></trkpt><trkpt lat="45.3966817" lon="10.5619733"><ele>104.0</ele><time>2026-04-18T09:27:28.73Z</time></trkpt><trkpt lat="45.39662" lon="10.56217"><ele>104.0</ele><time>2026-04-18T09:27:29.724Z</time></trkpt><trkpt lat="45.3965583" lon="10.5623783"><ele>103.5</ele><time>2026-04-18T09:27:30.734Z</time></trkpt><trkpt lat="45.396505" lon="10.56258"><ele>103.0</ele><time>2026-04-18T09:27:31.735Z</time></trkpt><trkpt lat="45.39644" lon="10.5627683"><ele>102.5</ele><time>2026-04-18T09:27:32.734Z</time></trkpt><trkpt lat="45.39639" lon="10.5629467"><ele>102.0</ele><time>2026-04-18T09:27:33.732Z</time></trkpt><trkpt lat="45.3963267" lon="10.5631067"><ele>101.8</ele><time>2026-04-18T09:27:34.737Z</time></trkpt><trkpt lat="45.3962683" lon="10.5632483"><ele>101.6</ele><time>2026-04-18T09:27:35.738Z</time></trkpt><trkpt lat="45.3962233" lon="10.5633733"><ele>101.39999999999999</ele><time>2026-04-18T09:27:36.736Z</time></trkpt><trkpt lat="45.396175" lon="10.5634633"><ele>101.19999999999999</ele><time>2026-04-18T09:27:37.728Z</time></trkpt><trkpt lat="45.3961467" lon="10.5636033"><ele>101.0</ele><time>2026-04-18T09:27:39.727Z</time></trkpt><trkpt lat="45.3962117" lon="10.5637817"><ele>100.99999999999999</ele><time>2026-04-18T09:27:41.723Z</time></trkpt><trkpt lat="45.3962667" lon="10.5638717"><ele>101.0</ele><time>2026-04-18T09:27:42.74Z</time></trkpt><trkpt lat="45.396335" lon="10.5639717"><ele>101.0</ele><time>2026-04-18T09:27:43.738Z</time></trkpt><trkpt lat="45.3964017" lon="10.56407"><ele>101.0</ele><time>2026-04-18T09:27:44.73Z</time></trkpt><trkpt lat="45.396455" lon="10.5641533"><ele>100.99999999999999</ele><time>2026-04-18T09:27:45.728Z</time></trkpt><trkpt lat="45.39645" lon="10.5642467"><ele>101.0</ele><time>2026-04-18T09:27:47.727Z</time></trkpt><trkpt lat="45.396375" lon="10.5643183"><ele>101.0</ele><time>2026-04-18T09:27:49.732Z</time></trkpt><trkpt lat="45.39632" lon="10.5643683"><ele>101.0</ele><time>2026-04-18T09:27:50.731Z</time></trkpt><trkpt lat="45.39622" lon="10.5644233"><ele>101.0</ele><time>2026-04-18T09:27:51.726Z</time></trkpt><trkpt lat="45.3961217" lon="10.5644967"><ele>101.0</ele><time>2026-04-18T09:27:52.731Z</time></trkpt><trkpt lat="45.3960017" lon="10.5645683"><ele>101.0</ele><time>2026-04-18T09:27:53.731Z</time></trkpt><trkpt lat="45.3958733" lon="10.5646867"><ele>101.0</ele><time>2026-04-18T09:27:54.735Z</time></trkpt><trkpt lat="45.3957283" lon="10.5647917"><ele>101.0</ele><time>2026-04-18T09:27:55.73Z</time></trkpt><trkpt lat="45.3955967" lon="10.5649033"><ele>101.0</ele><time>2026-04-18T09:27:56.735Z</time></trkpt><trkpt lat="45.395465" lon="10.565015"><ele>101.19999999999999</ele><time>2026-04-18T09:27:57.726Z</time></trkpt><trkpt lat="45.3953533" lon="10.5651233"><ele>101.39999999999999</ele><time>2026-04-18T09:27:58.733Z</time></trkpt><trkpt lat="45.39527" lon="10.5651917"><ele>101.6</ele><time>2026-04-18T09:27:59.745Z</time></trkpt><trkpt lat="45.3951867" lon="10.56525"><ele>101.8</ele><time>2026-04-18T09:28:00.731Z</time></trkpt><trkpt lat="45.39511" lon="10.5653067"><ele>102.0</ele><time>2026-04-18T09:28:01.726Z</time></trkpt><trkpt lat="45.3950483" lon="10.5653967"><ele>101.5</ele><time>2026-04-18T09:28:02.736Z</time></trkpt><trkpt lat="45.3949717" lon="10.5654917"><ele>101.0</ele><time>2026-04-18T09:28:03.732Z</time></trkpt><trkpt lat="45.39492" lon="10.565615"><ele>100.5</ele><time>2026-04-18T09:28:04.731Z</time></trkpt><trkpt lat="45.39488" lon="10.5657883"><ele>100.0</ele><time>2026-04-18T09:28:05.732Z</time></trkpt><trkpt lat="45.3948183" lon="10.5659367"><ele>100.0</ele><time>2026-04-18T09:28:06.735Z</time></trkpt><trkpt lat="45.3947267" lon="10.566075"><ele>100.0</ele><time>2026-04-18T09:28:07.726Z</time></trkpt><trkpt lat="45.394625" lon="10.5662033"><ele>100.0</ele><time>2026-04-18T09:28:08.731Z</time></trkpt><trkpt lat="45.394535" lon="10.5663283"><ele>100.0</ele><time>2026-04-18T09:28:09.732Z</time></trkpt><trkpt lat="45.39444" lon="10.5664767"><ele>100.33333333333334</ele><time>2026-04-18T09:28:10.731Z</time></trkpt><trkpt lat="45.3943433" lon="10.5666217"><ele>100.66666666666666</ele><time>2026-04-18T09:28:11.733Z</time></trkpt><trkpt lat="45.3942383" lon="10.5667783"><ele>101.0</ele><time>2026-04-18T09:28:12.741Z</time></trkpt><trkpt lat="45.39412" lon="10.56694"><ele>100.75</ele><time>2026-04-18T09:28:13.736Z</time></trkpt><trkpt lat="45.394015" lon="10.5670883"><ele>100.5</ele><time>2026-04-18T09:28:14.733Z</time></trkpt><trkpt lat="45.3939133" lon="10.5672533"><ele>100.25</ele><time>2026-04-18T09:28:15.731Z</time></trkpt><trkpt lat="45.39382" lon="10.5674067"><ele>100.0</ele><time>2026-04-18T09:28:16.726Z</time></trkpt><trkpt lat="45.393735" lon="10.5675283"><ele>100.0</ele><time>2026-04-18T09:28:17.724Z</time></trkpt><trkpt lat="45.393665" lon="10.5676417"><ele>100.0</ele><time>2026-04-18T09:28:18.735Z</time></trkpt><trkpt lat="45.39359" lon="10.5677433"><ele>100.0</ele><time>2026-04-18T09:28:19.724Z</time></trkpt><trkpt lat="45.3935367" lon="10.567835"><ele>100.0</ele><time>2026-04-18T09:28:20.724Z</time></trkpt><trkpt lat="45.3934233" lon="10.5679583"><ele>100.0</ele><time>2026-04-18T09:28:22.731Z</time></trkpt><trkpt lat="45.3933317" lon="10.5679583"><ele>100.0</ele><time>2026-04-18T09:28:24.732Z</time></trkpt><trkpt lat="45.3932283" lon="10.5678317"><ele>100.0</ele><time>2026-04-18T09:28:26.729Z</time></trkpt><trkpt lat="45.3931583" lon="10.5677217"><ele>100.0</ele><time>2026-04-18T09:28:27.73Z</time></trkpt><trkpt lat="45.3930783" lon="10.5675933"><ele>100.0</ele><time>2026-04-18T09:28:28.732Z</time></trkpt><trkpt lat="45.3929883" lon="10.5674333"><ele>100.0</ele><time>2026-04-18T09:28:29.724Z</time></trkpt><trkpt lat="45.3928933" lon="10.56728"><ele>100.0</ele><time>2026-04-18T09:28:30.738Z</time></trkpt><trkpt lat="45.3928" lon="10.56715"><ele>100.0</ele><time>2026-04-18T09:28:31.73Z</time></trkpt><trkpt lat="45.3927233" lon="10.5670167"><ele>100.0</ele><time>2026-04-18T09:28:32.73Z</time></trkpt><trkpt lat="45.3926667" lon="10.5669017"><ele>100.4</ele><time>2026-04-18T09:28:33.728Z</time></trkpt><trkpt lat="45.3926" lon="10.566755"><ele>100.8</ele><time>2026-04-18T09:28:34.739Z</time></trkpt><trkpt lat="45.3925433" lon="10.566625"><ele>101.19999999999999</ele><time>2026-04-18T09:28:35.726Z</time></trkpt><trkpt lat="45.3925" lon="10.5665433"><ele>101.6</ele><time>2026-04-18T09:28:36.731Z</time></trkpt><trkpt lat="45.39244" lon="10.56648"><ele>102.0</ele><time>2026-04-18T09:28:37.733Z</time></trkpt><trkpt lat="45.3923567" lon="10.56643"><ele>102.0</ele><time>2026-04-18T09:28:39.725Z</time></trkpt><trkpt lat="45.39224" lon="10.56653"><ele>102.0</ele><time>2026-04-18T09:28:41.724Z</time></trkpt><trkpt lat="45.39217" lon="10.5666117"><ele>102.0</ele><time>2026-04-18T09:28:42.73Z</time></trkpt><trkpt lat="45.392095" lon="10.56671"><ele>102.0</ele><time>2026-04-18T09:28:43.733Z</time></trkpt><trkpt lat="45.39203" lon="10.56683"><ele>102.0</ele><time>2026-04-18T09:28:44.751Z</time></trkpt><trkpt lat="45.3919533" lon="10.5669083"><ele>102.16666666666667</ele><time>2026-04-18T09:28:45.724Z</time></trkpt><trkpt lat="45.3918933" lon="10.56698"><ele>102.33333333333334</ele><time>2026-04-18T09:28:46.734Z</time></trkpt><trkpt lat="45.3918417" lon="10.5670467"><ele>102.5</ele><time>2026-04-18T09:28:47.733Z</time></trkpt><trkpt lat="45.3917483" lon="10.56712"><ele>102.66666666666667</ele><time>2026-04-18T09:28:49.726Z</time></trkpt><trkpt lat="45.3916667" lon="10.5670933"><ele>102.83333333333334</ele><time>2026-04-18T09:28:51.727Z</time></trkpt><trkpt lat="45.3916067" lon="10.5669717"><ele>103.0</ele><time>2026-04-18T09:28:53.732Z</time></trkpt><trkpt lat="45.3915767" lon="10.5668883"><ele>103.66666666666667</ele><time>2026-04-18T09:28:54.741Z</time></trkpt><trkpt lat="45.391555" lon="10.5668"><ele>104.33333333333334</ele><time>2026-04-18T09:28:55.728Z</time></trkpt><trkpt lat="45.3914817" lon="10.5666417"><ele>105.0</ele><time>2026-04-18T09:28:57.771Z</time></trkpt><trkpt lat="45.3914367" lon="10.5665683"><ele>105.66666666666666</ele><time>2026-04-18T09:28:58.744Z</time></trkpt><trkpt lat="45.3913867" lon="10.5665"><ele>106.33333333333333</ele><time>2026-04-18T09:28:59.728Z</time></trkpt><trkpt lat="45.39134" lon="10.566425"><ele>107.0</ele><time>2026-04-18T09:29:00.732Z</time></trkpt><trkpt lat="45.391295" lon="10.5663483"><ele>107.33333333333333</ele><time>2026-04-18T09:29:01.729Z</time></trkpt><trkpt lat="45.3912517" lon="10.5662683"><ele>107.66666666666666</ele><time>2026-04-18T09:29:02.727Z</time></trkpt><trkpt lat="45.3912083" lon="10.5661883"><ele>108.0</ele><time>2026-04-18T09:29:03.736Z</time></trkpt><trkpt lat="45.39116" lon="10.5661"><ele>108.33333333333334</ele><time>2026-04-18T09:29:04.739Z</time></trkpt><trkpt lat="45.39111" lon="10.566005"><ele>108.66666666666667</ele><time>2026-04-18T09:29:05.725Z</time></trkpt><trkpt lat="45.3910667" lon="10.5658933"><ele>109.0</ele><time>2026-04-18T09:29:06.739Z</time></trkpt><trkpt lat="45.39102" lon="10.5657933"><ele>110.33333333333334</ele><time>2026-04-18T09:29:07.728Z</time></trkpt><trkpt lat="45.3909767" lon="10.5656917"><ele>111.66666666666667</ele><time>2026-04-18T09:29:08.735Z</time></trkpt><trkpt lat="45.39093" lon="10.56559"><ele>113.0</ele><time>2026-04-18T09:29:09.727Z</time></trkpt><trkpt lat="45.39088" lon="10.5654933"><ele>114.33333333333334</ele><time>2026-04-18T09:29:10.734Z</time></trkpt><trkpt lat="45.390825" lon="10.5654083"><ele>115.66666666666667</ele><time>2026-04-18T09:29:11.725Z</time></trkpt><trkpt lat="45.3907633" lon="10.565305"><ele>117.0</ele><time>2026-04-18T09:29:13.731Z</time></trkpt><trkpt lat="45.3906983" lon="10.5654333"><ele>117.0</ele><time>2026-04-18T09:29:21.722Z</time></trkpt><trkpt lat="45.39069" lon="10.56555"><ele>116.99999999999999</ele><time>2026-04-18T09:31:11.736Z</time></trkpt><trkpt lat="45.3906067" lon="10.5656483"><ele>116.99999999999999</ele><time>2026-04-18T09:31:13.724Z</time></trkpt><trkpt lat="45.3905467" lon="10.5657483"><ele>117.0</ele><time>2026-04-18T09:31:14.726Z</time></trkpt><trkpt lat="45.390475" lon="10.565885"><ele>117.0</ele><time>2026-04-18T09:31:15.726Z</time></trkpt><trkpt lat="45.3903783" lon="10.56606"><ele>116.0</ele><time>2026-04-18T09:31:16.731Z</time></trkpt><trkpt lat="45.3902833" lon="10.5662083"><ele>115.0</ele><time>2026-04-18T09:31:17.728Z</time></trkpt><trkpt lat="45.3901733" lon="10.5663583"><ele>114.0</ele><time>2026-04-18T09:31:18.74Z</time></trkpt><trkpt lat="45.39008" lon="10.56648"><ele>113.0</ele><time>2026-04-18T09:31:19.737Z</time></trkpt><trkpt lat="45.389995" lon="10.5665767"><ele>113.0</ele><time>2026-04-18T09:31:20.752Z</time></trkpt><trkpt lat="45.3898967" lon="10.56667"><ele>113.0</ele><time>2026-04-18T09:31:21.735Z</time></trkpt><trkpt lat="45.38977" lon="10.56675"><ele>113.0</ele><time>2026-04-18T09:31:22.736Z</time></trkpt><trkpt lat="45.3896433" lon="10.56681"><ele>113.0</ele><time>2026-04-18T09:31:23.723Z</time></trkpt><trkpt lat="45.3895067" lon="10.5669067"><ele>113.33333333333333</ele><time>2026-04-18T09:31:24.74Z</time></trkpt><trkpt lat="45.38935" lon="10.566985"><ele>113.66666666666666</ele><time>2026-04-18T09:31:25.73Z</time></trkpt><trkpt lat="45.3892017" lon="10.56709"><ele>114.0</ele><time>2026-04-18T09:31:26.737Z</time></trkpt><trkpt lat="45.3890783" lon="10.5671667"><ele>114.0</ele><time>2026-04-18T09:31:27.731Z</time></trkpt><trkpt lat="45.3889683" lon="10.5672517"><ele>114.0</ele><time>2026-04-18T09:31:28.735Z</time></trkpt><trkpt lat="45.388865" lon="10.5673917"><ele>114.0</ele><time>2026-04-18T09:31:29.727Z</time></trkpt><trkpt lat="45.3887683" lon="10.5675483"><ele>114.0</ele><time>2026-04-18T09:31:30.735Z</time></trkpt><trkpt lat="45.388655" lon="10.5677067"><ele>114.0</ele><time>2026-04-18T09:31:31.734Z</time></trkpt><trkpt lat="45.38852" lon="10.5678417"><ele>114.0</ele><time>2026-04-18T09:31:32.734Z</time></trkpt><trkpt lat="45.38838" lon="10.5679667"><ele>114.0</ele><time>2026-04-18T09:31:33.731Z</time></trkpt><trkpt lat="45.3882383" lon="10.5680783"><ele>113.66666666666666</ele><time>2026-04-18T09:31:34.727Z</time></trkpt><trkpt lat="45.3881017" lon="10.5682"><ele>113.33333333333333</ele><time>2026-04-18T09:31:35.726Z</time></trkpt><trkpt lat="45.3879817" lon="10.5683267"><ele>113.0</ele><time>2026-04-18T09:31:36.733Z</time></trkpt><trkpt lat="45.3878367" lon="10.5684283"><ele>113.0</ele><time>2026-04-18T09:31:37.732Z</time></trkpt><trkpt lat="45.3877067" lon="10.56852"><ele>113.0</ele><time>2026-04-18T09:31:38.732Z</time></trkpt><trkpt lat="45.3875717" lon="10.5686367"><ele>113.0</ele><time>2026-04-18T09:31:39.73Z</time></trkpt><trkpt lat="45.38746" lon="10.56874"><ele>113.0</ele><time>2026-04-18T09:31:40.728Z</time></trkpt><trkpt lat="45.3873517" lon="10.5688767"><ele>113.0</ele><time>2026-04-18T09:31:41.736Z</time></trkpt><trkpt lat="45.3872533" lon="10.568955"><ele>113.0</ele><time>2026-04-18T09:31:42.745Z</time></trkpt><trkpt lat="45.3871633" lon="10.5690333"><ele>113.0</ele><time>2026-04-18T09:31:43.728Z</time></trkpt><trkpt lat="45.387065" lon="10.5691267"><ele>113.0</ele><time>2026-04-18T09:31:44.735Z</time></trkpt><trkpt lat="45.38696" lon="10.5692417"><ele>113.0</ele><time>2026-04-18T09:31:45.729Z</time></trkpt><trkpt lat="45.3868567" lon="10.5693817"><ele>113.0</ele><time>2026-04-18T09:31:46.735Z</time></trkpt><trkpt lat="45.3867683" lon="10.5695517"><ele>113.0</ele><time>2026-04-18T09:31:47.735Z</time></trkpt><trkpt lat="45.38668" lon="10.5697083"><ele>113.0</ele><time>2026-04-18T09:31:48.737Z</time></trkpt><trkpt lat="45.38662" lon="10.5698883"><ele>113.0</ele><time>2026-04-18T09:31:49.732Z</time></trkpt><trkpt lat="45.386545" lon="10.57002"><ele>113.0</ele><time>2026-04-18T09:31:50.733Z</time></trkpt><trkpt lat="45.3864667" lon="10.57014"><ele>113.0</ele><time>2026-04-18T09:31:51.727Z</time></trkpt><trkpt lat="45.3863967" lon="10.57028"><ele>113.0</ele><time>2026-04-18T09:31:52.728Z</time></trkpt><trkpt lat="45.3863483" lon="10.5704583"><ele>112.0</ele><time>2026-04-18T09:31:53.731Z</time></trkpt><trkpt lat="45.3863" lon="10.5706467"><ele>111.0</ele><time>2026-04-18T09:31:54.737Z</time></trkpt><trkpt lat="45.3862783" lon="10.5708017"><ele>110.0</ele><time>2026-04-18T09:31:55.734Z</time></trkpt><trkpt lat="45.38628" lon="10.5709433"><ele>109.0</ele><time>2026-04-18T09:31:56.737Z</time></trkpt><trkpt lat="45.3862517" lon="10.5710867"><ele>108.83333333333334</ele><time>2026-04-18T09:31:57.726Z</time></trkpt><trkpt lat="45.386225" lon="10.5712033"><ele>108.66666666666667</ele><time>2026-04-18T09:31:58.733Z</time></trkpt><trkpt lat="45.3862067" lon="10.5713233"><ele>108.5</ele><time>2026-04-18T09:31:59.732Z</time></trkpt><trkpt lat="45.3861883" lon="10.571435"><ele>108.33333333333334</ele><time>2026-04-18T09:32:00.738Z</time></trkpt><trkpt lat="45.38618" lon="10.57154"><ele>108.16666666666667</ele><time>2026-04-18T09:32:01.729Z</time></trkpt><trkpt lat="45.3861767" lon="10.5716417"><ele>108.0</ele><time>2026-04-18T09:32:02.746Z</time></trkpt><trkpt lat="45.3861883" lon="10.57174"><ele>108.0</ele><time>2026-04-18T09:32:03.722Z</time></trkpt><trkpt lat="45.3862133" lon="10.5718433"><ele>108.0</ele><time>2026-04-18T09:32:04.737Z</time></trkpt><trkpt lat="45.38625" lon="10.5719317"><ele>108.0</ele><time>2026-04-18T09:32:05.731Z</time></trkpt><trkpt lat="45.386295" lon="10.5720183"><ele>108.0</ele><time>2026-04-18T09:32:06.741Z</time></trkpt><trkpt lat="45.3863567" lon="10.57209"><ele>108.0</ele><time>2026-04-18T09:32:07.728Z</time></trkpt><trkpt lat="45.3864233" lon="10.572145"><ele>108.0</ele><time>2026-04-18T09:32:08.739Z</time></trkpt><trkpt lat="45.3864933" lon="10.57219"><ele>107.0</ele><time>2026-04-18T09:32:09.735Z</time></trkpt><trkpt lat="45.3865583" lon="10.57223"><ele>106.00000000000001</ele><time>2026-04-18T09:32:10.729Z</time></trkpt><trkpt lat="45.3866517" lon="10.5723267"><ele>105.0</ele><time>2026-04-18T09:32:12.744Z</time></trkpt><trkpt lat="45.3866633" lon="10.5724667"><ele>104.0</ele><time>2026-04-18T09:32:14.735Z</time></trkpt><trkpt lat="45.38661" lon="10.5726"><ele>103.0</ele><time>2026-04-18T09:32:16.729Z</time></trkpt><trkpt lat="45.3865533" lon="10.5726683"><ele>103.00000000000001</ele><time>2026-04-18T09:32:17.726Z</time></trkpt><trkpt lat="45.3864983" lon="10.572745"><ele>103.0</ele><time>2026-04-18T09:32:18.74Z</time></trkpt><trkpt lat="45.3864467" lon="10.572825"><ele>103.0</ele><time>2026-04-18T09:32:19.739Z</time></trkpt><trkpt lat="45.3864283" lon="10.5729317"><ele>103.0</ele><time>2026-04-18T09:32:20.725Z</time></trkpt><trkpt lat="45.38642" lon="10.573045"><ele>103.00000000000001</ele><time>2026-04-18T09:32:21.737Z</time></trkpt><trkpt lat="45.3864317" lon="10.573185"><ele>103.0</ele><time>2026-04-18T09:32:22.731Z</time></trkpt><trkpt lat="45.3864517" lon="10.5733383"><ele>103.0</ele><time>2026-04-18T09:32:23.725Z</time></trkpt><trkpt lat="45.3864767" lon="10.57351"><ele>103.0</ele><time>2026-04-18T09:32:24.743Z</time></trkpt><trkpt lat="45.386505" lon="10.57372"><ele>103.0</ele><time>2026-04-18T09:32:25.725Z</time></trkpt><trkpt lat="45.3865317" lon="10.5739317"><ele>103.0</ele><time>2026-04-18T09:32:26.727Z</time></trkpt><trkpt lat="45.3865467" lon="10.57408"><ele>102.80000000000001</ele><time>2026-04-18T09:32:27.724Z</time></trkpt><trkpt lat="45.3865817" lon="10.57424"><ele>102.6</ele><time>2026-04-18T09:32:28.734Z</time></trkpt><trkpt lat="45.38659" lon="10.574375"><ele>102.4</ele><time>2026-04-18T09:32:29.727Z</time></trkpt><trkpt lat="45.38658" lon="10.5745217"><ele>102.19999999999999</ele><time>2026-04-18T09:32:30.732Z</time></trkpt><trkpt lat="45.38655" lon="10.5746233"><ele>102.0</ele><time>2026-04-18T09:32:31.731Z</time></trkpt><trkpt lat="45.386515" lon="10.5747433"><ele>101.8</ele><time>2026-04-18T09:32:32.73Z</time></trkpt><trkpt lat="45.3864617" lon="10.5748533"><ele>101.6</ele><time>2026-04-18T09:32:33.727Z</time></trkpt><trkpt lat="45.3864017" lon="10.574955"><ele>101.39999999999999</ele><time>2026-04-18T09:32:34.736Z</time></trkpt><trkpt lat="45.386325" lon="10.5750467"><ele>101.19999999999999</ele><time>2026-04-18T09:32:35.727Z</time></trkpt><trkpt lat="45.38624" lon="10.5751383"><ele>101.0</ele><time>2026-04-18T09:32:36.737Z</time></trkpt><trkpt lat="45.3861567" lon="10.575265"><ele>102.0</ele><time>2026-04-18T09:32:37.731Z</time></trkpt><trkpt lat="45.38607" lon="10.57542"><ele>103.0</ele><time>2026-04-18T09:32:38.731Z</time></trkpt><trkpt lat="45.3859883" lon="10.5755867"><ele>104.0</ele><time>2026-04-18T09:32:39.731Z</time></trkpt><trkpt lat="45.38592" lon="10.5757517"><ele>105.0</ele><time>2026-04-18T09:32:40.735Z</time></trkpt><trkpt lat="45.3858583" lon="10.57593"><ele>105.0</ele><time>2026-04-18T09:32:41.733Z</time></trkpt><trkpt lat="45.3857983" lon="10.576145"><ele>105.0</ele><time>2026-04-18T09:32:42.734Z</time></trkpt><trkpt lat="45.3857367" lon="10.576375"><ele>105.0</ele><time>2026-04-18T09:32:43.732Z</time></trkpt><trkpt lat="45.3856717" lon="10.576585"><ele>105.66666666666666</ele><time>2026-04-18T09:32:44.732Z</time></trkpt><trkpt lat="45.3856583" lon="10.5767883"><ele>106.33333333333333</ele><time>2026-04-18T09:32:45.728Z</time></trkpt><trkpt lat="45.3856383" lon="10.5770033"><ele>107.0</ele><time>2026-04-18T09:32:46.734Z</time></trkpt><trkpt lat="45.3856133" lon="10.57722"><ele>107.0</ele><time>2026-04-18T09:32:47.728Z</time></trkpt><trkpt lat="45.3855817" lon="10.5774733"><ele>107.0</ele><time>2026-04-18T09:32:48.731Z</time></trkpt><trkpt lat="45.38555" lon="10.5776917"><ele>107.0</ele><time>2026-04-18T09:32:49.734Z</time></trkpt><trkpt lat="45.3855217" lon="10.5778883"><ele>106.8</ele><time>2026-04-18T09:32:50.737Z</time></trkpt><trkpt lat="45.3854883" lon="10.57808"><ele>106.6</ele><time>2026-04-18T09:32:51.736Z</time></trkpt><trkpt lat="45.3854517" lon="10.5782417"><ele>106.39999999999999</ele><time>2026-04-18T09:32:52.733Z</time></trkpt><trkpt lat="45.3854317" lon="10.5783717"><ele>106.19999999999999</ele><time>2026-04-18T09:32:53.733Z</time></trkpt><trkpt lat="45.3854217" lon="10.5784633"><ele>106.0</ele><time>2026-04-18T09:32:54.742Z</time></trkpt><trkpt lat="45.385415" lon="10.5786233"><ele>105.4</ele><time>2026-04-18T09:32:56.739Z</time></trkpt><trkpt lat="45.385475" lon="10.5787167"><ele>104.8</ele><time>2026-04-18T09:32:58.726Z</time></trkpt><trkpt lat="45.3855383" lon="10.578745"><ele>104.2</ele><time>2026-04-18T09:32:59.727Z</time></trkpt><trkpt lat="45.385625" lon="10.5787667"><ele>103.60000000000001</ele><time>2026-04-18T09:33:00.737Z</time></trkpt><trkpt lat="45.385735" lon="10.5787817"><ele>103.0</ele><time>2026-04-18T09:33:01.724Z</time></trkpt><trkpt lat="45.3858617" lon="10.5788117"><ele>102.5</ele><time>2026-04-18T09:33:02.734Z</time></trkpt><trkpt lat="45.3860067" lon="10.5788167"><ele>102.0</ele><time>2026-04-18T09:33:03.729Z</time></trkpt><trkpt lat="45.3861417" lon="10.5788417"><ele>101.5</ele><time>2026-04-18T09:33:04.736Z</time></trkpt><trkpt lat="45.3862767" lon="10.5788717"><ele>101.0</ele><time>2026-04-18T09:33:05.726Z</time></trkpt><trkpt lat="45.386405" lon="10.57889"><ele>101.0</ele><time>2026-04-18T09:33:06.739Z</time></trkpt><trkpt lat="45.3865317" lon="10.5789233"><ele>101.0</ele><time>2026-04-18T09:33:07.732Z</time></trkpt><trkpt lat="45.38666" lon="10.5789267"><ele>101.0</ele><time>2026-04-18T09:33:08.73Z</time></trkpt><trkpt lat="45.3867933" lon="10.5789433"><ele>101.0</ele><time>2026-04-18T09:33:09.732Z</time></trkpt><trkpt lat="45.3869" lon="10.5789933"><ele>101.0</ele><time>2026-04-18T09:33:10.724Z</time></trkpt><trkpt lat="45.3870283" lon="10.5790383"><ele>101.0</ele><time>2026-04-18T09:33:11.727Z</time></trkpt><trkpt lat="45.387155" lon="10.5790833"><ele>101.0</ele><time>2026-04-18T09:33:12.737Z</time></trkpt><trkpt lat="45.387305" lon="10.579125"><ele>101.0</ele><time>2026-04-18T09:33:13.729Z</time></trkpt><trkpt lat="45.3874483" lon="10.5791967"><ele>100.66666666666666</ele><time>2026-04-18T09:33:14.746Z</time></trkpt><trkpt lat="45.3876033" lon="10.579245"><ele>100.33333333333334</ele><time>2026-04-18T09:33:15.735Z</time></trkpt><trkpt lat="45.387755" lon="10.5793133"><ele>100.0</ele><time>2026-04-18T09:33:16.735Z</time></trkpt><trkpt lat="45.3879067" lon="10.579365"><ele>100.66666666666667</ele><time>2026-04-18T09:33:17.729Z</time></trkpt><trkpt lat="45.3880567" lon="10.5794117"><ele>101.33333333333334</ele><time>2026-04-18T09:33:18.727Z</time></trkpt><trkpt lat="45.3881967" lon="10.5794717"><ele>102.0</ele><time>2026-04-18T09:33:19.731Z</time></trkpt><trkpt lat="45.38835" lon="10.5795383"><ele>102.0</ele><time>2026-04-18T09:33:20.73Z</time></trkpt><trkpt lat="45.38849" lon="10.5795867"><ele>102.0</ele><time>2026-04-18T09:33:21.733Z</time></trkpt><trkpt lat="45.3886167" lon="10.5796417"><ele>102.0</ele><time>2026-04-18T09:33:22.737Z</time></trkpt><trkpt lat="45.3887317" lon="10.5796867"><ele>102.0</ele><time>2026-04-18T09:33:23.727Z</time></trkpt><trkpt lat="45.388845" lon="10.579725"><ele>103.0</ele><time>2026-04-18T09:33:24.734Z</time></trkpt><trkpt lat="45.3889483" lon="10.5797667"><ele>104.0</ele><time>2026-04-18T09:33:25.728Z</time></trkpt><trkpt lat="45.38903" lon="10.57981"><ele>104.99999999999999</ele><time>2026-04-18T09:33:26.744Z</time></trkpt><trkpt lat="45.38911" lon="10.5798317"><ele>106.0</ele><time>2026-04-18T09:33:27.724Z</time></trkpt><trkpt lat="45.3892133" lon="10.5798867"><ele>107.0</ele><time>2026-04-18T09:33:29.726Z</time></trkpt><trkpt lat="45.389255" lon="10.5799567"><ele>107.0</ele><time>2026-04-18T09:33:32.74Z</time></trkpt><trkpt lat="45.3892217" lon="10.5800733"><ele>106.99999999999999</ele><time>2026-04-18T09:33:34.735Z</time></trkpt><trkpt lat="45.3891917" lon="10.5801733"><ele>106.99999999999999</ele><time>2026-04-18T09:33:35.74Z</time></trkpt><trkpt lat="45.3891567" lon="10.5802983"><ele>107.0</ele><time>2026-04-18T09:33:36.729Z</time></trkpt><trkpt lat="45.3891033" lon="10.5804433"><ele>107.0</ele><time>2026-04-18T09:33:37.733Z</time></trkpt><trkpt lat="45.3890617" lon="10.5806083"><ele>107.0</ele><time>2026-04-18T09:33:38.73Z</time></trkpt><trkpt lat="45.3890233" lon="10.5807867"><ele>107.0</ele><time>2026-04-18T09:33:39.742Z</time></trkpt><trkpt lat="45.3889833" lon="10.5809917"><ele>107.0</ele><time>2026-04-18T09:33:40.74Z</time></trkpt><trkpt lat="45.388935" lon="10.5811683"><ele>107.0</ele><time>2026-04-18T09:33:41.741Z</time></trkpt><trkpt lat="45.388895" lon="10.58135"><ele>107.66666666666666</ele><time>2026-04-18T09:33:42.735Z</time></trkpt><trkpt lat="45.3888567" lon="10.5815467"><ele>108.33333333333334</ele><time>2026-04-18T09:33:43.735Z</time></trkpt><trkpt lat="45.38881" lon="10.5817583"><ele>109.0</ele><time>2026-04-18T09:33:44.737Z</time></trkpt><trkpt lat="45.38877" lon="10.5819667"><ele>107.5</ele><time>2026-04-18T09:33:45.741Z</time></trkpt><trkpt lat="45.3887283" lon="10.5821867"><ele>106.0</ele><time>2026-04-18T09:33:46.727Z</time></trkpt><trkpt lat="45.3887033" lon="10.582395"><ele>104.5</ele><time>2026-04-18T09:33:47.735Z</time></trkpt><trkpt lat="45.3886767" lon="10.5825683"><ele>103.0</ele><time>2026-04-18T09:33:48.736Z</time></trkpt><trkpt lat="45.3886617" lon="10.5827217"><ele>103.0</ele><time>2026-04-18T09:33:49.735Z</time></trkpt><trkpt lat="45.3886417" lon="10.5828367"><ele>103.0</ele><time>2026-04-18T09:33:51.74Z</time></trkpt><trkpt lat="45.38872" lon="10.5829017"><ele>103.0</ele><time>2026-04-18T09:33:54.738Z</time></trkpt><trkpt lat="45.3887917" lon="10.58291"><ele>103.0</ele><time>2026-04-18T09:33:55.729Z</time></trkpt><trkpt lat="45.3888933" lon="10.5829167"><ele>103.0</ele><time>2026-04-18T09:33:56.729Z</time></trkpt><trkpt lat="45.3890033" lon="10.5829217"><ele>104.4</ele><time>2026-04-18T09:33:57.737Z</time></trkpt><trkpt lat="45.3891017" lon="10.5829433"><ele>105.80000000000001</ele><time>2026-04-18T09:33:58.736Z</time></trkpt><trkpt lat="45.3891983" lon="10.5829717"><ele>107.2</ele><time>2026-04-18T09:33:59.736Z</time></trkpt><trkpt lat="45.3892967" lon="10.5829883"><ele>108.6</ele><time>2026-04-18T09:34:00.736Z</time></trkpt><trkpt lat="45.3893817" lon="10.5830083"><ele>110.0</ele><time>2026-04-18T09:34:01.739Z</time></trkpt><trkpt lat="45.38947" lon="10.5829933"><ele>110.0</ele><time>2026-04-18T09:34:02.733Z</time></trkpt><trkpt lat="45.389555" lon="10.5829733"><ele>110.0</ele><time>2026-04-18T09:34:03.734Z</time></trkpt><trkpt lat="45.3896583" lon="10.5829733"><ele>110.0</ele><time>2026-04-18T09:34:04.732Z</time></trkpt><trkpt lat="45.389795" lon="10.5829733"><ele>110.0</ele><time>2026-04-18T09:34:05.729Z</time></trkpt><trkpt lat="45.38987" lon="10.5830017"><ele>110.0</ele><time>2026-04-18T09:34:06.748Z</time></trkpt><trkpt lat="45.389935" lon="10.5830217"><ele>111.66666666666666</ele><time>2026-04-18T09:34:07.738Z</time></trkpt><trkpt lat="45.39002" lon="10.583055"><ele>113.33333333333333</ele><time>2026-04-18T09:34:09.729Z</time></trkpt><trkpt lat="45.3900233" lon="10.58322"><ele>115.0</ele><time>2026-04-18T09:34:19.731Z</time></trkpt><trkpt lat="45.3899833" lon="10.5832917"><ele>116.66666666666666</ele><time>2026-04-18T09:34:20.727Z</time></trkpt><trkpt lat="45.3899383" lon="10.5833933"><ele>118.33333333333333</ele><time>2026-04-18T09:34:21.735Z</time></trkpt><trkpt lat="45.389915" lon="10.583485"><ele>120.0</ele><time>2026-04-18T09:34:22.732Z</time></trkpt><trkpt lat="45.3899167" lon="10.5836267"><ele>119.8</ele><time>2026-04-18T09:34:24.728Z</time></trkpt><trkpt lat="45.3899567" lon="10.5837433"><ele>119.6</ele><time>2026-04-18T09:34:26.737Z</time></trkpt><trkpt lat="45.3900317" lon="10.583865"><ele>119.4</ele><time>2026-04-18T09:34:28.722Z</time></trkpt><trkpt lat="45.390145" lon="10.5839483"><ele>119.2</ele><time>2026-04-18T09:34:30.743Z</time></trkpt><trkpt lat="45.3902133" lon="10.58397"><ele>119.0</ele><time>2026-04-18T09:34:31.723Z</time></trkpt><trkpt lat="45.3902933" lon="10.5839833"><ele>119.0</ele><time>2026-04-18T09:34:32.731Z</time></trkpt><trkpt lat="45.39038" lon="10.583995"><ele>119.0</ele><time>2026-04-18T09:34:33.731Z</time></trkpt><trkpt lat="45.3904833" lon="10.5839917"><ele>119.0</ele><time>2026-04-18T09:34:34.735Z</time></trkpt><trkpt lat="45.390605" lon="10.58397"><ele>119.0</ele><time>2026-04-18T09:34:35.731Z</time></trkpt><trkpt lat="45.3907217" lon="10.583965"><ele>119.0</ele><time>2026-04-18T09:34:36.735Z</time></trkpt><trkpt lat="45.3908433" lon="10.583955"><ele>119.0</ele><time>2026-04-18T09:34:37.732Z</time></trkpt><trkpt lat="45.3909383" lon="10.58397"><ele>119.0</ele><time>2026-04-18T09:34:38.741Z</time></trkpt><trkpt lat="45.39103" lon="10.5839683"><ele>119.0</ele><time>2026-04-18T09:34:39.742Z</time></trkpt><trkpt lat="45.39113" lon="10.584"><ele>119.0</ele><time>2026-04-18T09:34:40.725Z</time></trkpt><trkpt lat="45.39133" lon="10.58418"><ele>118.2</ele><time>2026-04-18T09:34:42.732Z</time></trkpt><trkpt lat="45.3914267" lon="10.58429"><ele>117.4</ele><time>2026-04-18T09:34:43.728Z</time></trkpt><trkpt lat="45.3915017" lon="10.5843933"><ele>116.6</ele><time>2026-04-18T09:34:44.729Z</time></trkpt><trkpt lat="45.3915833" lon="10.5845017"><ele>115.8</ele><time>2026-04-18T09:34:45.745Z</time></trkpt><trkpt lat="45.3916733" lon="10.58459"><ele>115.0</ele><time>2026-04-18T09:34:46.735Z</time></trkpt><trkpt lat="45.3917283" lon="10.584695"><ele>115.0</ele><time>2026-04-18T09:34:47.727Z</time></trkpt><trkpt lat="45.3917617" lon="10.5847983"><ele>115.0</ele><time>2026-04-18T09:34:48.732Z</time></trkpt><trkpt lat="45.3917817" lon="10.5849133"><ele>115.0</ele><time>2026-04-18T09:34:49.729Z</time></trkpt><trkpt lat="45.3917867" lon="10.5850433"><ele>115.0</ele><time>2026-04-18T09:34:50.739Z</time></trkpt><trkpt lat="45.3917783" lon="10.5851817"><ele>115.0</ele><time>2026-04-18T09:34:51.731Z</time></trkpt><trkpt lat="45.3917517" lon="10.5853433"><ele>115.0</ele><time>2026-04-18T09:34:52.727Z</time></trkpt><trkpt lat="45.3917283" lon="10.585505"><ele>115.0</ele><time>2026-04-18T09:34:53.734Z</time></trkpt><trkpt lat="45.3917" lon="10.585695"><ele>115.0</ele><time>2026-04-18T09:34:54.739Z</time></trkpt><trkpt lat="45.3916783" lon="10.5858483"><ele>115.0</ele><time>2026-04-18T09:34:55.74Z</time></trkpt><trkpt lat="45.391665" lon="10.5859817"><ele>115.0</ele><time>2026-04-18T09:34:56.734Z</time></trkpt><trkpt lat="45.3916667" lon="10.5860883"><ele>115.0</ele><time>2026-04-18T09:34:57.729Z</time></trkpt><trkpt lat="45.391645" lon="10.5862167"><ele>115.0</ele><time>2026-04-18T09:34:58.729Z</time></trkpt><trkpt lat="45.3916017" lon="10.5863267"><ele>115.0</ele><time>2026-04-18T09:34:59.731Z</time></trkpt><trkpt lat="45.3915467" lon="10.5864467"><ele>115.0</ele><time>2026-04-18T09:35:00.727Z</time></trkpt><trkpt lat="45.3914967" lon="10.5865683"><ele>115.0</ele><time>2026-04-18T09:35:01.735Z</time></trkpt><trkpt lat="45.3914317" lon="10.586655"><ele>115.0</ele><time>2026-04-18T09:35:02.745Z</time></trkpt><trkpt lat="45.3913867" lon="10.5867767"><ele>115.0</ele><time>2026-04-18T09:35:03.742Z</time></trkpt><trkpt lat="45.3913483" lon="10.5869033"><ele>115.0</ele><time>2026-04-18T09:35:04.741Z</time></trkpt><trkpt lat="45.3913167" lon="10.587045"><ele>115.0</ele><time>2026-04-18T09:35:05.734Z</time></trkpt><trkpt lat="45.3913133" lon="10.58715"><ele>115.00000000000001</ele><time>2026-04-18T09:35:06.726Z</time></trkpt><trkpt lat="45.391315" lon="10.5872533"><ele>115.0</ele><time>2026-04-18T09:35:07.732Z</time></trkpt><trkpt lat="45.391315" lon="10.5873517"><ele>115.0</ele><time>2026-04-18T09:35:08.728Z</time></trkpt><trkpt lat="45.3913717" lon="10.5875033"><ele>115.0</ele><time>2026-04-18T09:35:10.73Z</time></trkpt><trkpt lat="45.3914217" lon="10.58757"><ele>115.00000000000001</ele><time>2026-04-18T09:35:11.742Z</time></trkpt><trkpt lat="45.3914867" lon="10.5876317"><ele>115.0</ele><time>2026-04-18T09:35:12.736Z</time></trkpt><trkpt lat="45.391555" lon="10.5877033"><ele>115.0</ele><time>2026-04-18T09:35:13.727Z</time></trkpt><trkpt lat="45.3916217" lon="10.5877817"><ele>115.0</ele><time>2026-04-18T09:35:14.745Z</time></trkpt><trkpt lat="45.3916867" lon="10.5878667"><ele>115.0</ele><time>2026-04-18T09:35:15.731Z</time></trkpt><trkpt lat="45.39175" lon="10.587965"><ele>115.0</ele><time>2026-04-18T09:35:16.735Z</time></trkpt><trkpt lat="45.3918117" lon="10.5880933"><ele>115.0</ele><time>2026-04-18T09:35:17.731Z</time></trkpt><trkpt lat="45.3918717" lon="10.58822"><ele>115.6</ele><time>2026-04-18T09:35:18.727Z</time></trkpt><trkpt lat="45.3919067" lon="10.5883683"><ele>116.2</ele><time>2026-04-18T09:35:19.732Z</time></trkpt><trkpt lat="45.3919383" lon="10.5884783"><ele>116.80000000000001</ele><time>2026-04-18T09:35:20.733Z</time></trkpt><trkpt lat="45.3919617" lon="10.588565"><ele>117.4</ele><time>2026-04-18T09:35:21.749Z</time></trkpt><trkpt lat="45.3920183" lon="10.588675"><ele>118.0</ele><time>2026-04-18T09:35:23.727Z</time></trkpt><trkpt lat="45.3921433" lon="10.5886833"><ele>117.4</ele><time>2026-04-18T09:35:25.724Z</time></trkpt><trkpt lat="45.39223" lon="10.58867"><ele>116.80000000000001</ele><time>2026-04-18T09:35:26.729Z</time></trkpt><trkpt lat="45.3923233" lon="10.5886517"><ele>116.2</ele><time>2026-04-18T09:35:27.731Z</time></trkpt><trkpt lat="45.392415" lon="10.5886383"><ele>115.6</ele><time>2026-04-18T09:35:28.733Z</time></trkpt><trkpt lat="45.3925083" lon="10.5885983"><ele>115.0</ele><time>2026-04-18T09:35:29.727Z</time></trkpt><trkpt lat="45.3926267" lon="10.5885717"><ele>115.0</ele><time>2026-04-18T09:35:30.747Z</time></trkpt><trkpt lat="45.3927167" lon="10.588565"><ele>115.0</ele><time>2026-04-18T09:35:31.728Z</time></trkpt><trkpt lat="45.3928233" lon="10.5885683"><ele>115.0</ele><time>2026-04-18T09:35:32.73Z</time></trkpt><trkpt lat="45.3929317" lon="10.5885567"><ele>115.0</ele><time>2026-04-18T09:35:33.729Z</time></trkpt><trkpt lat="45.393035" lon="10.5885383"><ele>115.0</ele><time>2026-04-18T09:35:34.733Z</time></trkpt><trkpt lat="45.393135" lon="10.5885183"><ele>113.8</ele><time>2026-04-18T09:35:35.732Z</time></trkpt><trkpt lat="45.393245" lon="10.58849"><ele>112.6</ele><time>2026-04-18T09:35:36.734Z</time></trkpt><trkpt lat="45.3933283" lon="10.5884967"><ele>111.4</ele><time>2026-04-18T09:35:37.731Z</time></trkpt><trkpt lat="45.3934167" lon="10.5885117"><ele>110.2</ele><time>2026-04-18T09:35:38.727Z</time></trkpt><trkpt lat="45.3935217" lon="10.5884983"><ele>109.0</ele><time>2026-04-18T09:35:39.727Z</time></trkpt><trkpt lat="45.3936167" lon="10.5884817"><ele>109.00000000000001</ele><time>2026-04-18T09:35:40.731Z</time></trkpt><trkpt lat="45.3937183" lon="10.5884583"><ele>109.0</ele><time>2026-04-18T09:35:41.722Z</time></trkpt><trkpt lat="45.3938167" lon="10.5884517"><ele>109.0</ele><time>2026-04-18T09:35:42.735Z</time></trkpt><trkpt lat="45.3939033" lon="10.58844"><ele>109.0</ele><time>2026-04-18T09:35:43.729Z</time></trkpt><trkpt lat="45.39398" lon="10.5884283"><ele>109.00000000000001</ele><time>2026-04-18T09:35:44.737Z</time></trkpt><trkpt lat="45.394055" lon="10.58842"><ele>109.0</ele><time>2026-04-18T09:35:45.751Z</time></trkpt><trkpt lat="45.394125" lon="10.5884183"><ele>108.33333333333334</ele><time>2026-04-18T09:35:46.735Z</time></trkpt><trkpt lat="45.39419" lon="10.5884233"><ele>107.66666666666667</ele><time>2026-04-18T09:35:47.74Z</time></trkpt><trkpt lat="45.39429" lon="10.588445"><ele>107.0</ele><time>2026-04-18T09:35:49.73Z</time></trkpt><trkpt lat="45.394365" lon="10.588465"><ele>106.33333333333334</ele><time>2026-04-18T09:35:52.737Z</time></trkpt><trkpt lat="45.394465" lon="10.588495"><ele>105.66666666666667</ele><time>2026-04-18T09:36:01.726Z</time></trkpt><trkpt lat="45.3945217" lon="10.5885617"><ele>105.0</ele><time>2026-04-18T09:36:03.734Z</time></trkpt><trkpt lat="45.394585" lon="10.5886017"><ele>105.0</ele><time>2026-04-18T09:36:06.736Z</time></trkpt><trkpt lat="45.394655" lon="10.5885567"><ele>105.0</ele><time>2026-04-18T09:36:14.735Z</time></trkpt><trkpt lat="45.3947367" lon="10.588495"><ele>105.0</ele><time>2026-04-18T09:36:16.729Z</time></trkpt><trkpt lat="45.3948083" lon="10.588455"><ele>105.0</ele><time>2026-04-18T09:36:18.735Z</time></trkpt><trkpt lat="45.3948767" lon="10.5884583"><ele>105.0</ele><time>2026-04-18T09:36:21.737Z</time></trkpt><trkpt lat="45.3949233" lon="10.588565"><ele>105.0</ele><time>2026-04-18T09:36:25.733Z</time></trkpt><trkpt lat="45.3949517" lon="10.5886517"><ele>105.0</ele><time>2026-04-18T09:36:27.728Z</time></trkpt><trkpt lat="45.3949867" lon="10.5887633"><ele>105.0</ele><time>2026-04-18T09:36:29.729Z</time></trkpt><trkpt lat="45.3950183" lon="10.5888933"><ele>105.0</ele><time>2026-04-18T09:36:31.731Z</time></trkpt><trkpt lat="45.395045" lon="10.5890367"><ele>105.0</ele><time>2026-04-18T09:36:33.732Z</time></trkpt><trkpt lat="45.39508" lon="10.5891567"><ele>105.0</ele><time>2026-04-18T09:36:35.732Z</time></trkpt><trkpt lat="45.3951067" lon="10.58925"><ele>105.0</ele><time>2026-04-18T09:36:37.734Z</time></trkpt><trkpt lat="45.3951117" lon="10.5893517"><ele>105.0</ele><time>2026-04-18T09:36:41.728Z</time></trkpt><trkpt lat="45.395045" lon="10.589365"><ele>105.0</ele><time>2026-04-18T09:36:44.73Z</time></trkpt><trkpt lat="45.3949533" lon="10.5893933"><ele>105.0</ele><time>2026-04-18T09:36:47.725Z</time></trkpt><trkpt lat="45.3948867" lon="10.589395"><ele>105.0</ele><time>2026-04-18T09:36:49.739Z</time></trkpt><trkpt lat="45.3948317" lon="10.589285"><ele>105.0</ele><time>2026-04-18T09:36:52.721Z</time></trkpt><trkpt lat="45.3947983" lon="10.5891767"><ele>105.0</ele><time>2026-04-18T09:36:54.732Z</time></trkpt><trkpt lat="45.39476" lon="10.5890733"><ele>105.0</ele><time>2026-04-18T09:36:56.725Z</time></trkpt><trkpt lat="45.39471" lon="10.5889483"><ele>105.0</ele><time>2026-04-18T09:36:58.727Z</time></trkpt><trkpt lat="45.3946633" lon="10.5888317"><ele>105.0</ele><time>2026-04-18T09:37:00.729Z</time></trkpt><trkpt lat="45.39463" lon="10.588705"><ele>105.0</ele><time>2026-04-18T09:37:02.732Z</time></trkpt><trkpt lat="45.3945933" lon="10.5886083"><ele>105.0</ele><time>2026-04-18T09:37:04.732Z</time></trkpt><trkpt lat="45.3945417" lon="10.58855"><ele>105.0</ele><time>2026-04-18T09:37:06.728Z</time></trkpt><trkpt lat="45.3944933" lon="10.58848"><ele>105.0</ele><time>2026-04-18T09:37:08.734Z</time></trkpt><trkpt lat="45.394435" lon="10.58842"><ele>105.0</ele><time>2026-04-18T09:37:10.733Z</time></trkpt><trkpt lat="45.3943717" lon="10.5884417"><ele>105.0</ele><time>2026-04-18T09:37:13.732Z</time></trkpt><trkpt lat="45.3944317" lon="10.58857"><ele>105.0</ele><time>2026-04-18T09:37:16.741Z</time></trkpt><trkpt lat="45.3945167" lon="10.5886983"><ele>105.0</ele><time>2026-04-18T09:37:18.741Z</time></trkpt><trkpt lat="45.3945583" lon="10.58878"><ele>105.0</ele><time>2026-04-18T09:37:19.746Z</time></trkpt><trkpt lat="45.3945983" lon="10.5888683"><ele>105.0</ele><time>2026-04-18T09:37:20.739Z</time></trkpt><trkpt lat="45.394635" lon="10.5889583"><ele>105.0</ele><time>2026-04-18T09:37:21.726Z</time></trkpt><trkpt lat="45.3946717" lon="10.5890517"><ele>105.0</ele><time>2026-04-18T09:37:22.734Z</time></trkpt><trkpt lat="45.3947033" lon="10.5891467"><ele>105.0</ele><time>2026-04-18T09:37:23.729Z</time></trkpt><trkpt lat="45.3947317" lon="10.5892433"><ele>105.0</ele><time>2026-04-18T09:37:24.728Z</time></trkpt><trkpt lat="45.3947517" lon="10.5893383"><ele>105.0</ele><time>2026-04-18T09:37:25.74Z</time></trkpt><trkpt lat="45.3947683" lon="10.589435"><ele>105.0</ele><time>2026-04-18T09:37:26.733Z</time></trkpt><trkpt lat="45.39478" lon="10.58953"><ele>105.0</ele><time>2026-04-18T09:37:27.734Z</time></trkpt><trkpt lat="45.3947833" lon="10.58963"><ele>105.0</ele><time>2026-04-18T09:37:28.737Z</time></trkpt><trkpt lat="45.394785" lon="10.5897333"><ele>105.0</ele><time>2026-04-18T09:37:29.733Z</time></trkpt><trkpt lat="45.39478" lon="10.5898417"><ele>105.0</ele><time>2026-04-18T09:37:30.728Z</time></trkpt><trkpt lat="45.394765" lon="10.5899483"><ele>105.0</ele><time>2026-04-18T09:37:31.743Z</time></trkpt><trkpt lat="45.3947467" lon="10.59006"><ele>105.0</ele><time>2026-04-18T09:37:32.727Z</time></trkpt><trkpt lat="45.394725" lon="10.5901733"><ele>105.0</ele><time>2026-04-18T09:37:33.725Z</time></trkpt><trkpt lat="45.3946967" lon="10.5902817"><ele>105.0</ele><time>2026-04-18T09:37:34.727Z</time></trkpt><trkpt lat="45.3946617" lon="10.5903833"><ele>105.0</ele><time>2026-04-18T09:37:35.742Z</time></trkpt><trkpt lat="45.3946233" lon="10.5904733"><ele>105.0</ele><time>2026-04-18T09:37:36.726Z</time></trkpt><trkpt lat="45.3945833" lon="10.5905567"><ele>105.0</ele><time>2026-04-18T09:37:37.735Z</time></trkpt><trkpt lat="45.3945317" lon="10.5906283"><ele>105.0</ele><time>2026-04-18T09:37:38.734Z</time></trkpt><trkpt lat="45.3944867" lon="10.59071"><ele>105.0</ele><time>2026-04-18T09:37:39.73Z</time></trkpt><trkpt lat="45.394455" lon="10.5908"><ele>105.0</ele><time>2026-04-18T09:37:40.738Z</time></trkpt><trkpt lat="45.3944267" lon="10.5908867"><ele>105.0</ele><time>2026-04-18T09:37:41.736Z</time></trkpt><trkpt lat="45.3943967" lon="10.5910483"><ele>105.0</ele><time>2026-04-18T09:37:43.734Z</time></trkpt><trkpt lat="45.3943833" lon="10.5912233"><ele>105.0</ele><time>2026-04-18T09:37:45.736Z</time></trkpt><trkpt lat="45.3943717" lon="10.5913717"><ele>105.0</ele><time>2026-04-18T09:37:47.733Z</time></trkpt><trkpt lat="45.3943167" lon="10.5914583"><ele>105.0</ele><time>2026-04-18T09:38:12.728Z</time></trkpt><trkpt lat="45.394365" lon="10.5913733"><ele>105.0</ele><time>2026-04-18T09:38:14.737Z</time></trkpt><trkpt lat="45.3943867" lon="10.5912817"><ele>105.0</ele><time>2026-04-18T09:38:15.735Z</time></trkpt><trkpt lat="45.3943967" lon="10.5911617"><ele>105.0</ele><time>2026-04-18T09:38:16.738Z</time></trkpt><trkpt lat="45.3944017" lon="10.5910367"><ele>105.0</ele><time>2026-04-18T09:38:17.727Z</time></trkpt><trkpt lat="45.3944117" lon="10.5909167"><ele>105.0</ele><time>2026-04-18T09:38:18.742Z</time></trkpt><trkpt lat="45.3944317" lon="10.5908017"><ele>105.0</ele><time>2026-04-18T09:38:19.738Z</time></trkpt><trkpt lat="45.394465" lon="10.590695"><ele>105.0</ele><time>2026-04-18T09:38:20.745Z</time></trkpt><trkpt lat="45.3945117" lon="10.59059"><ele>105.0</ele><time>2026-04-18T09:38:21.736Z</time></trkpt><trkpt lat="45.39457" lon="10.5904933"><ele>105.0</ele><time>2026-04-18T09:38:22.741Z</time></trkpt><trkpt lat="45.3946267" lon="10.5903883"><ele>105.0</ele><time>2026-04-18T09:38:23.739Z</time></trkpt><trkpt lat="45.394675" lon="10.5902633"><ele>105.0</ele><time>2026-04-18T09:38:24.726Z</time></trkpt><trkpt lat="45.3947167" lon="10.5901183"><ele>105.0</ele><time>2026-04-18T09:38:25.739Z</time></trkpt><trkpt lat="45.394755" lon="10.5899717"><ele>105.0</ele><time>2026-04-18T09:38:26.739Z</time></trkpt><trkpt lat="45.3948017" lon="10.5898117"><ele>105.0</ele><time>2026-04-18T09:38:27.732Z</time></trkpt><trkpt lat="45.394825" lon="10.5896667"><ele>105.0</ele><time>2026-04-18T09:38:28.726Z</time></trkpt><trkpt lat="45.3948133" lon="10.589505"><ele>105.0</ele><time>2026-04-18T09:38:29.729Z</time></trkpt><trkpt lat="45.3947917" lon="10.5893517"><ele>105.0</ele><time>2026-04-18T09:38:30.731Z</time></trkpt><trkpt lat="45.3947567" lon="10.5892"><ele>105.0</ele><time>2026-04-18T09:38:31.739Z</time></trkpt><trkpt lat="45.394715" lon="10.5890617"><ele>105.0</ele><time>2026-04-18T09:38:32.729Z</time></trkpt><trkpt lat="45.39465" lon="10.5889467"><ele>105.0</ele><time>2026-04-18T09:38:33.745Z</time></trkpt><trkpt lat="45.394595" lon="10.5888183"><ele>105.0</ele><time>2026-04-18T09:38:34.746Z</time></trkpt><trkpt lat="45.3945467" lon="10.5887"><ele>105.0</ele><time>2026-04-18T09:38:35.74Z</time></trkpt><trkpt lat="45.3944983" lon="10.5885967"><ele>105.0</ele><time>2026-04-18T09:38:36.734Z</time></trkpt><trkpt lat="45.3944517" lon="10.58852"><ele>105.0</ele><time>2026-04-18T09:38:37.737Z</time></trkpt><trkpt lat="45.3943767" lon="10.588425"><ele>105.0</ele><time>2026-04-18T09:38:39.742Z</time></trkpt><trkpt lat="45.3942867" lon="10.5883817"><ele>105.0</ele><time>2026-04-18T09:38:41.729Z</time></trkpt><trkpt lat="45.3942217" lon="10.58837"><ele>105.0</ele><time>2026-04-18T09:38:42.737Z</time></trkpt><trkpt lat="45.3941483" lon="10.5883683"><ele>105.0</ele><time>2026-04-18T09:38:43.734Z</time></trkpt><trkpt lat="45.3940383" lon="10.5883667"><ele>105.0</ele><time>2026-04-18T09:38:45.728Z</time></trkpt><trkpt lat="45.393955" lon="10.5883183"><ele>105.0</ele><time>2026-04-18T09:38:48.74Z</time></trkpt><trkpt lat="45.3938917" lon="10.5882317"><ele>105.0</ele><time>2026-04-18T09:38:50.732Z</time></trkpt><trkpt lat="45.393785" lon="10.5881067"><ele>105.0</ele><time>2026-04-18T09:38:52.74Z</time></trkpt><trkpt lat="45.3937133" lon="10.5880317"><ele>105.0</ele><time>2026-04-18T09:38:53.729Z</time></trkpt><trkpt lat="45.3936333" lon="10.5879467"><ele>105.0</ele><time>2026-04-18T09:38:54.739Z</time></trkpt><trkpt lat="45.39355" lon="10.5878533"><ele>105.0</ele><time>2026-04-18T09:38:55.731Z</time></trkpt><trkpt lat="45.3934667" lon="10.58775"><ele>105.0</ele><time>2026-04-18T09:38:56.735Z</time></trkpt><trkpt lat="45.3933033" lon="10.5875767"><ele>105.0</ele><time>2026-04-18T09:38:58.738Z</time></trkpt><trkpt lat="45.39322" lon="10.58749"><ele>105.0</ele><time>2026-04-18T09:38:59.726Z</time></trkpt><trkpt lat="45.39314" lon="10.58741"><ele>105.0</ele><time>2026-04-18T09:39:00.745Z</time></trkpt><trkpt lat="45.3930667" lon="10.5873183"><ele>105.0</ele><time>2026-04-18T09:39:01.737Z</time></trkpt><trkpt lat="45.39298" lon="10.5872367"><ele>105.0</ele><time>2026-04-18T09:39:02.734Z</time></trkpt><trkpt lat="45.3928933" lon="10.587145"><ele>105.16666666666667</ele><time>2026-04-18T09:39:03.746Z</time></trkpt><trkpt lat="45.3928217" lon="10.587065"><ele>105.33333333333334</ele><time>2026-04-18T09:39:04.737Z</time></trkpt><trkpt lat="45.3927717" lon="10.5869817"><ele>105.5</ele><time>2026-04-18T09:39:05.735Z</time></trkpt><trkpt lat="45.3927267" lon="10.58688"><ele>105.66666666666667</ele><time>2026-04-18T09:39:06.733Z</time></trkpt><trkpt lat="45.392685" lon="10.5867733"><ele>105.83333333333334</ele><time>2026-04-18T09:39:07.741Z</time></trkpt><trkpt lat="45.39265" lon="10.5866517"><ele>106.0</ele><time>2026-04-18T09:39:08.731Z</time></trkpt><trkpt lat="45.3926217" lon="10.5865317"><ele>106.00000000000001</ele><time>2026-04-18T09:39:09.73Z</time></trkpt><trkpt lat="45.3926017" lon="10.58641"><ele>106.0</ele><time>2026-04-18T09:39:10.745Z</time></trkpt><trkpt lat="45.392585" lon="10.586295"><ele>106.0</ele><time>2026-04-18T09:39:11.737Z</time></trkpt><trkpt lat="45.3925767" lon="10.5861883"><ele>106.0</ele><time>2026-04-18T09:39:12.734Z</time></trkpt><trkpt lat="45.3925733" lon="10.5860967"><ele>106.00000000000001</ele><time>2026-04-18T09:39:13.729Z</time></trkpt><trkpt lat="45.392585" lon="10.5859667"><ele>106.0</ele><time>2026-04-18T09:39:15.732Z</time></trkpt><trkpt lat="45.3926583" lon="10.5858967"><ele>106.0</ele><time>2026-04-18T09:39:17.751Z</time></trkpt><trkpt lat="45.3927233" lon="10.5858983"><ele>106.0</ele><time>2026-04-18T09:39:18.736Z</time></trkpt><trkpt lat="45.3927867" lon="10.5859183"><ele>106.0</ele><time>2026-04-18T09:39:19.729Z</time></trkpt><trkpt lat="45.3928467" lon="10.5859617"><ele>106.0</ele><time>2026-04-18T09:39:20.733Z</time></trkpt><trkpt lat="45.3929667" lon="10.5860217"><ele>106.0</ele><time>2026-04-18T09:39:22.728Z</time></trkpt><trkpt lat="45.3931" lon="10.5859933"><ele>105.0</ele><time>2026-04-18T09:39:24.743Z</time></trkpt><trkpt lat="45.39319" lon="10.5859583"><ele>104.0</ele><time>2026-04-18T09:39:25.727Z</time></trkpt><trkpt lat="45.3932917" lon="10.58592"><ele>103.0</ele><time>2026-04-18T09:39:26.739Z</time></trkpt><trkpt lat="45.393405" lon="10.5858583"><ele>102.0</ele><time>2026-04-18T09:39:27.737Z</time></trkpt><trkpt lat="45.3935333" lon="10.58581"><ele>102.0</ele><time>2026-04-18T09:39:28.741Z</time></trkpt><trkpt lat="45.39366" lon="10.5857617"><ele>102.0</ele><time>2026-04-18T09:39:29.74Z</time></trkpt><trkpt lat="45.3937733" lon="10.58572"><ele>102.0</ele><time>2026-04-18T09:39:30.741Z</time></trkpt><trkpt lat="45.3938817" lon="10.58568"><ele>102.0</ele><time>2026-04-18T09:39:31.727Z</time></trkpt><trkpt lat="45.3939833" lon="10.58565"><ele>103.0</ele><time>2026-04-18T09:39:32.743Z</time></trkpt><trkpt lat="45.3940683" lon="10.5856167"><ele>104.0</ele><time>2026-04-18T09:39:33.74Z</time></trkpt><trkpt lat="45.3941367" lon="10.585595"><ele>104.99999999999999</ele><time>2026-04-18T09:39:34.727Z</time></trkpt><trkpt lat="45.39422" lon="10.5856367"><ele>106.0</ele><time>2026-04-18T09:39:36.74Z</time></trkpt><trkpt lat="45.3942517" lon="10.5858117"><ele>107.0</ele><time>2026-04-18T09:39:38.755Z</time></trkpt><trkpt lat="45.3942633" lon="10.5859383"><ele>107.0</ele><time>2026-04-18T09:39:39.736Z</time></trkpt><trkpt lat="45.39428" lon="10.5860783"><ele>106.99999999999999</ele><time>2026-04-18T09:39:40.731Z</time></trkpt><trkpt lat="45.3943083" lon="10.586225"><ele>106.99999999999999</ele><time>2026-04-18T09:39:41.743Z</time></trkpt><trkpt lat="45.3943317" lon="10.5863967"><ele>107.0</ele><time>2026-04-18T09:39:42.738Z</time></trkpt><trkpt lat="45.3943633" lon="10.58655"><ele>107.0</ele><time>2026-04-18T09:39:43.736Z</time></trkpt><trkpt lat="45.3944" lon="10.5867183"><ele>106.5</ele><time>2026-04-18T09:39:44.741Z</time></trkpt><trkpt lat="45.3944433" lon="10.5868783"><ele>106.0</ele><time>2026-04-18T09:39:45.737Z</time></trkpt><trkpt lat="45.3944733" lon="10.5870383"><ele>105.5</ele><time>2026-04-18T09:39:46.745Z</time></trkpt><trkpt lat="45.3945133" lon="10.5872117"><ele>105.0</ele><time>2026-04-18T09:39:47.728Z</time></trkpt><trkpt lat="45.3945483" lon="10.5873433"><ele>104.6</ele><time>2026-04-18T09:39:48.729Z</time></trkpt><trkpt lat="45.3945817" lon="10.5874883"><ele>104.2</ele><time>2026-04-18T09:39:49.748Z</time></trkpt><trkpt lat="45.394605" lon="10.5875917"><ele>103.80000000000001</ele><time>2026-04-18T09:39:50.748Z</time></trkpt><trkpt lat="45.394635" lon="10.5877067"><ele>103.4</ele><time>2026-04-18T09:39:51.73Z</time></trkpt><trkpt lat="45.3946833" lon="10.587815"><ele>103.0</ele><time>2026-04-18T09:39:52.737Z</time></trkpt><trkpt lat="45.3947317" lon="10.5879267"><ele>103.83333333333334</ele><time>2026-04-18T09:39:53.727Z</time></trkpt><trkpt lat="45.394785" lon="10.5880383"><ele>104.66666666666667</ele><time>2026-04-18T09:39:54.748Z</time></trkpt><trkpt lat="45.39483" lon="10.588135"><ele>105.5</ele><time>2026-04-18T09:39:55.73Z</time></trkpt><trkpt lat="45.394875" lon="10.5882317"><ele>106.33333333333334</ele><time>2026-04-18T09:39:56.744Z</time></trkpt><trkpt lat="45.3949217" lon="10.5883233"><ele>107.16666666666667</ele><time>2026-04-18T09:39:57.753Z</time></trkpt><trkpt lat="45.394975" lon="10.5884133"><ele>108.0</ele><time>2026-04-18T09:39:58.754Z</time></trkpt><trkpt lat="45.3950283" lon="10.5885"><ele>108.0</ele><time>2026-04-18T09:39:59.736Z</time></trkpt><trkpt lat="45.39507" lon="10.5885867"><ele>108.0</ele><time>2026-04-18T09:40:00.741Z</time></trkpt><trkpt lat="45.3951083" lon="10.58868"><ele>108.0</ele><time>2026-04-18T09:40:01.736Z</time></trkpt><trkpt lat="45.3951467" lon="10.58878"><ele>108.0</ele><time>2026-04-18T09:40:02.734Z</time></trkpt><trkpt lat="45.395185" lon="10.58889"><ele>108.0</ele><time>2026-04-18T09:40:03.726Z</time></trkpt><trkpt lat="45.39523" lon="10.589"><ele>108.0</ele><time>2026-04-18T09:40:04.737Z</time></trkpt><trkpt lat="45.39526" lon="10.58914"><ele>107.4</ele><time>2026-04-18T09:40:05.733Z</time></trkpt><trkpt lat="45.3952717" lon="10.5892767"><ele>106.80000000000001</ele><time>2026-04-18T09:40:06.725Z</time></trkpt><trkpt lat="45.395275" lon="10.589405"><ele>106.2</ele><time>2026-04-18T09:40:07.743Z</time></trkpt><trkpt lat="45.3952733" lon="10.5895267"><ele>105.6</ele><time>2026-04-18T09:40:08.738Z</time></trkpt><trkpt lat="45.3952417" lon="10.589665"><ele>105.0</ele><time>2026-04-18T09:40:09.729Z</time></trkpt><trkpt lat="45.39524" lon="10.5897833"><ele>105.0</ele><time>2026-04-18T09:40:10.734Z</time></trkpt><trkpt lat="45.3952167" lon="10.5898967"><ele>105.0</ele><time>2026-04-18T09:40:11.741Z</time></trkpt><trkpt lat="45.3952183" lon="10.5900033"><ele>105.0</ele><time>2026-04-18T09:40:12.737Z</time></trkpt><trkpt lat="45.39523" lon="10.59011"><ele>105.0</ele><time>2026-04-18T09:40:13.723Z</time></trkpt><trkpt lat="45.3952617" lon="10.5902067"><ele>105.0</ele><time>2026-04-18T09:40:14.75Z</time></trkpt><trkpt lat="45.3953033" lon="10.5903067"><ele>105.0</ele><time>2026-04-18T09:40:15.729Z</time></trkpt><trkpt lat="45.3953517" lon="10.590415"><ele>104.6</ele><time>2026-04-18T09:40:16.727Z</time></trkpt><trkpt lat="45.3954017" lon="10.5905417"><ele>104.2</ele><time>2026-04-18T09:40:17.726Z</time></trkpt><trkpt lat="45.3954517" lon="10.5906667"><ele>103.80000000000001</ele><time>2026-04-18T09:40:18.736Z</time></trkpt><trkpt lat="45.3955083" lon="10.5908033"><ele>103.4</ele><time>2026-04-18T09:40:19.725Z</time></trkpt><trkpt lat="45.3955483" lon="10.5909367"><ele>103.0</ele><time>2026-04-18T09:40:20.733Z</time></trkpt><trkpt lat="45.3956033" lon="10.5910467"><ele>103.33333333333334</ele><time>2026-04-18T09:40:21.732Z</time></trkpt><trkpt lat="45.3956583" lon="10.5911483"><ele>103.66666666666667</ele><time>2026-04-18T09:40:23.741Z</time></trkpt><trkpt lat="45.395655" lon="10.5912383"><ele>104.0</ele><time>2026-04-18T09:40:33.725Z</time></trkpt><trkpt lat="45.3956933" lon="10.59132"><ele>104.33333333333334</ele><time>2026-04-18T09:40:35.726Z</time></trkpt><trkpt lat="45.395765" lon="10.5914417"><ele>104.66666666666667</ele><time>2026-04-18T09:40:37.74Z</time></trkpt><trkpt lat="45.3958117" lon="10.5915233"><ele>105.0</ele><time>2026-04-18T09:40:38.731Z</time></trkpt><trkpt lat="45.3958633" lon="10.5916067"><ele>105.0</ele><time>2026-04-18T09:40:39.741Z</time></trkpt><trkpt lat="45.39591" lon="10.591685"><ele>105.0</ele><time>2026-04-18T09:40:40.733Z</time></trkpt><trkpt lat="45.395955" lon="10.59176"><ele>105.0</ele><time>2026-04-18T09:40:41.744Z</time></trkpt><trkpt lat="45.395995" lon="10.5918383"><ele>105.0</ele><time>2026-04-18T09:40:42.727Z</time></trkpt><trkpt lat="45.3960333" lon="10.591925"><ele>105.0</ele><time>2026-04-18T09:40:43.729Z</time></trkpt><trkpt lat="45.3960717" lon="10.592015"><ele>105.0</ele><time>2026-04-18T09:40:44.74Z</time></trkpt><trkpt lat="45.39611" lon="10.5921067"><ele>105.0</ele><time>2026-04-18T09:40:45.729Z</time></trkpt><trkpt lat="45.3961483" lon="10.5922033"><ele>104.66666666666667</ele><time>2026-04-18T09:40:46.729Z</time></trkpt><trkpt lat="45.3961867" lon="10.5923033"><ele>104.33333333333334</ele><time>2026-04-18T09:40:47.734Z</time></trkpt><trkpt lat="45.39622" lon="10.5924117"><ele>104.0</ele><time>2026-04-18T09:40:48.74Z</time></trkpt><trkpt lat="45.396255" lon="10.5925167"><ele>103.66666666666667</ele><time>2026-04-18T09:40:49.725Z</time></trkpt><trkpt lat="45.396285" lon="10.59263"><ele>103.33333333333334</ele><time>2026-04-18T09:40:50.734Z</time></trkpt><trkpt lat="45.39632" lon="10.5927417"><ele>103.0</ele><time>2026-04-18T09:40:51.727Z</time></trkpt><trkpt lat="45.396355" lon="10.5928533"><ele>104.4</ele><time>2026-04-18T09:40:52.726Z</time></trkpt><trkpt lat="45.3964" lon="10.59296"><ele>105.80000000000001</ele><time>2026-04-18T09:40:53.737Z</time></trkpt><trkpt lat="45.3964467" lon="10.5930683"><ele>107.2</ele><time>2026-04-18T09:40:54.736Z</time></trkpt><trkpt lat="45.3965" lon="10.5931817"><ele>108.6</ele><time>2026-04-18T09:40:55.724Z</time></trkpt><trkpt lat="45.3965483" lon="10.593295"><ele>110.0</ele><time>2026-04-18T09:40:56.736Z</time></trkpt><trkpt lat="45.3966017" lon="10.593405"><ele>110.0</ele><time>2026-04-18T09:40:57.724Z</time></trkpt><trkpt lat="45.39665" lon="10.5935083"><ele>110.0</ele><time>2026-04-18T09:40:58.736Z</time></trkpt><trkpt lat="45.3967017" lon="10.5936117"><ele>110.0</ele><time>2026-04-18T09:40:59.735Z</time></trkpt><trkpt lat="45.3967317" lon="10.5937433"><ele>110.0</ele><time>2026-04-18T09:41:00.733Z</time></trkpt><trkpt lat="45.39681" lon="10.5938367"><ele>110.0</ele><time>2026-04-18T09:41:01.739Z</time></trkpt><trkpt lat="45.396895" lon="10.5939517"><ele>109.75</ele><time>2026-04-18T09:41:02.736Z</time></trkpt><trkpt lat="45.3969783" lon="10.594065"><ele>109.5</ele><time>2026-04-18T09:41:03.733Z</time></trkpt><trkpt lat="45.39709" lon="10.59418"><ele>109.25</ele><time>2026-04-18T09:41:04.727Z</time></trkpt><trkpt lat="45.397175" lon="10.5943033"><ele>109.0</ele><time>2026-04-18T09:41:05.734Z</time></trkpt><trkpt lat="45.397265" lon="10.5944317"><ele>108.75</ele><time>2026-04-18T09:41:06.73Z</time></trkpt><trkpt lat="45.39735" lon="10.594555"><ele>108.5</ele><time>2026-04-18T09:41:07.732Z</time></trkpt><trkpt lat="45.3974367" lon="10.5946683"><ele>108.25</ele><time>2026-04-18T09:41:08.737Z</time></trkpt><trkpt lat="45.3975267" lon="10.59478"><ele>108.0</ele><time>2026-04-18T09:41:09.732Z</time></trkpt><trkpt lat="45.3975933" lon="10.59489"><ele>108.0</ele><time>2026-04-18T09:41:10.733Z</time></trkpt><trkpt lat="45.3976633" lon="10.5949917"><ele>108.0</ele><time>2026-04-18T09:41:11.735Z</time></trkpt><trkpt lat="45.3977233" lon="10.59508"><ele>108.0</ele><time>2026-04-18T09:41:12.739Z</time></trkpt><trkpt lat="45.39778" lon="10.5951667"><ele>108.0</ele><time>2026-04-18T09:41:13.75Z</time></trkpt><trkpt lat="45.39784" lon="10.5952533"><ele>108.0</ele><time>2026-04-18T09:41:14.74Z</time></trkpt><trkpt lat="45.397895" lon="10.595335"><ele>108.0</ele><time>2026-04-18T09:41:15.73Z</time></trkpt><trkpt lat="45.397945" lon="10.5954"><ele>107.60000000000001</ele><time>2026-04-18T09:41:16.73Z</time></trkpt><trkpt lat="45.3980067" lon="10.5955233"><ele>107.20000000000002</ele><time>2026-04-18T09:41:18.736Z</time></trkpt><trkpt lat="45.39801" lon="10.59565"><ele>106.8</ele><time>2026-04-18T09:41:20.734Z</time></trkpt><trkpt lat="45.397975" lon="10.595765"><ele>106.4</ele><time>2026-04-18T09:41:22.752Z</time></trkpt><trkpt lat="45.397965" lon="10.5958667"><ele>106.0</ele><time>2026-04-18T09:41:24.733Z</time></trkpt><trkpt lat="45.3980717" lon="10.5959717"><ele>106.00000000000001</ele><time>2026-04-18T09:41:26.733Z</time></trkpt><trkpt lat="45.398135" lon="10.5960183"><ele>106.0</ele><time>2026-04-18T09:41:27.735Z</time></trkpt><trkpt lat="45.398205" lon="10.5960583"><ele>106.0</ele><time>2026-04-18T09:41:28.73Z</time></trkpt><trkpt lat="45.3982867" lon="10.596105"><ele>106.0</ele><time>2026-04-18T09:41:29.732Z</time></trkpt><trkpt lat="45.39838" lon="10.5961567"><ele>106.00000000000001</ele><time>2026-04-18T09:41:30.735Z</time></trkpt><trkpt lat="45.3984817" lon="10.5962033"><ele>106.0</ele><time>2026-04-18T09:41:31.736Z</time></trkpt><trkpt lat="45.39858" lon="10.596275"><ele>106.0</ele><time>2026-04-18T09:41:32.733Z</time></trkpt><trkpt lat="45.3987417" lon="10.5963633"><ele>106.0</ele><time>2026-04-18T09:41:33.733Z</time></trkpt><trkpt lat="45.39884" lon="10.5964317"><ele>106.0</ele><time>2026-04-18T09:41:34.744Z</time></trkpt><trkpt lat="45.39896" lon="10.596495"><ele>106.0</ele><time>2026-04-18T09:41:35.738Z</time></trkpt><trkpt lat="45.3991017" lon="10.5965583"><ele>107.0</ele><time>2026-04-18T09:41:36.726Z</time></trkpt><trkpt lat="45.39922" lon="10.5966283"><ele>108.0</ele><time>2026-04-18T09:41:37.732Z</time></trkpt><trkpt lat="45.3993533" lon="10.59669"><ele>109.0</ele><time>2026-04-18T09:41:38.737Z</time></trkpt><trkpt lat="45.3994883" lon="10.5967517"><ele>110.0</ele><time>2026-04-18T09:41:39.741Z</time></trkpt><trkpt lat="45.3996217" lon="10.59681"><ele>111.2</ele><time>2026-04-18T09:41:40.736Z</time></trkpt><trkpt lat="45.3997333" lon="10.596855"><ele>112.4</ele><time>2026-04-18T09:41:41.736Z</time></trkpt><trkpt lat="45.399825" lon="10.5968933"><ele>113.6</ele><time>2026-04-18T09:41:42.734Z</time></trkpt><trkpt lat="45.399895" lon="10.5969167"><ele>114.8</ele><time>2026-04-18T09:41:43.726Z</time></trkpt><trkpt lat="45.4" lon="10.5969683"><ele>116.0</ele><time>2026-04-18T09:41:45.73Z</time></trkpt><trkpt lat="45.400095" lon="10.5970317"><ele>115.99999999999999</ele><time>2026-04-18T09:41:47.741Z</time></trkpt><trkpt lat="45.4001633" lon="10.5971033"><ele>116.0</ele><time>2026-04-18T09:41:49.728Z</time></trkpt><trkpt lat="45.4001967" lon="10.5972617"><ele>116.0</ele><time>2026-04-18T09:41:51.73Z</time></trkpt><trkpt lat="45.40021" lon="10.5973667"><ele>116.0</ele><time>2026-04-18T09:41:52.729Z</time></trkpt><trkpt lat="45.400215" lon="10.59748"><ele>115.99999999999999</ele><time>2026-04-18T09:41:53.724Z</time></trkpt><trkpt lat="45.400225" lon="10.5975967"><ele>116.0</ele><time>2026-04-18T09:41:54.734Z</time></trkpt><trkpt lat="45.4002383" lon="10.5977217"><ele>115.4</ele><time>2026-04-18T09:41:55.731Z</time></trkpt><trkpt lat="45.4002517" lon="10.597855"><ele>114.8</ele><time>2026-04-18T09:41:56.735Z</time></trkpt><trkpt lat="45.4002667" lon="10.5980117"><ele>114.20000000000002</ele><time>2026-04-18T09:41:57.73Z</time></trkpt><trkpt lat="45.4002717" lon="10.5981733"><ele>113.60000000000001</ele><time>2026-04-18T09:41:58.729Z</time></trkpt><trkpt lat="45.4002717" lon="10.5983283"><ele>113.0</ele><time>2026-04-18T09:41:59.729Z</time></trkpt><trkpt lat="45.4002617" lon="10.5984933"><ele>112.75</ele><time>2026-04-18T09:42:00.752Z</time></trkpt><trkpt lat="45.4002467" lon="10.5986817"><ele>112.5</ele><time>2026-04-18T09:42:01.731Z</time></trkpt><trkpt lat="45.4002433" lon="10.5988717"><ele>112.25</ele><time>2026-04-18T09:42:02.736Z</time></trkpt><trkpt lat="45.4002033" lon="10.5990533"><ele>112.0</ele><time>2026-04-18T09:42:03.735Z</time></trkpt><trkpt lat="45.4001983" lon="10.5992533"><ele>112.0</ele><time>2026-04-18T09:42:04.749Z</time></trkpt><trkpt lat="45.4002083" lon="10.5994517"><ele>112.0</ele><time>2026-04-18T09:42:05.738Z</time></trkpt><trkpt lat="45.4002233" lon="10.5996283"><ele>112.0</ele><time>2026-04-18T09:42:06.733Z</time></trkpt><trkpt lat="45.4002" lon="10.599815"><ele>112.0</ele><time>2026-04-18T09:42:07.742Z</time></trkpt><trkpt lat="45.4001967" lon="10.600015"><ele>112.0</ele><time>2026-04-18T09:42:08.731Z</time></trkpt><trkpt lat="45.4001867" lon="10.6001983"><ele>112.0</ele><time>2026-04-18T09:42:09.731Z</time></trkpt><trkpt lat="45.4001683" lon="10.6004017"><ele>112.0</ele><time>2026-04-18T09:42:10.734Z</time></trkpt><trkpt lat="45.4001533" lon="10.600595"><ele>112.0</ele><time>2026-04-18T09:42:11.724Z</time></trkpt><trkpt lat="45.40015" lon="10.6007817"><ele>112.0</ele><time>2026-04-18T09:42:12.746Z</time></trkpt><trkpt lat="45.40014" lon="10.6009567"><ele>111.99999999999999</ele><time>2026-04-18T09:42:13.729Z</time></trkpt><trkpt lat="45.40012" lon="10.6011133"><ele>111.99999999999999</ele><time>2026-04-18T09:42:14.732Z</time></trkpt><trkpt lat="45.40011" lon="10.6012567"><ele>112.0</ele><time>2026-04-18T09:42:15.739Z</time></trkpt><trkpt lat="45.4000983" lon="10.6013833"><ele>112.0</ele><time>2026-04-18T09:42:16.733Z</time></trkpt><trkpt lat="45.400085" lon="10.6014983"><ele>112.50000000000001</ele><time>2026-04-18T09:42:17.732Z</time></trkpt><trkpt lat="45.4000733" lon="10.60161"><ele>113.0</ele><time>2026-04-18T09:42:18.742Z</time></trkpt><trkpt lat="45.40006" lon="10.6017233"><ele>113.5</ele><time>2026-04-18T09:42:19.732Z</time></trkpt><trkpt lat="45.4000383" lon="10.601835"><ele>114.0</ele><time>2026-04-18T09:42:20.734Z</time></trkpt><trkpt lat="45.4000217" lon="10.60195"><ele>114.50000000000001</ele><time>2026-04-18T09:42:21.73Z</time></trkpt><trkpt lat="45.4000067" lon="10.6020733"><ele>115.0</ele><time>2026-04-18T09:42:22.733Z</time></trkpt><trkpt lat="45.3999917" lon="10.6021867"><ele>115.83333333333334</ele><time>2026-04-18T09:42:23.742Z</time></trkpt><trkpt lat="45.3999833" lon="10.6023133"><ele>116.66666666666667</ele><time>2026-04-18T09:42:24.725Z</time></trkpt><trkpt lat="45.3999767" lon="10.602425"><ele>117.5</ele><time>2026-04-18T09:42:25.726Z</time></trkpt><trkpt lat="45.3999617" lon="10.602515"><ele>118.33333333333334</ele><time>2026-04-18T09:42:26.781Z</time></trkpt><trkpt lat="45.3999483" lon="10.6026683"><ele>119.16666666666667</ele><time>2026-04-18T09:42:28.749Z</time></trkpt><trkpt lat="45.399995" lon="10.6027683"><ele>120.0</ele><time>2026-04-18T09:42:30.734Z</time></trkpt><trkpt lat="45.4001033" lon="10.6027883"><ele>120.0</ele><time>2026-04-18T09:42:32.734Z</time></trkpt><trkpt lat="45.4001683" lon="10.602795"><ele>120.0</ele><time>2026-04-18T09:42:33.727Z</time></trkpt><trkpt lat="45.4002383" lon="10.6028033"><ele>120.0</ele><time>2026-04-18T09:42:34.735Z</time></trkpt><trkpt lat="45.4003217" lon="10.6028117"><ele>120.0</ele><time>2026-04-18T09:42:35.747Z</time></trkpt><trkpt lat="45.4003967" lon="10.6028233"><ele>120.0</ele><time>2026-04-18T09:42:36.751Z</time></trkpt><trkpt lat="45.4005067" lon="10.6028367"><ele>120.0</ele><time>2026-04-18T09:42:38.731Z</time></trkpt><trkpt lat="45.4006067" lon="10.602855"><ele>120.33333333333333</ele><time>2026-04-18T09:42:40.734Z</time></trkpt><trkpt lat="45.4007383" lon="10.6028483"><ele>120.66666666666666</ele><time>2026-04-18T09:42:42.739Z</time></trkpt><trkpt lat="45.4008117" lon="10.602845"><ele>121.0</ele><time>2026-04-18T09:42:43.734Z</time></trkpt><trkpt lat="45.4008833" lon="10.6028433"><ele>121.33333333333333</ele><time>2026-04-18T09:42:44.73Z</time></trkpt><trkpt lat="45.40095" lon="10.6028433"><ele>121.66666666666666</ele><time>2026-04-18T09:42:45.741Z</time></trkpt><trkpt lat="45.4010167" lon="10.6028467"><ele>122.0</ele><time>2026-04-18T09:42:46.737Z</time></trkpt><trkpt lat="45.4011283" lon="10.6028417"><ele>122.0</ele><time>2026-04-18T09:42:48.736Z</time></trkpt><trkpt lat="45.4012433" lon="10.6028317"><ele>121.99999999999999</ele><time>2026-04-18T09:42:50.734Z</time></trkpt><trkpt lat="45.4013233" lon="10.602805"><ele>121.99999999999999</ele><time>2026-04-18T09:42:52.722Z</time></trkpt><trkpt lat="45.4014217" lon="10.602795"><ele>122.0</ele><time>2026-04-18T09:42:54.73Z</time></trkpt><trkpt lat="45.40153" lon="10.6028067"><ele>122.0</ele><time>2026-04-18T09:42:56.721Z</time></trkpt><trkpt lat="45.401595" lon="10.6028067"><ele>120.8</ele><time>2026-04-18T09:42:57.732Z</time></trkpt><trkpt lat="45.40166" lon="10.6028067"><ele>119.6</ele><time>2026-04-18T09:42:58.738Z</time></trkpt><trkpt lat="45.40178" lon="10.6028017"><ele>118.39999999999999</ele><time>2026-04-18T09:43:00.743Z</time></trkpt><trkpt lat="45.4018933" lon="10.6028017"><ele>117.19999999999999</ele><time>2026-04-18T09:43:02.754Z</time></trkpt><trkpt lat="45.401975" lon="10.6027767"><ele>116.0</ele><time>2026-04-18T09:43:03.737Z</time></trkpt><trkpt lat="45.40205" lon="10.6027567"><ele>116.00000000000001</ele><time>2026-04-18T09:43:04.729Z</time></trkpt><trkpt lat="45.4021233" lon="10.6027333"><ele>116.0</ele><time>2026-04-18T09:43:05.725Z</time></trkpt><trkpt lat="45.4021983" lon="10.6027067"><ele>116.00000000000001</ele><time>2026-04-18T09:43:06.739Z</time></trkpt><trkpt lat="45.402275" lon="10.6026917"><ele>116.00000000000001</ele><time>2026-04-18T09:43:07.736Z</time></trkpt><trkpt lat="45.402345" lon="10.6026833"><ele>116.0</ele><time>2026-04-18T09:43:08.74Z</time></trkpt><trkpt lat="45.4024183" lon="10.60269"><ele>116.00000000000001</ele><time>2026-04-18T09:43:09.724Z</time></trkpt><trkpt lat="45.4024833" lon="10.6027"><ele>116.00000000000001</ele><time>2026-04-18T09:43:10.731Z</time></trkpt><trkpt lat="45.4025617" lon="10.602725"><ele>114.2857142857143</ele><time>2026-04-18T09:43:11.727Z</time></trkpt><trkpt lat="45.4026233" lon="10.6027567"><ele>112.57142857142858</ele><time>2026-04-18T09:43:12.748Z</time></trkpt><trkpt lat="45.402695" lon="10.6027883"><ele>110.85714285714286</ele><time>2026-04-18T09:43:13.736Z</time></trkpt><trkpt lat="45.4027683" lon="10.6028133"><ele>109.14285714285715</ele><time>2026-04-18T09:43:14.74Z</time></trkpt><trkpt lat="45.40284" lon="10.6028367"><ele>107.42857142857144</ele><time>2026-04-18T09:43:15.727Z</time></trkpt><trkpt lat="45.40291" lon="10.60286"><ele>105.71428571428571</ele><time>2026-04-18T09:43:16.735Z</time></trkpt><trkpt lat="45.40298" lon="10.6028733"><ele>104.0</ele><time>2026-04-18T09:43:17.73Z</time></trkpt><trkpt lat="45.40305" lon="10.6029"><ele>102.49999999999999</ele><time>2026-04-18T09:43:18.729Z</time></trkpt><trkpt lat="45.4031217" lon="10.6029317"><ele>101.0</ele><time>2026-04-18T09:43:19.732Z</time></trkpt><trkpt lat="45.4031983" lon="10.6029717"><ele>99.5</ele><time>2026-04-18T09:43:20.731Z</time></trkpt><trkpt lat="45.4032767" lon="10.60301"><ele>98.0</ele><time>2026-04-18T09:43:21.73Z</time></trkpt><trkpt lat="45.4033517" lon="10.6030433"><ele>96.5</ele><time>2026-04-18T09:43:22.756Z</time></trkpt><trkpt lat="45.4034267" lon="10.60306"><ele>95.0</ele><time>2026-04-18T09:43:23.731Z</time></trkpt><trkpt lat="45.4034967" lon="10.6030667"><ele>95.0</ele><time>2026-04-18T09:43:24.74Z</time></trkpt><trkpt lat="45.4035633" lon="10.603075"><ele>95.0</ele><time>2026-04-18T09:43:25.729Z</time></trkpt><trkpt lat="45.40363" lon="10.6030917"><ele>95.0</ele><time>2026-04-18T09:43:26.733Z</time></trkpt><trkpt lat="45.4037017" lon="10.6031067"><ele>95.0</ele><time>2026-04-18T09:43:27.729Z</time></trkpt><trkpt lat="45.4037767" lon="10.6031133"><ele>95.0</ele><time>2026-04-18T09:43:28.726Z</time></trkpt><trkpt lat="45.40384" lon="10.6031167"><ele>95.0</ele><time>2026-04-18T09:43:29.724Z</time></trkpt><trkpt lat="45.4039617" lon="10.6031033"><ele>94.66666666666667</ele><time>2026-04-18T09:43:31.729Z</time></trkpt><trkpt lat="45.4040533" lon="10.6031433"><ele>94.33333333333334</ele><time>2026-04-18T09:43:33.727Z</time></trkpt><trkpt lat="45.4040683" lon="10.603265"><ele>94.0</ele><time>2026-04-18T09:43:35.723Z</time></trkpt><trkpt lat="45.404045" lon="10.6033517"><ele>93.66666666666667</ele><time>2026-04-18T09:43:36.739Z</time></trkpt><trkpt lat="45.404005" lon="10.6034533"><ele>93.33333333333333</ele><time>2026-04-18T09:43:37.74Z</time></trkpt><trkpt lat="45.4039583" lon="10.6035583"><ele>93.0</ele><time>2026-04-18T09:43:38.751Z</time></trkpt><trkpt lat="45.4039317" lon="10.6036517"><ele>93.00000000000001</ele><time>2026-04-18T09:43:39.733Z</time></trkpt><trkpt lat="45.4039117" lon="10.603745"><ele>93.0</ele><time>2026-04-18T09:43:40.732Z</time></trkpt><trkpt lat="45.4039117" lon="10.6038383"><ele>93.0</ele><time>2026-04-18T09:43:41.728Z</time></trkpt><trkpt lat="45.4039633" lon="10.6039383"><ele>93.0</ele><time>2026-04-18T09:43:43.749Z</time></trkpt><trkpt lat="45.404025" lon="10.6039867"><ele>93.0</ele><time>2026-04-18T09:43:45.743Z</time></trkpt><trkpt lat="45.404085" lon="10.604025"><ele>93.00000000000001</ele><time>2026-04-18T09:43:47.731Z</time></trkpt><trkpt lat="45.4041683" lon="10.6040583"><ele>93.0</ele><time>2026-04-18T09:43:49.728Z</time></trkpt><trkpt lat="45.404265" lon="10.604115"><ele>93.0</ele><time>2026-04-18T09:43:51.726Z</time></trkpt><trkpt lat="45.404325" lon="10.6041567"><ele>93.0</ele><time>2026-04-18T09:43:52.735Z</time></trkpt><trkpt lat="45.4043883" lon="10.6042033"><ele>93.0</ele><time>2026-04-18T09:43:53.734Z</time></trkpt><trkpt lat="45.4044517" lon="10.6042483"><ele>93.0</ele><time>2026-04-18T09:43:54.724Z</time></trkpt><trkpt lat="45.4045167" lon="10.6042767"><ele>93.0</ele><time>2026-04-18T09:43:55.731Z</time></trkpt><trkpt lat="45.4045817" lon="10.6042883"><ele>93.0</ele><time>2026-04-18T09:43:56.724Z</time></trkpt><trkpt lat="45.4047133" lon="10.60428"><ele>93.60000000000001</ele><time>2026-04-18T09:43:58.725Z</time></trkpt><trkpt lat="45.4047983" lon="10.6042633"><ele>94.2</ele><time>2026-04-18T09:44:00.747Z</time></trkpt><trkpt lat="45.404885" lon="10.60435"><ele>94.8</ele><time>2026-04-18T09:44:02.743Z</time></trkpt><trkpt lat="45.40496" lon="10.6044933"><ele>95.4</ele><time>2026-04-18T09:44:04.746Z</time></trkpt><trkpt lat="45.4050017" lon="10.6045767"><ele>96.0</ele><time>2026-04-18T09:44:05.737Z</time></trkpt><trkpt lat="45.4050533" lon="10.6046683"><ele>96.4</ele><time>2026-04-18T09:44:06.735Z</time></trkpt><trkpt lat="45.4051017" lon="10.6047767"><ele>96.8</ele><time>2026-04-18T09:44:07.725Z</time></trkpt><trkpt lat="45.4051733" lon="10.6049067"><ele>97.2</ele><time>2026-04-18T09:44:08.726Z</time></trkpt><trkpt lat="45.40523" lon="10.6049933"><ele>97.60000000000001</ele><time>2026-04-18T09:44:09.73Z</time></trkpt><trkpt lat="45.4052683" lon="10.6051017"><ele>98.0</ele><time>2026-04-18T09:44:10.743Z</time></trkpt><trkpt lat="45.405285" lon="10.605225"><ele>98.0</ele><time>2026-04-18T09:44:11.745Z</time></trkpt><trkpt lat="45.4052717" lon="10.6053783"><ele>98.0</ele><time>2026-04-18T09:44:12.742Z</time></trkpt><trkpt lat="45.4052567" lon="10.6055383"><ele>98.0</ele><time>2026-04-18T09:44:13.731Z</time></trkpt><trkpt lat="45.4052367" lon="10.605715"><ele>98.0</ele><time>2026-04-18T09:44:14.733Z</time></trkpt><trkpt lat="45.4052283" lon="10.6058783"><ele>98.0</ele><time>2026-04-18T09:44:15.741Z</time></trkpt><trkpt lat="45.4051933" lon="10.606045"><ele>98.0</ele><time>2026-04-18T09:44:16.726Z</time></trkpt><trkpt lat="45.40516" lon="10.6062033"><ele>98.0</ele><time>2026-04-18T09:44:17.731Z</time></trkpt><trkpt lat="45.4051367" lon="10.60638"><ele>98.0</ele><time>2026-04-18T09:44:18.738Z</time></trkpt><trkpt lat="45.405105" lon="10.6065567"><ele>97.75</ele><time>2026-04-18T09:44:19.723Z</time></trkpt><trkpt lat="45.4050683" lon="10.6067467"><ele>97.5</ele><time>2026-04-18T09:44:20.739Z</time></trkpt><trkpt lat="45.4050367" lon="10.6069517"><ele>97.25</ele><time>2026-04-18T09:44:21.727Z</time></trkpt><trkpt lat="45.4050183" lon="10.6071483"><ele>97.0</ele><time>2026-04-18T09:44:22.727Z</time></trkpt><trkpt lat="45.4050267" lon="10.6073533"><ele>97.5</ele><time>2026-04-18T09:44:23.745Z</time></trkpt><trkpt lat="45.4050217" lon="10.6075483"><ele>98.0</ele><time>2026-04-18T09:44:24.737Z</time></trkpt><trkpt lat="45.4050167" lon="10.60776"><ele>98.5</ele><time>2026-04-18T09:44:25.736Z</time></trkpt><trkpt lat="45.4050217" lon="10.6079667"><ele>99.0</ele><time>2026-04-18T09:44:26.732Z</time></trkpt><trkpt lat="45.405015" lon="10.608185"><ele>99.5</ele><time>2026-04-18T09:44:27.738Z</time></trkpt><trkpt lat="45.405005" lon="10.6083767"><ele>100.0</ele><time>2026-04-18T09:44:28.73Z</time></trkpt><trkpt lat="45.4050017" lon="10.60859"><ele>100.5</ele><time>2026-04-18T09:44:29.722Z</time></trkpt><trkpt lat="45.4049917" lon="10.608805"><ele>101.0</ele><time>2026-04-18T09:44:30.735Z</time></trkpt><trkpt lat="45.404975" lon="10.60903"><ele>101.0</ele><time>2026-04-18T09:44:31.745Z</time></trkpt><trkpt lat="45.4049533" lon="10.6092483"><ele>101.0</ele><time>2026-04-18T09:44:32.731Z</time></trkpt><trkpt lat="45.4049283" lon="10.60945"><ele>101.0</ele><time>2026-04-18T09:44:33.725Z</time></trkpt><trkpt lat="45.404905" lon="10.609635"><ele>101.0</ele><time>2026-04-18T09:44:34.757Z</time></trkpt><trkpt lat="45.404875" lon="10.6098033"><ele>100.5</ele><time>2026-04-18T09:44:35.729Z</time></trkpt><trkpt lat="45.4048467" lon="10.6100017"><ele>100.0</ele><time>2026-04-18T09:44:36.734Z</time></trkpt><trkpt lat="45.4048333" lon="10.610215"><ele>99.5</ele><time>2026-04-18T09:44:37.734Z</time></trkpt><trkpt lat="45.4048233" lon="10.6104233"><ele>99.0</ele><time>2026-04-18T09:44:38.737Z</time></trkpt><trkpt lat="45.4048183" lon="10.6106183"><ele>99.0</ele><time>2026-04-18T09:44:39.721Z</time></trkpt><trkpt lat="45.4048167" lon="10.6108033"><ele>99.0</ele><time>2026-04-18T09:44:40.741Z</time></trkpt><trkpt lat="45.4048233" lon="10.61099"><ele>99.0</ele><time>2026-04-18T09:44:41.723Z</time></trkpt><trkpt lat="45.4048417" lon="10.6111733"><ele>99.0</ele><time>2026-04-18T09:44:42.745Z</time></trkpt><trkpt lat="45.4048667" lon="10.61135"><ele>98.80000000000001</ele><time>2026-04-18T09:44:43.733Z</time></trkpt><trkpt lat="45.4048917" lon="10.61152"><ele>98.60000000000001</ele><time>2026-04-18T09:44:44.734Z</time></trkpt><trkpt lat="45.4049067" lon="10.611635"><ele>98.4</ele><time>2026-04-18T09:44:45.73Z</time></trkpt><trkpt lat="45.40491" lon="10.6117317"><ele>98.2</ele><time>2026-04-18T09:44:46.733Z</time></trkpt><trkpt lat="45.4049517" lon="10.6118817"><ele>98.0</ele><time>2026-04-18T09:44:48.722Z</time></trkpt><trkpt lat="45.4050467" lon="10.61197"><ele>97.66666666666666</ele><time>2026-04-18T09:44:50.727Z</time></trkpt><trkpt lat="45.4051533" lon="10.6120633"><ele>97.33333333333333</ele><time>2026-04-18T09:44:52.725Z</time></trkpt><trkpt lat="45.405215" lon="10.6121117"><ele>97.0</ele><time>2026-04-18T09:44:53.729Z</time></trkpt><trkpt lat="45.4052833" lon="10.6121667"><ele>96.66666666666666</ele><time>2026-04-18T09:44:54.731Z</time></trkpt><trkpt lat="45.40535" lon="10.612225"><ele>96.33333333333333</ele><time>2026-04-18T09:44:55.736Z</time></trkpt><trkpt lat="45.4054067" lon="10.6123033"><ele>96.0</ele><time>2026-04-18T09:44:56.741Z</time></trkpt><trkpt lat="45.40545" lon="10.61239"><ele>96.0</ele><time>2026-04-18T09:44:57.731Z</time></trkpt><trkpt lat="45.40548" lon="10.6124883"><ele>96.0</ele><time>2026-04-18T09:44:58.729Z</time></trkpt><trkpt lat="45.4055033" lon="10.6125967"><ele>96.0</ele><time>2026-04-18T09:44:59.728Z</time></trkpt><trkpt lat="45.405515" lon="10.6127167"><ele>96.0</ele><time>2026-04-18T09:45:00.729Z</time></trkpt><trkpt lat="45.4055167" lon="10.6128467"><ele>96.0</ele><time>2026-04-18T09:45:01.732Z</time></trkpt><trkpt lat="45.4055267" lon="10.6129917"><ele>96.0</ele><time>2026-04-18T09:45:02.738Z</time></trkpt><trkpt lat="45.405515" lon="10.6131683"><ele>97.0</ele><time>2026-04-18T09:45:03.737Z</time></trkpt><trkpt lat="45.4055133" lon="10.6133533"><ele>98.0</ele><time>2026-04-18T09:45:04.727Z</time></trkpt><trkpt lat="45.40552" lon="10.6135517"><ele>99.0</ele><time>2026-04-18T09:45:05.735Z</time></trkpt><trkpt lat="45.405545" lon="10.61375"><ele>100.0</ele><time>2026-04-18T09:45:06.728Z</time></trkpt><trkpt lat="45.4055483" lon="10.6139533"><ele>100.0</ele><time>2026-04-18T09:45:07.722Z</time></trkpt><trkpt lat="45.4055417" lon="10.614155"><ele>100.0</ele><time>2026-04-18T09:45:08.751Z</time></trkpt><trkpt lat="45.4055283" lon="10.6143567"><ele>100.0</ele><time>2026-04-18T09:45:09.729Z</time></trkpt><trkpt lat="45.4055083" lon="10.6145583"><ele>100.0</ele><time>2026-04-18T09:45:10.745Z</time></trkpt><trkpt lat="45.4054817" lon="10.6147533"><ele>98.25</ele><time>2026-04-18T09:45:11.726Z</time></trkpt><trkpt lat="45.4054483" lon="10.6149317"><ele>96.5</ele><time>2026-04-18T09:45:12.738Z</time></trkpt><trkpt lat="45.4054217" lon="10.6151067"><ele>94.75</ele><time>2026-04-18T09:45:13.727Z</time></trkpt><trkpt lat="45.405395" lon="10.6153083"><ele>93.0</ele><time>2026-04-18T09:45:14.735Z</time></trkpt><trkpt lat="45.4053933" lon="10.6155067"><ele>93.0</ele><time>2026-04-18T09:45:15.726Z</time></trkpt><trkpt lat="45.4053983" lon="10.6157167"><ele>93.0</ele><time>2026-04-18T09:45:16.729Z</time></trkpt><trkpt lat="45.4053933" lon="10.6159267"><ele>93.0</ele><time>2026-04-18T09:45:17.725Z</time></trkpt><trkpt lat="45.4053933" lon="10.616115"><ele>93.0</ele><time>2026-04-18T09:45:18.728Z</time></trkpt><trkpt lat="45.40538" lon="10.616285"><ele>92.75</ele><time>2026-04-18T09:45:19.727Z</time></trkpt><trkpt lat="45.4053867" lon="10.616465"><ele>92.5</ele><time>2026-04-18T09:45:20.73Z</time></trkpt><trkpt lat="45.4054017" lon="10.61663"><ele>92.25</ele><time>2026-04-18T09:45:21.726Z</time></trkpt><trkpt lat="45.40542" lon="10.616805"><ele>92.0</ele><time>2026-04-18T09:45:22.733Z</time></trkpt><trkpt lat="45.4054517" lon="10.6169483"><ele>91.66666666666667</ele><time>2026-04-18T09:45:23.727Z</time></trkpt><trkpt lat="45.4054817" lon="10.6170983"><ele>91.33333333333334</ele><time>2026-04-18T09:45:24.738Z</time></trkpt><trkpt lat="45.4054883" lon="10.6172333"><ele>91.0</ele><time>2026-04-18T09:45:25.736Z</time></trkpt><trkpt lat="45.4054867" lon="10.617345"><ele>90.66666666666667</ele><time>2026-04-18T09:45:26.733Z</time></trkpt><trkpt lat="45.4054967" lon="10.6174517"><ele>90.33333333333333</ele><time>2026-04-18T09:45:27.739Z</time></trkpt><trkpt lat="45.4055083" lon="10.6175467"><ele>90.0</ele><time>2026-04-18T09:45:28.738Z</time></trkpt><trkpt lat="45.4055433" lon="10.6176317"><ele>90.2</ele><time>2026-04-18T09:45:29.731Z</time></trkpt><trkpt lat="45.4055983" lon="10.6177117"><ele>90.4</ele><time>2026-04-18T09:45:30.727Z</time></trkpt><trkpt lat="45.40568" lon="10.6177867"><ele>90.6</ele><time>2026-04-18T09:45:31.731Z</time></trkpt><trkpt lat="45.4057683" lon="10.6178717"><ele>90.8</ele><time>2026-04-18T09:45:32.727Z</time></trkpt><trkpt lat="45.40588" lon="10.6179733"><ele>91.0</ele><time>2026-04-18T09:45:33.723Z</time></trkpt><trkpt lat="45.4059917" lon="10.61807"><ele>91.0</ele><time>2026-04-18T09:45:34.734Z</time></trkpt><trkpt lat="45.4061133" lon="10.6181517"><ele>91.0</ele><time>2026-04-18T09:45:35.742Z</time></trkpt><trkpt lat="45.406205" lon="10.6182733"><ele>91.0</ele><time>2026-04-18T09:45:36.74Z</time></trkpt><trkpt lat="45.4062933" lon="10.6184"><ele>91.0</ele><time>2026-04-18T09:45:37.739Z</time></trkpt><trkpt lat="45.406385" lon="10.6185117"><ele>91.0</ele><time>2026-04-18T09:45:38.74Z</time></trkpt><trkpt lat="45.40646" lon="10.6186"><ele>91.0</ele><time>2026-04-18T09:45:39.726Z</time></trkpt><trkpt lat="45.40654" lon="10.618675"><ele>91.0</ele><time>2026-04-18T09:45:40.731Z</time></trkpt><trkpt lat="45.4066067" lon="10.6187667"><ele>91.0</ele><time>2026-04-18T09:45:41.733Z</time></trkpt><trkpt lat="45.4066517" lon="10.6188433"><ele>91.0</ele><time>2026-04-18T09:45:42.741Z</time></trkpt><trkpt lat="45.4066833" lon="10.61893"><ele>91.0</ele><time>2026-04-18T09:45:43.732Z</time></trkpt><trkpt lat="45.4067" lon="10.6190383"><ele>91.0</ele><time>2026-04-18T09:45:44.737Z</time></trkpt><trkpt lat="45.4067017" lon="10.6191517"><ele>91.0</ele><time>2026-04-18T09:45:45.748Z</time></trkpt><trkpt lat="45.406695" lon="10.6192517"><ele>91.0</ele><time>2026-04-18T09:45:46.74Z</time></trkpt><trkpt lat="45.4066783" lon="10.6193867"><ele>91.0</ele><time>2026-04-18T09:45:48.735Z</time></trkpt><trkpt lat="45.40671" lon="10.6194767"><ele>91.0</ele><time>2026-04-18T09:45:50.734Z</time></trkpt><trkpt lat="45.40681" lon="10.6195017"><ele>91.0</ele><time>2026-04-18T09:45:52.736Z</time></trkpt><trkpt lat="45.4068767" lon="10.6195083"><ele>90.83333333333333</ele><time>2026-04-18T09:45:53.729Z</time></trkpt><trkpt lat="45.406945" lon="10.61952"><ele>90.66666666666666</ele><time>2026-04-18T09:45:54.734Z</time></trkpt><trkpt lat="45.40701" lon="10.6195433"><ele>90.5</ele><time>2026-04-18T09:45:55.727Z</time></trkpt><trkpt lat="45.4070617" lon="10.6195967"><ele>90.33333333333333</ele><time>2026-04-18T09:45:56.721Z</time></trkpt><trkpt lat="45.4071083" lon="10.61968"><ele>90.16666666666667</ele><time>2026-04-18T09:45:57.73Z</time></trkpt><trkpt lat="45.4071517" lon="10.61979"><ele>90.0</ele><time>2026-04-18T09:45:58.734Z</time></trkpt><trkpt lat="45.407205" lon="10.6198967"><ele>91.25</ele><time>2026-04-18T09:45:59.741Z</time></trkpt><trkpt lat="45.4072733" lon="10.6200067"><ele>92.5</ele><time>2026-04-18T09:46:00.727Z</time></trkpt><trkpt lat="45.407345" lon="10.620125"><ele>93.75</ele><time>2026-04-18T09:46:01.722Z</time></trkpt><trkpt lat="45.40744" lon="10.62025"><ele>95.0</ele><time>2026-04-18T09:46:02.728Z</time></trkpt><trkpt lat="45.4075467" lon="10.6203567"><ele>95.0</ele><time>2026-04-18T09:46:03.727Z</time></trkpt><trkpt lat="45.4076583" lon="10.6204717"><ele>95.0</ele><time>2026-04-18T09:46:04.724Z</time></trkpt><trkpt lat="45.407765" lon="10.6205867"><ele>95.0</ele><time>2026-04-18T09:46:05.721Z</time></trkpt><trkpt lat="45.4078933" lon="10.6207067"><ele>95.0</ele><time>2026-04-18T09:46:06.737Z</time></trkpt><trkpt lat="45.4080117" lon="10.620825"><ele>95.25</ele><time>2026-04-18T09:46:07.723Z</time></trkpt><trkpt lat="45.4081133" lon="10.6209433"><ele>95.5</ele><time>2026-04-18T09:46:08.729Z</time></trkpt><trkpt lat="45.4082067" lon="10.6210633"><ele>95.75</ele><time>2026-04-18T09:46:09.735Z</time></trkpt><trkpt lat="45.4082967" lon="10.6211833"><ele>96.0</ele><time>2026-04-18T09:46:10.725Z</time></trkpt><trkpt lat="45.4083533" lon="10.6213017"><ele>96.0</ele><time>2026-04-18T09:46:11.735Z</time></trkpt><trkpt lat="45.4084167" lon="10.621395"><ele>96.0</ele><time>2026-04-18T09:46:12.732Z</time></trkpt><trkpt lat="45.4084817" lon="10.6214933"><ele>96.0</ele><time>2026-04-18T09:46:13.725Z</time></trkpt><trkpt lat="45.4085383" lon="10.621605"><ele>96.0</ele><time>2026-04-18T09:46:14.734Z</time></trkpt><trkpt lat="45.4086383" lon="10.6216867"><ele>96.0</ele><time>2026-04-18T09:46:15.725Z</time></trkpt><trkpt lat="45.40872" lon="10.6217733"><ele>96.0</ele><time>2026-04-18T09:46:16.729Z</time></trkpt><trkpt lat="45.4087867" lon="10.6218517"><ele>96.0</ele><time>2026-04-18T09:46:17.743Z</time></trkpt><trkpt lat="45.40885" lon="10.6218833"><ele>96.0</ele><time>2026-04-18T09:46:18.744Z</time></trkpt><trkpt lat="45.4089083" lon="10.6219267"><ele>96.0</ele><time>2026-04-18T09:46:19.731Z</time></trkpt><trkpt lat="45.4089883" lon="10.62202"><ele>96.0</ele><time>2026-04-18T09:46:21.725Z</time></trkpt><trkpt lat="45.4090883" lon="10.6221333"><ele>96.33333333333333</ele><time>2026-04-18T09:46:23.728Z</time></trkpt><trkpt lat="45.4091417" lon="10.62219"><ele>96.66666666666666</ele><time>2026-04-18T09:46:24.735Z</time></trkpt><trkpt lat="45.4092333" lon="10.6222933"><ele>97.0</ele><time>2026-04-18T09:46:26.733Z</time></trkpt><trkpt lat="45.4092867" lon="10.622355"><ele>97.33333333333333</ele><time>2026-04-18T09:46:27.731Z</time></trkpt><trkpt lat="45.409345" lon="10.622415"><ele>97.66666666666666</ele><time>2026-04-18T09:46:28.745Z</time></trkpt><trkpt lat="45.4094" lon="10.62248"><ele>98.0</ele><time>2026-04-18T09:46:29.73Z</time></trkpt><trkpt lat="45.409465" lon="10.622555"><ele>98.0</ele><time>2026-04-18T09:46:30.736Z</time></trkpt><trkpt lat="45.40953" lon="10.62263"><ele>98.0</ele><time>2026-04-18T09:46:31.732Z</time></trkpt><trkpt lat="45.409615" lon="10.622715"><ele>98.0</ele><time>2026-04-18T09:46:32.753Z</time></trkpt><trkpt lat="45.4097017" lon="10.6227883"><ele>98.0</ele><time>2026-04-18T09:46:33.727Z</time></trkpt><trkpt lat="45.40978" lon="10.622855"><ele>98.0</ele><time>2026-04-18T09:46:34.725Z</time></trkpt><trkpt lat="45.4098583" lon="10.622915"><ele>98.33333333333333</ele><time>2026-04-18T09:46:35.727Z</time></trkpt><trkpt lat="45.4099317" lon="10.62297"><ele>98.66666666666666</ele><time>2026-04-18T09:46:36.734Z</time></trkpt><trkpt lat="45.41" lon="10.623015"><ele>99.0</ele><time>2026-04-18T09:46:37.731Z</time></trkpt><trkpt lat="45.41008" lon="10.623065"><ele>99.33333333333334</ele><time>2026-04-18T09:46:38.736Z</time></trkpt><trkpt lat="45.41015" lon="10.6231017"><ele>99.66666666666667</ele><time>2026-04-18T09:46:39.722Z</time></trkpt><trkpt lat="45.4102517" lon="10.6231733"><ele>100.0</ele><time>2026-04-18T09:46:41.725Z</time></trkpt><trkpt lat="45.4103517" lon="10.6232283"><ele>100.00000000000001</ele><time>2026-04-18T09:46:43.726Z</time></trkpt><trkpt lat="45.410475" lon="10.6232467"><ele>100.0</ele><time>2026-04-18T09:46:45.737Z</time></trkpt><trkpt lat="45.4105417" lon="10.62326"><ele>100.0</ele><time>2026-04-18T09:46:46.725Z</time></trkpt><trkpt lat="45.4106183" lon="10.6232883"><ele>100.0</ele><time>2026-04-18T09:46:47.73Z</time></trkpt><trkpt lat="45.4106817" lon="10.6233033"><ele>100.00000000000001</ele><time>2026-04-18T09:46:48.732Z</time></trkpt><trkpt lat="45.410785" lon="10.6233383"><ele>100.0</ele><time>2026-04-18T09:46:50.734Z</time></trkpt><trkpt lat="45.4108433" lon="10.623375"><ele>102.2</ele><time>2026-04-18T09:46:52.736Z</time></trkpt><trkpt lat="45.4108467" lon="10.6234933"><ele>104.4</ele><time>2026-04-18T09:47:01.738Z</time></trkpt><trkpt lat="45.41078" lon="10.6235667"><ele>106.6</ele><time>2026-04-18T09:47:02.743Z</time></trkpt><trkpt lat="45.410705" lon="10.62365"><ele>108.8</ele><time>2026-04-18T09:47:03.732Z</time></trkpt><trkpt lat="45.4106267" lon="10.6237667"><ele>111.0</ele><time>2026-04-18T09:47:04.743Z</time></trkpt><trkpt lat="45.4105317" lon="10.6239317"><ele>106.66666666666666</ele><time>2026-04-18T09:47:05.733Z</time></trkpt><trkpt lat="45.4104533" lon="10.62413"><ele>102.33333333333333</ele><time>2026-04-18T09:47:06.738Z</time></trkpt><trkpt lat="45.4103883" lon="10.62436"><ele>98.0</ele><time>2026-04-18T09:47:07.736Z</time></trkpt><trkpt lat="45.4103617" lon="10.62459"><ele>98.0</ele><time>2026-04-18T09:47:08.726Z</time></trkpt><trkpt lat="45.4103617" lon="10.6247983"><ele>98.0</ele><time>2026-04-18T09:47:09.724Z</time></trkpt><trkpt lat="45.410365" lon="10.62498"><ele>98.0</ele><time>2026-04-18T09:47:10.728Z</time></trkpt><trkpt lat="45.410345" lon="10.6251517"><ele>98.0</ele><time>2026-04-18T09:47:11.729Z</time></trkpt><trkpt lat="45.410315" lon="10.6252967"><ele>97.75</ele><time>2026-04-18T09:47:12.726Z</time></trkpt><trkpt lat="45.4103" lon="10.6254467"><ele>97.5</ele><time>2026-04-18T09:47:13.737Z</time></trkpt><trkpt lat="45.4102983" lon="10.6255683"><ele>97.25</ele><time>2026-04-18T09:47:14.732Z</time></trkpt><trkpt lat="45.410395" lon="10.6257983"><ele>97.0</ele><time>2026-04-18T09:47:16.738Z</time></trkpt><trkpt lat="45.4106217" lon="10.62601"><ele>98.66666666666667</ele><time>2026-04-18T09:47:18.757Z</time></trkpt><trkpt lat="45.41074" lon="10.6261867"><ele>100.33333333333334</ele><time>2026-04-18T09:47:19.74Z</time></trkpt><trkpt lat="45.41086" lon="10.626365"><ele>102.0</ele><time>2026-04-18T09:47:20.75Z</time></trkpt><trkpt lat="45.4109617" lon="10.6265467"><ele>102.0</ele><time>2026-04-18T09:47:21.732Z</time></trkpt><trkpt lat="45.4110567" lon="10.62675"><ele>102.0</ele><time>2026-04-18T09:47:22.736Z</time></trkpt><trkpt lat="45.4111267" lon="10.6269733"><ele>102.0</ele><time>2026-04-18T09:47:23.734Z</time></trkpt><trkpt lat="45.4111967" lon="10.627215"><ele>101.66666666666666</ele><time>2026-04-18T09:47:24.734Z</time></trkpt><trkpt lat="45.4112567" lon="10.6274767"><ele>101.33333333333333</ele><time>2026-04-18T09:47:25.735Z</time></trkpt><trkpt lat="45.411315" lon="10.6277633"><ele>101.0</ele><time>2026-04-18T09:47:26.734Z</time></trkpt><trkpt lat="45.4113483" lon="10.6281"><ele>100.5</ele><time>2026-04-18T09:47:27.727Z</time></trkpt><trkpt lat="45.4113767" lon="10.6284683"><ele>100.0</ele><time>2026-04-18T09:47:28.727Z</time></trkpt><trkpt lat="45.4113767" lon="10.6288333"><ele>99.5</ele><time>2026-04-18T09:47:29.743Z</time></trkpt><trkpt lat="45.4113617" lon="10.6291967"><ele>99.0</ele><time>2026-04-18T09:47:30.733Z</time></trkpt><trkpt lat="45.4113417" lon="10.6295867"><ele>99.0</ele><time>2026-04-18T09:47:31.725Z</time></trkpt><trkpt lat="45.4113417" lon="10.6299317"><ele>99.0</ele><time>2026-04-18T09:47:32.726Z</time></trkpt><trkpt lat="45.4113317" lon="10.63024"><ele>99.0</ele><time>2026-04-18T09:47:33.735Z</time></trkpt><trkpt lat="45.41133" lon="10.6305"><ele>99.0</ele><time>2026-04-18T09:47:34.723Z</time></trkpt><trkpt lat="45.4113317" lon="10.630725"><ele>99.0</ele><time>2026-04-18T09:47:35.728Z</time></trkpt><trkpt lat="45.4113217" lon="10.630925"><ele>99.0</ele><time>2026-04-18T09:47:36.728Z</time></trkpt><trkpt lat="45.4112867" lon="10.6310933"><ele>99.0</ele><time>2026-04-18T09:47:37.727Z</time></trkpt><trkpt lat="45.4112383" lon="10.6312367"><ele>99.0</ele><time>2026-04-18T09:47:38.736Z</time></trkpt><trkpt lat="45.4111933" lon="10.631375"><ele>99.0</ele><time>2026-04-18T09:47:39.734Z</time></trkpt><trkpt lat="45.411125" lon="10.6314683"><ele>99.0</ele><time>2026-04-18T09:47:40.723Z</time></trkpt><trkpt lat="45.4110567" lon="10.6315567"><ele>100.2</ele><time>2026-04-18T09:47:41.733Z</time></trkpt><trkpt lat="45.4110183" lon="10.631645"><ele>101.4</ele><time>2026-04-18T09:47:42.733Z</time></trkpt><trkpt lat="45.4110017" lon="10.63174"><ele>102.6</ele><time>2026-04-18T09:47:43.723Z</time></trkpt><trkpt lat="45.41101" lon="10.631845"><ele>103.8</ele><time>2026-04-18T09:47:44.725Z</time></trkpt><trkpt lat="45.411115" lon="10.63193"><ele>105.0</ele><time>2026-04-18T09:47:45.747Z</time></trkpt><trkpt lat="45.4112133" lon="10.632025"><ele>107.66666666666666</ele><time>2026-04-18T09:47:46.725Z</time></trkpt><trkpt lat="45.411355" lon="10.63211"><ele>110.33333333333333</ele><time>2026-04-18T09:47:47.727Z</time></trkpt><trkpt lat="45.411515" lon="10.63218"><ele>113.0</ele><time>2026-04-18T09:47:48.721Z</time></trkpt><trkpt lat="45.411685" lon="10.6322767"><ele>113.0</ele><time>2026-04-18T09:47:49.724Z</time></trkpt><trkpt lat="45.4118733" lon="10.6323317"><ele>113.0</ele><time>2026-04-18T09:47:50.724Z</time></trkpt><trkpt lat="45.4120983" lon="10.6323417"><ele>113.0</ele><time>2026-04-18T09:47:51.735Z</time></trkpt><trkpt lat="45.4123133" lon="10.6323783"><ele>112.0</ele><time>2026-04-18T09:47:52.733Z</time></trkpt><trkpt lat="45.4125" lon="10.6324167"><ele>111.0</ele><time>2026-04-18T09:47:53.724Z</time></trkpt><trkpt lat="45.4126883" lon="10.6324417"><ele>110.0</ele><time>2026-04-18T09:47:54.733Z</time></trkpt><trkpt lat="45.4128833" lon="10.632465"><ele>109.0</ele><time>2026-04-18T09:47:55.742Z</time></trkpt><trkpt lat="45.41307" lon="10.6325817"><ele>108.0</ele><time>2026-04-18T09:47:56.728Z</time></trkpt><trkpt lat="45.4132717" lon="10.6327"><ele>107.0</ele><time>2026-04-18T09:47:57.726Z</time></trkpt><trkpt lat="45.41349" lon="10.6328467"><ele>110.5</ele><time>2026-04-18T09:47:58.731Z</time></trkpt><trkpt lat="45.4137167" lon="10.6329983"><ele>114.0</ele><time>2026-04-18T09:47:59.729Z</time></trkpt><trkpt lat="45.4139533" lon="10.6331383"><ele>114.0</ele><time>2026-04-18T09:48:00.738Z</time></trkpt><trkpt lat="45.41421" lon="10.6332633"><ele>114.0</ele><time>2026-04-18T09:48:01.732Z</time></trkpt><trkpt lat="45.4144767" lon="10.6333567"><ele>113.0</ele><time>2026-04-18T09:48:02.742Z</time></trkpt><trkpt lat="45.4146917" lon="10.6334433"><ele>112.0</ele><time>2026-04-18T09:48:03.729Z</time></trkpt><trkpt lat="45.414865" lon="10.6335417"><ele>111.0</ele><time>2026-04-18T09:48:04.724Z</time></trkpt><trkpt lat="45.415035" lon="10.6336267"><ele>112.66666666666666</ele><time>2026-04-18T09:48:05.73Z</time></trkpt><trkpt lat="45.4152" lon="10.6337033"><ele>114.33333333333333</ele><time>2026-04-18T09:48:06.731Z</time></trkpt><trkpt lat="45.415375" lon="10.6337633"><ele>116.0</ele><time>2026-04-18T09:48:07.723Z</time></trkpt><trkpt lat="45.4155383" lon="10.6338333"><ele>116.0</ele><time>2026-04-18T09:48:08.723Z</time></trkpt><trkpt lat="45.4156783" lon="10.63391"><ele>116.0</ele><time>2026-04-18T09:48:09.725Z</time></trkpt><trkpt lat="45.41582" lon="10.6339667"><ele>116.0</ele><time>2026-04-18T09:48:10.743Z</time></trkpt><trkpt lat="45.4159533" lon="10.6340467"><ele>116.0</ele><time>2026-04-18T09:48:11.728Z</time></trkpt><trkpt lat="45.4160967" lon="10.6341433"><ele>116.0</ele><time>2026-04-18T09:48:12.792Z</time></trkpt><trkpt lat="45.4162583" lon="10.63424"><ele>116.0</ele><time>2026-04-18T09:48:13.758Z</time></trkpt><trkpt lat="45.4163933" lon="10.6343383"><ele>116.0</ele><time>2026-04-18T09:48:14.739Z</time></trkpt><trkpt lat="45.4165583" lon="10.6344"><ele>117.66666666666666</ele><time>2026-04-18T09:48:15.751Z</time></trkpt><trkpt lat="45.4167267" lon="10.63448"><ele>119.33333333333334</ele><time>2026-04-18T09:48:16.72Z</time></trkpt><trkpt lat="45.4169017" lon="10.634575"><ele>121.0</ele><time>2026-04-18T09:48:17.727Z</time></trkpt><trkpt lat="45.4170733" lon="10.6346867"><ele>120.0</ele><time>2026-04-18T09:48:18.741Z</time></trkpt><trkpt lat="45.4172467" lon="10.6347833"><ele>119.0</ele><time>2026-04-18T09:48:19.731Z</time></trkpt><trkpt lat="45.4174067" lon="10.634885"><ele>118.0</ele><time>2026-04-18T09:48:20.749Z</time></trkpt><trkpt lat="45.4175617" lon="10.63497"><ele>118.0</ele><time>2026-04-18T09:48:21.732Z</time></trkpt><trkpt lat="45.4176967" lon="10.6350367"><ele>118.0</ele><time>2026-04-18T09:48:22.735Z</time></trkpt><trkpt lat="45.4178133" lon="10.635075"><ele>118.0</ele><time>2026-04-18T09:48:23.728Z</time></trkpt><trkpt lat="45.4179383" lon="10.635085"><ele>118.0</ele><time>2026-04-18T09:48:24.736Z</time></trkpt><trkpt lat="45.4180617" lon="10.635085"><ele>117.25</ele><time>2026-04-18T09:48:25.738Z</time></trkpt><trkpt lat="45.4182017" lon="10.6350933"><ele>116.5</ele><time>2026-04-18T09:48:26.728Z</time></trkpt><trkpt lat="45.4183517" lon="10.6351233"><ele>115.75</ele><time>2026-04-18T09:48:27.734Z</time></trkpt><trkpt lat="45.4184867" lon="10.635105"><ele>115.0</ele><time>2026-04-18T09:48:28.745Z</time></trkpt><trkpt lat="45.4186467" lon="10.6350883"><ele>115.0</ele><time>2026-04-18T09:48:29.733Z</time></trkpt><trkpt lat="45.4187783" lon="10.6351083"><ele>115.0</ele><time>2026-04-18T09:48:30.731Z</time></trkpt><trkpt lat="45.4189017" lon="10.635095"><ele>115.0</ele><time>2026-04-18T09:48:31.732Z</time></trkpt><trkpt lat="45.41901" lon="10.6350917"><ele>115.0</ele><time>2026-04-18T09:48:32.736Z</time></trkpt><trkpt lat="45.41911" lon="10.635065"><ele>115.66666666666667</ele><time>2026-04-18T09:48:33.732Z</time></trkpt><trkpt lat="45.419195" lon="10.6350467"><ele>116.33333333333334</ele><time>2026-04-18T09:48:34.735Z</time></trkpt><trkpt lat="45.4192583" lon="10.6350367"><ele>117.0</ele><time>2026-04-18T09:48:35.759Z</time></trkpt><trkpt lat="45.41936" lon="10.635035"><ele>117.66666666666666</ele><time>2026-04-18T09:48:37.739Z</time></trkpt><trkpt lat="45.4194317" lon="10.63512"><ele>118.33333333333333</ele><time>2026-04-18T09:48:39.744Z</time></trkpt><trkpt lat="45.419465" lon="10.6352033"><ele>119.0</ele><time>2026-04-18T09:48:40.729Z</time></trkpt><trkpt lat="45.4194967" lon="10.6353133"><ele>119.0</ele><time>2026-04-18T09:48:41.725Z</time></trkpt><trkpt lat="45.4195267" lon="10.6354617"><ele>119.0</ele><time>2026-04-18T09:48:42.75Z</time></trkpt><trkpt lat="45.4195633" lon="10.6356317"><ele>119.0</ele><time>2026-04-18T09:48:43.735Z</time></trkpt><trkpt lat="45.4195967" lon="10.6358483"><ele>119.0</ele><time>2026-04-18T09:48:44.723Z</time></trkpt><trkpt lat="45.41965" lon="10.6360533"><ele>119.75</ele><time>2026-04-18T09:48:45.729Z</time></trkpt><trkpt lat="45.419705" lon="10.6362367"><ele>120.5</ele><time>2026-04-18T09:48:46.733Z</time></trkpt><trkpt lat="45.419765" lon="10.636385"><ele>121.25</ele><time>2026-04-18T09:48:47.731Z</time></trkpt><trkpt lat="45.419815" lon="10.636525"><ele>122.0</ele><time>2026-04-18T09:48:48.728Z</time></trkpt><trkpt lat="45.4198567" lon="10.6366667"><ele>122.0</ele><time>2026-04-18T09:48:49.726Z</time></trkpt><trkpt lat="45.4198933" lon="10.63679"><ele>121.99999999999999</ele><time>2026-04-18T09:48:50.728Z</time></trkpt><trkpt lat="45.4199217" lon="10.6369117"><ele>121.99999999999999</ele><time>2026-04-18T09:48:51.724Z</time></trkpt><trkpt lat="45.419935" lon="10.637035"><ele>122.0</ele><time>2026-04-18T09:48:52.742Z</time></trkpt><trkpt lat="45.41993" lon="10.637165"><ele>122.0</ele><time>2026-04-18T09:48:53.733Z</time></trkpt><trkpt lat="45.4199033" lon="10.637305"><ele>122.0</ele><time>2026-04-18T09:48:54.74Z</time></trkpt><trkpt lat="45.41986" lon="10.637445"><ele>122.0</ele><time>2026-04-18T09:48:55.739Z</time></trkpt><trkpt lat="45.419805" lon="10.6375917"><ele>122.0</ele><time>2026-04-18T09:48:56.752Z</time></trkpt><trkpt lat="45.4197467" lon="10.6377383"><ele>122.0</ele><time>2026-04-18T09:48:57.722Z</time></trkpt><trkpt lat="45.4196867" lon="10.637895"><ele>122.0</ele><time>2026-04-18T09:48:58.736Z</time></trkpt><trkpt lat="45.41962" lon="10.6380583"><ele>122.0</ele><time>2026-04-18T09:48:59.748Z</time></trkpt><trkpt lat="45.4195483" lon="10.638225"><ele>122.0</ele><time>2026-04-18T09:49:00.734Z</time></trkpt><trkpt lat="45.41947" lon="10.6383883"><ele>122.0</ele><time>2026-04-18T09:49:01.737Z</time></trkpt><trkpt lat="45.4193817" lon="10.63855"><ele>124.0</ele><time>2026-04-18T09:49:02.733Z</time></trkpt><trkpt lat="45.4193" lon="10.6387"><ele>125.99999999999999</ele><time>2026-04-18T09:49:03.746Z</time></trkpt><trkpt lat="45.4192267" lon="10.63883"><ele>127.99999999999999</ele><time>2026-04-18T09:49:04.734Z</time></trkpt><trkpt lat="45.4191733" lon="10.638925"><ele>130.0</ele><time>2026-04-18T09:49:05.732Z</time></trkpt><trkpt lat="45.4191267" lon="10.6390133"><ele>132.0</ele><time>2026-04-18T09:49:06.736Z</time></trkpt><trkpt lat="45.41908" lon="10.6391283"><ele>132.0</ele><time>2026-04-18T09:49:07.724Z</time></trkpt><trkpt lat="45.41904" lon="10.63925"><ele>132.0</ele><time>2026-04-18T09:49:08.722Z</time></trkpt><trkpt lat="45.418995" lon="10.639375"><ele>132.0</ele><time>2026-04-18T09:49:09.731Z</time></trkpt><trkpt lat="45.418955" lon="10.6394783"><ele>132.0</ele><time>2026-04-18T09:49:10.733Z</time></trkpt><trkpt lat="45.4189217" lon="10.639595"><ele>132.0</ele><time>2026-04-18T09:49:11.725Z</time></trkpt><trkpt lat="45.4189017" lon="10.6397233"><ele>132.0</ele><time>2026-04-18T09:49:12.736Z</time></trkpt><trkpt lat="45.4188633" lon="10.63986"><ele>132.0</ele><time>2026-04-18T09:49:13.726Z</time></trkpt><trkpt lat="45.4188767" lon="10.6400083"><ele>132.0</ele><time>2026-04-18T09:49:14.726Z</time></trkpt><trkpt lat="45.41889" lon="10.6401483"><ele>132.0</ele><time>2026-04-18T09:49:15.731Z</time></trkpt><trkpt lat="45.4188767" lon="10.6402867"><ele>132.0</ele><time>2026-04-18T09:49:16.724Z</time></trkpt><trkpt lat="45.418845" lon="10.6404133"><ele>129.5</ele><time>2026-04-18T09:49:17.721Z</time></trkpt><trkpt lat="45.418795" lon="10.6405533"><ele>127.0</ele><time>2026-04-18T09:49:18.741Z</time></trkpt><trkpt lat="45.4187283" lon="10.6406983"><ele>124.5</ele><time>2026-04-18T09:49:19.732Z</time></trkpt><trkpt lat="45.418645" lon="10.64086"><ele>122.0</ele><time>2026-04-18T09:49:20.723Z</time></trkpt><trkpt lat="45.4185817" lon="10.641015"><ele>123.0</ele><time>2026-04-18T09:49:21.723Z</time></trkpt><trkpt lat="45.4185283" lon="10.641175"><ele>124.0</ele><time>2026-04-18T09:49:22.737Z</time></trkpt><trkpt lat="45.418475" lon="10.6413267"><ele>125.0</ele><time>2026-04-18T09:49:23.732Z</time></trkpt><trkpt lat="45.4184167" lon="10.6414883"><ele>126.0</ele><time>2026-04-18T09:49:24.729Z</time></trkpt><trkpt lat="45.4183617" lon="10.64163"><ele>126.0</ele><time>2026-04-18T09:49:25.739Z</time></trkpt><trkpt lat="45.418295" lon="10.6417517"><ele>126.0</ele><time>2026-04-18T09:49:26.733Z</time></trkpt><trkpt lat="45.418225" lon="10.6418633"><ele>126.0</ele><time>2026-04-18T09:49:27.727Z</time></trkpt><trkpt lat="45.41814" lon="10.6419667"><ele>126.0</ele><time>2026-04-18T09:49:28.729Z</time></trkpt><trkpt lat="45.41806" lon="10.6420583"><ele>126.0</ele><time>2026-04-18T09:49:29.723Z</time></trkpt><trkpt lat="45.4179867" lon="10.6421433"><ele>124.8</ele><time>2026-04-18T09:49:30.731Z</time></trkpt><trkpt lat="45.4179267" lon="10.6422333"><ele>123.6</ele><time>2026-04-18T09:49:31.74Z</time></trkpt><trkpt lat="45.4178667" lon="10.64235"><ele>122.4</ele><time>2026-04-18T09:49:32.726Z</time></trkpt><trkpt lat="45.4178383" lon="10.6425083"><ele>121.2</ele><time>2026-04-18T09:49:33.729Z</time></trkpt><trkpt lat="45.4178133" lon="10.642625"><ele>120.0</ele><time>2026-04-18T09:49:34.726Z</time></trkpt><trkpt lat="45.4177983" lon="10.6427767"><ele>120.16666666666667</ele><time>2026-04-18T09:49:35.741Z</time></trkpt><trkpt lat="45.4177967" lon="10.6428983"><ele>120.33333333333334</ele><time>2026-04-18T09:49:36.731Z</time></trkpt><trkpt lat="45.4177883" lon="10.64305"><ele>120.5</ele><time>2026-04-18T09:49:37.743Z</time></trkpt><trkpt lat="45.4177833" lon="10.6431967"><ele>120.66666666666667</ele><time>2026-04-18T09:49:38.734Z</time></trkpt><trkpt lat="45.4177717" lon="10.6433083"><ele>120.83333333333334</ele><time>2026-04-18T09:49:39.727Z</time></trkpt><trkpt lat="45.4177617" lon="10.6434067"><ele>121.0</ele><time>2026-04-18T09:49:40.74Z</time></trkpt><trkpt lat="45.4177317" lon="10.6435483"><ele>120.66666666666667</ele><time>2026-04-18T09:49:42.728Z</time></trkpt><trkpt lat="45.4177383" lon="10.643655"><ele>120.33333333333334</ele><time>2026-04-18T09:49:45.736Z</time></trkpt><trkpt lat="45.4178117" lon="10.6437167"><ele>120.0</ele><time>2026-04-18T09:49:47.747Z</time></trkpt><trkpt lat="45.4178717" lon="10.643755"><ele>119.66666666666666</ele><time>2026-04-18T09:49:48.727Z</time></trkpt><trkpt lat="45.417955" lon="10.6437883"><ele>119.33333333333333</ele><time>2026-04-18T09:49:49.742Z</time></trkpt><trkpt lat="45.4180717" lon="10.6438033"><ele>119.0</ele><time>2026-04-18T09:49:50.743Z</time></trkpt><trkpt lat="45.4181983" lon="10.6438133"><ele>121.0</ele><time>2026-04-18T09:49:51.734Z</time></trkpt><trkpt lat="45.418365" lon="10.6438233"><ele>123.0</ele><time>2026-04-18T09:49:52.738Z</time></trkpt><trkpt lat="45.4185167" lon="10.6438133"><ele>125.0</ele><time>2026-04-18T09:49:53.724Z</time></trkpt><trkpt lat="45.4186633" lon="10.6437833"><ele>125.0</ele><time>2026-04-18T09:49:54.728Z</time></trkpt><trkpt lat="45.4188083" lon="10.6437783"><ele>125.0</ele><time>2026-04-18T09:49:55.721Z</time></trkpt><trkpt lat="45.4189333" lon="10.6437517"><ele>125.0</ele><time>2026-04-18T09:49:56.747Z</time></trkpt><trkpt lat="45.4190533" lon="10.64372"><ele>125.0</ele><time>2026-04-18T09:49:57.732Z</time></trkpt><trkpt lat="45.4191567" lon="10.6436917"><ele>126.33333333333333</ele><time>2026-04-18T09:49:58.734Z</time></trkpt><trkpt lat="45.419255" lon="10.6436567"><ele>127.66666666666666</ele><time>2026-04-18T09:49:59.725Z</time></trkpt><trkpt lat="45.4193483" lon="10.6436283"><ele>129.0</ele><time>2026-04-18T09:50:00.724Z</time></trkpt><trkpt lat="45.41943" lon="10.6436033"><ele>130.33333333333334</ele><time>2026-04-18T09:50:01.735Z</time></trkpt><trkpt lat="45.4195067" lon="10.6435883"><ele>131.66666666666669</ele><time>2026-04-18T09:50:02.752Z</time></trkpt><trkpt lat="45.4195817" lon="10.6435867"><ele>133.0</ele><time>2026-04-18T09:50:03.734Z</time></trkpt><trkpt lat="45.4196583" lon="10.6436033"><ele>133.8</ele><time>2026-04-18T09:50:04.732Z</time></trkpt><trkpt lat="45.4197383" lon="10.6436333"><ele>134.60000000000002</ele><time>2026-04-18T09:50:05.731Z</time></trkpt><trkpt lat="45.4198233" lon="10.6436733"><ele>135.39999999999998</ele><time>2026-04-18T09:50:06.729Z</time></trkpt><trkpt lat="45.419905" lon="10.64373"><ele>136.2</ele><time>2026-04-18T09:50:07.731Z</time></trkpt><trkpt lat="45.4199867" lon="10.6437867"><ele>137.0</ele><time>2026-04-18T09:50:08.73Z</time></trkpt><trkpt lat="45.42007" lon="10.6438567"><ele>137.0</ele><time>2026-04-18T09:50:09.73Z</time></trkpt><trkpt lat="45.4201683" lon="10.6439467"><ele>137.0</ele><time>2026-04-18T09:50:10.76Z</time></trkpt><trkpt lat="45.4202433" lon="10.64404"><ele>137.0</ele><time>2026-04-18T09:50:11.725Z</time></trkpt><trkpt lat="45.4202967" lon="10.644135"><ele>137.0</ele><time>2026-04-18T09:50:12.725Z</time></trkpt><trkpt lat="45.4203533" lon="10.64425"><ele>137.0</ele><time>2026-04-18T09:50:13.725Z</time></trkpt><trkpt lat="45.4204267" lon="10.644385"><ele>136.2</ele><time>2026-04-18T09:50:14.725Z</time></trkpt><trkpt lat="45.4204767" lon="10.6444883"><ele>135.39999999999998</ele><time>2026-04-18T09:50:15.729Z</time></trkpt><trkpt lat="45.4205283" lon="10.6446167"><ele>134.60000000000002</ele><time>2026-04-18T09:50:16.732Z</time></trkpt><trkpt lat="45.4205883" lon="10.6447283"><ele>133.8</ele><time>2026-04-18T09:50:17.728Z</time></trkpt><trkpt lat="45.420675" lon="10.644825"><ele>133.0</ele><time>2026-04-18T09:50:18.737Z</time></trkpt><trkpt lat="45.4207167" lon="10.6449233"><ele>133.0</ele><time>2026-04-18T09:50:19.726Z</time></trkpt><trkpt lat="45.420765" lon="10.6450333"><ele>133.0</ele><time>2026-04-18T09:50:20.722Z</time></trkpt><trkpt lat="45.4208317" lon="10.6451333"><ele>133.0</ele><time>2026-04-18T09:50:21.725Z</time></trkpt><trkpt lat="45.4209083" lon="10.64524"><ele>133.0</ele><time>2026-04-18T09:50:22.737Z</time></trkpt><trkpt lat="45.420975" lon="10.645345"><ele>133.0</ele><time>2026-04-18T09:50:23.74Z</time></trkpt><trkpt lat="45.4210133" lon="10.6454483"><ele>133.0</ele><time>2026-04-18T09:50:24.726Z</time></trkpt><trkpt lat="45.4210633" lon="10.6455583"><ele>133.0</ele><time>2026-04-18T09:50:25.743Z</time></trkpt><trkpt lat="45.4211283" lon="10.6456667"><ele>133.0</ele><time>2026-04-18T09:50:26.739Z</time></trkpt><trkpt lat="45.421195" lon="10.6457867"><ele>133.0</ele><time>2026-04-18T09:50:27.729Z</time></trkpt><trkpt lat="45.4212733" lon="10.6459133"><ele>133.0</ele><time>2026-04-18T09:50:28.728Z</time></trkpt><trkpt lat="45.42137" lon="10.646045"><ele>131.0</ele><time>2026-04-18T09:50:29.726Z</time></trkpt><trkpt lat="45.4214517" lon="10.6461717"><ele>129.0</ele><time>2026-04-18T09:50:30.738Z</time></trkpt><trkpt lat="45.4215217" lon="10.646315"><ele>127.0</ele><time>2026-04-18T09:50:31.733Z</time></trkpt><trkpt lat="45.4215917" lon="10.6464433"><ele>125.0</ele><time>2026-04-18T09:50:32.733Z</time></trkpt><trkpt lat="45.4216583" lon="10.6465617"><ele>124.99999999999999</ele><time>2026-04-18T09:50:33.721Z</time></trkpt><trkpt lat="45.42172" lon="10.6466733"><ele>125.0</ele><time>2026-04-18T09:50:34.739Z</time></trkpt><trkpt lat="45.42178" lon="10.6467733"><ele>125.0</ele><time>2026-04-18T09:50:35.725Z</time></trkpt><trkpt lat="45.4218283" lon="10.646855"><ele>125.0</ele><time>2026-04-18T09:50:36.73Z</time></trkpt><trkpt lat="45.421865" lon="10.646935"><ele>124.99999999999999</ele><time>2026-04-18T09:50:37.732Z</time></trkpt><trkpt lat="45.4219" lon="10.64706"><ele>125.0</ele><time>2026-04-18T09:50:39.73Z</time></trkpt><trkpt lat="45.4218733" lon="10.6471467"><ele>125.49999999999999</ele><time>2026-04-18T09:50:41.729Z</time></trkpt><trkpt lat="45.4218" lon="10.6471733"><ele>126.0</ele><time>2026-04-18T09:50:43.759Z</time></trkpt><trkpt lat="45.4216767" lon="10.6471667"><ele>126.5</ele><time>2026-04-18T09:50:45.739Z</time></trkpt><trkpt lat="45.42161" lon="10.647165"><ele>127.0</ele><time>2026-04-18T09:50:46.734Z</time></trkpt><trkpt lat="45.42153" lon="10.64717"><ele>127.49999999999999</ele><time>2026-04-18T09:50:47.745Z</time></trkpt><trkpt lat="45.42146" lon="10.647195"><ele>128.0</ele><time>2026-04-18T09:50:48.742Z</time></trkpt><trkpt lat="45.4213833" lon="10.64724"><ele>127.99999999999999</ele><time>2026-04-18T09:50:49.726Z</time></trkpt><trkpt lat="45.4213033" lon="10.6472983"><ele>128.0</ele><time>2026-04-18T09:50:50.745Z</time></trkpt><trkpt lat="45.4212283" lon="10.64735"><ele>128.0</ele><time>2026-04-18T09:50:51.742Z</time></trkpt><trkpt lat="45.4211583" lon="10.6474183"><ele>128.0</ele><time>2026-04-18T09:50:52.725Z</time></trkpt><trkpt lat="45.4210917" lon="10.6474883"><ele>127.99999999999999</ele><time>2026-04-18T09:50:53.727Z</time></trkpt><trkpt lat="45.421025" lon="10.6475617"><ele>128.0</ele><time>2026-04-18T09:50:54.735Z</time></trkpt><trkpt lat="45.4209617" lon="10.647645"><ele>127.99999999999999</ele><time>2026-04-18T09:50:55.728Z</time></trkpt><trkpt lat="45.4209033" lon="10.647725"><ele>128.0</ele><time>2026-04-18T09:50:56.726Z</time></trkpt><trkpt lat="45.4208417" lon="10.64781"><ele>128.0</ele><time>2026-04-18T09:50:57.723Z</time></trkpt><trkpt lat="45.4207733" lon="10.6479"><ele>128.0</ele><time>2026-04-18T09:50:58.735Z</time></trkpt><trkpt lat="45.420715" lon="10.6479917"><ele>127.99999999999999</ele><time>2026-04-18T09:50:59.739Z</time></trkpt><trkpt lat="45.420655" lon="10.648105"><ele>128.0</ele><time>2026-04-18T09:51:00.742Z</time></trkpt><trkpt lat="45.42059" lon="10.648215"><ele>128.0</ele><time>2026-04-18T09:51:01.721Z</time></trkpt><trkpt lat="45.4205283" lon="10.6483283"><ele>128.0</ele><time>2026-04-18T09:51:02.751Z</time></trkpt><trkpt lat="45.4204683" lon="10.6484433"><ele>128.0</ele><time>2026-04-18T09:51:03.726Z</time></trkpt><trkpt lat="45.4204067" lon="10.6485567"><ele>128.0</ele><time>2026-04-18T09:51:04.738Z</time></trkpt><trkpt lat="45.42034" lon="10.648675"><ele>128.0</ele><time>2026-04-18T09:51:05.731Z</time></trkpt><trkpt lat="45.4202733" lon="10.6487817"><ele>126.80000000000001</ele><time>2026-04-18T09:51:06.736Z</time></trkpt><trkpt lat="45.4202033" lon="10.6488917"><ele>125.60000000000001</ele><time>2026-04-18T09:51:07.728Z</time></trkpt><trkpt lat="45.4201283" lon="10.6490017"><ele>124.39999999999999</ele><time>2026-04-18T09:51:08.728Z</time></trkpt><trkpt lat="45.4200683" lon="10.6491017"><ele>123.19999999999999</ele><time>2026-04-18T09:51:09.738Z</time></trkpt><trkpt lat="45.42001" lon="10.64921"><ele>122.0</ele><time>2026-04-18T09:51:10.729Z</time></trkpt><trkpt lat="45.4199383" lon="10.6493217"><ele>121.99999999999999</ele><time>2026-04-18T09:51:11.734Z</time></trkpt><trkpt lat="45.4198967" lon="10.6494067"><ele>122.0</ele><time>2026-04-18T09:51:12.723Z</time></trkpt><trkpt lat="45.41989" lon="10.64953"><ele>122.0</ele><time>2026-04-18T09:51:32.723Z</time></trkpt><trkpt lat="45.4199167" lon="10.6496117"><ele>122.0</ele><time>2026-04-18T09:51:33.725Z</time></trkpt><trkpt lat="45.4199617" lon="10.6497"><ele>121.99999999999999</ele><time>2026-04-18T09:51:34.719Z</time></trkpt><trkpt lat="45.4200283" lon="10.6498067"><ele>122.0</ele><time>2026-04-18T09:51:35.723Z</time></trkpt><trkpt lat="45.4201033" lon="10.64995"><ele>122.0</ele><time>2026-04-18T09:51:36.728Z</time></trkpt><trkpt lat="45.4201867" lon="10.6500733"><ele>122.0</ele><time>2026-04-18T09:51:37.746Z</time></trkpt><trkpt lat="45.4202833" lon="10.650195"><ele>122.0</ele><time>2026-04-18T09:51:38.729Z</time></trkpt><trkpt lat="45.4203817" lon="10.6503383"><ele>122.0</ele><time>2026-04-18T09:51:39.725Z</time></trkpt><trkpt lat="45.42047" lon="10.65048"><ele>122.75</ele><time>2026-04-18T09:51:40.733Z</time></trkpt><trkpt lat="45.4205483" lon="10.6506267"><ele>123.5</ele><time>2026-04-18T09:51:41.733Z</time></trkpt><trkpt lat="45.4206083" lon="10.65076"><ele>124.25</ele><time>2026-04-18T09:51:42.725Z</time></trkpt><trkpt lat="45.4206717" lon="10.6508933"><ele>125.0</ele><time>2026-04-18T09:51:43.738Z</time></trkpt><trkpt lat="45.4207383" lon="10.6510283"><ele>124.6</ele><time>2026-04-18T09:51:44.728Z</time></trkpt><trkpt lat="45.4207867" lon="10.65117"><ele>124.2</ele><time>2026-04-18T09:51:45.728Z</time></trkpt><trkpt lat="45.420835" lon="10.6513017"><ele>123.80000000000001</ele><time>2026-04-18T09:51:46.734Z</time></trkpt><trkpt lat="45.4208933" lon="10.6514467"><ele>123.4</ele><time>2026-04-18T09:51:47.755Z</time></trkpt><trkpt lat="45.42096" lon="10.6515733"><ele>123.0</ele><time>2026-04-18T09:51:48.745Z</time></trkpt><trkpt lat="45.4209817" lon="10.65167"><ele>123.0</ele><time>2026-04-18T09:51:49.727Z</time></trkpt><trkpt lat="45.4210083" lon="10.6517867"><ele>123.0</ele><time>2026-04-18T09:51:51.722Z</time></trkpt><trkpt lat="45.4210383" lon="10.6518683"><ele>123.0</ele><time>2026-04-18T09:51:55.733Z</time></trkpt><trkpt lat="45.421055" lon="10.6517283"><ele>123.0</ele><time>2026-04-18T09:52:00.733Z</time></trkpt><trkpt lat="45.4210167" lon="10.6516367"><ele>123.0</ele><time>2026-04-18T09:52:01.72Z</time></trkpt><trkpt lat="45.4209583" lon="10.651505"><ele>123.0</ele><time>2026-04-18T09:52:02.751Z</time></trkpt><trkpt lat="45.4208867" lon="10.65134"><ele>123.0</ele><time>2026-04-18T09:52:03.734Z</time></trkpt><trkpt lat="45.4208133" lon="10.6511667"><ele>123.0</ele><time>2026-04-18T09:52:04.738Z</time></trkpt><trkpt lat="45.4207417" lon="10.6509933"><ele>123.0</ele><time>2026-04-18T09:52:05.735Z</time></trkpt><trkpt lat="45.4206717" lon="10.650795"><ele>123.0</ele><time>2026-04-18T09:52:06.723Z</time></trkpt><trkpt lat="45.4205933" lon="10.6506217"><ele>122.75</ele><time>2026-04-18T09:52:07.74Z</time></trkpt><trkpt lat="45.4205017" lon="10.65045"><ele>122.5</ele><time>2026-04-18T09:52:08.733Z</time></trkpt><trkpt lat="45.4204133" lon="10.6502867"><ele>122.25</ele><time>2026-04-18T09:52:09.725Z</time></trkpt><trkpt lat="45.4203217" lon="10.650145"><ele>122.0</ele><time>2026-04-18T09:52:10.735Z</time></trkpt><trkpt lat="45.4202317" lon="10.6500183"><ele>122.0</ele><time>2026-04-18T09:52:11.733Z</time></trkpt><trkpt lat="45.4201467" lon="10.6499033"><ele>121.99999999999999</ele><time>2026-04-18T09:52:12.735Z</time></trkpt><trkpt lat="45.420065" lon="10.6497983"><ele>121.99999999999999</ele><time>2026-04-18T09:52:13.726Z</time></trkpt><trkpt lat="45.4199867" lon="10.6497033"><ele>122.0</ele><time>2026-04-18T09:52:14.725Z</time></trkpt><trkpt lat="45.4199217" lon="10.6496233"><ele>122.0</ele><time>2026-04-18T09:52:15.721Z</time></trkpt><trkpt lat="45.4198633" lon="10.6495617"><ele>122.0</ele><time>2026-04-18T09:52:16.726Z</time></trkpt><trkpt lat="45.41977" lon="10.649555"><ele>121.99999999999999</ele><time>2026-04-18T09:52:18.725Z</time></trkpt><trkpt lat="45.4197217" lon="10.6496867"><ele>121.99999999999999</ele><time>2026-04-18T09:52:19.722Z</time></trkpt><trkpt lat="45.41969" lon="10.649825"><ele>122.0</ele><time>2026-04-18T09:52:20.728Z</time></trkpt><trkpt lat="45.4196567" lon="10.65001"><ele>122.0</ele><time>2026-04-18T09:52:21.739Z</time></trkpt><trkpt lat="45.419625" lon="10.6501783"><ele>120.0</ele><time>2026-04-18T09:52:22.718Z</time></trkpt><trkpt lat="45.4196" lon="10.6503767"><ele>118.0</ele><time>2026-04-18T09:52:23.727Z</time></trkpt><trkpt lat="45.4195717" lon="10.650565"><ele>116.0</ele><time>2026-04-18T09:52:24.726Z</time></trkpt><trkpt lat="45.4195367" lon="10.6507333"><ele>114.0</ele><time>2026-04-18T09:52:25.738Z</time></trkpt><trkpt lat="45.4194967" lon="10.6508717"><ele>114.0</ele><time>2026-04-18T09:52:26.749Z</time></trkpt><trkpt lat="45.4194417" lon="10.6510083"><ele>114.0</ele><time>2026-04-18T09:52:27.731Z</time></trkpt><trkpt lat="45.4193733" lon="10.6511367"><ele>114.0</ele><time>2026-04-18T09:52:28.733Z</time></trkpt><trkpt lat="45.4192983" lon="10.6512533"><ele>114.0</ele><time>2026-04-18T09:52:29.728Z</time></trkpt><trkpt lat="45.4192267" lon="10.651375"><ele>114.0</ele><time>2026-04-18T09:52:30.736Z</time></trkpt><trkpt lat="45.4191667" lon="10.6514933"><ele>114.0</ele><time>2026-04-18T09:52:31.727Z</time></trkpt><trkpt lat="45.4191017" lon="10.6516217"><ele>114.0</ele><time>2026-04-18T09:52:32.723Z</time></trkpt><trkpt lat="45.4190417" lon="10.6517567"><ele>114.0</ele><time>2026-04-18T09:52:33.742Z</time></trkpt><trkpt lat="45.4189833" lon="10.6519033"><ele>114.0</ele><time>2026-04-18T09:52:34.733Z</time></trkpt><trkpt lat="45.4189317" lon="10.6520583"><ele>113.75</ele><time>2026-04-18T09:52:35.723Z</time></trkpt><trkpt lat="45.4188817" lon="10.6522283"><ele>113.5</ele><time>2026-04-18T09:52:36.742Z</time></trkpt><trkpt lat="45.4188333" lon="10.652405"><ele>113.25</ele><time>2026-04-18T09:52:37.732Z</time></trkpt><trkpt lat="45.418795" lon="10.652595"><ele>113.0</ele><time>2026-04-18T09:52:38.732Z</time></trkpt><trkpt lat="45.418765" lon="10.6527917"><ele>114.0</ele><time>2026-04-18T09:52:39.736Z</time></trkpt><trkpt lat="45.41875" lon="10.6529967"><ele>115.0</ele><time>2026-04-18T09:52:40.73Z</time></trkpt><trkpt lat="45.4187233" lon="10.6531767"><ele>116.0</ele><time>2026-04-18T09:52:41.719Z</time></trkpt><trkpt lat="45.4186933" lon="10.6533633"><ele>117.0</ele><time>2026-04-18T09:52:42.736Z</time></trkpt><trkpt lat="45.41866" lon="10.6535383"><ele>118.0</ele><time>2026-04-18T09:52:43.731Z</time></trkpt><trkpt lat="45.41863" lon="10.6537017"><ele>118.99999999999999</ele><time>2026-04-18T09:52:44.736Z</time></trkpt><trkpt lat="45.4185917" lon="10.6538383"><ele>119.99999999999999</ele><time>2026-04-18T09:52:45.734Z</time></trkpt><trkpt lat="45.4185367" lon="10.653975"><ele>121.0</ele><time>2026-04-18T09:52:46.728Z</time></trkpt><trkpt lat="45.4185283" lon="10.6540983"><ele>122.0</ele><time>2026-04-18T09:52:47.749Z</time></trkpt><trkpt lat="45.4185217" lon="10.6542367"><ele>122.0</ele><time>2026-04-18T09:52:48.726Z</time></trkpt><trkpt lat="45.4185167" lon="10.6544033"><ele>121.99999999999999</ele><time>2026-04-18T09:52:49.732Z</time></trkpt><trkpt lat="45.41853" lon="10.6545333"><ele>121.99999999999999</ele><time>2026-04-18T09:52:50.725Z</time></trkpt><trkpt lat="45.4185517" lon="10.65467"><ele>122.0</ele><time>2026-04-18T09:52:51.726Z</time></trkpt><trkpt lat="45.4185733" lon="10.6547983"><ele>122.0</ele><time>2026-04-18T09:52:52.724Z</time></trkpt><trkpt lat="45.418575" lon="10.654895"><ele>122.16666666666666</ele><time>2026-04-18T09:52:53.734Z</time></trkpt><trkpt lat="45.418605" lon="10.654995"><ele>122.33333333333333</ele><time>2026-04-18T09:52:54.724Z</time></trkpt><trkpt lat="45.4186317" lon="10.6550933"><ele>122.5</ele><time>2026-04-18T09:52:55.722Z</time></trkpt><trkpt lat="45.41865" lon="10.6551917"><ele>122.66666666666666</ele><time>2026-04-18T09:52:56.725Z</time></trkpt><trkpt lat="45.4186533" lon="10.6552833"><ele>122.83333333333333</ele><time>2026-04-18T09:52:57.752Z</time></trkpt><trkpt lat="45.4186483" lon="10.6554633"><ele>123.0</ele><time>2026-04-18T09:52:59.731Z</time></trkpt><trkpt lat="45.418645" lon="10.655555"><ele>123.0</ele><time>2026-04-18T09:53:00.728Z</time></trkpt><trkpt lat="45.41864" lon="10.6556517"><ele>123.0</ele><time>2026-04-18T09:53:01.721Z</time></trkpt><trkpt lat="45.418635" lon="10.6557517"><ele>123.0</ele><time>2026-04-18T09:53:02.735Z</time></trkpt><trkpt lat="45.4186333" lon="10.6558617"><ele>123.0</ele><time>2026-04-18T09:53:03.729Z</time></trkpt><trkpt lat="45.4186317" lon="10.6559833"><ele>123.0</ele><time>2026-04-18T09:53:04.729Z</time></trkpt><trkpt lat="45.4186267" lon="10.6561117"><ele>123.0</ele><time>2026-04-18T09:53:05.724Z</time></trkpt><trkpt lat="45.41862" lon="10.6562433"><ele>124.0</ele><time>2026-04-18T09:53:06.727Z</time></trkpt><trkpt lat="45.41861" lon="10.6564017"><ele>125.00000000000001</ele><time>2026-04-18T09:53:07.719Z</time></trkpt><trkpt lat="45.4186" lon="10.6565467"><ele>126.00000000000001</ele><time>2026-04-18T09:53:08.734Z</time></trkpt><trkpt lat="45.4185917" lon="10.6566983"><ele>127.0</ele><time>2026-04-18T09:53:09.743Z</time></trkpt><trkpt lat="45.418595" lon="10.656825"><ele>128.0</ele><time>2026-04-18T09:53:10.731Z</time></trkpt><trkpt lat="45.4185933" lon="10.65692"><ele>129.0</ele><time>2026-04-18T09:53:11.736Z</time></trkpt><trkpt lat="45.418565" lon="10.657025"><ele>130.0</ele><time>2026-04-18T09:53:13.737Z</time></trkpt><trkpt lat="45.41861" lon="10.6571017"><ele>131.0</ele><time>2026-04-18T09:53:16.721Z</time></trkpt><trkpt lat="45.418675" lon="10.6571183"><ele>132.0</ele><time>2026-04-18T09:53:17.723Z</time></trkpt><trkpt lat="45.4187483" lon="10.6571467"><ele>133.0</ele><time>2026-04-18T09:53:18.724Z</time></trkpt><trkpt lat="45.4188417" lon="10.657165"><ele>134.0</ele><time>2026-04-18T09:53:19.732Z</time></trkpt><trkpt lat="45.4189517" lon="10.6571817"><ele>134.25</ele><time>2026-04-18T09:53:20.749Z</time></trkpt><trkpt lat="45.4190933" lon="10.657185"><ele>134.5</ele><time>2026-04-18T09:53:21.731Z</time></trkpt><trkpt lat="45.4192167" lon="10.657185"><ele>134.75</ele><time>2026-04-18T09:53:22.733Z</time></trkpt><trkpt lat="45.4193617" lon="10.6571217"><ele>135.0</ele><time>2026-04-18T09:53:23.727Z</time></trkpt><trkpt lat="45.4194867" lon="10.6570767"><ele>135.0</ele><time>2026-04-18T09:53:24.732Z</time></trkpt><trkpt lat="45.4196017" lon="10.657005"><ele>135.0</ele><time>2026-04-18T09:53:25.73Z</time></trkpt><trkpt lat="45.419745" lon="10.6568967"><ele>135.0</ele><time>2026-04-18T09:53:26.736Z</time></trkpt><trkpt lat="45.4198683" lon="10.6568133"><ele>135.0</ele><time>2026-04-18T09:53:27.729Z</time></trkpt><trkpt lat="45.419985" lon="10.6567583"><ele>132.0</ele><time>2026-04-18T09:53:28.733Z</time></trkpt><trkpt lat="45.4201283" lon="10.6566833"><ele>129.0</ele><time>2026-04-18T09:53:29.737Z</time></trkpt><trkpt lat="45.4203167" lon="10.6564733"><ele>126.0</ele><time>2026-04-18T09:53:30.726Z</time></trkpt><trkpt lat="45.42045" lon="10.6563933"><ele>125.33333333333334</ele><time>2026-04-18T09:53:31.73Z</time></trkpt><trkpt lat="45.4206317" lon="10.656275"><ele>124.66666666666667</ele><time>2026-04-18T09:53:32.724Z</time></trkpt><trkpt lat="45.4207517" lon="10.65617"><ele>124.0</ele><time>2026-04-18T09:53:33.728Z</time></trkpt><trkpt lat="45.42086" lon="10.656075"><ele>124.0</ele><time>2026-04-18T09:53:34.743Z</time></trkpt><trkpt lat="45.4209483" lon="10.65596"><ele>124.0</ele><time>2026-04-18T09:53:35.724Z</time></trkpt><trkpt lat="45.4210567" lon="10.6559183"><ele>124.0</ele><time>2026-04-18T09:53:36.731Z</time></trkpt><trkpt lat="45.42115" lon="10.6558817"><ele>124.0</ele><time>2026-04-18T09:53:37.727Z</time></trkpt><trkpt lat="45.42123" lon="10.655875"><ele>124.0</ele><time>2026-04-18T09:53:38.736Z</time></trkpt><trkpt lat="45.4213317" lon="10.65587"><ele>123.80000000000001</ele><time>2026-04-18T09:53:39.736Z</time></trkpt><trkpt lat="45.4214233" lon="10.6559333"><ele>123.60000000000001</ele><time>2026-04-18T09:53:40.753Z</time></trkpt><trkpt lat="45.42152" lon="10.6559833"><ele>123.4</ele><time>2026-04-18T09:53:41.751Z</time></trkpt><trkpt lat="45.42162" lon="10.6560533"><ele>123.2</ele><time>2026-04-18T09:53:42.777Z</time></trkpt><trkpt lat="45.4217133" lon="10.6561167"><ele>123.0</ele><time>2026-04-18T09:53:43.726Z</time></trkpt><trkpt lat="45.42179" lon="10.6561817"><ele>123.0</ele><time>2026-04-18T09:53:44.725Z</time></trkpt><trkpt lat="45.42186" lon="10.6562433"><ele>123.0</ele><time>2026-04-18T09:53:45.734Z</time></trkpt><trkpt lat="45.421915" lon="10.6562933"><ele>123.0</ele><time>2026-04-18T09:53:46.747Z</time></trkpt><trkpt lat="45.4219717" lon="10.65637"><ele>123.0</ele><time>2026-04-18T09:53:48.728Z</time></trkpt><trkpt lat="45.4219883" lon="10.6565133"><ele>123.0</ele><time>2026-04-18T09:53:50.726Z</time></trkpt><trkpt lat="45.42198" lon="10.6566383"><ele>123.0</ele><time>2026-04-18T09:53:51.728Z</time></trkpt><trkpt lat="45.4219683" lon="10.6567867"><ele>123.0</ele><time>2026-04-18T09:53:52.74Z</time></trkpt><trkpt lat="45.4219617" lon="10.656945"><ele>123.0</ele><time>2026-04-18T09:53:53.738Z</time></trkpt><trkpt lat="45.4219567" lon="10.6571167"><ele>123.0</ele><time>2026-04-18T09:53:54.735Z</time></trkpt><trkpt lat="45.4219517" lon="10.6572983"><ele>123.0</ele><time>2026-04-18T09:53:55.727Z</time></trkpt><trkpt lat="45.4219483" lon="10.6574867"><ele>122.75</ele><time>2026-04-18T09:53:56.733Z</time></trkpt><trkpt lat="45.421945" lon="10.6576717"><ele>122.5</ele><time>2026-04-18T09:53:57.729Z</time></trkpt><trkpt lat="45.4219417" lon="10.65785"><ele>122.25</ele><time>2026-04-18T09:53:58.738Z</time></trkpt><trkpt lat="45.4219417" lon="10.65802"><ele>122.0</ele><time>2026-04-18T09:53:59.749Z</time></trkpt><trkpt lat="45.4219467" lon="10.658195"><ele>122.0</ele><time>2026-04-18T09:54:00.73Z</time></trkpt><trkpt lat="45.421955" lon="10.658375"><ele>122.0</ele><time>2026-04-18T09:54:01.736Z</time></trkpt><trkpt lat="45.4219683" lon="10.658565"><ele>122.0</ele><time>2026-04-18T09:54:02.726Z</time></trkpt><trkpt lat="45.42199" lon="10.6587617"><ele>122.0</ele><time>2026-04-18T09:54:03.726Z</time></trkpt><trkpt lat="45.42201" lon="10.65896"><ele>122.0</ele><time>2026-04-18T09:54:04.734Z</time></trkpt><trkpt lat="45.42204" lon="10.659155"><ele>122.0</ele><time>2026-04-18T09:54:05.717Z</time></trkpt><trkpt lat="45.4220717" lon="10.6593583"><ele>122.0</ele><time>2026-04-18T09:54:06.738Z</time></trkpt><trkpt lat="45.42211" lon="10.6595467"><ele>122.0</ele><time>2026-04-18T09:54:07.738Z</time></trkpt><trkpt lat="45.4221433" lon="10.6597583"><ele>121.5</ele><time>2026-04-18T09:54:08.737Z</time></trkpt><trkpt lat="45.4221583" lon="10.659985"><ele>121.0</ele><time>2026-04-18T09:54:09.727Z</time></trkpt><trkpt lat="45.4221183" lon="10.6602"><ele>120.5</ele><time>2026-04-18T09:54:10.741Z</time></trkpt><trkpt lat="45.42212" lon="10.6603883"><ele>120.0</ele><time>2026-04-18T09:54:11.72Z</time></trkpt><trkpt lat="45.4221233" lon="10.660565"><ele>119.25</ele><time>2026-04-18T09:54:12.736Z</time></trkpt><trkpt lat="45.422095" lon="10.6607383"><ele>118.5</ele><time>2026-04-18T09:54:13.733Z</time></trkpt><trkpt lat="45.4220833" lon="10.660895"><ele>117.75</ele><time>2026-04-18T09:54:14.728Z</time></trkpt><trkpt lat="45.422075" lon="10.6610767"><ele>117.0</ele><time>2026-04-18T09:54:15.717Z</time></trkpt><trkpt lat="45.42209" lon="10.6612533"><ele>116.66666666666666</ele><time>2026-04-18T09:54:16.74Z</time></trkpt><trkpt lat="45.4221033" lon="10.6614683"><ele>116.33333333333333</ele><time>2026-04-18T09:54:17.727Z</time></trkpt><trkpt lat="45.4221183" lon="10.6617017"><ele>116.0</ele><time>2026-04-18T09:54:18.741Z</time></trkpt><trkpt lat="45.4221333" lon="10.6619417"><ele>115.0</ele><time>2026-04-18T09:54:19.728Z</time></trkpt><trkpt lat="45.422155" lon="10.6621717"><ele>114.0</ele><time>2026-04-18T09:54:20.741Z</time></trkpt><trkpt lat="45.4221767" lon="10.6623983"><ele>113.0</ele><time>2026-04-18T09:54:21.716Z</time></trkpt><trkpt lat="45.4221967" lon="10.66261"><ele>112.5</ele><time>2026-04-18T09:54:22.727Z</time></trkpt><trkpt lat="45.42222" lon="10.6628167"><ele>112.0</ele><time>2026-04-18T09:54:23.735Z</time></trkpt><trkpt lat="45.422245" lon="10.6630217"><ele>111.5</ele><time>2026-04-18T09:54:24.718Z</time></trkpt><trkpt lat="45.4222767" lon="10.66323"><ele>111.0</ele><time>2026-04-18T09:54:25.723Z</time></trkpt><trkpt lat="45.42231" lon="10.66343"><ele>111.0</ele><time>2026-04-18T09:54:26.733Z</time></trkpt><trkpt lat="45.422345" lon="10.6636217"><ele>111.0</ele><time>2026-04-18T09:54:27.732Z</time></trkpt><trkpt lat="45.4224017" lon="10.6638017"><ele>111.0</ele><time>2026-04-18T09:54:28.734Z</time></trkpt><trkpt lat="45.422455" lon="10.663955"><ele>111.0</ele><time>2026-04-18T09:54:29.733Z</time></trkpt><trkpt lat="45.42249" lon="10.6640517"><ele>111.0</ele><time>2026-04-18T09:54:30.725Z</time></trkpt><trkpt lat="45.42246" lon="10.6641683"><ele>111.0</ele><time>2026-04-18T09:54:32.738Z</time></trkpt><trkpt lat="45.4223617" lon="10.6641883"><ele>111.0</ele><time>2026-04-18T09:54:34.748Z</time></trkpt><trkpt lat="45.4222683" lon="10.66419"><ele>111.0</ele><time>2026-04-18T09:54:35.732Z</time></trkpt><trkpt lat="45.4221583" lon="10.66419"><ele>111.0</ele><time>2026-04-18T09:54:36.726Z</time></trkpt><trkpt lat="45.422035" lon="10.6642"><ele>111.75</ele><time>2026-04-18T09:54:37.76Z</time></trkpt><trkpt lat="45.4219117" lon="10.66423"><ele>112.5</ele><time>2026-04-18T09:54:38.722Z</time></trkpt><trkpt lat="45.4217917" lon="10.6643083"><ele>113.25</ele><time>2026-04-18T09:54:39.741Z</time></trkpt><trkpt lat="45.4216667" lon="10.6644433"><ele>114.0</ele><time>2026-04-18T09:54:40.733Z</time></trkpt><trkpt lat="45.4215383" lon="10.6646117"><ele>114.66666666666666</ele><time>2026-04-18T09:54:41.728Z</time></trkpt><trkpt lat="45.4214083" lon="10.6647933"><ele>115.33333333333333</ele><time>2026-04-18T09:54:42.723Z</time></trkpt><trkpt lat="45.421275" lon="10.66499"><ele>116.0</ele><time>2026-04-18T09:54:43.718Z</time></trkpt><trkpt lat="45.4211183" lon="10.6652183"><ele>118.66666666666666</ele><time>2026-04-18T09:54:44.728Z</time></trkpt><trkpt lat="45.4209983" lon="10.6654333"><ele>121.33333333333334</ele><time>2026-04-18T09:54:45.736Z</time></trkpt><trkpt lat="45.4208833" lon="10.66563"><ele>124.0</ele><time>2026-04-18T09:54:46.723Z</time></trkpt><trkpt lat="45.42077" lon="10.6658017"><ele>124.0</ele><time>2026-04-18T09:54:47.725Z</time></trkpt><trkpt lat="45.4206583" lon="10.6659533"><ele>124.0</ele><time>2026-04-18T09:54:48.722Z</time></trkpt><trkpt lat="45.420535" lon="10.6660833"><ele>124.0</ele><time>2026-04-18T09:54:49.732Z</time></trkpt><trkpt lat="45.420395" lon="10.6662083"><ele>121.66666666666667</ele><time>2026-04-18T09:54:50.72Z</time></trkpt><trkpt lat="45.42025" lon="10.6663467"><ele>119.33333333333334</ele><time>2026-04-18T09:54:51.75Z</time></trkpt><trkpt lat="45.4200933" lon="10.666495"><ele>117.0</ele><time>2026-04-18T09:54:52.724Z</time></trkpt><trkpt lat="45.4199367" lon="10.6666583"><ele>117.0</ele><time>2026-04-18T09:54:53.718Z</time></trkpt><trkpt lat="45.4197717" lon="10.6668367"><ele>117.0</ele><time>2026-04-18T09:54:54.726Z</time></trkpt><trkpt lat="45.4196233" lon="10.6670133"><ele>117.0</ele><time>2026-04-18T09:54:55.749Z</time></trkpt><trkpt lat="45.419475" lon="10.66719"><ele>114.66666666666666</ele><time>2026-04-18T09:54:56.733Z</time></trkpt><trkpt lat="45.4193467" lon="10.6673617"><ele>112.33333333333333</ele><time>2026-04-18T09:54:57.723Z</time></trkpt><trkpt lat="45.4192183" lon="10.6675317"><ele>110.0</ele><time>2026-04-18T09:54:58.741Z</time></trkpt><trkpt lat="45.41909" lon="10.6677017"><ele>107.66666666666666</ele><time>2026-04-18T09:54:59.721Z</time></trkpt><trkpt lat="45.4189533" lon="10.6678617"><ele>105.33333333333334</ele><time>2026-04-18T09:55:00.723Z</time></trkpt><trkpt lat="45.4188017" lon="10.6680167"><ele>103.0</ele><time>2026-04-18T09:55:01.725Z</time></trkpt><trkpt lat="45.4186383" lon="10.6681567"><ele>102.33333333333334</ele><time>2026-04-18T09:55:02.742Z</time></trkpt><trkpt lat="45.4184733" lon="10.66828"><ele>101.66666666666666</ele><time>2026-04-18T09:55:03.727Z</time></trkpt><trkpt lat="45.4182983" lon="10.66838"><ele>101.0</ele><time>2026-04-18T09:55:04.722Z</time></trkpt><trkpt lat="45.4181217" lon="10.66845"><ele>101.33333333333333</ele><time>2026-04-18T09:55:05.721Z</time></trkpt><trkpt lat="45.4179433" lon="10.6684917"><ele>101.66666666666666</ele><time>2026-04-18T09:55:06.72Z</time></trkpt><trkpt lat="45.4177583" lon="10.6685083"><ele>102.0</ele><time>2026-04-18T09:55:07.725Z</time></trkpt><trkpt lat="45.4175667" lon="10.6685067"><ele>102.0</ele><time>2026-04-18T09:55:08.72Z</time></trkpt><trkpt lat="45.417385" lon="10.6684817"><ele>102.0</ele><time>2026-04-18T09:55:09.723Z</time></trkpt><trkpt lat="45.417215" lon="10.66846"><ele>102.0</ele><time>2026-04-18T09:55:10.726Z</time></trkpt><trkpt lat="45.4170567" lon="10.668455"><ele>103.66666666666666</ele><time>2026-04-18T09:55:11.72Z</time></trkpt><trkpt lat="45.4169017" lon="10.6684833"><ele>105.33333333333333</ele><time>2026-04-18T09:55:12.724Z</time></trkpt><trkpt lat="45.4167417" lon="10.6685467"><ele>107.0</ele><time>2026-04-18T09:55:13.722Z</time></trkpt><trkpt lat="45.41658" lon="10.66864"><ele>107.0</ele><time>2026-04-18T09:55:14.729Z</time></trkpt><trkpt lat="45.4164233" lon="10.6687567"><ele>107.0</ele><time>2026-04-18T09:55:15.717Z</time></trkpt><trkpt lat="45.4162633" lon="10.66893"><ele>107.0</ele><time>2026-04-18T09:55:16.724Z</time></trkpt><trkpt lat="45.4161217" lon="10.6691217"><ele>107.33333333333333</ele><time>2026-04-18T09:55:17.742Z</time></trkpt><trkpt lat="45.41596" lon="10.6692817"><ele>107.66666666666666</ele><time>2026-04-18T09:55:18.727Z</time></trkpt><trkpt lat="45.4157883" lon="10.66942"><ele>108.0</ele><time>2026-04-18T09:55:19.72Z</time></trkpt><trkpt lat="45.4156017" lon="10.669555"><ele>109.33333333333334</ele><time>2026-04-18T09:55:20.726Z</time></trkpt><trkpt lat="45.41541" lon="10.6696783"><ele>110.66666666666667</ele><time>2026-04-18T09:55:21.732Z</time></trkpt><trkpt lat="45.415215" lon="10.669795"><ele>112.0</ele><time>2026-04-18T09:55:22.725Z</time></trkpt><trkpt lat="45.41502" lon="10.6699033"><ele>112.0</ele><time>2026-04-18T09:55:23.724Z</time></trkpt><trkpt lat="45.4148217" lon="10.6700033"><ele>112.0</ele><time>2026-04-18T09:55:24.732Z</time></trkpt><trkpt lat="45.414625" lon="10.6700867"><ele>112.0</ele><time>2026-04-18T09:55:25.724Z</time></trkpt><trkpt lat="45.4144417" lon="10.6701667"><ele>113.0</ele><time>2026-04-18T09:55:26.74Z</time></trkpt><trkpt lat="45.414275" lon="10.670235"><ele>114.0</ele><time>2026-04-18T09:55:27.735Z</time></trkpt><trkpt lat="45.4141417" lon="10.6703383"><ele>115.0</ele><time>2026-04-18T09:55:28.718Z</time></trkpt><trkpt lat="45.4140167" lon="10.67044"><ele>115.0</ele><time>2026-04-18T09:55:29.73Z</time></trkpt><trkpt lat="45.4138967" lon="10.67055"><ele>115.0</ele><time>2026-04-18T09:55:30.727Z</time></trkpt><trkpt lat="45.413815" lon="10.6707583"><ele>115.0</ele><time>2026-04-18T09:55:31.743Z</time></trkpt><trkpt lat="45.4137483" lon="10.6709833"><ele>114.33333333333334</ele><time>2026-04-18T09:55:32.729Z</time></trkpt><trkpt lat="45.41367" lon="10.6712"><ele>113.66666666666666</ele><time>2026-04-18T09:55:33.73Z</time></trkpt><trkpt lat="45.41358" lon="10.6714267"><ele>113.0</ele><time>2026-04-18T09:55:34.721Z</time></trkpt><trkpt lat="45.4134867" lon="10.6716633"><ele>113.0</ele><time>2026-04-18T09:55:35.725Z</time></trkpt><trkpt lat="45.4134033" lon="10.6719083"><ele>113.0</ele><time>2026-04-18T09:55:36.383Z</time></trkpt><trkpt lat="45.4133317" lon="10.6721567"><ele>113.0</ele><time>2026-04-18T09:55:37.351Z</time></trkpt><trkpt lat="45.4132633" lon="10.672405"><ele>113.33333333333333</ele><time>2026-04-18T09:55:38.352Z</time></trkpt><trkpt lat="45.4131983" lon="10.6726417"><ele>113.66666666666666</ele><time>2026-04-18T09:55:39.355Z</time></trkpt><trkpt lat="45.4131367" lon="10.6728717"><ele>114.0</ele><time>2026-04-18T09:55:40.351Z</time></trkpt><trkpt lat="45.4130917" lon="10.6731"><ele>114.66666666666666</ele><time>2026-04-18T09:55:41.375Z</time></trkpt><trkpt lat="45.4130283" lon="10.6733333"><ele>115.33333333333333</ele><time>2026-04-18T09:55:42.351Z</time></trkpt><trkpt lat="45.41297" lon="10.6735717"><ele>116.0</ele><time>2026-04-18T09:55:43.356Z</time></trkpt><trkpt lat="45.412905" lon="10.6737867"><ele>116.66666666666666</ele><time>2026-04-18T09:55:44.354Z</time></trkpt><trkpt lat="45.4128233" lon="10.6740017"><ele>117.33333333333334</ele><time>2026-04-18T09:55:45.358Z</time></trkpt><trkpt lat="45.4127467" lon="10.6741967"><ele>118.0</ele><time>2026-04-18T09:55:46.358Z</time></trkpt><trkpt lat="45.4126767" lon="10.6743517"><ele>117.4</ele><time>2026-04-18T09:55:47.344Z</time></trkpt><trkpt lat="45.4126467" lon="10.6745167"><ele>116.80000000000001</ele><time>2026-04-18T09:55:48.36Z</time></trkpt><trkpt lat="45.412635" lon="10.6746667"><ele>116.2</ele><time>2026-04-18T09:55:49.355Z</time></trkpt><trkpt lat="45.4126133" lon="10.6747983"><ele>115.6</ele><time>2026-04-18T09:55:50.359Z</time></trkpt><trkpt lat="45.4126283" lon="10.6749483"><ele>115.0</ele><time>2026-04-18T09:55:51.346Z</time></trkpt><trkpt lat="45.4126433" lon="10.6751033"><ele>115.0</ele><time>2026-04-18T09:55:52.357Z</time></trkpt><trkpt lat="45.4126583" lon="10.6752417"><ele>115.0</ele><time>2026-04-18T09:55:53.348Z</time></trkpt><trkpt lat="45.4126833" lon="10.6753783"><ele>115.0</ele><time>2026-04-18T09:55:54.35Z</time></trkpt><trkpt lat="45.412705" lon="10.6755083"><ele>115.0</ele><time>2026-04-18T09:55:55.353Z</time></trkpt><trkpt lat="45.412725" lon="10.6756383"><ele>115.0</ele><time>2026-04-18T09:55:56.355Z</time></trkpt><trkpt lat="45.4127433" lon="10.675765"><ele>114.83333333333334</ele><time>2026-04-18T09:55:57.348Z</time></trkpt><trkpt lat="45.412755" lon="10.6758767"><ele>114.66666666666667</ele><time>2026-04-18T09:55:58.349Z</time></trkpt><trkpt lat="45.4127617" lon="10.6760433"><ele>114.5</ele><time>2026-04-18T09:56:00.374Z</time></trkpt><trkpt lat="45.4127767" lon="10.6761367"><ele>114.33333333333334</ele><time>2026-04-18T09:56:01.375Z</time></trkpt><trkpt lat="45.4128" lon="10.6762483"><ele>114.16666666666667</ele><time>2026-04-18T09:56:02.356Z</time></trkpt><trkpt lat="45.4128233" lon="10.6763783"><ele>114.0</ele><time>2026-04-18T09:56:03.352Z</time></trkpt><trkpt lat="45.4128417" lon="10.6765333"><ele>114.0</ele><time>2026-04-18T09:56:04.348Z</time></trkpt><trkpt lat="45.4128833" lon="10.67669"><ele>114.0</ele><time>2026-04-18T09:56:05.359Z</time></trkpt><trkpt lat="45.4129183" lon="10.6768333"><ele>114.0</ele><time>2026-04-18T09:56:06.958Z</time></trkpt><trkpt lat="45.4129367" lon="10.6769267"><ele>114.0</ele><time>2026-04-18T09:56:07.928Z</time></trkpt><trkpt lat="45.4129733" lon="10.6770167"><ele>114.0</ele><time>2026-04-18T09:56:09.918Z</time></trkpt><trkpt lat="45.4129733" lon="10.6771483"><ele>114.0</ele><time>2026-04-18T09:56:18.924Z</time></trkpt><trkpt lat="45.4129717" lon="10.6772467"><ele>114.0</ele><time>2026-04-18T09:56:19.912Z</time></trkpt><trkpt lat="45.4129833" lon="10.67738"><ele>114.0</ele><time>2026-04-18T09:56:20.917Z</time></trkpt><trkpt lat="45.4129983" lon="10.6775067"><ele>114.0</ele><time>2026-04-18T09:56:21.938Z</time></trkpt><trkpt lat="45.413005" lon="10.6776117"><ele>114.0</ele><time>2026-04-18T09:56:22.926Z</time></trkpt><trkpt lat="45.412955" lon="10.6777667"><ele>114.0</ele><time>2026-04-18T09:56:24.928Z</time></trkpt><trkpt lat="45.4128967" lon="10.6778183"><ele>112.2</ele><time>2026-04-18T09:56:25.944Z</time></trkpt><trkpt lat="45.4128133" lon="10.67784"><ele>110.4</ele><time>2026-04-18T09:56:26.918Z</time></trkpt><trkpt lat="45.41271" lon="10.6778517"><ele>108.6</ele><time>2026-04-18T09:56:27.911Z</time></trkpt><trkpt lat="45.412585" lon="10.6778567"><ele>106.8</ele><time>2026-04-18T09:56:28.917Z</time></trkpt><trkpt lat="45.4124533" lon="10.6778633"><ele>105.0</ele><time>2026-04-18T09:56:29.916Z</time></trkpt><trkpt lat="45.4123083" lon="10.6778767"><ele>105.0</ele><time>2026-04-18T09:56:30.92Z</time></trkpt><trkpt lat="45.4121567" lon="10.6778783"><ele>105.0</ele><time>2026-04-18T09:56:31.917Z</time></trkpt><trkpt lat="45.4120083" lon="10.67787"><ele>105.0</ele><time>2026-04-18T09:56:32.921Z</time></trkpt><trkpt lat="45.4118667" lon="10.6778533"><ele>105.0</ele><time>2026-04-18T09:56:33.919Z</time></trkpt><trkpt lat="45.4117367" lon="10.67784"><ele>105.6</ele><time>2026-04-18T09:56:34.929Z</time></trkpt><trkpt lat="45.41162" lon="10.67782"><ele>106.2</ele><time>2026-04-18T09:56:35.916Z</time></trkpt><trkpt lat="45.4115167" lon="10.6778017"><ele>106.80000000000001</ele><time>2026-04-18T09:56:36.913Z</time></trkpt><trkpt lat="45.41143" lon="10.67779"><ele>107.4</ele><time>2026-04-18T09:56:37.927Z</time></trkpt><trkpt lat="45.411355" lon="10.6777967"><ele>108.0</ele><time>2026-04-18T09:56:38.922Z</time></trkpt><trkpt lat="45.4112917" lon="10.6778283"><ele>108.0</ele><time>2026-04-18T09:56:39.92Z</time></trkpt><trkpt lat="45.4112283" lon="10.6778783"><ele>108.00000000000001</ele><time>2026-04-18T09:56:40.925Z</time></trkpt><trkpt lat="45.4111617" lon="10.6779483"><ele>108.00000000000001</ele><time>2026-04-18T09:56:41.924Z</time></trkpt><trkpt lat="45.411085" lon="10.6780267"><ele>108.0</ele><time>2026-04-18T09:56:42.946Z</time></trkpt><trkpt lat="45.4110017" lon="10.6781167"><ele>108.0</ele><time>2026-04-18T09:56:43.92Z</time></trkpt><trkpt lat="45.4109167" lon="10.6782133"><ele>108.0</ele><time>2026-04-18T09:56:44.917Z</time></trkpt><trkpt lat="45.410835" lon="10.67831"><ele>108.00000000000001</ele><time>2026-04-18T09:56:45.92Z</time></trkpt><trkpt lat="45.4107467" lon="10.6783983"><ele>108.00000000000001</ele><time>2026-04-18T09:56:46.924Z</time></trkpt><trkpt lat="45.4106817" lon="10.6784817"><ele>108.0</ele><time>2026-04-18T09:56:47.925Z</time></trkpt><trkpt lat="45.4105867" lon="10.6785683"><ele>108.0</ele><time>2026-04-18T09:56:48.914Z</time></trkpt><trkpt lat="45.41047" lon="10.6786567"><ele>106.0</ele><time>2026-04-18T09:56:49.912Z</time></trkpt><trkpt lat="45.4103433" lon="10.6787383"><ele>104.0</ele><time>2026-04-18T09:56:50.944Z</time></trkpt><trkpt lat="45.4102117" lon="10.67881"><ele>102.0</ele><time>2026-04-18T09:56:51.934Z</time></trkpt><trkpt lat="45.4100817" lon="10.6788833"><ele>100.0</ele><time>2026-04-18T09:56:52.918Z</time></trkpt><trkpt lat="45.4099483" lon="10.6789717"><ele>100.0</ele><time>2026-04-18T09:56:53.912Z</time></trkpt><trkpt lat="45.4098167" lon="10.679045"><ele>100.0</ele><time>2026-04-18T09:56:54.916Z</time></trkpt><trkpt lat="45.4096933" lon="10.6790933"><ele>100.0</ele><time>2026-04-18T09:56:55.909Z</time></trkpt><trkpt lat="45.4095667" lon="10.6791283"><ele>100.0</ele><time>2026-04-18T09:56:56.917Z</time></trkpt><trkpt lat="45.4094517" lon="10.6791533"><ele>99.83333333333334</ele><time>2026-04-18T09:56:57.926Z</time></trkpt><trkpt lat="45.4093567" lon="10.6791717"><ele>99.66666666666667</ele><time>2026-04-18T09:56:58.921Z</time></trkpt><trkpt lat="45.409285" lon="10.6791733"><ele>99.5</ele><time>2026-04-18T09:56:59.914Z</time></trkpt><trkpt lat="45.4091933" lon="10.679175"><ele>99.33333333333334</ele><time>2026-04-18T09:57:01.92Z</time></trkpt><trkpt lat="45.4091217" lon="10.67928"><ele>99.16666666666667</ele><time>2026-04-18T09:57:04.914Z</time></trkpt><trkpt lat="45.409115" lon="10.67937"><ele>99.0</ele><time>2026-04-18T09:57:05.924Z</time></trkpt><trkpt lat="45.409115" lon="10.679495"><ele>98.4</ele><time>2026-04-18T09:57:06.924Z</time></trkpt><trkpt lat="45.4091233" lon="10.6796333"><ele>97.80000000000001</ele><time>2026-04-18T09:57:07.919Z</time></trkpt><trkpt lat="45.4091617" lon="10.6797817"><ele>97.19999999999999</ele><time>2026-04-18T09:57:08.911Z</time></trkpt><trkpt lat="45.4091667" lon="10.6799517"><ele>96.6</ele><time>2026-04-18T09:57:09.922Z</time></trkpt><trkpt lat="45.4091667" lon="10.6801117"><ele>96.0</ele><time>2026-04-18T09:57:10.913Z</time></trkpt><trkpt lat="45.4091683" lon="10.6802833"><ele>95.75</ele><time>2026-04-18T09:57:11.921Z</time></trkpt><trkpt lat="45.4091533" lon="10.6804567"><ele>95.5</ele><time>2026-04-18T09:57:12.919Z</time></trkpt><trkpt lat="45.409125" lon="10.6806267"><ele>95.25</ele><time>2026-04-18T09:57:13.915Z</time></trkpt><trkpt lat="45.4090883" lon="10.6808017"><ele>95.0</ele><time>2026-04-18T09:57:14.911Z</time></trkpt><trkpt lat="45.4090467" lon="10.68098"><ele>94.75</ele><time>2026-04-18T09:57:15.923Z</time></trkpt><trkpt lat="45.4090083" lon="10.6811683"><ele>94.5</ele><time>2026-04-18T09:57:16.91Z</time></trkpt><trkpt lat="45.4089733" lon="10.6813667"><ele>94.25</ele><time>2026-04-18T09:57:17.916Z</time></trkpt><trkpt lat="45.40894" lon="10.6815667"><ele>94.0</ele><time>2026-04-18T09:57:18.917Z</time></trkpt><trkpt lat="45.4089017" lon="10.68177"><ele>94.0</ele><time>2026-04-18T09:57:19.918Z</time></trkpt><trkpt lat="45.4088533" lon="10.6819733"><ele>94.0</ele><time>2026-04-18T09:57:20.924Z</time></trkpt><trkpt lat="45.4087983" lon="10.6821817"><ele>94.0</ele><time>2026-04-18T09:57:21.914Z</time></trkpt><trkpt lat="45.4087433" lon="10.6823883"><ele>93.33333333333333</ele><time>2026-04-18T09:57:22.918Z</time></trkpt><trkpt lat="45.408685" lon="10.6825917"><ele>92.66666666666667</ele><time>2026-04-18T09:57:23.917Z</time></trkpt><trkpt lat="45.4086183" lon="10.6827917"><ele>92.0</ele><time>2026-04-18T09:57:24.936Z</time></trkpt><trkpt lat="45.4085467" lon="10.6829817"><ele>91.33333333333334</ele><time>2026-04-18T09:57:25.923Z</time></trkpt><trkpt lat="45.4084817" lon="10.68318"><ele>90.66666666666667</ele><time>2026-04-18T09:57:26.912Z</time></trkpt><trkpt lat="45.408415" lon="10.6833783"><ele>90.0</ele><time>2026-04-18T09:57:27.929Z</time></trkpt><trkpt lat="45.408355" lon="10.68358"><ele>90.25</ele><time>2026-04-18T09:57:28.958Z</time></trkpt><trkpt lat="45.4082983" lon="10.6837833"><ele>90.5</ele><time>2026-04-18T09:57:29.916Z</time></trkpt><trkpt lat="45.4082567" lon="10.6839833"><ele>90.75</ele><time>2026-04-18T09:57:30.923Z</time></trkpt><trkpt lat="45.40822" lon="10.684165"><ele>91.0</ele><time>2026-04-18T09:57:31.919Z</time></trkpt><trkpt lat="45.408195" lon="10.6843317"><ele>91.33333333333333</ele><time>2026-04-18T09:57:32.925Z</time></trkpt><trkpt lat="45.4081767" lon="10.6844733"><ele>91.66666666666666</ele><time>2026-04-18T09:57:33.925Z</time></trkpt><trkpt lat="45.408175" lon="10.6845967"><ele>92.0</ele><time>2026-04-18T09:57:34.917Z</time></trkpt><trkpt lat="45.408185" lon="10.6847083"><ele>92.33333333333333</ele><time>2026-04-18T09:57:35.921Z</time></trkpt><trkpt lat="45.40822" lon="10.6848067"><ele>92.66666666666667</ele><time>2026-04-18T09:57:36.919Z</time></trkpt><trkpt lat="45.40828" lon="10.684895"><ele>93.0</ele><time>2026-04-18T09:57:37.93Z</time></trkpt><trkpt lat="45.408355" lon="10.6849833"><ele>93.0</ele><time>2026-04-18T09:57:38.928Z</time></trkpt><trkpt lat="45.40844" lon="10.685085"><ele>93.0</ele><time>2026-04-18T09:57:39.923Z</time></trkpt><trkpt lat="45.4085283" lon="10.6852017"><ele>93.0</ele><time>2026-04-18T09:57:40.919Z</time></trkpt><trkpt lat="45.4086317" lon="10.6853217"><ele>93.0</ele><time>2026-04-18T09:57:41.913Z</time></trkpt><trkpt lat="45.4087217" lon="10.6854083"><ele>93.16666666666667</ele><time>2026-04-18T09:57:42.92Z</time></trkpt><trkpt lat="45.4087833" lon="10.6855267"><ele>93.33333333333333</ele><time>2026-04-18T09:57:43.923Z</time></trkpt><trkpt lat="45.4088267" lon="10.6856183"><ele>93.5</ele><time>2026-04-18T09:57:44.918Z</time></trkpt><trkpt lat="45.408885" lon="10.68569"><ele>93.66666666666666</ele><time>2026-04-18T09:57:45.918Z</time></trkpt><trkpt lat="45.4089433" lon="10.6857517"><ele>93.83333333333333</ele><time>2026-04-18T09:57:46.912Z</time></trkpt><trkpt lat="45.4090017" lon="10.68582"><ele>94.0</ele><time>2026-04-18T09:57:47.938Z</time></trkpt><trkpt lat="45.409055" lon="10.6858933"><ele>94.16666666666666</ele><time>2026-04-18T09:57:48.911Z</time></trkpt><trkpt lat="45.40911" lon="10.6859717"><ele>94.33333333333333</ele><time>2026-04-18T09:57:49.917Z</time></trkpt><trkpt lat="45.40916" lon="10.686065"><ele>94.5</ele><time>2026-04-18T09:57:50.923Z</time></trkpt><trkpt lat="45.4092067" lon="10.6861667"><ele>94.66666666666667</ele><time>2026-04-18T09:57:51.929Z</time></trkpt><trkpt lat="45.4092467" lon="10.6862783"><ele>94.83333333333334</ele><time>2026-04-18T09:57:52.929Z</time></trkpt><trkpt lat="45.40928" lon="10.6863967"><ele>95.0</ele><time>2026-04-18T09:57:53.932Z</time></trkpt><trkpt lat="45.409305" lon="10.6865117"><ele>95.0</ele><time>2026-04-18T09:57:54.933Z</time></trkpt><trkpt lat="45.409325" lon="10.68661"><ele>95.0</ele><time>2026-04-18T09:57:55.91Z</time></trkpt><trkpt lat="45.4093367" lon="10.6867083"><ele>95.0</ele><time>2026-04-18T09:57:57.933Z</time></trkpt><trkpt lat="45.4093083" lon="10.6865733"><ele>95.0</ele><time>2026-04-18T09:58:23.949Z</time></trkpt><trkpt lat="45.4092883" lon="10.686485"><ele>95.0</ele><time>2026-04-18T09:58:24.916Z</time></trkpt><trkpt lat="45.4092683" lon="10.686375"><ele>95.0</ele><time>2026-04-18T09:58:25.916Z</time></trkpt><trkpt lat="45.4092433" lon="10.6862583"><ele>95.0</ele><time>2026-04-18T09:58:26.929Z</time></trkpt><trkpt lat="45.409205" lon="10.68614"><ele>95.0</ele><time>2026-04-18T09:58:27.926Z</time></trkpt><trkpt lat="45.4091483" lon="10.6860167"><ele>95.0</ele><time>2026-04-18T09:58:28.931Z</time></trkpt><trkpt lat="45.4090683" lon="10.6858867"><ele>95.0</ele><time>2026-04-18T09:58:29.923Z</time></trkpt><trkpt lat="45.4090033" lon="10.6857733"><ele>95.0</ele><time>2026-04-18T09:58:30.936Z</time></trkpt><trkpt lat="45.4089267" lon="10.6856567"><ele>95.0</ele><time>2026-04-18T09:58:31.913Z</time></trkpt><trkpt lat="45.40886" lon="10.6855483"><ele>95.0</ele><time>2026-04-18T09:58:32.917Z</time></trkpt><trkpt lat="45.4087733" lon="10.6854433"><ele>95.0</ele><time>2026-04-18T09:58:33.916Z</time></trkpt><trkpt lat="45.408675" lon="10.68534"><ele>95.0</ele><time>2026-04-18T09:58:34.925Z</time></trkpt><trkpt lat="45.408595" lon="10.6852617"><ele>95.0</ele><time>2026-04-18T09:58:35.938Z</time></trkpt><trkpt lat="45.40851" lon="10.6851633"><ele>94.6</ele><time>2026-04-18T09:58:36.914Z</time></trkpt><trkpt lat="45.4084283" lon="10.6850717"><ele>94.2</ele><time>2026-04-18T09:58:37.919Z</time></trkpt><trkpt lat="45.4083517" lon="10.6849683"><ele>93.80000000000001</ele><time>2026-04-18T09:58:38.931Z</time></trkpt><trkpt lat="45.4082433" lon="10.68483"><ele>93.4</ele><time>2026-04-18T09:58:40.913Z</time></trkpt><trkpt lat="45.4081683" lon="10.6847933"><ele>93.0</ele><time>2026-04-18T09:58:42.916Z</time></trkpt><trkpt lat="45.4080517" lon="10.6848267"><ele>93.0</ele><time>2026-04-18T09:58:44.931Z</time></trkpt><trkpt lat="45.4079833" lon="10.684855"><ele>93.0</ele><time>2026-04-18T09:58:45.914Z</time></trkpt><trkpt lat="45.4079083" lon="10.6848817"><ele>93.0</ele><time>2026-04-18T09:58:46.927Z</time></trkpt><trkpt lat="45.407835" lon="10.684905"><ele>93.0</ele><time>2026-04-18T09:58:47.917Z</time></trkpt><trkpt lat="45.4077683" lon="10.6849283"><ele>93.0</ele><time>2026-04-18T09:58:48.925Z</time></trkpt><trkpt lat="45.40766" lon="10.68497"><ele>93.0</ele><time>2026-04-18T09:58:50.908Z</time></trkpt><trkpt lat="45.4075767" lon="10.6849867"><ele>93.0</ele><time>2026-04-18T09:58:52.932Z</time></trkpt><trkpt lat="45.40748" lon="10.6849883"><ele>93.0</ele><time>2026-04-18T09:58:54.941Z</time></trkpt><trkpt lat="45.4073667" lon="10.6849783"><ele>93.0</ele><time>2026-04-18T09:58:56.909Z</time></trkpt><trkpt lat="45.40726" lon="10.6849617"><ele>93.0</ele><time>2026-04-18T09:58:58.934Z</time></trkpt><trkpt lat="45.40717" lon="10.6849267"><ele>93.0</ele><time>2026-04-18T09:59:01.919Z</time></trkpt><trkpt lat="45.4071" lon="10.68487"><ele>91.60000000000001</ele><time>2026-04-18T09:59:05.921Z</time></trkpt><trkpt lat="45.4070367" lon="10.6847967"><ele>90.2</ele><time>2026-04-18T09:59:08.912Z</time></trkpt><trkpt lat="45.406965" lon="10.6847167"><ele>88.8</ele><time>2026-04-18T09:59:11.916Z</time></trkpt><trkpt lat="45.4069033" lon="10.68464"><ele>87.4</ele><time>2026-04-18T09:59:14.94Z</time></trkpt><trkpt lat="45.4067717" lon="10.6846267"><ele>86.0</ele><time>2026-04-18T09:59:43.911Z</time></trkpt><trkpt lat="45.4068017" lon="10.684715"><ele>86.0</ele><time>2026-04-18T09:59:49.918Z</time></trkpt><trkpt lat="45.4068783" lon="10.68471"><ele>86.0</ele><time>2026-04-18T09:59:53.943Z</time></trkpt><trkpt lat="45.4069683" lon="10.6847567"><ele>86.0</ele><time>2026-04-18T09:59:56.924Z</time></trkpt><trkpt lat="45.4070383" lon="10.6848033"><ele>86.0</ele><time>2026-04-18T09:59:58.923Z</time></trkpt><trkpt lat="45.407085" lon="10.6848783"><ele>86.0</ele><time>2026-04-18T10:00:00.919Z</time></trkpt><trkpt lat="45.4071317" lon="10.6849467"><ele>86.0</ele><time>2026-04-18T10:00:02.932Z</time></trkpt><trkpt lat="45.4072083" lon="10.6849833"><ele>87.16666666666667</ele><time>2026-04-18T10:00:04.923Z</time></trkpt><trkpt lat="45.4073217" lon="10.6849983"><ele>88.33333333333334</ele><time>2026-04-18T10:00:06.928Z</time></trkpt><trkpt lat="45.407385" lon="10.6850033"><ele>89.5</ele><time>2026-04-18T10:00:07.917Z</time></trkpt><trkpt lat="45.40745" lon="10.6850017"><ele>90.66666666666667</ele><time>2026-04-18T10:00:08.921Z</time></trkpt><trkpt lat="45.4075167" lon="10.6849983"><ele>91.83333333333333</ele><time>2026-04-18T10:00:09.912Z</time></trkpt><trkpt lat="45.407585" lon="10.6849933"><ele>93.0</ele><time>2026-04-18T10:00:10.921Z</time></trkpt><trkpt lat="45.40766" lon="10.6849867"><ele>93.0</ele><time>2026-04-18T10:00:11.918Z</time></trkpt><trkpt lat="45.4077417" lon="10.6849667"><ele>93.0</ele><time>2026-04-18T10:00:12.918Z</time></trkpt><trkpt lat="45.40782" lon="10.6849417"><ele>93.0</ele><time>2026-04-18T10:00:13.915Z</time></trkpt><trkpt lat="45.4079017" lon="10.6849217"><ele>93.0</ele><time>2026-04-18T10:00:14.912Z</time></trkpt><trkpt lat="45.4079833" lon="10.6849017"><ele>93.0</ele><time>2026-04-18T10:00:15.931Z</time></trkpt><trkpt lat="45.4080617" lon="10.6848867"><ele>93.0</ele><time>2026-04-18T10:00:16.927Z</time></trkpt><trkpt lat="45.40813" lon="10.6848733"><ele>93.0</ele><time>2026-04-18T10:00:17.913Z</time></trkpt><trkpt lat="45.4082483" lon="10.6848717"><ele>93.0</ele><time>2026-04-18T10:00:19.916Z</time></trkpt><trkpt lat="45.4083617" lon="10.6849633"><ele>93.0</ele><time>2026-04-18T10:00:21.915Z</time></trkpt><trkpt lat="45.4084233" lon="10.6850417"><ele>93.0</ele><time>2026-04-18T10:00:22.914Z</time></trkpt><trkpt lat="45.408485" lon="10.6851317"><ele>93.0</ele><time>2026-04-18T10:00:23.916Z</time></trkpt><trkpt lat="45.4085517" lon="10.6852217"><ele>93.25</ele><time>2026-04-18T10:00:24.918Z</time></trkpt><trkpt lat="45.4087217" lon="10.685395"><ele>93.5</ele><time>2026-04-18T10:00:26.914Z</time></trkpt><trkpt lat="45.4088017" lon="10.685505"><ele>93.75</ele><time>2026-04-18T10:00:27.918Z</time></trkpt><trkpt lat="45.4088733" lon="10.6855917"><ele>94.0</ele><time>2026-04-18T10:00:28.909Z</time></trkpt><trkpt lat="45.40896" lon="10.685675"><ele>94.2</ele><time>2026-04-18T10:00:29.921Z</time></trkpt><trkpt lat="45.4090383" lon="10.6857683"><ele>94.4</ele><time>2026-04-18T10:00:30.937Z</time></trkpt><trkpt lat="45.4090983" lon="10.6858767"><ele>94.6</ele><time>2026-04-18T10:00:31.914Z</time></trkpt><trkpt lat="45.4091617" lon="10.6859917"><ele>94.8</ele><time>2026-04-18T10:00:32.923Z</time></trkpt><trkpt lat="45.4092" lon="10.6861033"><ele>95.0</ele><time>2026-04-18T10:00:33.911Z</time></trkpt><trkpt lat="45.4092533" lon="10.6862033"><ele>95.0</ele><time>2026-04-18T10:00:34.925Z</time></trkpt><trkpt lat="45.4092767" lon="10.6863233"><ele>95.0</ele><time>2026-04-18T10:00:35.915Z</time></trkpt><trkpt lat="45.4093017" lon="10.6864283"><ele>95.0</ele><time>2026-04-18T10:00:36.918Z</time></trkpt><trkpt lat="45.40932" lon="10.6865233"><ele>95.0</ele><time>2026-04-18T10:00:37.915Z</time></trkpt><trkpt lat="45.4093433" lon="10.6866417"><ele>95.0</ele><time>2026-04-18T10:00:39.911Z</time></trkpt><trkpt lat="45.4093117" lon="10.6867517"><ele>95.0</ele><time>2026-04-18T10:00:42.933Z</time></trkpt><trkpt lat="45.4092117" lon="10.6867967"><ele>95.0</ele><time>2026-04-18T10:00:44.918Z</time></trkpt><trkpt lat="45.4091483" lon="10.6868183"><ele>95.0</ele><time>2026-04-18T10:00:45.915Z</time></trkpt><trkpt lat="45.40907" lon="10.6868483"><ele>95.0</ele><time>2026-04-18T10:00:46.924Z</time></trkpt><trkpt lat="45.408995" lon="10.6868817"><ele>95.0</ele><time>2026-04-18T10:00:47.92Z</time></trkpt><trkpt lat="45.4089117" lon="10.6869183"><ele>95.0</ele><time>2026-04-18T10:00:48.915Z</time></trkpt><trkpt lat="45.4088267" lon="10.68695"><ele>95.0</ele><time>2026-04-18T10:00:49.918Z</time></trkpt><trkpt lat="45.4087367" lon="10.6869833"><ele>95.0</ele><time>2026-04-18T10:00:50.916Z</time></trkpt><trkpt lat="45.4086367" lon="10.6870117"><ele>95.0</ele><time>2026-04-18T10:00:51.907Z</time></trkpt><trkpt lat="45.4085117" lon="10.6870467"><ele>95.0</ele><time>2026-04-18T10:00:52.91Z</time></trkpt><trkpt lat="45.4084333" lon="10.6870833"><ele>95.0</ele><time>2026-04-18T10:00:53.917Z</time></trkpt><trkpt lat="45.4083317" lon="10.6871333"><ele>95.0</ele><time>2026-04-18T10:00:54.924Z</time></trkpt><trkpt lat="45.40821" lon="10.6871883"><ele>95.0</ele><time>2026-04-18T10:00:55.921Z</time></trkpt><trkpt lat="45.4080983" lon="10.6872367"><ele>95.0</ele><time>2026-04-18T10:00:56.913Z</time></trkpt><trkpt lat="45.4079867" lon="10.6872867"><ele>95.0</ele><time>2026-04-18T10:00:57.923Z</time></trkpt><trkpt lat="45.4078717" lon="10.687335"><ele>95.0</ele><time>2026-04-18T10:00:58.916Z</time></trkpt><trkpt lat="45.407755" lon="10.6873917"><ele>95.0</ele><time>2026-04-18T10:00:59.925Z</time></trkpt><trkpt lat="45.4076367" lon="10.6874517"><ele>95.0</ele><time>2026-04-18T10:01:00.925Z</time></trkpt><trkpt lat="45.4075217" lon="10.687525"><ele>95.0</ele><time>2026-04-18T10:01:01.917Z</time></trkpt><trkpt lat="45.4074133" lon="10.687615"><ele>95.0</ele><time>2026-04-18T10:01:02.916Z</time></trkpt><trkpt lat="45.407305" lon="10.6877267"><ele>95.0</ele><time>2026-04-18T10:01:03.926Z</time></trkpt><trkpt lat="45.4072083" lon="10.6878483"><ele>95.0</ele><time>2026-04-18T10:01:04.931Z</time></trkpt><trkpt lat="45.4071183" lon="10.6879733"><ele>95.0</ele><time>2026-04-18T10:01:05.913Z</time></trkpt><trkpt lat="45.4070433" lon="10.6881083"><ele>95.0</ele><time>2026-04-18T10:01:06.934Z</time></trkpt><trkpt lat="45.40697" lon="10.6882483"><ele>93.25</ele><time>2026-04-18T10:01:07.907Z</time></trkpt><trkpt lat="45.4069217" lon="10.6884167"><ele>91.5</ele><time>2026-04-18T10:01:08.921Z</time></trkpt><trkpt lat="45.4068833" lon="10.688605"><ele>89.75</ele><time>2026-04-18T10:01:09.918Z</time></trkpt><trkpt lat="45.4068383" lon="10.6887683"><ele>88.0</ele><time>2026-04-18T10:01:10.916Z</time></trkpt><trkpt lat="45.406815" lon="10.6889183"><ele>88.0</ele><time>2026-04-18T10:01:11.932Z</time></trkpt><trkpt lat="45.4068017" lon="10.6890583"><ele>88.0</ele><time>2026-04-18T10:01:12.914Z</time></trkpt><trkpt lat="45.4067967" lon="10.68922"><ele>88.0</ele><time>2026-04-18T10:01:13.914Z</time></trkpt><trkpt lat="45.4067683" lon="10.6893883"><ele>88.0</ele><time>2026-04-18T10:01:14.915Z</time></trkpt><trkpt lat="45.406745" lon="10.68956"><ele>88.0</ele><time>2026-04-18T10:01:15.919Z</time></trkpt><trkpt lat="45.40673" lon="10.6897467"><ele>88.0</ele><time>2026-04-18T10:01:16.914Z</time></trkpt><trkpt lat="45.40669" lon="10.689945"><ele>88.0</ele><time>2026-04-18T10:01:17.926Z</time></trkpt><trkpt lat="45.4066683" lon="10.6901383"><ele>88.0</ele><time>2026-04-18T10:01:18.922Z</time></trkpt><trkpt lat="45.40664" lon="10.6903217"><ele>87.0</ele><time>2026-04-18T10:01:19.91Z</time></trkpt><trkpt lat="45.40661" lon="10.690505"><ele>86.0</ele><time>2026-04-18T10:01:20.921Z</time></trkpt><trkpt lat="45.4065867" lon="10.6906933"><ele>85.0</ele><time>2026-04-18T10:01:21.923Z</time></trkpt><trkpt lat="45.406595" lon="10.6908783"><ele>84.0</ele><time>2026-04-18T10:01:22.919Z</time></trkpt><trkpt lat="45.4065733" lon="10.6910567"><ele>83.0</ele><time>2026-04-18T10:01:23.913Z</time></trkpt><trkpt lat="45.4065667" lon="10.6912333"><ele>82.0</ele><time>2026-04-18T10:01:24.932Z</time></trkpt><trkpt lat="45.406545" lon="10.6914"><ele>81.0</ele><time>2026-04-18T10:01:25.931Z</time></trkpt><trkpt lat="45.406525" lon="10.691565"><ele>80.0</ele><time>2026-04-18T10:01:26.911Z</time></trkpt><trkpt lat="45.40651" lon="10.6917183"><ele>80.0</ele><time>2026-04-18T10:01:27.924Z</time></trkpt><trkpt lat="45.4064967" lon="10.6918483"><ele>80.0</ele><time>2026-04-18T10:01:28.919Z</time></trkpt><trkpt lat="45.4064783" lon="10.6919517"><ele>80.0</ele><time>2026-04-18T10:01:29.923Z</time></trkpt><trkpt lat="45.40645" lon="10.6920333"><ele>80.0</ele><time>2026-04-18T10:01:30.93Z</time></trkpt><trkpt lat="45.4063867" lon="10.6921117"><ele>80.0</ele><time>2026-04-18T10:01:32.916Z</time></trkpt><trkpt lat="45.4062717" lon="10.6921217"><ele>80.0</ele><time>2026-04-18T10:01:34.91Z</time></trkpt><trkpt lat="45.406165" lon="10.6920633"><ele>80.6</ele><time>2026-04-18T10:01:36.929Z</time></trkpt><trkpt lat="45.4060883" lon="10.6919217"><ele>81.2</ele><time>2026-04-18T10:01:38.924Z</time></trkpt><trkpt lat="45.40607" lon="10.6918317"><ele>81.80000000000001</ele><time>2026-04-18T10:01:39.93Z</time></trkpt><trkpt lat="45.4060433" lon="10.69174"><ele>82.4</ele><time>2026-04-18T10:01:40.93Z</time></trkpt><trkpt lat="45.4059733" lon="10.6915917"><ele>83.0</ele><time>2026-04-18T10:01:42.918Z</time></trkpt><trkpt lat="45.4058617" lon="10.6915"><ele>83.0</ele><time>2026-04-18T10:01:44.913Z</time></trkpt><trkpt lat="45.4057967" lon="10.69146"><ele>83.0</ele><time>2026-04-18T10:01:45.94Z</time></trkpt><trkpt lat="45.40574" lon="10.691405"><ele>83.0</ele><time>2026-04-18T10:01:46.925Z</time></trkpt><trkpt lat="45.4056767" lon="10.69127"><ele>83.0</ele><time>2026-04-18T10:01:48.913Z</time></trkpt><trkpt lat="45.405675" lon="10.6911033"><ele>83.0</ele><time>2026-04-18T10:01:50.919Z</time></trkpt><trkpt lat="45.4056733" lon="10.6910117"><ele>83.0</ele><time>2026-04-18T10:01:51.921Z</time></trkpt><trkpt lat="45.405665" lon="10.69092"><ele>83.33333333333334</ele><time>2026-04-18T10:01:52.937Z</time></trkpt><trkpt lat="45.4056383" lon="10.6908367"><ele>83.66666666666667</ele><time>2026-04-18T10:01:53.925Z</time></trkpt><trkpt lat="45.405595" lon="10.69077"><ele>84.0</ele><time>2026-04-18T10:01:54.922Z</time></trkpt><trkpt lat="45.40554" lon="10.6907067"><ele>84.33333333333333</ele><time>2026-04-18T10:01:55.93Z</time></trkpt><trkpt lat="45.40549" lon="10.6906417"><ele>84.66666666666666</ele><time>2026-04-18T10:01:56.911Z</time></trkpt><trkpt lat="45.4054383" lon="10.6904783"><ele>85.0</ele><time>2026-04-18T10:01:58.915Z</time></trkpt><trkpt lat="45.4054383" lon="10.690375"><ele>85.0</ele><time>2026-04-18T10:01:59.916Z</time></trkpt><trkpt lat="45.4054483" lon="10.6902667"><ele>85.0</ele><time>2026-04-18T10:02:00.928Z</time></trkpt><trkpt lat="45.4054617" lon="10.6901533"><ele>85.0</ele><time>2026-04-18T10:02:01.925Z</time></trkpt><trkpt lat="45.40548" lon="10.69003"><ele>85.0</ele><time>2026-04-18T10:02:02.924Z</time></trkpt><trkpt lat="45.4054817" lon="10.6899"><ele>85.0</ele><time>2026-04-18T10:02:03.94Z</time></trkpt><trkpt lat="45.4054967" lon="10.6897767"><ele>85.0</ele><time>2026-04-18T10:02:04.933Z</time></trkpt><trkpt lat="45.4055367" lon="10.6896233"><ele>85.0</ele><time>2026-04-18T10:02:05.911Z</time></trkpt><trkpt lat="45.4055667" lon="10.6894517"><ele>85.0</ele><time>2026-04-18T10:02:06.929Z</time></trkpt><trkpt lat="45.4056" lon="10.6892583"><ele>85.0</ele><time>2026-04-18T10:02:07.94Z</time></trkpt><trkpt lat="45.405635" lon="10.6890967"><ele>85.0</ele><time>2026-04-18T10:02:08.918Z</time></trkpt><trkpt lat="45.4056717" lon="10.688935"><ele>85.2</ele><time>2026-04-18T10:02:09.933Z</time></trkpt><trkpt lat="45.4057" lon="10.6887967"><ele>85.4</ele><time>2026-04-18T10:02:10.913Z</time></trkpt><trkpt lat="45.4057283" lon="10.6886767"><ele>85.6</ele><time>2026-04-18T10:02:11.911Z</time></trkpt><trkpt lat="45.405765" lon="10.6885433"><ele>85.8</ele><time>2026-04-18T10:02:12.919Z</time></trkpt><trkpt lat="45.4057817" lon="10.688395"><ele>86.0</ele><time>2026-04-18T10:02:13.919Z</time></trkpt><trkpt lat="45.405825" lon="10.6882883"><ele>87.4</ele><time>2026-04-18T10:02:14.935Z</time></trkpt><trkpt lat="45.405875" lon="10.688195"><ele>88.8</ele><time>2026-04-18T10:02:15.921Z</time></trkpt><trkpt lat="45.4059267" lon="10.6880967"><ele>90.2</ele><time>2026-04-18T10:02:16.914Z</time></trkpt><trkpt lat="45.4059883" lon="10.6879783"><ele>91.60000000000001</ele><time>2026-04-18T10:02:17.909Z</time></trkpt><trkpt lat="45.4060317" lon="10.687865"><ele>93.0</ele><time>2026-04-18T10:02:18.91Z</time></trkpt><trkpt lat="45.4060567" lon="10.6877283"><ele>94.0</ele><time>2026-04-18T10:02:19.921Z</time></trkpt><trkpt lat="45.406085" lon="10.6876167"><ele>95.0</ele><time>2026-04-18T10:02:20.926Z</time></trkpt><trkpt lat="45.406085" lon="10.6874933"><ele>96.0</ele><time>2026-04-18T10:02:21.932Z</time></trkpt><trkpt lat="45.406065" lon="10.6873683"><ele>97.0</ele><time>2026-04-18T10:02:22.914Z</time></trkpt><trkpt lat="45.4060483" lon="10.6872433"><ele>98.0</ele><time>2026-04-18T10:02:23.917Z</time></trkpt><trkpt lat="45.4060383" lon="10.68712"><ele>99.0</ele><time>2026-04-18T10:02:24.913Z</time></trkpt><trkpt lat="45.4060167" lon="10.6869967"><ele>98.16666666666667</ele><time>2026-04-18T10:02:25.926Z</time></trkpt><trkpt lat="45.4059933" lon="10.6868767"><ele>97.33333333333333</ele><time>2026-04-18T10:02:26.925Z</time></trkpt><trkpt lat="45.4059633" lon="10.68677"><ele>96.5</ele><time>2026-04-18T10:02:27.927Z</time></trkpt><trkpt lat="45.4059383" lon="10.6866717"><ele>95.66666666666666</ele><time>2026-04-18T10:02:28.911Z</time></trkpt><trkpt lat="45.4059017" lon="10.68658"><ele>94.83333333333333</ele><time>2026-04-18T10:02:29.919Z</time></trkpt><trkpt lat="45.4058467" lon="10.6864883"><ele>94.0</ele><time>2026-04-18T10:02:30.927Z</time></trkpt><trkpt lat="45.4057817" lon="10.6864017"><ele>94.0</ele><time>2026-04-18T10:02:31.923Z</time></trkpt><trkpt lat="45.4057167" lon="10.6863083"><ele>94.0</ele><time>2026-04-18T10:02:32.931Z</time></trkpt><trkpt lat="45.405645" lon="10.686225"><ele>94.0</ele><time>2026-04-18T10:02:33.923Z</time></trkpt><trkpt lat="45.405565" lon="10.68614"><ele>94.0</ele><time>2026-04-18T10:02:34.927Z</time></trkpt><trkpt lat="45.40547" lon="10.6860567"><ele>94.0</ele><time>2026-04-18T10:02:35.921Z</time></trkpt><trkpt lat="45.4053983" lon="10.6859883"><ele>94.25</ele><time>2026-04-18T10:02:36.915Z</time></trkpt><trkpt lat="45.4052683" lon="10.685875"><ele>94.5</ele><time>2026-04-18T10:02:37.923Z</time></trkpt><trkpt lat="45.4051417" lon="10.685805"><ele>94.75</ele><time>2026-04-18T10:02:38.922Z</time></trkpt><trkpt lat="45.4050867" lon="10.68571"><ele>95.0</ele><time>2026-04-18T10:02:39.931Z</time></trkpt><trkpt lat="45.4049783" lon="10.6857117"><ele>95.0</ele><time>2026-04-18T10:02:40.93Z</time></trkpt><trkpt lat="45.4049183" lon="10.6856517"><ele>95.0</ele><time>2026-04-18T10:02:41.945Z</time></trkpt><trkpt lat="45.404855" lon="10.6855883"><ele>95.0</ele><time>2026-04-18T10:02:42.919Z</time></trkpt><trkpt lat="45.404785" lon="10.6854467"><ele>95.0</ele><time>2026-04-18T10:02:43.921Z</time></trkpt><trkpt lat="45.404705" lon="10.6853017"><ele>95.0</ele><time>2026-04-18T10:02:44.926Z</time></trkpt><trkpt lat="45.4046283" lon="10.6851667"><ele>94.25</ele><time>2026-04-18T10:02:45.922Z</time></trkpt><trkpt lat="45.404555" lon="10.6849917"><ele>93.5</ele><time>2026-04-18T10:02:46.914Z</time></trkpt><trkpt lat="45.4044883" lon="10.684795"><ele>92.75</ele><time>2026-04-18T10:02:47.933Z</time></trkpt><trkpt lat="45.4044167" lon="10.6846117"><ele>92.0</ele><time>2026-04-18T10:02:48.911Z</time></trkpt><trkpt lat="45.4043583" lon="10.6843883"><ele>91.33333333333334</ele><time>2026-04-18T10:02:49.915Z</time></trkpt><trkpt lat="45.404275" lon="10.6841967"><ele>90.66666666666667</ele><time>2026-04-18T10:02:50.916Z</time></trkpt><trkpt lat="45.4042217" lon="10.6839867"><ele>90.0</ele><time>2026-04-18T10:02:51.915Z</time></trkpt><trkpt lat="45.404145" lon="10.683785"><ele>90.0</ele><time>2026-04-18T10:02:52.933Z</time></trkpt><trkpt lat="45.404075" lon="10.6836"><ele>90.0</ele><time>2026-04-18T10:02:53.913Z</time></trkpt><trkpt lat="45.4040133" lon="10.68345"><ele>90.0</ele><time>2026-04-18T10:02:54.917Z</time></trkpt><trkpt lat="45.4039783" lon="10.683295"><ele>90.0</ele><time>2026-04-18T10:02:55.967Z</time></trkpt><trkpt lat="45.4039317" lon="10.6831883"><ele>89.83333333333333</ele><time>2026-04-18T10:02:56.913Z</time></trkpt><trkpt lat="45.4038917" lon="10.6830517"><ele>89.66666666666667</ele><time>2026-04-18T10:02:57.917Z</time></trkpt><trkpt lat="45.403855" lon="10.6829467"><ele>89.5</ele><time>2026-04-18T10:02:58.94Z</time></trkpt><trkpt lat="45.40383" lon="10.68286"><ele>89.33333333333334</ele><time>2026-04-18T10:02:59.917Z</time></trkpt><trkpt lat="45.4037983" lon="10.6826917"><ele>89.16666666666667</ele><time>2026-04-18T10:03:01.918Z</time></trkpt><trkpt lat="45.4037833" lon="10.6826033"><ele>89.0</ele><time>2026-04-18T10:03:02.925Z</time></trkpt><trkpt lat="45.4037567" lon="10.68243"><ele>90.33333333333334</ele><time>2026-04-18T10:03:04.919Z</time></trkpt><trkpt lat="45.4037533" lon="10.6823317"><ele>91.66666666666667</ele><time>2026-04-18T10:03:05.93Z</time></trkpt><trkpt lat="45.40373" lon="10.68223"><ele>93.0</ele><time>2026-04-18T10:03:06.932Z</time></trkpt><trkpt lat="45.4036917" lon="10.6821283"><ele>94.33333333333334</ele><time>2026-04-18T10:03:07.929Z</time></trkpt><trkpt lat="45.4036567" lon="10.68203"><ele>95.66666666666667</ele><time>2026-04-18T10:03:08.931Z</time></trkpt><trkpt lat="45.4036217" lon="10.68192"><ele>97.0</ele><time>2026-04-18T10:03:09.908Z</time></trkpt><trkpt lat="45.403585" lon="10.6818067"><ele>97.00000000000001</ele><time>2026-04-18T10:03:10.925Z</time></trkpt><trkpt lat="45.40355" lon="10.681685"><ele>97.0</ele><time>2026-04-18T10:03:11.913Z</time></trkpt><trkpt lat="45.403525" lon="10.6815383"><ele>97.0</ele><time>2026-04-18T10:03:12.912Z</time></trkpt><trkpt lat="45.40349" lon="10.68141"><ele>97.0</ele><time>2026-04-18T10:03:13.905Z</time></trkpt><trkpt lat="45.4034617" lon="10.6813083"><ele>97.00000000000001</ele><time>2026-04-18T10:03:14.921Z</time></trkpt><trkpt lat="45.4034333" lon="10.6812183"><ele>97.0</ele><time>2026-04-18T10:03:15.923Z</time></trkpt><trkpt lat="45.4033633" lon="10.68111"><ele>97.0</ele><time>2026-04-18T10:03:17.92Z</time></trkpt><trkpt lat="45.4032617" lon="10.6811333"><ele>97.0</ele><time>2026-04-18T10:03:19.948Z</time></trkpt><trkpt lat="45.4031967" lon="10.6811883"><ele>97.0</ele><time>2026-04-18T10:03:20.939Z</time></trkpt><trkpt lat="45.4031183" lon="10.681255"><ele>97.0</ele><time>2026-04-18T10:03:21.925Z</time></trkpt><trkpt lat="45.40304" lon="10.6813167"><ele>97.0</ele><time>2026-04-18T10:03:22.916Z</time></trkpt><trkpt lat="45.4029517" lon="10.68138"><ele>97.0</ele><time>2026-04-18T10:03:23.919Z</time></trkpt><trkpt lat="45.4028517" lon="10.681465"><ele>97.0</ele><time>2026-04-18T10:03:24.931Z</time></trkpt><trkpt lat="45.4027333" lon="10.6815283"><ele>97.0</ele><time>2026-04-18T10:03:25.925Z</time></trkpt><trkpt lat="45.40261" lon="10.6816217"><ele>97.0</ele><time>2026-04-18T10:03:26.926Z</time></trkpt><trkpt lat="45.4024883" lon="10.6816967"><ele>97.0</ele><time>2026-04-18T10:03:27.921Z</time></trkpt><trkpt lat="45.40239" lon="10.6817667"><ele>97.0</ele><time>2026-04-18T10:03:28.913Z</time></trkpt><trkpt lat="45.4022867" lon="10.6818133"><ele>97.0</ele><time>2026-04-18T10:03:29.928Z</time></trkpt><trkpt lat="45.40217" lon="10.6818917"><ele>97.0</ele><time>2026-04-18T10:03:30.917Z</time></trkpt><trkpt lat="45.4020667" lon="10.68194"><ele>97.0</ele><time>2026-04-18T10:03:31.915Z</time></trkpt><trkpt lat="45.4019483" lon="10.681995"><ele>97.0</ele><time>2026-04-18T10:03:32.909Z</time></trkpt><trkpt lat="45.4018317" lon="10.68204"><ele>97.0</ele><time>2026-04-18T10:03:33.918Z</time></trkpt><trkpt lat="45.4017283" lon="10.6820933"><ele>97.0</ele><time>2026-04-18T10:03:34.908Z</time></trkpt><trkpt lat="45.40164" lon="10.682105"><ele>97.0</ele><time>2026-04-18T10:03:35.921Z</time></trkpt><trkpt lat="45.401555" lon="10.68213"><ele>97.00000000000001</ele><time>2026-04-18T10:03:36.919Z</time></trkpt><trkpt lat="45.4014867" lon="10.6821267"><ele>97.0</ele><time>2026-04-18T10:03:37.915Z</time></trkpt><trkpt lat="45.4014233" lon="10.6821"><ele>97.0</ele><time>2026-04-18T10:03:38.916Z</time></trkpt><trkpt lat="45.40136" lon="10.6820467"><ele>97.0</ele><time>2026-04-18T10:03:39.917Z</time></trkpt><trkpt lat="45.4013017" lon="10.6819717"><ele>97.00000000000001</ele><time>2026-04-18T10:03:40.924Z</time></trkpt><trkpt lat="45.4012467" lon="10.6818683"><ele>97.0</ele><time>2026-04-18T10:03:41.917Z</time></trkpt><trkpt lat="45.4012067" lon="10.68175"><ele>97.83333333333334</ele><time>2026-04-18T10:03:42.92Z</time></trkpt><trkpt lat="45.4011867" lon="10.68161"><ele>98.66666666666667</ele><time>2026-04-18T10:03:43.92Z</time></trkpt><trkpt lat="45.4011567" lon="10.681505"><ele>99.5</ele><time>2026-04-18T10:03:44.926Z</time></trkpt><trkpt lat="45.4011183" lon="10.6814183"><ele>100.33333333333334</ele><time>2026-04-18T10:03:45.952Z</time></trkpt><trkpt lat="45.4010767" lon="10.68135"><ele>101.16666666666667</ele><time>2026-04-18T10:03:46.93Z</time></trkpt><trkpt lat="45.4009617" lon="10.6813067"><ele>102.0</ele><time>2026-04-18T10:03:48.925Z</time></trkpt><trkpt lat="45.4008917" lon="10.6813317"><ele>102.0</ele><time>2026-04-18T10:03:49.925Z</time></trkpt><trkpt lat="45.4008267" lon="10.68137"><ele>102.0</ele><time>2026-04-18T10:03:50.928Z</time></trkpt><trkpt lat="45.400715" lon="10.6814333"><ele>102.0</ele><time>2026-04-18T10:03:52.925Z</time></trkpt><trkpt lat="45.4006333" lon="10.6814733"><ele>102.0</ele><time>2026-04-18T10:03:54.928Z</time></trkpt><trkpt lat="45.4005733" lon="10.68142"><ele>102.0</ele><time>2026-04-18T10:03:56.938Z</time></trkpt><trkpt lat="45.4005517" lon="10.6812867"><ele>102.0</ele><time>2026-04-18T10:03:58.926Z</time></trkpt><trkpt lat="45.4005583" lon="10.68115"><ele>102.0</ele><time>2026-04-18T10:04:00.912Z</time></trkpt><trkpt lat="45.40054" lon="10.6810417"><ele>102.0</ele><time>2026-04-18T10:04:02.916Z</time></trkpt><trkpt lat="45.4004617" lon="10.680975"><ele>102.0</ele><time>2026-04-18T10:04:04.913Z</time></trkpt><trkpt lat="45.4003367" lon="10.6809517"><ele>102.0</ele><time>2026-04-18T10:04:06.91Z</time></trkpt><trkpt lat="45.40026" lon="10.6809283"><ele>102.0</ele><time>2026-04-18T10:04:07.922Z</time></trkpt><trkpt lat="45.4001767" lon="10.680915"><ele>102.0</ele><time>2026-04-18T10:04:08.917Z</time></trkpt><trkpt lat="45.4001017" lon="10.6809033"><ele>102.0</ele><time>2026-04-18T10:04:09.921Z</time></trkpt><trkpt lat="45.4000283" lon="10.6808933"><ele>102.0</ele><time>2026-04-18T10:04:10.913Z</time></trkpt><trkpt lat="45.3999633" lon="10.6808817"><ele>102.0</ele><time>2026-04-18T10:04:11.917Z</time></trkpt><trkpt lat="45.39984" lon="10.6808617"><ele>102.0</ele><time>2026-04-18T10:04:13.926Z</time></trkpt><trkpt lat="45.399775" lon="10.6808433"><ele>102.0</ele><time>2026-04-18T10:04:14.914Z</time></trkpt><trkpt lat="45.3997033" lon="10.6808117"><ele>102.16666666666667</ele><time>2026-04-18T10:04:15.915Z</time></trkpt><trkpt lat="45.3996317" lon="10.6807717"><ele>102.33333333333334</ele><time>2026-04-18T10:04:16.911Z</time></trkpt><trkpt lat="45.3995517" lon="10.6807467"><ele>102.5</ele><time>2026-04-18T10:04:17.95Z</time></trkpt><trkpt lat="45.3994667" lon="10.6807333"><ele>102.66666666666667</ele><time>2026-04-18T10:04:18.935Z</time></trkpt><trkpt lat="45.399365" lon="10.6807267"><ele>102.83333333333334</ele><time>2026-04-18T10:04:19.92Z</time></trkpt><trkpt lat="45.3992633" lon="10.68074"><ele>103.0</ele><time>2026-04-18T10:04:20.927Z</time></trkpt><trkpt lat="45.3991583" lon="10.6807483"><ele>103.0</ele><time>2026-04-18T10:04:21.916Z</time></trkpt><trkpt lat="45.3990433" lon="10.680765"><ele>103.0</ele><time>2026-04-18T10:04:22.951Z</time></trkpt><trkpt lat="45.3989417" lon="10.6807883"><ele>103.0</ele><time>2026-04-18T10:04:23.942Z</time></trkpt><trkpt lat="45.3988333" lon="10.6808367"><ele>103.0</ele><time>2026-04-18T10:04:24.919Z</time></trkpt><trkpt lat="45.39873" lon="10.680905"><ele>103.0</ele><time>2026-04-18T10:04:25.908Z</time></trkpt><trkpt lat="45.3986283" lon="10.6809433"><ele>103.0</ele><time>2026-04-18T10:04:26.916Z</time></trkpt><trkpt lat="45.3985267" lon="10.6809883"><ele>103.0</ele><time>2026-04-18T10:04:27.92Z</time></trkpt><trkpt lat="45.3984383" lon="10.6810533"><ele>103.0</ele><time>2026-04-18T10:04:28.929Z</time></trkpt><trkpt lat="45.39834" lon="10.6810883"><ele>103.0</ele><time>2026-04-18T10:04:29.917Z</time></trkpt><trkpt lat="45.3982483" lon="10.68113"><ele>103.0</ele><time>2026-04-18T10:04:30.935Z</time></trkpt><trkpt lat="45.398165" lon="10.68117"><ele>103.0</ele><time>2026-04-18T10:04:31.948Z</time></trkpt><trkpt lat="45.3980817" lon="10.6812017"><ele>103.0</ele><time>2026-04-18T10:04:32.927Z</time></trkpt><trkpt lat="45.3979917" lon="10.6812267"><ele>103.0</ele><time>2026-04-18T10:04:33.928Z</time></trkpt><trkpt lat="45.397885" lon="10.6812633"><ele>103.0</ele><time>2026-04-18T10:04:34.922Z</time></trkpt><trkpt lat="45.3977917" lon="10.6812733"><ele>103.0</ele><time>2026-04-18T10:04:35.916Z</time></trkpt><trkpt lat="45.3976983" lon="10.68129"><ele>103.4</ele><time>2026-04-18T10:04:36.93Z</time></trkpt><trkpt lat="45.3976183" lon="10.681285"><ele>103.80000000000001</ele><time>2026-04-18T10:04:37.917Z</time></trkpt><trkpt lat="45.3975217" lon="10.6812967"><ele>104.2</ele><time>2026-04-18T10:04:38.908Z</time></trkpt><trkpt lat="45.3974217" lon="10.681305"><ele>104.6</ele><time>2026-04-18T10:04:39.912Z</time></trkpt><trkpt lat="45.3973183" lon="10.68132"><ele>105.0</ele><time>2026-04-18T10:04:40.917Z</time></trkpt><trkpt lat="45.397215" lon="10.6813383"><ele>105.66666666666667</ele><time>2026-04-18T10:04:41.914Z</time></trkpt><trkpt lat="45.3971067" lon="10.6813617"><ele>106.33333333333334</ele><time>2026-04-18T10:04:42.909Z</time></trkpt><trkpt lat="45.3970167" lon="10.681385"><ele>107.0</ele><time>2026-04-18T10:04:43.931Z</time></trkpt><trkpt lat="45.39693" lon="10.6814217"><ele>107.66666666666667</ele><time>2026-04-18T10:04:44.923Z</time></trkpt><trkpt lat="45.3968483" lon="10.681445"><ele>108.33333333333334</ele><time>2026-04-18T10:04:45.931Z</time></trkpt><trkpt lat="45.396785" lon="10.6814667"><ele>109.0</ele><time>2026-04-18T10:04:46.911Z</time></trkpt><trkpt lat="45.396685" lon="10.6815067"><ele>109.00000000000001</ele><time>2026-04-18T10:04:48.919Z</time></trkpt><trkpt lat="45.396605" lon="10.681535"><ele>109.0</ele><time>2026-04-18T10:04:50.927Z</time></trkpt><trkpt lat="45.3965017" lon="10.6815583"><ele>109.0</ele><time>2026-04-18T10:04:52.91Z</time></trkpt><trkpt lat="45.396415" lon="10.6815733"><ele>109.0</ele><time>2026-04-18T10:04:54.928Z</time></trkpt><trkpt lat="45.3963517" lon="10.6815783"><ele>109.00000000000001</ele><time>2026-04-18T10:04:56.914Z</time></trkpt><trkpt lat="45.396305" lon="10.6816517"><ele>109.0</ele><time>2026-04-18T10:05:00.915Z</time></trkpt><trkpt lat="45.3963333" lon="10.681765"><ele>109.0</ele><time>2026-04-18T10:05:02.924Z</time></trkpt><trkpt lat="45.3963833" lon="10.6819"><ele>109.0</ele><time>2026-04-18T10:05:04.917Z</time></trkpt><trkpt lat="45.39643" lon="10.6820633"><ele>109.0</ele><time>2026-04-18T10:05:06.917Z</time></trkpt><trkpt lat="45.396455" lon="10.682155"><ele>109.0</ele><time>2026-04-18T10:05:07.918Z</time></trkpt><trkpt lat="45.3965" lon="10.6823033"><ele>109.0</ele><time>2026-04-18T10:05:09.914Z</time></trkpt><trkpt lat="45.39654" lon="10.68245"><ele>109.0</ele><time>2026-04-18T10:05:11.916Z</time></trkpt><trkpt lat="45.3965667" lon="10.6825933"><ele>109.0</ele><time>2026-04-18T10:05:13.93Z</time></trkpt><trkpt lat="45.3966033" lon="10.6826883"><ele>109.0</ele><time>2026-04-18T10:05:15.942Z</time></trkpt><trkpt lat="45.39668" lon="10.68264"><ele>109.0</ele><time>2026-04-18T10:05:19.913Z</time></trkpt><trkpt lat="45.3967567" lon="10.6825683"><ele>109.0</ele><time>2026-04-18T10:05:21.912Z</time></trkpt><trkpt lat="45.39687" lon="10.6825067"><ele>109.0</ele><time>2026-04-18T10:05:23.914Z</time></trkpt><trkpt lat="45.3969867" lon="10.6824817"><ele>109.0</ele><time>2026-04-18T10:05:25.928Z</time></trkpt><trkpt lat="45.3971" lon="10.6825017"><ele>109.0</ele><time>2026-04-18T10:05:27.912Z</time></trkpt><trkpt lat="45.397165" lon="10.6825333"><ele>109.0</ele><time>2026-04-18T10:05:28.917Z</time></trkpt><trkpt lat="45.3972267" lon="10.6826183"><ele>109.0</ele><time>2026-04-18T10:05:29.917Z</time></trkpt><trkpt lat="45.3972883" lon="10.6826983"><ele>108.50000000000001</ele><time>2026-04-18T10:05:30.919Z</time></trkpt><trkpt lat="45.3973517" lon="10.68278"><ele>108.0</ele><time>2026-04-18T10:05:31.916Z</time></trkpt><trkpt lat="45.3974133" lon="10.6828617"><ele>107.5</ele><time>2026-04-18T10:05:32.928Z</time></trkpt><trkpt lat="45.3974717" lon="10.6829267"><ele>107.0</ele><time>2026-04-18T10:05:33.916Z</time></trkpt><trkpt lat="45.397555" lon="10.6830233"><ele>106.50000000000001</ele><time>2026-04-18T10:05:35.93Z</time></trkpt><trkpt lat="45.3976083" lon="10.6831017"><ele>106.0</ele><time>2026-04-18T10:05:37.912Z</time></trkpt><trkpt lat="45.39762" lon="10.6832283"><ele>106.0</ele><time>2026-04-18T10:05:39.911Z</time></trkpt><trkpt lat="45.397585" lon="10.6833217"><ele>106.0</ele><time>2026-04-18T10:05:40.905Z</time></trkpt><trkpt lat="45.397545" lon="10.6834317"><ele>106.0</ele><time>2026-04-18T10:05:41.91Z</time></trkpt><trkpt lat="45.3974967" lon="10.6835533"><ele>106.0</ele><time>2026-04-18T10:05:42.918Z</time></trkpt><trkpt lat="45.3974467" lon="10.6836883"><ele>106.0</ele><time>2026-04-18T10:05:43.934Z</time></trkpt><trkpt lat="45.3973917" lon="10.683815"><ele>105.66666666666667</ele><time>2026-04-18T10:05:44.916Z</time></trkpt><trkpt lat="45.39735" lon="10.6839117"><ele>105.33333333333334</ele><time>2026-04-18T10:05:45.917Z</time></trkpt><trkpt lat="45.3973067" lon="10.684"><ele>105.0</ele><time>2026-04-18T10:05:46.931Z</time></trkpt><trkpt lat="45.397265" lon="10.68407"><ele>104.66666666666666</ele><time>2026-04-18T10:05:47.945Z</time></trkpt><trkpt lat="45.3972067" lon="10.68412"><ele>104.33333333333333</ele><time>2026-04-18T10:05:48.92Z</time></trkpt><trkpt lat="45.39714" lon="10.6841483"><ele>104.0</ele><time>2026-04-18T10:05:49.909Z</time></trkpt><trkpt lat="45.3970267" lon="10.6841683"><ele>103.6</ele><time>2026-04-18T10:05:51.912Z</time></trkpt><trkpt lat="45.3969567" lon="10.6842467"><ele>103.2</ele><time>2026-04-18T10:05:53.913Z</time></trkpt><trkpt lat="45.3969767" lon="10.684385"><ele>102.8</ele><time>2026-04-18T10:05:55.924Z</time></trkpt><trkpt lat="45.3970183" lon="10.6844817"><ele>102.39999999999999</ele><time>2026-04-18T10:05:56.919Z</time></trkpt><trkpt lat="45.397065" lon="10.68459"><ele>102.0</ele><time>2026-04-18T10:05:57.94Z</time></trkpt><trkpt lat="45.3971067" lon="10.6847083"><ele>102.0</ele><time>2026-04-18T10:05:58.933Z</time></trkpt><trkpt lat="45.3971567" lon="10.6848517"><ele>102.0</ele><time>2026-04-18T10:05:59.91Z</time></trkpt><trkpt lat="45.3971817" lon="10.6850117"><ele>102.0</ele><time>2026-04-18T10:06:00.915Z</time></trkpt><trkpt lat="45.3971933" lon="10.6851417"><ele>102.0</ele><time>2026-04-18T10:06:01.922Z</time></trkpt><trkpt lat="45.3972183" lon="10.68527"><ele>102.0</ele><time>2026-04-18T10:06:02.92Z</time></trkpt><trkpt lat="45.3972317" lon="10.68539"><ele>102.0</ele><time>2026-04-18T10:06:03.918Z</time></trkpt><trkpt lat="45.3972517" lon="10.6855133"><ele>102.0</ele><time>2026-04-18T10:06:04.914Z</time></trkpt><trkpt lat="45.3972683" lon="10.685635"><ele>102.0</ele><time>2026-04-18T10:06:05.909Z</time></trkpt><trkpt lat="45.397285" lon="10.6857517"><ele>102.0</ele><time>2026-04-18T10:06:06.924Z</time></trkpt><trkpt lat="45.3972983" lon="10.6858517"><ele>102.0</ele><time>2026-04-18T10:06:07.931Z</time></trkpt><trkpt lat="45.3973083" lon="10.6859433"><ele>102.0</ele><time>2026-04-18T10:06:08.919Z</time></trkpt><trkpt lat="45.3973267" lon="10.6860983"><ele>102.0</ele><time>2026-04-18T10:06:10.91Z</time></trkpt><trkpt lat="45.397315" lon="10.6862667"><ele>102.0</ele><time>2026-04-18T10:06:12.937Z</time></trkpt><trkpt lat="45.3972783" lon="10.6863483"><ele>102.0</ele><time>2026-04-18T10:06:13.936Z</time></trkpt><trkpt lat="45.3972217" lon="10.6864367"><ele>102.0</ele><time>2026-04-18T10:06:14.938Z</time></trkpt><trkpt lat="45.397155" lon="10.6865317"><ele>102.0</ele><time>2026-04-18T10:06:15.921Z</time></trkpt><trkpt lat="45.3970833" lon="10.686625"><ele>101.0</ele><time>2026-04-18T10:06:16.916Z</time></trkpt><trkpt lat="45.3970133" lon="10.68671"><ele>100.0</ele><time>2026-04-18T10:06:17.922Z</time></trkpt><trkpt lat="45.3969317" lon="10.686815"><ele>99.0</ele><time>2026-04-18T10:06:18.919Z</time></trkpt><trkpt lat="45.396865" lon="10.686905"><ele>98.0</ele><time>2026-04-18T10:06:19.911Z</time></trkpt><trkpt lat="45.396815" lon="10.68699"><ele>97.0</ele><time>2026-04-18T10:06:20.914Z</time></trkpt><trkpt lat="45.39676" lon="10.6870733"><ele>96.50000000000001</ele><time>2026-04-18T10:06:21.935Z</time></trkpt><trkpt lat="45.396705" lon="10.6871367"><ele>96.0</ele><time>2026-04-18T10:06:22.96Z</time></trkpt><trkpt lat="45.3966417" lon="10.6871817"><ele>95.5</ele><time>2026-04-18T10:06:23.914Z</time></trkpt><trkpt lat="45.3965733" lon="10.6872317"><ele>95.0</ele><time>2026-04-18T10:06:24.929Z</time></trkpt><trkpt lat="45.3965033" lon="10.6872883"><ele>94.5</ele><time>2026-04-18T10:06:25.924Z</time></trkpt><trkpt lat="45.3964317" lon="10.6873383"><ele>94.0</ele><time>2026-04-18T10:06:26.922Z</time></trkpt><trkpt lat="45.396355" lon="10.6873817"><ele>94.2</ele><time>2026-04-18T10:06:27.906Z</time></trkpt><trkpt lat="45.396265" lon="10.6874117"><ele>94.4</ele><time>2026-04-18T10:06:28.925Z</time></trkpt><trkpt lat="45.3961617" lon="10.687425"><ele>94.6</ele><time>2026-04-18T10:06:29.918Z</time></trkpt><trkpt lat="45.396055" lon="10.6874583"><ele>94.8</ele><time>2026-04-18T10:06:30.93Z</time></trkpt><trkpt lat="45.395965" lon="10.687485"><ele>95.0</ele><time>2026-04-18T10:06:31.905Z</time></trkpt><trkpt lat="45.3958917" lon="10.68754"><ele>95.0</ele><time>2026-04-18T10:06:32.908Z</time></trkpt><trkpt lat="45.3958233" lon="10.6876083"><ele>95.0</ele><time>2026-04-18T10:06:33.916Z</time></trkpt><trkpt lat="45.39576" lon="10.6877"><ele>95.0</ele><time>2026-04-18T10:06:34.931Z</time></trkpt><trkpt lat="45.3957167" lon="10.6878217"><ele>95.0</ele><time>2026-04-18T10:06:35.921Z</time></trkpt><trkpt lat="45.3956867" lon="10.687965"><ele>95.0</ele><time>2026-04-18T10:06:36.922Z</time></trkpt><trkpt lat="45.3956817" lon="10.6881283"><ele>94.8</ele><time>2026-04-18T10:06:37.913Z</time></trkpt><trkpt lat="45.3956733" lon="10.6882933"><ele>94.6</ele><time>2026-04-18T10:06:38.94Z</time></trkpt><trkpt lat="45.395625" lon="10.6884217"><ele>94.4</ele><time>2026-04-18T10:06:39.925Z</time></trkpt><trkpt lat="45.3955567" lon="10.688535"><ele>94.2</ele><time>2026-04-18T10:06:40.931Z</time></trkpt><trkpt lat="45.39547" lon="10.688635"><ele>94.0</ele><time>2026-04-18T10:06:41.918Z</time></trkpt><trkpt lat="45.39537" lon="10.6887017"><ele>94.0</ele><time>2026-04-18T10:06:42.921Z</time></trkpt><trkpt lat="45.3952883" lon="10.6887783"><ele>94.0</ele><time>2026-04-18T10:06:43.913Z</time></trkpt><trkpt lat="45.395195" lon="10.68888"><ele>94.0</ele><time>2026-04-18T10:06:44.921Z</time></trkpt><trkpt lat="45.3951133" lon="10.6890017"><ele>94.0</ele><time>2026-04-18T10:06:45.915Z</time></trkpt><trkpt lat="45.395055" lon="10.68909"><ele>94.0</ele><time>2026-04-18T10:06:46.919Z</time></trkpt><trkpt lat="45.3949917" lon="10.689215"><ele>94.0</ele><time>2026-04-18T10:06:47.917Z</time></trkpt><trkpt lat="45.3949217" lon="10.689325"><ele>94.0</ele><time>2026-04-18T10:06:48.918Z</time></trkpt><trkpt lat="45.3948583" lon="10.6894083"><ele>94.0</ele><time>2026-04-18T10:06:49.91Z</time></trkpt><trkpt lat="45.3947867" lon="10.68949"><ele>94.0</ele><time>2026-04-18T10:06:50.917Z</time></trkpt><trkpt lat="45.3947133" lon="10.6895683"><ele>94.0</ele><time>2026-04-18T10:06:51.916Z</time></trkpt><trkpt lat="45.3946433" lon="10.689645"><ele>93.5</ele><time>2026-04-18T10:06:52.911Z</time></trkpt><trkpt lat="45.3945767" lon="10.689715"><ele>93.0</ele><time>2026-04-18T10:06:53.929Z</time></trkpt><trkpt lat="45.3945133" lon="10.68979"><ele>92.5</ele><time>2026-04-18T10:06:54.912Z</time></trkpt><trkpt lat="45.3944583" lon="10.6898517"><ele>92.0</ele><time>2026-04-18T10:06:55.925Z</time></trkpt><trkpt lat="45.3943967" lon="10.6899083"><ele>91.5</ele><time>2026-04-18T10:06:56.91Z</time></trkpt><trkpt lat="45.394335" lon="10.6899633"><ele>91.0</ele><time>2026-04-18T10:06:57.94Z</time></trkpt><trkpt lat="45.3942333" lon="10.690035"><ele>91.0</ele><time>2026-04-18T10:06:59.912Z</time></trkpt><trkpt lat="45.3941317" lon="10.6900883"><ele>91.0</ele><time>2026-04-18T10:07:01.921Z</time></trkpt><trkpt lat="45.3940617" lon="10.69012"><ele>91.0</ele><time>2026-04-18T10:07:02.919Z</time></trkpt><trkpt lat="45.3939867" lon="10.6901483"><ele>91.0</ele><time>2026-04-18T10:07:03.911Z</time></trkpt><trkpt lat="45.393905" lon="10.6901717"><ele>91.0</ele><time>2026-04-18T10:07:04.932Z</time></trkpt><trkpt lat="45.3938117" lon="10.6902"><ele>91.0</ele><time>2026-04-18T10:07:05.911Z</time></trkpt><trkpt lat="45.39371" lon="10.690235"><ele>90.25</ele><time>2026-04-18T10:07:06.917Z</time></trkpt><trkpt lat="45.3935983" lon="10.6902767"><ele>89.5</ele><time>2026-04-18T10:07:07.94Z</time></trkpt><trkpt lat="45.39348" lon="10.6903133"><ele>88.75</ele><time>2026-04-18T10:07:08.933Z</time></trkpt><trkpt lat="45.3933567" lon="10.690355"><ele>88.0</ele><time>2026-04-18T10:07:09.921Z</time></trkpt><trkpt lat="45.39322" lon="10.6903917"><ele>88.0</ele><time>2026-04-18T10:07:10.917Z</time></trkpt><trkpt lat="45.3930783" lon="10.6904217"><ele>88.0</ele><time>2026-04-18T10:07:11.94Z</time></trkpt><trkpt lat="45.3929683" lon="10.6904583"><ele>88.0</ele><time>2026-04-18T10:07:12.926Z</time></trkpt><trkpt lat="45.3928783" lon="10.690485"><ele>88.0</ele><time>2026-04-18T10:07:13.921Z</time></trkpt><trkpt lat="45.3927917" lon="10.6905117"><ele>88.0</ele><time>2026-04-18T10:07:14.922Z</time></trkpt><trkpt lat="45.3927117" lon="10.6905417"><ele>87.83333333333333</ele><time>2026-04-18T10:07:15.927Z</time></trkpt><trkpt lat="45.3926417" lon="10.6905667"><ele>87.66666666666666</ele><time>2026-04-18T10:07:16.923Z</time></trkpt><trkpt lat="45.392535" lon="10.6905967"><ele>87.5</ele><time>2026-04-18T10:07:18.923Z</time></trkpt><trkpt lat="45.3924383" lon="10.6905733"><ele>87.33333333333333</ele><time>2026-04-18T10:07:20.909Z</time></trkpt><trkpt lat="45.3923733" lon="10.6905267"><ele>87.16666666666667</ele><time>2026-04-18T10:07:21.919Z</time></trkpt><trkpt lat="45.3922983" lon="10.690465"><ele>87.0</ele><time>2026-04-18T10:07:22.91Z</time></trkpt><trkpt lat="45.39222" lon="10.69039"><ele>87.6</ele><time>2026-04-18T10:07:23.915Z</time></trkpt><trkpt lat="45.39216" lon="10.690315"><ele>88.19999999999999</ele><time>2026-04-18T10:07:24.919Z</time></trkpt><trkpt lat="45.392075" lon="10.6902283"><ele>88.8</ele><time>2026-04-18T10:07:25.92Z</time></trkpt><trkpt lat="45.39197" lon="10.6901683"><ele>89.4</ele><time>2026-04-18T10:07:26.922Z</time></trkpt><trkpt lat="45.391835" lon="10.6900983"><ele>90.0</ele><time>2026-04-18T10:07:27.919Z</time></trkpt><trkpt lat="45.3917167" lon="10.6900117"><ele>90.0</ele><time>2026-04-18T10:07:28.911Z</time></trkpt><trkpt lat="45.39159" lon="10.6899233"><ele>90.0</ele><time>2026-04-18T10:07:29.915Z</time></trkpt><trkpt lat="45.3914517" lon="10.689835"><ele>90.0</ele><time>2026-04-18T10:07:30.919Z</time></trkpt><trkpt lat="45.3913083" lon="10.6897533"><ele>90.0</ele><time>2026-04-18T10:07:31.931Z</time></trkpt><trkpt lat="45.3911533" lon="10.6896733"><ele>90.0</ele><time>2026-04-18T10:07:32.942Z</time></trkpt><trkpt lat="45.3910083" lon="10.68958"><ele>90.0</ele><time>2026-04-18T10:07:33.915Z</time></trkpt><trkpt lat="45.39086" lon="10.6895"><ele>90.0</ele><time>2026-04-18T10:07:34.923Z</time></trkpt><trkpt lat="45.390715" lon="10.6894167"><ele>90.33333333333333</ele><time>2026-04-18T10:07:35.932Z</time></trkpt><trkpt lat="45.3905717" lon="10.689335"><ele>90.66666666666666</ele><time>2026-04-18T10:07:36.923Z</time></trkpt><trkpt lat="45.3904283" lon="10.6892533"><ele>91.0</ele><time>2026-04-18T10:07:37.921Z</time></trkpt><trkpt lat="45.3902833" lon="10.6891767"><ele>90.25</ele><time>2026-04-18T10:07:38.939Z</time></trkpt><trkpt lat="45.3901417" lon="10.6891033"><ele>89.5</ele><time>2026-04-18T10:07:39.92Z</time></trkpt><trkpt lat="45.390005" lon="10.6890267"><ele>88.75</ele><time>2026-04-18T10:07:40.912Z</time></trkpt><trkpt lat="45.3898817" lon="10.688955"><ele>88.0</ele><time>2026-04-18T10:07:41.912Z</time></trkpt><trkpt lat="45.38977" lon="10.6888967"><ele>88.5</ele><time>2026-04-18T10:07:42.918Z</time></trkpt><trkpt lat="45.3896617" lon="10.6888517"><ele>89.0</ele><time>2026-04-18T10:07:43.918Z</time></trkpt><trkpt lat="45.3895667" lon="10.688805"><ele>89.5</ele><time>2026-04-18T10:07:44.924Z</time></trkpt><trkpt lat="45.389445" lon="10.6887617"><ele>90.0</ele><time>2026-04-18T10:07:45.923Z</time></trkpt><trkpt lat="45.3893267" lon="10.688695"><ele>90.0</ele><time>2026-04-18T10:07:46.922Z</time></trkpt><trkpt lat="45.3892033" lon="10.6886167"><ele>90.0</ele><time>2026-04-18T10:07:47.922Z</time></trkpt><trkpt lat="45.3890867" lon="10.6885583"><ele>90.0</ele><time>2026-04-18T10:07:48.908Z</time></trkpt><trkpt lat="45.3889717" lon="10.6885067"><ele>90.0</ele><time>2026-04-18T10:07:49.92Z</time></trkpt><trkpt lat="45.3888583" lon="10.6884533"><ele>91.0</ele><time>2026-04-18T10:07:50.923Z</time></trkpt><trkpt lat="45.3887467" lon="10.6883967"><ele>92.0</ele><time>2026-04-18T10:07:51.926Z</time></trkpt><trkpt lat="45.388635" lon="10.6883367"><ele>93.0</ele><time>2026-04-18T10:07:52.916Z</time></trkpt><trkpt lat="45.388525" lon="10.6882733"><ele>94.0</ele><time>2026-04-18T10:07:53.938Z</time></trkpt><trkpt lat="45.3884083" lon="10.6882317"><ele>94.0</ele><time>2026-04-18T10:07:54.909Z</time></trkpt><trkpt lat="45.3882867" lon="10.6881533"><ele>94.0</ele><time>2026-04-18T10:07:55.92Z</time></trkpt><trkpt lat="45.3881683" lon="10.688065"><ele>94.0</ele><time>2026-04-18T10:07:56.929Z</time></trkpt><trkpt lat="45.3880333" lon="10.6879733"><ele>94.0</ele><time>2026-04-18T10:07:57.924Z</time></trkpt><trkpt lat="45.3879067" lon="10.6879017"><ele>94.75</ele><time>2026-04-18T10:07:58.923Z</time></trkpt><trkpt lat="45.387775" lon="10.68782"><ele>95.5</ele><time>2026-04-18T10:07:59.948Z</time></trkpt><trkpt lat="45.3876467" lon="10.687765"><ele>96.25</ele><time>2026-04-18T10:08:00.952Z</time></trkpt><trkpt lat="45.38751" lon="10.6876983"><ele>97.0</ele><time>2026-04-18T10:08:01.908Z</time></trkpt><trkpt lat="45.3873767" lon="10.6876417"><ele>95.33333333333334</ele><time>2026-04-18T10:08:02.938Z</time></trkpt><trkpt lat="45.3873" lon="10.687565"><ele>93.66666666666667</ele><time>2026-04-18T10:08:03.911Z</time></trkpt><trkpt lat="45.3871983" lon="10.68753"><ele>92.0</ele><time>2026-04-18T10:08:04.95Z</time></trkpt><trkpt lat="45.3871067" lon="10.6875233"><ele>90.33333333333334</ele><time>2026-04-18T10:08:05.921Z</time></trkpt><trkpt lat="45.3870367" lon="10.687495"><ele>88.66666666666667</ele><time>2026-04-18T10:08:06.929Z</time></trkpt><trkpt lat="45.3869633" lon="10.6874883"><ele>87.0</ele><time>2026-04-18T10:08:08.92Z</time></trkpt><trkpt lat="45.386905" lon="10.6876033"><ele>87.0</ele><time>2026-04-18T10:08:16.944Z</time></trkpt><trkpt lat="45.386875" lon="10.68772"><ele>87.0</ele><time>2026-04-18T10:08:18.927Z</time></trkpt><trkpt lat="45.386805" lon="10.6877967"><ele>87.0</ele><time>2026-04-18T10:08:20.951Z</time></trkpt><trkpt lat="45.3866817" lon="10.6878417"><ele>87.0</ele><time>2026-04-18T10:08:22.918Z</time></trkpt><trkpt lat="45.38661" lon="10.6878683"><ele>87.0</ele><time>2026-04-18T10:08:23.915Z</time></trkpt><trkpt lat="45.3865283" lon="10.6879017"><ele>88.33333333333333</ele><time>2026-04-18T10:08:24.922Z</time></trkpt><trkpt lat="45.38644" lon="10.6879317"><ele>89.66666666666667</ele><time>2026-04-18T10:08:25.939Z</time></trkpt><trkpt lat="45.3863567" lon="10.6879583"><ele>91.0</ele><time>2026-04-18T10:08:26.914Z</time></trkpt><trkpt lat="45.3862733" lon="10.6879883"><ele>92.33333333333334</ele><time>2026-04-18T10:08:27.929Z</time></trkpt><trkpt lat="45.3861917" lon="10.688015"><ele>93.66666666666667</ele><time>2026-04-18T10:08:28.922Z</time></trkpt><trkpt lat="45.3861067" lon="10.6880383"><ele>95.0</ele><time>2026-04-18T10:08:29.911Z</time></trkpt><trkpt lat="45.3860067" lon="10.688055"><ele>95.0</ele><time>2026-04-18T10:08:30.914Z</time></trkpt><trkpt lat="45.3859267" lon="10.6880733"><ele>95.0</ele><time>2026-04-18T10:08:31.918Z</time></trkpt><trkpt lat="45.3858533" lon="10.688095"><ele>95.0</ele><time>2026-04-18T10:08:32.914Z</time></trkpt><trkpt lat="45.3857783" lon="10.688105"><ele>95.0</ele><time>2026-04-18T10:08:33.912Z</time></trkpt><trkpt lat="45.385705" lon="10.6881217"><ele>95.0</ele><time>2026-04-18T10:08:34.935Z</time></trkpt><trkpt lat="45.38563" lon="10.68814"><ele>95.0</ele><time>2026-04-18T10:08:35.924Z</time></trkpt><trkpt lat="45.3855467" lon="10.6881667"><ele>94.16666666666667</ele><time>2026-04-18T10:08:36.943Z</time></trkpt><trkpt lat="45.3854583" lon="10.6881883"><ele>93.33333333333334</ele><time>2026-04-18T10:08:37.913Z</time></trkpt><trkpt lat="45.385365" lon="10.6882017"><ele>92.5</ele><time>2026-04-18T10:08:38.927Z</time></trkpt><trkpt lat="45.3852833" lon="10.6882233"><ele>91.66666666666667</ele><time>2026-04-18T10:08:39.914Z</time></trkpt><trkpt lat="45.385195" lon="10.688245"><ele>90.83333333333333</ele><time>2026-04-18T10:08:40.915Z</time></trkpt><trkpt lat="45.385105" lon="10.688265"><ele>90.0</ele><time>2026-04-18T10:08:41.94Z</time></trkpt><trkpt lat="45.3850217" lon="10.6882833"><ele>90.0</ele><time>2026-04-18T10:08:42.919Z</time></trkpt><trkpt lat="45.3849417" lon="10.6883033"><ele>90.0</ele><time>2026-04-18T10:08:43.92Z</time></trkpt><trkpt lat="45.384875" lon="10.68834"><ele>90.0</ele><time>2026-04-18T10:08:44.915Z</time></trkpt><trkpt lat="45.3848117" lon="10.68838"><ele>90.0</ele><time>2026-04-18T10:08:45.932Z</time></trkpt><trkpt lat="45.38471" lon="10.688455"><ele>90.0</ele><time>2026-04-18T10:08:47.944Z</time></trkpt><trkpt lat="45.38463" lon="10.688555"><ele>90.0</ele><time>2026-04-18T10:08:49.949Z</time></trkpt><trkpt lat="45.3845583" lon="10.688615"><ele>89.8</ele><time>2026-04-18T10:08:51.937Z</time></trkpt><trkpt lat="45.3844817" lon="10.6886233"><ele>89.6</ele><time>2026-04-18T10:08:53.917Z</time></trkpt><trkpt lat="45.384405" lon="10.6886083"><ele>89.4</ele><time>2026-04-18T10:08:56.93Z</time></trkpt><trkpt lat="45.38431" lon="10.6886217"><ele>89.2</ele><time>2026-04-18T10:08:58.917Z</time></trkpt><trkpt lat="45.3842217" lon="10.6887"><ele>89.0</ele><time>2026-04-18T10:09:00.932Z</time></trkpt><trkpt lat="45.3842033" lon="10.6888817"><ele>89.0</ele><time>2026-04-18T10:09:02.933Z</time></trkpt><trkpt lat="45.3842083" lon="10.689"><ele>89.0</ele><time>2026-04-18T10:09:03.916Z</time></trkpt><trkpt lat="45.3842083" lon="10.68912"><ele>89.0</ele><time>2026-04-18T10:09:04.914Z</time></trkpt><trkpt lat="45.3842067" lon="10.6892533"><ele>89.0</ele><time>2026-04-18T10:09:05.911Z</time></trkpt><trkpt lat="45.384205" lon="10.6893983"><ele>89.0</ele><time>2026-04-18T10:09:06.946Z</time></trkpt><trkpt lat="45.3841967" lon="10.689545"><ele>88.75</ele><time>2026-04-18T10:09:07.916Z</time></trkpt><trkpt lat="45.38415" lon="10.6896767"><ele>88.5</ele><time>2026-04-18T10:09:08.958Z</time></trkpt><trkpt lat="45.3840983" lon="10.6898233"><ele>88.25</ele><time>2026-04-18T10:09:09.912Z</time></trkpt><trkpt lat="45.38403" lon="10.6899667"><ele>88.0</ele><time>2026-04-18T10:09:10.92Z</time></trkpt><trkpt lat="45.3839367" lon="10.6900917"><ele>87.5</ele><time>2026-04-18T10:09:11.908Z</time></trkpt><trkpt lat="45.3838367" lon="10.6901967"><ele>87.0</ele><time>2026-04-18T10:09:12.945Z</time></trkpt><trkpt lat="45.3837167" lon="10.6903067"><ele>86.5</ele><time>2026-04-18T10:09:13.924Z</time></trkpt><trkpt lat="45.383585" lon="10.6903933"><ele>86.0</ele><time>2026-04-18T10:09:14.915Z</time></trkpt><trkpt lat="45.3834567" lon="10.690465"><ele>85.66666666666667</ele><time>2026-04-18T10:09:15.912Z</time></trkpt><trkpt lat="45.383305" lon="10.6905233"><ele>85.33333333333333</ele><time>2026-04-18T10:09:16.92Z</time></trkpt><trkpt lat="45.3831667" lon="10.6906033"><ele>85.0</ele><time>2026-04-18T10:09:17.913Z</time></trkpt><trkpt lat="45.3830467" lon="10.6907433"><ele>85.0</ele><time>2026-04-18T10:09:18.931Z</time></trkpt><trkpt lat="45.3829567" lon="10.6909217"><ele>85.0</ele><time>2026-04-18T10:09:19.925Z</time></trkpt><trkpt lat="45.3828933" lon="10.6911283"><ele>85.0</ele><time>2026-04-18T10:09:20.908Z</time></trkpt><trkpt lat="45.3828783" lon="10.6913417"><ele>83.0</ele><time>2026-04-18T10:09:21.933Z</time></trkpt><trkpt lat="45.3828417" lon="10.6915767"><ele>81.0</ele><time>2026-04-18T10:09:22.961Z</time></trkpt><trkpt lat="45.3828283" lon="10.6918183"><ele>79.0</ele><time>2026-04-18T10:09:23.927Z</time></trkpt><trkpt lat="45.38287" lon="10.6921383"><ele>77.5</ele><time>2026-04-18T10:09:24.939Z</time></trkpt><trkpt lat="45.3829417" lon="10.6923267"><ele>76.0</ele><time>2026-04-18T10:09:25.914Z</time></trkpt><trkpt lat="45.3830367" lon="10.6924683"><ele>74.5</ele><time>2026-04-18T10:09:26.935Z</time></trkpt><trkpt lat="45.3831133" lon="10.69262"><ele>73.0</ele><time>2026-04-18T10:09:27.905Z</time></trkpt><trkpt lat="45.3832" lon="10.6927417"><ele>72.25</ele><time>2026-04-18T10:09:28.919Z</time></trkpt><trkpt lat="45.3833017" lon="10.692845"><ele>71.5</ele><time>2026-04-18T10:09:29.922Z</time></trkpt><trkpt lat="45.3834167" lon="10.6929617"><ele>70.75</ele><time>2026-04-18T10:09:30.914Z</time></trkpt><trkpt lat="45.383505" lon="10.693075"><ele>70.0</ele><time>2026-04-18T10:09:31.928Z</time></trkpt><trkpt lat="45.383585" lon="10.6931883"><ele>70.0</ele><time>2026-04-18T10:09:32.908Z</time></trkpt><trkpt lat="45.38368" lon="10.6933083"><ele>70.0</ele><time>2026-04-18T10:09:33.924Z</time></trkpt><trkpt lat="45.3837683" lon="10.6934383"><ele>70.0</ele><time>2026-04-18T10:09:34.908Z</time></trkpt><trkpt lat="45.383855" lon="10.6935817"><ele>70.0</ele><time>2026-04-18T10:09:35.906Z</time></trkpt><trkpt lat="45.38394" lon="10.69367"><ele>68.25</ele><time>2026-04-18T10:09:36.913Z</time></trkpt><trkpt lat="45.38402" lon="10.6937417"><ele>66.5</ele><time>2026-04-18T10:09:37.928Z</time></trkpt><trkpt lat="45.384115" lon="10.6937683"><ele>64.75</ele><time>2026-04-18T10:09:38.905Z</time></trkpt><trkpt lat="45.3842383" lon="10.69377"><ele>63.0</ele><time>2026-04-18T10:09:39.906Z</time></trkpt><trkpt lat="45.3843817" lon="10.6937433"><ele>63.0</ele><time>2026-04-18T10:09:40.916Z</time></trkpt><trkpt lat="45.38452" lon="10.6937333"><ele>63.0</ele><time>2026-04-18T10:09:41.922Z</time></trkpt><trkpt lat="45.3846433" lon="10.69374"><ele>63.0</ele><time>2026-04-18T10:09:42.918Z</time></trkpt><trkpt lat="45.3847333" lon="10.6937467"><ele>63.0</ele><time>2026-04-18T10:09:43.951Z</time></trkpt><trkpt lat="45.3848133" lon="10.693755"><ele>63.0</ele><time>2026-04-18T10:09:44.918Z</time></trkpt><trkpt lat="45.38488" lon="10.69379"><ele>62.75</ele><time>2026-04-18T10:09:45.942Z</time></trkpt><trkpt lat="45.3849417" lon="10.69394"><ele>62.5</ele><time>2026-04-18T10:09:47.914Z</time></trkpt><trkpt lat="45.3849367" lon="10.6940717"><ele>62.25</ele><time>2026-04-18T10:09:48.92Z</time></trkpt><trkpt lat="45.38488" lon="10.6942567"><ele>62.0</ele><time>2026-04-18T10:09:49.943Z</time></trkpt><trkpt lat="45.3847817" lon="10.69443"><ele>62.0</ele><time>2026-04-18T10:09:50.914Z</time></trkpt><trkpt lat="45.38475" lon="10.6946317"><ele>62.0</ele><time>2026-04-18T10:09:51.925Z</time></trkpt><trkpt lat="45.3847133" lon="10.6948333"><ele>62.0</ele><time>2026-04-18T10:09:52.921Z</time></trkpt><trkpt lat="45.3847017" lon="10.695045"><ele>62.0</ele><time>2026-04-18T10:09:53.924Z</time></trkpt><trkpt lat="45.3846667" lon="10.6952517"><ele>61.5</ele><time>2026-04-18T10:09:54.932Z</time></trkpt><trkpt lat="45.384615" lon="10.6954267"><ele>61.0</ele><time>2026-04-18T10:09:55.907Z</time></trkpt><trkpt lat="45.3845867" lon="10.6955883"><ele>60.5</ele><time>2026-04-18T10:09:56.91Z</time></trkpt><trkpt lat="45.384555" lon="10.6957533"><ele>60.0</ele><time>2026-04-18T10:09:57.92Z</time></trkpt><trkpt lat="45.384535" lon="10.69589"><ele>60.0</ele><time>2026-04-18T10:09:58.932Z</time></trkpt><trkpt lat="45.3845167" lon="10.6960017"><ele>60.0</ele><time>2026-04-18T10:09:59.935Z</time></trkpt><trkpt lat="45.3844933" lon="10.6961417"><ele>60.0</ele><time>2026-04-18T10:10:01.919Z</time></trkpt><trkpt lat="45.3844917" lon="10.696255"><ele>60.0</ele><time>2026-04-18T10:10:10.909Z</time></trkpt><trkpt lat="45.3844667" lon="10.6964233"><ele>60.0</ele><time>2026-04-18T10:10:12.907Z</time></trkpt><trkpt lat="45.38445" lon="10.6965217"><ele>60.5</ele><time>2026-04-18T10:10:13.917Z</time></trkpt><trkpt lat="45.384435" lon="10.6966133"><ele>61.0</ele><time>2026-04-18T10:10:14.919Z</time></trkpt><trkpt lat="45.3844117" lon="10.6967533"><ele>61.5</ele><time>2026-04-18T10:10:16.92Z</time></trkpt><trkpt lat="45.3843883" lon="10.6968733"><ele>62.0</ele><time>2026-04-18T10:10:18.927Z</time></trkpt><trkpt lat="45.3843917" lon="10.6969767"><ele>62.5</ele><time>2026-04-18T10:10:20.931Z</time></trkpt><trkpt lat="45.3844517" lon="10.69705"><ele>63.0</ele><time>2026-04-18T10:10:22.938Z</time></trkpt><trkpt lat="45.3845667" lon="10.6971067"><ele>63.4</ele><time>2026-04-18T10:10:24.915Z</time></trkpt><trkpt lat="45.3846433" lon="10.6971483"><ele>63.8</ele><time>2026-04-18T10:10:25.915Z</time></trkpt><trkpt lat="45.384725" lon="10.6972017"><ele>64.2</ele><time>2026-04-18T10:10:26.911Z</time></trkpt><trkpt lat="45.3848117" lon="10.6972617"><ele>64.6</ele><time>2026-04-18T10:10:27.916Z</time></trkpt><trkpt lat="45.3849233" lon="10.6973317"><ele>65.0</ele><time>2026-04-18T10:10:28.911Z</time></trkpt><trkpt lat="45.3850117" lon="10.6974467"><ele>65.2</ele><time>2026-04-18T10:10:29.912Z</time></trkpt><trkpt lat="45.3851117" lon="10.69753"><ele>65.4</ele><time>2026-04-18T10:10:30.913Z</time></trkpt><trkpt lat="45.38519" lon="10.69763"><ele>65.6</ele><time>2026-04-18T10:10:31.911Z</time></trkpt><trkpt lat="45.3852383" lon="10.6977433"><ele>65.8</ele><time>2026-04-18T10:10:32.918Z</time></trkpt><trkpt lat="45.3852767" lon="10.6978633"><ele>66.0</ele><time>2026-04-18T10:10:33.95Z</time></trkpt><trkpt lat="45.3852967" lon="10.6979717"><ele>66.0</ele><time>2026-04-18T10:10:34.935Z</time></trkpt><trkpt lat="45.3853067" lon="10.6980717"><ele>66.0</ele><time>2026-04-18T10:10:35.928Z</time></trkpt><trkpt lat="45.3853083" lon="10.6981617"><ele>66.0</ele><time>2026-04-18T10:10:36.913Z</time></trkpt><trkpt lat="45.3852983" lon="10.6983"><ele>66.0</ele><time>2026-04-18T10:10:38.909Z</time></trkpt><trkpt lat="45.3852983" lon="10.6984383"><ele>66.0</ele><time>2026-04-18T10:10:40.905Z</time></trkpt><trkpt lat="45.3852933" lon="10.698605"><ele>66.0</ele><time>2026-04-18T10:10:42.921Z</time></trkpt><trkpt lat="45.3852967" lon="10.6987033"><ele>66.16666666666667</ele><time>2026-04-18T10:10:43.908Z</time></trkpt><trkpt lat="45.3852983" lon="10.6988067"><ele>66.33333333333333</ele><time>2026-04-18T10:10:44.92Z</time></trkpt><trkpt lat="45.385305" lon="10.6989117"><ele>66.5</ele><time>2026-04-18T10:10:45.921Z</time></trkpt><trkpt lat="45.3853033" lon="10.6990117"><ele>66.66666666666666</ele><time>2026-04-18T10:10:46.914Z</time></trkpt><trkpt lat="45.3853033" lon="10.6991033"><ele>66.83333333333333</ele><time>2026-04-18T10:10:47.924Z</time></trkpt><trkpt lat="45.3853033" lon="10.6992667"><ele>67.0</ele><time>2026-04-18T10:10:49.928Z</time></trkpt><trkpt lat="45.3853283" lon="10.6993667"><ele>67.0</ele><time>2026-04-18T10:10:51.941Z</time></trkpt><trkpt lat="45.38541" lon="10.6994067"><ele>67.0</ele><time>2026-04-18T10:10:53.92Z</time></trkpt><trkpt lat="45.3855" lon="10.69942"><ele>67.0</ele><time>2026-04-18T10:10:54.918Z</time></trkpt><trkpt lat="45.3855967" lon="10.699435"><ele>67.0</ele><time>2026-04-18T10:10:55.924Z</time></trkpt><trkpt lat="45.385695" lon="10.6994533"><ele>67.0</ele><time>2026-04-18T10:10:56.906Z</time></trkpt><trkpt lat="45.3858183" lon="10.69946"><ele>66.8</ele><time>2026-04-18T10:10:57.933Z</time></trkpt><trkpt lat="45.3859283" lon="10.699485"><ele>66.6</ele><time>2026-04-18T10:10:58.925Z</time></trkpt><trkpt lat="45.386035" lon="10.699515"><ele>66.39999999999999</ele><time>2026-04-18T10:10:59.91Z</time></trkpt><trkpt lat="45.386125" lon="10.699545"><ele>66.2</ele><time>2026-04-18T10:11:00.912Z</time></trkpt><trkpt lat="45.3861983" lon="10.69958"><ele>66.0</ele><time>2026-04-18T10:11:01.932Z</time></trkpt><trkpt lat="45.3862583" lon="10.6996217"><ele>66.0</ele><time>2026-04-18T10:11:02.932Z</time></trkpt><trkpt lat="45.3863117" lon="10.6996817"><ele>66.0</ele><time>2026-04-18T10:11:03.942Z</time></trkpt><trkpt lat="45.386355" lon="10.6997633"><ele>66.0</ele><time>2026-04-18T10:11:04.933Z</time></trkpt><trkpt lat="45.38639" lon="10.699865"><ele>66.0</ele><time>2026-04-18T10:11:05.928Z</time></trkpt><trkpt lat="45.3864217" lon="10.6999883"><ele>66.0</ele><time>2026-04-18T10:11:06.925Z</time></trkpt><trkpt lat="45.386445" lon="10.7001483"><ele>66.0</ele><time>2026-04-18T10:11:07.933Z</time></trkpt><trkpt lat="45.386445" lon="10.7002767"><ele>66.25</ele><time>2026-04-18T10:11:08.905Z</time></trkpt><trkpt lat="45.3864583" lon="10.700445"><ele>66.5</ele><time>2026-04-18T10:11:09.94Z</time></trkpt><trkpt lat="45.3864817" lon="10.7006233"><ele>66.75</ele><time>2026-04-18T10:11:10.918Z</time></trkpt><trkpt lat="45.386485" lon="10.7008283"><ele>67.0</ele><time>2026-04-18T10:11:11.932Z</time></trkpt><trkpt lat="45.3865" lon="10.7010567"><ele>68.33333333333333</ele><time>2026-04-18T10:11:12.935Z</time></trkpt><trkpt lat="45.3865233" lon="10.701285"><ele>69.66666666666667</ele><time>2026-04-18T10:11:13.917Z</time></trkpt><trkpt lat="45.3865433" lon="10.701515"><ele>71.0</ele><time>2026-04-18T10:11:14.93Z</time></trkpt><trkpt lat="45.38657" lon="10.7017483"><ele>71.75</ele><time>2026-04-18T10:11:15.908Z</time></trkpt><trkpt lat="45.3865933" lon="10.70196"><ele>72.5</ele><time>2026-04-18T10:11:16.932Z</time></trkpt><trkpt lat="45.38662" lon="10.7021517"><ele>73.25</ele><time>2026-04-18T10:11:17.909Z</time></trkpt><trkpt lat="45.3866533" lon="10.702325"><ele>74.0</ele><time>2026-04-18T10:11:18.921Z</time></trkpt><trkpt lat="45.3867033" lon="10.7025067"><ele>74.0</ele><time>2026-04-18T10:11:19.908Z</time></trkpt><trkpt lat="45.3867717" lon="10.7027133"><ele>74.0</ele><time>2026-04-18T10:11:20.915Z</time></trkpt><trkpt lat="45.3868283" lon="10.7029317"><ele>74.0</ele><time>2026-04-18T10:11:21.925Z</time></trkpt><trkpt lat="45.3868983" lon="10.7031467"><ele>73.75</ele><time>2026-04-18T10:11:22.933Z</time></trkpt><trkpt lat="45.3869667" lon="10.70333"><ele>73.5</ele><time>2026-04-18T10:11:23.914Z</time></trkpt><trkpt lat="45.3870383" lon="10.7034933"><ele>73.25</ele><time>2026-04-18T10:11:24.922Z</time></trkpt><trkpt lat="45.3870933" lon="10.7036433"><ele>73.0</ele><time>2026-04-18T10:11:25.917Z</time></trkpt><trkpt lat="45.387115" lon="10.7038117"><ele>73.0</ele><time>2026-04-18T10:11:26.92Z</time></trkpt><trkpt lat="45.3871383" lon="10.70398"><ele>73.0</ele><time>2026-04-18T10:11:27.933Z</time></trkpt><trkpt lat="45.387145" lon="10.70415"><ele>73.0</ele><time>2026-04-18T10:11:28.91Z</time></trkpt><trkpt lat="45.3871483" lon="10.7043517"><ele>73.0</ele><time>2026-04-18T10:11:29.946Z</time></trkpt><trkpt lat="45.3871617" lon="10.7045767"><ele>73.0</ele><time>2026-04-18T10:11:30.935Z</time></trkpt><trkpt lat="45.3871733" lon="10.704785"><ele>73.0</ele><time>2026-04-18T10:11:31.961Z</time></trkpt><trkpt lat="45.387175" lon="10.705005"><ele>73.0</ele><time>2026-04-18T10:11:32.964Z</time></trkpt><trkpt lat="45.3871883" lon="10.7052433"><ele>73.0</ele><time>2026-04-18T10:11:33.926Z</time></trkpt><trkpt lat="45.3872" lon="10.7054833"><ele>73.0</ele><time>2026-04-18T10:11:34.924Z</time></trkpt><trkpt lat="45.3872117" lon="10.7057283"><ele>73.0</ele><time>2026-04-18T10:11:35.923Z</time></trkpt><trkpt lat="45.3872183" lon="10.7059833"><ele>72.66666666666666</ele><time>2026-04-18T10:11:36.919Z</time></trkpt><trkpt lat="45.3872283" lon="10.7062083"><ele>72.33333333333333</ele><time>2026-04-18T10:11:37.938Z</time></trkpt><trkpt lat="45.3872317" lon="10.70642"><ele>72.0</ele><time>2026-04-18T10:11:38.925Z</time></trkpt><trkpt lat="45.3872317" lon="10.7066283"><ele>72.0</ele><time>2026-04-18T10:11:39.929Z</time></trkpt><trkpt lat="45.3872383" lon="10.706815"><ele>72.0</ele><time>2026-04-18T10:11:40.904Z</time></trkpt><trkpt lat="45.3872567" lon="10.7069833"><ele>72.0</ele><time>2026-04-18T10:11:41.915Z</time></trkpt><trkpt lat="45.3872783" lon="10.70713"><ele>72.0</ele><time>2026-04-18T10:11:42.941Z</time></trkpt><trkpt lat="45.3873017" lon="10.7072867"><ele>72.8</ele><time>2026-04-18T10:11:43.917Z</time></trkpt><trkpt lat="45.3873367" lon="10.7074367"><ele>73.6</ele><time>2026-04-18T10:11:44.916Z</time></trkpt><trkpt lat="45.3873733" lon="10.7075533"><ele>74.39999999999999</ele><time>2026-04-18T10:11:45.926Z</time></trkpt><trkpt lat="45.3874033" lon="10.7076533"><ele>75.2</ele><time>2026-04-18T10:11:46.929Z</time></trkpt><trkpt lat="45.3874517" lon="10.7077917"><ele>76.0</ele><time>2026-04-18T10:11:48.935Z</time></trkpt><trkpt lat="45.38751" lon="10.707955"><ele>76.6</ele><time>2026-04-18T10:11:50.918Z</time></trkpt><trkpt lat="45.387555" lon="10.7080683"><ele>77.19999999999999</ele><time>2026-04-18T10:11:51.921Z</time></trkpt><trkpt lat="45.38761" lon="10.7081883"><ele>77.80000000000001</ele><time>2026-04-18T10:11:52.916Z</time></trkpt><trkpt lat="45.3876717" lon="10.708305"><ele>78.4</ele><time>2026-04-18T10:11:53.934Z</time></trkpt><trkpt lat="45.3877017" lon="10.708415"><ele>79.0</ele><time>2026-04-18T10:11:54.933Z</time></trkpt><trkpt lat="45.3877483" lon="10.7085367"><ele>78.83333333333333</ele><time>2026-04-18T10:11:55.924Z</time></trkpt><trkpt lat="45.3877983" lon="10.7086483"><ele>78.66666666666666</ele><time>2026-04-18T10:11:56.938Z</time></trkpt><trkpt lat="45.38784" lon="10.7087467"><ele>78.5</ele><time>2026-04-18T10:11:57.923Z</time></trkpt><trkpt lat="45.3878917" lon="10.7088367"><ele>78.33333333333333</ele><time>2026-04-18T10:11:58.916Z</time></trkpt><trkpt lat="45.3879233" lon="10.70892"><ele>78.16666666666667</ele><time>2026-04-18T10:11:59.919Z</time></trkpt><trkpt lat="45.38794" lon="10.7090167"><ele>78.0</ele><time>2026-04-18T10:12:00.919Z</time></trkpt><trkpt lat="45.3879283" lon="10.7091367"><ele>78.0</ele><time>2026-04-18T10:12:01.91Z</time></trkpt><trkpt lat="45.3879183" lon="10.7092783"><ele>78.0</ele><time>2026-04-18T10:12:02.92Z</time></trkpt><trkpt lat="45.3879017" lon="10.7094333"><ele>78.0</ele><time>2026-04-18T10:12:03.921Z</time></trkpt><trkpt lat="45.3879" lon="10.7096017"><ele>78.0</ele><time>2026-04-18T10:12:04.939Z</time></trkpt><trkpt lat="45.3878817" lon="10.709795"><ele>78.75</ele><time>2026-04-18T10:12:05.938Z</time></trkpt><trkpt lat="45.38787" lon="10.7100017"><ele>79.5</ele><time>2026-04-18T10:12:06.923Z</time></trkpt><trkpt lat="45.387865" lon="10.7102067"><ele>80.25</ele><time>2026-04-18T10:12:07.914Z</time></trkpt><trkpt lat="45.3878617" lon="10.7104267"><ele>81.0</ele><time>2026-04-18T10:12:08.93Z</time></trkpt><trkpt lat="45.3878567" lon="10.710635"><ele>81.25</ele><time>2026-04-18T10:12:09.92Z</time></trkpt><trkpt lat="45.3878217" lon="10.7108267"><ele>81.5</ele><time>2026-04-18T10:12:10.911Z</time></trkpt><trkpt lat="45.387805" lon="10.711"><ele>81.75</ele><time>2026-04-18T10:12:11.911Z</time></trkpt><trkpt lat="45.3878283" lon="10.7112033"><ele>82.0</ele><time>2026-04-18T10:12:12.907Z</time></trkpt><trkpt lat="45.387835" lon="10.7113883"><ele>82.25</ele><time>2026-04-18T10:12:13.937Z</time></trkpt><trkpt lat="45.3878367" lon="10.7116017"><ele>82.5</ele><time>2026-04-18T10:12:14.919Z</time></trkpt><trkpt lat="45.3878317" lon="10.71181"><ele>82.75</ele><time>2026-04-18T10:12:15.931Z</time></trkpt><trkpt lat="45.38782" lon="10.712025"><ele>83.0</ele><time>2026-04-18T10:12:16.922Z</time></trkpt><trkpt lat="45.3878233" lon="10.712255"><ele>83.75</ele><time>2026-04-18T10:12:17.938Z</time></trkpt><trkpt lat="45.3878117" lon="10.712455"><ele>84.5</ele><time>2026-04-18T10:12:18.935Z</time></trkpt><trkpt lat="45.3878067" lon="10.7126517"><ele>85.25</ele><time>2026-04-18T10:12:19.904Z</time></trkpt><trkpt lat="45.3878083" lon="10.7128017"><ele>86.0</ele><time>2026-04-18T10:12:20.92Z</time></trkpt><trkpt lat="45.387815" lon="10.71298"><ele>86.5</ele><time>2026-04-18T10:12:21.911Z</time></trkpt><trkpt lat="45.387805" lon="10.71312"><ele>87.0</ele><time>2026-04-18T10:12:22.913Z</time></trkpt><trkpt lat="45.387835" lon="10.7132283"><ele>87.5</ele><time>2026-04-18T10:12:23.912Z</time></trkpt><trkpt lat="45.3878733" lon="10.7133333"><ele>88.0</ele><time>2026-04-18T10:12:24.937Z</time></trkpt><trkpt lat="45.387925" lon="10.7134367"><ele>88.5</ele><time>2026-04-18T10:12:25.916Z</time></trkpt><trkpt lat="45.388" lon="10.7135233"><ele>89.0</ele><time>2026-04-18T10:12:26.926Z</time></trkpt><trkpt lat="45.3881033" lon="10.713615"><ele>89.4</ele><time>2026-04-18T10:12:27.916Z</time></trkpt><trkpt lat="45.3882" lon="10.7137333"><ele>89.80000000000001</ele><time>2026-04-18T10:12:28.917Z</time></trkpt><trkpt lat="45.3882833" lon="10.7138333"><ele>90.19999999999999</ele><time>2026-04-18T10:12:29.915Z</time></trkpt><trkpt lat="45.3883617" lon="10.7139167"><ele>90.6</ele><time>2026-04-18T10:12:30.917Z</time></trkpt><trkpt lat="45.388435" lon="10.7140017"><ele>91.0</ele><time>2026-04-18T10:12:31.928Z</time></trkpt><trkpt lat="45.3885133" lon="10.7140633"><ele>91.0</ele><time>2026-04-18T10:12:32.936Z</time></trkpt><trkpt lat="45.3885967" lon="10.7140933"><ele>91.0</ele><time>2026-04-18T10:12:33.91Z</time></trkpt><trkpt lat="45.3886767" lon="10.71415"><ele>91.0</ele><time>2026-04-18T10:12:34.913Z</time></trkpt><trkpt lat="45.3887683" lon="10.7141917"><ele>91.0</ele><time>2026-04-18T10:12:35.92Z</time></trkpt><trkpt lat="45.3888767" lon="10.7142317"><ele>91.0</ele><time>2026-04-18T10:12:36.921Z</time></trkpt><trkpt lat="45.3889583" lon="10.714275"><ele>91.0</ele><time>2026-04-18T10:12:37.917Z</time></trkpt><trkpt lat="45.389035" lon="10.7142917"><ele>91.0</ele><time>2026-04-18T10:12:38.941Z</time></trkpt><trkpt lat="45.38911" lon="10.71431"><ele>91.0</ele><time>2026-04-18T10:12:39.91Z</time></trkpt><trkpt lat="45.3891733" lon="10.7143317"><ele>91.0</ele><time>2026-04-18T10:12:40.927Z</time></trkpt><trkpt lat="45.3892383" lon="10.71434"><ele>91.0</ele><time>2026-04-18T10:12:41.92Z</time></trkpt><trkpt lat="45.3893233" lon="10.7143617"><ele>91.0</ele><time>2026-04-18T10:12:43.912Z</time></trkpt><trkpt lat="45.38936" lon="10.714435"><ele>91.0</ele><time>2026-04-18T10:12:46.919Z</time></trkpt><trkpt lat="45.3893317" lon="10.7145833"><ele>90.83333333333333</ele><time>2026-04-18T10:12:49.913Z</time></trkpt><trkpt lat="45.3893" lon="10.7147233"><ele>90.66666666666666</ele><time>2026-04-18T10:12:51.91Z</time></trkpt><trkpt lat="45.38928" lon="10.714865"><ele>90.5</ele><time>2026-04-18T10:12:53.931Z</time></trkpt><trkpt lat="45.389255" lon="10.714955"><ele>90.33333333333333</ele><time>2026-04-18T10:12:55.916Z</time></trkpt><trkpt lat="45.3892467" lon="10.71505"><ele>90.16666666666667</ele><time>2026-04-18T10:12:58.928Z</time></trkpt><trkpt lat="45.389235" lon="10.7151483"><ele>90.0</ele><time>2026-04-18T10:13:00.933Z</time></trkpt><trkpt lat="45.3892267" lon="10.715275"><ele>90.0</ele><time>2026-04-18T10:13:02.919Z</time></trkpt><trkpt lat="45.3892533" lon="10.715395"><ele>90.0</ele><time>2026-04-18T10:13:04.919Z</time></trkpt><trkpt lat="45.3893317" lon="10.71547"><ele>90.0</ele><time>2026-04-18T10:13:06.912Z</time></trkpt><trkpt lat="45.3894283" lon="10.7155083"><ele>90.0</ele><time>2026-04-18T10:13:08.913Z</time></trkpt><trkpt lat="45.3895317" lon="10.715555"><ele>90.0</ele><time>2026-04-18T10:13:10.944Z</time></trkpt><trkpt lat="45.3896167" lon="10.7156583"><ele>89.4</ele><time>2026-04-18T10:13:12.915Z</time></trkpt><trkpt lat="45.3896867" lon="10.71575"><ele>88.8</ele><time>2026-04-18T10:13:14.909Z</time></trkpt><trkpt lat="45.3897517" lon="10.7158383"><ele>88.19999999999999</ele><time>2026-04-18T10:13:16.939Z</time></trkpt><trkpt lat="45.3897983" lon="10.71594"><ele>87.6</ele><time>2026-04-18T10:13:18.96Z</time></trkpt><trkpt lat="45.3898133" lon="10.716075"><ele>87.0</ele><time>2026-04-18T10:13:20.917Z</time></trkpt><trkpt lat="45.3898183" lon="10.7162383"><ele>87.0</ele><time>2026-04-18T10:13:22.926Z</time></trkpt><trkpt lat="45.3898233" lon="10.7163317"><ele>87.0</ele><time>2026-04-18T10:13:23.905Z</time></trkpt><trkpt lat="45.38983" lon="10.7164333"><ele>87.0</ele><time>2026-04-18T10:13:24.944Z</time></trkpt><trkpt lat="45.3898433" lon="10.71654"><ele>87.0</ele><time>2026-04-18T10:13:25.92Z</time></trkpt><trkpt lat="45.3898617" lon="10.7166517"><ele>87.0</ele><time>2026-04-18T10:13:26.929Z</time></trkpt><trkpt lat="45.38989" lon="10.716775"><ele>87.0</ele><time>2026-04-18T10:13:27.908Z</time></trkpt><trkpt lat="45.3899333" lon="10.7169217"><ele>87.25</ele><time>2026-04-18T10:13:28.921Z</time></trkpt><trkpt lat="45.3899783" lon="10.7170567"><ele>87.5</ele><time>2026-04-18T10:13:29.909Z</time></trkpt><trkpt lat="45.3900167" lon="10.7172083"><ele>87.75</ele><time>2026-04-18T10:13:30.931Z</time></trkpt><trkpt lat="45.3900667" lon="10.7173633"><ele>88.0</ele><time>2026-04-18T10:13:31.909Z</time></trkpt><trkpt lat="45.390125" lon="10.71753"><ele>88.0</ele><time>2026-04-18T10:13:32.924Z</time></trkpt><trkpt lat="45.3901733" lon="10.7177017"><ele>88.0</ele><time>2026-04-18T10:13:33.931Z</time></trkpt><trkpt lat="45.3902367" lon="10.71789"><ele>88.0</ele><time>2026-04-18T10:13:34.936Z</time></trkpt><trkpt lat="45.3902933" lon="10.718075"><ele>88.0</ele><time>2026-04-18T10:13:35.925Z</time></trkpt><trkpt lat="45.3903483" lon="10.7182433"><ele>87.75</ele><time>2026-04-18T10:13:36.912Z</time></trkpt><trkpt lat="45.3904083" lon="10.7184283"><ele>87.5</ele><time>2026-04-18T10:13:37.915Z</time></trkpt><trkpt lat="45.3904783" lon="10.718635"><ele>87.25</ele><time>2026-04-18T10:13:38.925Z</time></trkpt><trkpt lat="45.39053" lon="10.71882"><ele>87.0</ele><time>2026-04-18T10:13:39.936Z</time></trkpt><trkpt lat="45.3905917" lon="10.719"><ele>87.0</ele><time>2026-04-18T10:13:40.959Z</time></trkpt><trkpt lat="45.3906417" lon="10.719175"><ele>87.0</ele><time>2026-04-18T10:13:41.916Z</time></trkpt><trkpt lat="45.3906933" lon="10.7193433"><ele>87.0</ele><time>2026-04-18T10:13:42.944Z</time></trkpt><trkpt lat="45.3907483" lon="10.7195317"><ele>87.0</ele><time>2026-04-18T10:13:43.95Z</time></trkpt><trkpt lat="45.3908067" lon="10.7197067"><ele>87.5</ele><time>2026-04-18T10:13:44.912Z</time></trkpt><trkpt lat="45.3908767" lon="10.7198867"><ele>88.0</ele><time>2026-04-18T10:13:45.97Z</time></trkpt><trkpt lat="45.3909483" lon="10.7200683"><ele>88.5</ele><time>2026-04-18T10:13:46.939Z</time></trkpt><trkpt lat="45.3910283" lon="10.7202583"><ele>89.0</ele><time>2026-04-18T10:13:47.934Z</time></trkpt><trkpt lat="45.39111" lon="10.7204483"><ele>88.75</ele><time>2026-04-18T10:13:48.926Z</time></trkpt><trkpt lat="45.3911817" lon="10.72062"><ele>88.5</ele><time>2026-04-18T10:13:49.91Z</time></trkpt><trkpt lat="45.3912617" lon="10.7208"><ele>88.25</ele><time>2026-04-18T10:13:50.917Z</time></trkpt><trkpt lat="45.3913383" lon="10.7209517"><ele>88.0</ele><time>2026-04-18T10:13:51.919Z</time></trkpt><trkpt lat="45.39139" lon="10.721085"><ele>88.0</ele><time>2026-04-18T10:13:52.916Z</time></trkpt><trkpt lat="45.3914533" lon="10.721215"><ele>88.0</ele><time>2026-04-18T10:13:53.923Z</time></trkpt><trkpt lat="45.3915" lon="10.72133"><ele>88.0</ele><time>2026-04-18T10:13:54.915Z</time></trkpt><trkpt lat="45.3915367" lon="10.72145"><ele>88.0</ele><time>2026-04-18T10:13:55.91Z</time></trkpt><trkpt lat="45.391605" lon="10.7215667"><ele>88.0</ele><time>2026-04-18T10:13:56.929Z</time></trkpt><trkpt lat="45.3916533" lon="10.7216817"><ele>88.0</ele><time>2026-04-18T10:13:57.918Z</time></trkpt><trkpt lat="45.3916833" lon="10.7217817"><ele>88.0</ele><time>2026-04-18T10:13:58.908Z</time></trkpt><trkpt lat="45.3917217" lon="10.72189"><ele>88.0</ele><time>2026-04-18T10:13:59.933Z</time></trkpt><trkpt lat="45.391755" lon="10.722"><ele>88.0</ele><time>2026-04-18T10:14:00.922Z</time></trkpt><trkpt lat="45.391785" lon="10.7220967"><ele>88.0</ele><time>2026-04-18T10:14:01.91Z</time></trkpt><trkpt lat="45.3918133" lon="10.72218"><ele>88.0</ele><time>2026-04-18T10:14:02.928Z</time></trkpt><trkpt lat="45.3918533" lon="10.7223117"><ele>88.5</ele><time>2026-04-18T10:14:04.918Z</time></trkpt><trkpt lat="45.391885" lon="10.7224183"><ele>89.0</ele><time>2026-04-18T10:14:16.916Z</time></trkpt><trkpt lat="45.3919367" lon="10.7224783"><ele>89.5</ele><time>2026-04-18T10:14:25.908Z</time></trkpt><trkpt lat="45.3920333" lon="10.722425"><ele>90.0</ele><time>2026-04-18T10:14:27.909Z</time></trkpt><trkpt lat="45.3921017" lon="10.722355"><ele>90.5</ele><time>2026-04-18T10:14:28.955Z</time></trkpt><trkpt lat="45.39218" lon="10.722275"><ele>91.0</ele><time>2026-04-18T10:14:29.954Z</time></trkpt><trkpt lat="45.3922667" lon="10.722175"><ele>90.75</ele><time>2026-04-18T10:14:30.944Z</time></trkpt><trkpt lat="45.3923683" lon="10.72208"><ele>90.5</ele><time>2026-04-18T10:14:31.915Z</time></trkpt><trkpt lat="45.3924767" lon="10.721995"><ele>90.25</ele><time>2026-04-18T10:14:32.936Z</time></trkpt><trkpt lat="45.3925933" lon="10.7218917"><ele>90.0</ele><time>2026-04-18T10:14:33.908Z</time></trkpt><trkpt lat="45.3926917" lon="10.7218183"><ele>90.0</ele><time>2026-04-18T10:14:34.908Z</time></trkpt><trkpt lat="45.3927917" lon="10.7217433"><ele>90.0</ele><time>2026-04-18T10:14:35.921Z</time></trkpt><trkpt lat="45.3928983" lon="10.72167"><ele>90.0</ele><time>2026-04-18T10:14:36.912Z</time></trkpt><trkpt lat="45.3931067" lon="10.7216783"><ele>90.0</ele><time>2026-04-18T10:14:38.909Z</time></trkpt><trkpt lat="45.3932283" lon="10.72166"><ele>90.33333333333333</ele><time>2026-04-18T10:14:40.912Z</time></trkpt><trkpt lat="45.3932817" lon="10.7217383"><ele>90.66666666666667</ele><time>2026-04-18T10:14:45.936Z</time></trkpt><trkpt lat="45.39327" lon="10.7218783"><ele>91.0</ele><time>2026-04-18T10:14:47.941Z</time></trkpt><trkpt lat="45.3932567" lon="10.7219767"><ele>91.33333333333334</ele><time>2026-04-18T10:14:48.943Z</time></trkpt><trkpt lat="45.39325" lon="10.7220967"><ele>91.66666666666667</ele><time>2026-04-18T10:14:49.941Z</time></trkpt><trkpt lat="45.3932467" lon="10.7222317"><ele>92.0</ele><time>2026-04-18T10:14:50.941Z</time></trkpt><trkpt lat="45.3932533" lon="10.7223833"><ele>93.25</ele><time>2026-04-18T10:14:51.959Z</time></trkpt><trkpt lat="45.3932517" lon="10.722545"><ele>94.5</ele><time>2026-04-18T10:14:52.95Z</time></trkpt><trkpt lat="45.3932583" lon="10.7227117"><ele>95.75</ele><time>2026-04-18T10:14:53.918Z</time></trkpt><trkpt lat="45.393265" lon="10.7228733"><ele>97.0</ele><time>2026-04-18T10:14:54.942Z</time></trkpt><trkpt lat="45.3932733" lon="10.72303"><ele>97.6</ele><time>2026-04-18T10:14:55.925Z</time></trkpt><trkpt lat="45.3932817" lon="10.723185"><ele>98.19999999999999</ele><time>2026-04-18T10:14:56.944Z</time></trkpt><trkpt lat="45.3932917" lon="10.7233283"><ele>98.8</ele><time>2026-04-18T10:14:57.91Z</time></trkpt><trkpt lat="45.3933" lon="10.72346"><ele>99.4</ele><time>2026-04-18T10:14:58.922Z</time></trkpt><trkpt lat="45.3933083" lon="10.7235833"><ele>100.0</ele><time>2026-04-18T10:14:59.927Z</time></trkpt><trkpt lat="45.3933167" lon="10.7237017"><ele>100.57142857142858</ele><time>2026-04-18T10:15:00.916Z</time></trkpt><trkpt lat="45.393325" lon="10.7238133"><ele>101.14285714285714</ele><time>2026-04-18T10:15:01.914Z</time></trkpt><trkpt lat="45.3933283" lon="10.7239217"><ele>101.71428571428572</ele><time>2026-04-18T10:15:02.926Z</time></trkpt><trkpt lat="45.3933317" lon="10.72403"><ele>102.28571428571429</ele><time>2026-04-18T10:15:03.912Z</time></trkpt><trkpt lat="45.393335" lon="10.7241383"><ele>102.85714285714286</ele><time>2026-04-18T10:15:04.932Z</time></trkpt><trkpt lat="45.393335" lon="10.7242367"><ele>103.42857142857143</ele><time>2026-04-18T10:15:05.915Z</time></trkpt><trkpt lat="45.3933333" lon="10.7243333"><ele>104.0</ele><time>2026-04-18T10:15:06.939Z</time></trkpt><trkpt lat="45.393335" lon="10.72443"><ele>105.0</ele><time>2026-04-18T10:15:07.921Z</time></trkpt><trkpt lat="45.3933417" lon="10.724525"><ele>106.0</ele><time>2026-04-18T10:15:08.924Z</time></trkpt><trkpt lat="45.3933567" lon="10.7246217"><ele>107.0</ele><time>2026-04-18T10:15:09.939Z</time></trkpt><trkpt lat="45.3933883" lon="10.7247133"><ele>108.0</ele><time>2026-04-18T10:15:10.925Z</time></trkpt><trkpt lat="45.3934317" lon="10.7248033"><ele>109.0</ele><time>2026-04-18T10:15:11.95Z</time></trkpt><trkpt lat="45.3934783" lon="10.724885"><ele>110.0</ele><time>2026-04-18T10:15:12.939Z</time></trkpt><trkpt lat="45.3935167" lon="10.7249633"><ele>111.0</ele><time>2026-04-18T10:15:13.92Z</time></trkpt><trkpt lat="45.393545" lon="10.7250467"><ele>111.0</ele><time>2026-04-18T10:15:14.911Z</time></trkpt><trkpt lat="45.393575" lon="10.7251267"><ele>111.0</ele><time>2026-04-18T10:15:15.954Z</time></trkpt><trkpt lat="45.3936467" lon="10.725235"><ele>111.0</ele><time>2026-04-18T10:15:17.93Z</time></trkpt><trkpt lat="45.39377" lon="10.7252533"><ele>111.0</ele><time>2026-04-18T10:15:19.924Z</time></trkpt><trkpt lat="45.3938517" lon="10.7252417"><ele>111.0</ele><time>2026-04-18T10:15:20.936Z</time></trkpt><trkpt lat="45.3939317" lon="10.7252333"><ele>111.83333333333333</ele><time>2026-04-18T10:15:21.917Z</time></trkpt><trkpt lat="45.39401" lon="10.72523"><ele>112.66666666666666</ele><time>2026-04-18T10:15:22.914Z</time></trkpt><trkpt lat="45.3940867" lon="10.7252317"><ele>113.5</ele><time>2026-04-18T10:15:23.929Z</time></trkpt><trkpt lat="45.3941567" lon="10.72523"><ele>114.33333333333333</ele><time>2026-04-18T10:15:24.912Z</time></trkpt><trkpt lat="45.3942633" lon="10.7252567"><ele>115.16666666666666</ele><time>2026-04-18T10:15:26.936Z</time></trkpt><trkpt lat="45.39434" lon="10.725365"><ele>116.0</ele><time>2026-04-18T10:15:28.908Z</time></trkpt><trkpt lat="45.394375" lon="10.7255417"><ele>115.99999999999999</ele><time>2026-04-18T10:15:30.949Z</time></trkpt><trkpt lat="45.39439" lon="10.7256467"><ele>116.0</ele><time>2026-04-18T10:15:31.932Z</time></trkpt><trkpt lat="45.3944067" lon="10.725765"><ele>116.0</ele><time>2026-04-18T10:15:32.924Z</time></trkpt><trkpt lat="45.3944267" lon="10.7258833"><ele>116.0</ele><time>2026-04-18T10:15:33.946Z</time></trkpt><trkpt lat="45.3944483" lon="10.7260033"><ele>115.99999999999999</ele><time>2026-04-18T10:15:34.92Z</time></trkpt><trkpt lat="45.394465" lon="10.7261267"><ele>116.0</ele><time>2026-04-18T10:15:35.935Z</time></trkpt><trkpt lat="45.39448" lon="10.7262417"><ele>116.49999999999999</ele><time>2026-04-18T10:15:36.915Z</time></trkpt><trkpt lat="45.3944983" lon="10.7263417"><ele>117.0</ele><time>2026-04-18T10:15:37.905Z</time></trkpt><trkpt lat="45.3945133" lon="10.726435"><ele>117.5</ele><time>2026-04-18T10:15:38.952Z</time></trkpt><trkpt lat="45.3945117" lon="10.7265933"><ele>118.0</ele><time>2026-04-18T10:15:40.936Z</time></trkpt><trkpt lat="45.3944333" lon="10.726675"><ele>118.49999999999999</ele><time>2026-04-18T10:15:42.931Z</time></trkpt><trkpt lat="45.394355" lon="10.7267283"><ele>119.0</ele><time>2026-04-18T10:15:44.941Z</time></trkpt><trkpt lat="45.394315" lon="10.7268667"><ele>119.49999999999999</ele><time>2026-04-18T10:15:46.956Z</time></trkpt><trkpt lat="45.39434" lon="10.72705"><ele>120.0</ele><time>2026-04-18T10:15:48.914Z</time></trkpt><trkpt lat="45.3943567" lon="10.72715"><ele>120.5</ele><time>2026-04-18T10:15:49.927Z</time></trkpt><trkpt lat="45.3943733" lon="10.727255"><ele>121.0</ele><time>2026-04-18T10:15:50.91Z</time></trkpt><trkpt lat="45.3943917" lon="10.7273633"><ele>121.49999999999999</ele><time>2026-04-18T10:15:51.913Z</time></trkpt><trkpt lat="45.3944083" lon="10.7274733"><ele>122.0</ele><time>2026-04-18T10:15:52.936Z</time></trkpt><trkpt lat="45.3944267" lon="10.72759"><ele>122.0</ele><time>2026-04-18T10:15:53.946Z</time></trkpt><trkpt lat="45.3944467" lon="10.7277167"><ele>121.99999999999999</ele><time>2026-04-18T10:15:54.93Z</time></trkpt><trkpt lat="45.3944683" lon="10.727865"><ele>121.99999999999999</ele><time>2026-04-18T10:15:55.923Z</time></trkpt><trkpt lat="45.3944967" lon="10.728015"><ele>122.0</ele><time>2026-04-18T10:15:56.912Z</time></trkpt><trkpt lat="45.3945333" lon="10.7281433"><ele>122.0</ele><time>2026-04-18T10:15:57.916Z</time></trkpt><trkpt lat="45.39457" lon="10.7282733"><ele>122.39999999999999</ele><time>2026-04-18T10:15:58.913Z</time></trkpt><trkpt lat="45.3945933" lon="10.7283967"><ele>122.79999999999998</ele><time>2026-04-18T10:15:59.921Z</time></trkpt><trkpt lat="45.3946333" lon="10.7285267"><ele>123.2</ele><time>2026-04-18T10:16:00.925Z</time></trkpt><trkpt lat="45.3946617" lon="10.72865"><ele>123.6</ele><time>2026-04-18T10:16:01.908Z</time></trkpt><trkpt lat="45.3946867" lon="10.7287733"><ele>124.0</ele><time>2026-04-18T10:16:02.928Z</time></trkpt><trkpt lat="45.39471" lon="10.7289083"><ele>124.00000000000001</ele><time>2026-04-18T10:16:03.914Z</time></trkpt><trkpt lat="45.3947483" lon="10.729045"><ele>124.0</ele><time>2026-04-18T10:16:04.915Z</time></trkpt><trkpt lat="45.3947817" lon="10.7291767"><ele>124.0</ele><time>2026-04-18T10:16:05.913Z</time></trkpt><trkpt lat="45.3948017" lon="10.7292933"><ele>124.0</ele><time>2026-04-18T10:16:06.94Z</time></trkpt><trkpt lat="45.3948167" lon="10.729395"><ele>124.00000000000001</ele><time>2026-04-18T10:16:07.935Z</time></trkpt><trkpt lat="45.39483" lon="10.7294867"><ele>124.0</ele><time>2026-04-18T10:16:08.941Z</time></trkpt><trkpt lat="45.39484" lon="10.7295817"><ele>125.00000000000001</ele><time>2026-04-18T10:16:09.911Z</time></trkpt><trkpt lat="45.39483" lon="10.7296717"><ele>126.0</ele><time>2026-04-18T10:16:10.908Z</time></trkpt><trkpt lat="45.3947683" lon="10.7298167"><ele>127.0</ele><time>2026-04-18T10:16:12.924Z</time></trkpt><trkpt lat="45.394715" lon="10.72988"><ele>128.0</ele><time>2026-04-18T10:16:13.93Z</time></trkpt><trkpt lat="45.3946417" lon="10.7299417"><ele>129.0</ele><time>2026-04-18T10:16:14.929Z</time></trkpt><trkpt lat="45.39457" lon="10.7300133"><ele>130.0</ele><time>2026-04-18T10:16:15.923Z</time></trkpt><trkpt lat="45.3945017" lon="10.730085"><ele>130.0</ele><time>2026-04-18T10:16:16.93Z</time></trkpt><trkpt lat="45.3944383" lon="10.7301517"><ele>130.0</ele><time>2026-04-18T10:16:17.915Z</time></trkpt><trkpt lat="45.39438" lon="10.7302133"><ele>130.0</ele><time>2026-04-18T10:16:18.921Z</time></trkpt><trkpt lat="45.394335" lon="10.7302783"><ele>130.0</ele><time>2026-04-18T10:16:19.915Z</time></trkpt><trkpt lat="45.394285" lon="10.7304517"><ele>130.0</ele><time>2026-04-18T10:16:21.92Z</time></trkpt><trkpt lat="45.3942733" lon="10.73056"><ele>130.0</ele><time>2026-04-18T10:16:22.909Z</time></trkpt><trkpt lat="45.39426" lon="10.730665"><ele>130.0</ele><time>2026-04-18T10:16:23.91Z</time></trkpt><trkpt lat="45.3942417" lon="10.7307817"><ele>130.0</ele><time>2026-04-18T10:16:24.942Z</time></trkpt><trkpt lat="45.3942083" lon="10.7309"><ele>130.0</ele><time>2026-04-18T10:16:25.909Z</time></trkpt><trkpt lat="45.39417" lon="10.731015"><ele>130.0</ele><time>2026-04-18T10:16:26.909Z</time></trkpt><trkpt lat="45.39411" lon="10.7311467"><ele>130.0</ele><time>2026-04-18T10:16:27.975Z</time></trkpt><trkpt lat="45.3940817" lon="10.7312617"><ele>130.0</ele><time>2026-04-18T10:16:28.927Z</time></trkpt><trkpt lat="45.3940383" lon="10.7313617"><ele>130.0</ele><time>2026-04-18T10:16:29.923Z</time></trkpt><trkpt lat="45.3939983" lon="10.7314483"><ele>130.0</ele><time>2026-04-18T10:16:30.941Z</time></trkpt><trkpt lat="45.3939467" lon="10.7315283"><ele>130.0</ele><time>2026-04-18T10:16:31.921Z</time></trkpt><trkpt lat="45.3938783" lon="10.731595"><ele>130.0</ele><time>2026-04-18T10:16:32.926Z</time></trkpt><trkpt lat="45.3937917" lon="10.7316417"><ele>130.0</ele><time>2026-04-18T10:16:33.91Z</time></trkpt><trkpt lat="45.39369" lon="10.7316683"><ele>129.6</ele><time>2026-04-18T10:16:34.96Z</time></trkpt><trkpt lat="45.3935933" lon="10.7316967"><ele>129.2</ele><time>2026-04-18T10:16:35.958Z</time></trkpt><trkpt lat="45.3934883" lon="10.73174"><ele>128.8</ele><time>2026-04-18T10:16:36.919Z</time></trkpt><trkpt lat="45.3933917" lon="10.731775"><ele>128.4</ele><time>2026-04-18T10:16:37.925Z</time></trkpt><trkpt lat="45.3932983" lon="10.7318267"><ele>128.0</ele><time>2026-04-18T10:16:38.911Z</time></trkpt><trkpt lat="45.3932167" lon="10.7318983"><ele>128.0</ele><time>2026-04-18T10:16:39.906Z</time></trkpt><trkpt lat="45.3931267" lon="10.73199"><ele>128.0</ele><time>2026-04-18T10:16:40.942Z</time></trkpt><trkpt lat="45.39304" lon="10.7320583"><ele>128.0</ele><time>2026-04-18T10:16:41.906Z</time></trkpt><trkpt lat="45.3929483" lon="10.7321483"><ele>128.0</ele><time>2026-04-18T10:16:42.922Z</time></trkpt><trkpt lat="45.3928633" lon="10.732245"><ele>128.0</ele><time>2026-04-18T10:16:43.93Z</time></trkpt><trkpt lat="45.3927867" lon="10.732335"><ele>128.0</ele><time>2026-04-18T10:16:44.94Z</time></trkpt><trkpt lat="45.3927" lon="10.732415"><ele>128.0</ele><time>2026-04-18T10:16:45.928Z</time></trkpt><trkpt lat="45.3926217" lon="10.732495"><ele>128.0</ele><time>2026-04-18T10:16:46.928Z</time></trkpt><trkpt lat="45.3925383" lon="10.7325683"><ele>128.0</ele><time>2026-04-18T10:16:47.937Z</time></trkpt><trkpt lat="45.39244" lon="10.73264"><ele>128.0</ele><time>2026-04-18T10:16:48.931Z</time></trkpt><trkpt lat="45.39235" lon="10.732715"><ele>127.80000000000001</ele><time>2026-04-18T10:16:49.916Z</time></trkpt><trkpt lat="45.3922683" lon="10.7327967"><ele>127.60000000000001</ele><time>2026-04-18T10:16:50.959Z</time></trkpt><trkpt lat="45.3921917" lon="10.73286"><ele>127.39999999999999</ele><time>2026-04-18T10:16:51.943Z</time></trkpt><trkpt lat="45.39212" lon="10.7329233"><ele>127.19999999999999</ele><time>2026-04-18T10:16:52.932Z</time></trkpt><trkpt lat="45.3920633" lon="10.7330233"><ele>127.0</ele><time>2026-04-18T10:16:53.925Z</time></trkpt><trkpt lat="45.3919933" lon="10.7331383"><ele>127.00000000000001</ele><time>2026-04-18T10:16:54.921Z</time></trkpt><trkpt lat="45.39194" lon="10.7331883"><ele>127.0</ele><time>2026-04-18T10:16:55.92Z</time></trkpt><trkpt lat="45.391855" lon="10.73327"><ele>127.0</ele><time>2026-04-18T10:16:56.927Z</time></trkpt><trkpt lat="45.3917917" lon="10.73334"><ele>127.0</ele><time>2026-04-18T10:16:57.912Z</time></trkpt><trkpt lat="45.3917283" lon="10.7333817"><ele>127.00000000000001</ele><time>2026-04-18T10:16:58.919Z</time></trkpt><trkpt lat="45.3916517" lon="10.7334133"><ele>127.0</ele><time>2026-04-18T10:16:59.922Z</time></trkpt><trkpt lat="45.3915667" lon="10.73344"><ele>127.00000000000001</ele><time>2026-04-18T10:17:00.913Z</time></trkpt><trkpt lat="45.3914883" lon="10.733485"><ele>127.0</ele><time>2026-04-18T10:17:01.932Z</time></trkpt><trkpt lat="45.3914117" lon="10.7335183"><ele>127.0</ele><time>2026-04-18T10:17:02.917Z</time></trkpt><trkpt lat="45.391335" lon="10.7335367"><ele>127.0</ele><time>2026-04-18T10:17:03.942Z</time></trkpt><trkpt lat="45.39127" lon="10.7335583"><ele>127.00000000000001</ele><time>2026-04-18T10:17:04.921Z</time></trkpt><trkpt lat="45.3911783" lon="10.733645"><ele>127.0</ele><time>2026-04-18T10:17:06.936Z</time></trkpt><trkpt lat="45.3911683" lon="10.7337467"><ele>126.8</ele><time>2026-04-18T10:17:07.908Z</time></trkpt><trkpt lat="45.3911717" lon="10.7338567"><ele>126.6</ele><time>2026-04-18T10:17:08.941Z</time></trkpt><trkpt lat="45.391175" lon="10.733985"><ele>126.39999999999999</ele><time>2026-04-18T10:17:09.939Z</time></trkpt><trkpt lat="45.391185" lon="10.7341183"><ele>126.19999999999999</ele><time>2026-04-18T10:17:10.94Z</time></trkpt><trkpt lat="45.3911967" lon="10.734265"><ele>126.0</ele><time>2026-04-18T10:17:11.928Z</time></trkpt><trkpt lat="45.3912117" lon="10.7344167"><ele>125.4</ele><time>2026-04-18T10:17:12.912Z</time></trkpt><trkpt lat="45.3912233" lon="10.7345317"><ele>124.8</ele><time>2026-04-18T10:17:13.923Z</time></trkpt><trkpt lat="45.3912233" lon="10.7346317"><ele>124.20000000000002</ele><time>2026-04-18T10:17:14.91Z</time></trkpt><trkpt lat="45.3911617" lon="10.7347433"><ele>123.60000000000001</ele><time>2026-04-18T10:17:16.948Z</time></trkpt><trkpt lat="45.39104" lon="10.7347333"><ele>123.0</ele><time>2026-04-18T10:17:18.915Z</time></trkpt><trkpt lat="45.3909633" lon="10.7346883"><ele>123.0</ele><time>2026-04-18T10:17:19.918Z</time></trkpt><trkpt lat="45.390875" lon="10.73466"><ele>123.00000000000001</ele><time>2026-04-18T10:17:20.933Z</time></trkpt><trkpt lat="45.39077" lon="10.734615"><ele>123.00000000000001</ele><time>2026-04-18T10:17:21.917Z</time></trkpt><trkpt lat="45.3906583" lon="10.734595"><ele>123.0</ele><time>2026-04-18T10:17:22.912Z</time></trkpt><trkpt lat="45.3905533" lon="10.7345833"><ele>123.0</ele><time>2026-04-18T10:17:23.914Z</time></trkpt><trkpt lat="45.3904333" lon="10.7345767"><ele>123.5</ele><time>2026-04-18T10:17:24.918Z</time></trkpt><trkpt lat="45.3903217" lon="10.7345667"><ele>124.0</ele><time>2026-04-18T10:17:25.921Z</time></trkpt><trkpt lat="45.3902133" lon="10.734565"><ele>124.5</ele><time>2026-04-18T10:17:26.912Z</time></trkpt><trkpt lat="45.3900967" lon="10.734575"><ele>125.0</ele><time>2026-04-18T10:17:27.922Z</time></trkpt><trkpt lat="45.3899783" lon="10.7346"><ele>125.0</ele><time>2026-04-18T10:17:28.934Z</time></trkpt><trkpt lat="45.3898617" lon="10.73463"><ele>125.0</ele><time>2026-04-18T10:17:29.917Z</time></trkpt><trkpt lat="45.3897433" lon="10.7346633"><ele>125.0</ele><time>2026-04-18T10:17:30.922Z</time></trkpt><trkpt lat="45.3896183" lon="10.7346833"><ele>125.0</ele><time>2026-04-18T10:17:31.911Z</time></trkpt><trkpt lat="45.3894967" lon="10.7347033"><ele>126.0</ele><time>2026-04-18T10:17:32.909Z</time></trkpt><trkpt lat="45.3893767" lon="10.7347083"><ele>127.0</ele><time>2026-04-18T10:17:33.919Z</time></trkpt><trkpt lat="45.3892583" lon="10.7347067"><ele>128.0</ele><time>2026-04-18T10:17:34.916Z</time></trkpt><trkpt lat="45.3891567" lon="10.7347017"><ele>129.0</ele><time>2026-04-18T10:17:35.916Z</time></trkpt><trkpt lat="45.389065" lon="10.734705"><ele>130.0</ele><time>2026-04-18T10:17:36.911Z</time></trkpt><trkpt lat="45.38898" lon="10.734715"><ele>130.0</ele><time>2026-04-18T10:17:37.91Z</time></trkpt><trkpt lat="45.388895" lon="10.7347517"><ele>130.0</ele><time>2026-04-18T10:17:38.929Z</time></trkpt><trkpt lat="45.3888083" lon="10.73481"><ele>130.0</ele><time>2026-04-18T10:17:39.905Z</time></trkpt><trkpt lat="45.388715" lon="10.7349017"><ele>130.0</ele><time>2026-04-18T10:17:40.925Z</time></trkpt><trkpt lat="45.38864" lon="10.73495"><ele>130.0</ele><time>2026-04-18T10:17:41.917Z</time></trkpt><trkpt lat="45.3885433" lon="10.735065"><ele>129.75</ele><time>2026-04-18T10:17:42.914Z</time></trkpt><trkpt lat="45.3884567" lon="10.73519"><ele>129.5</ele><time>2026-04-18T10:17:43.911Z</time></trkpt><trkpt lat="45.38837" lon="10.7353367"><ele>129.25</ele><time>2026-04-18T10:17:44.923Z</time></trkpt><trkpt lat="45.388285" lon="10.7355083"><ele>129.0</ele><time>2026-04-18T10:17:45.924Z</time></trkpt><trkpt lat="45.388195" lon="10.735665"><ele>129.0</ele><time>2026-04-18T10:17:46.918Z</time></trkpt><trkpt lat="45.388115" lon="10.7358017"><ele>129.0</ele><time>2026-04-18T10:17:47.916Z</time></trkpt><trkpt lat="45.3880333" lon="10.735905"><ele>129.0</ele><time>2026-04-18T10:17:48.944Z</time></trkpt><trkpt lat="45.38796" lon="10.7359883"><ele>129.0</ele><time>2026-04-18T10:17:49.907Z</time></trkpt><trkpt lat="45.3879117" lon="10.736065"><ele>129.0</ele><time>2026-04-18T10:17:50.912Z</time></trkpt><trkpt lat="45.3878583" lon="10.73621"><ele>130.0</ele><time>2026-04-18T10:17:52.914Z</time></trkpt><trkpt lat="45.387835" lon="10.7364117"><ele>131.0</ele><time>2026-04-18T10:17:54.911Z</time></trkpt><trkpt lat="45.3878283" lon="10.7365483"><ele>132.0</ele><time>2026-04-18T10:17:55.923Z</time></trkpt><trkpt lat="45.3878333" lon="10.73672"><ele>133.0</ele><time>2026-04-18T10:17:56.933Z</time></trkpt><trkpt lat="45.3878217" lon="10.736865"><ele>133.5</ele><time>2026-04-18T10:17:57.915Z</time></trkpt><trkpt lat="45.38782" lon="10.7369817"><ele>134.0</ele><time>2026-04-18T10:17:58.913Z</time></trkpt><trkpt lat="45.3878183" lon="10.7370717"><ele>134.5</ele><time>2026-04-18T10:17:59.91Z</time></trkpt><trkpt lat="45.3878083" lon="10.7371717"><ele>135.0</ele><time>2026-04-18T10:18:01.925Z</time></trkpt><trkpt lat="45.3878733" lon="10.7372817"><ele>135.5</ele><time>2026-04-18T10:18:14.909Z</time></trkpt><trkpt lat="45.38795" lon="10.7373367"><ele>136.0</ele><time>2026-04-18T10:18:15.912Z</time></trkpt><trkpt lat="45.38802" lon="10.7373917"><ele>133.5</ele><time>2026-04-18T10:18:16.915Z</time></trkpt><trkpt lat="45.3880783" lon="10.7374533"><ele>131.0</ele><time>2026-04-18T10:18:17.914Z</time></trkpt><trkpt lat="45.3881267" lon="10.7375167"><ele>128.5</ele><time>2026-04-18T10:18:18.925Z</time></trkpt><trkpt lat="45.3882067" lon="10.737625"><ele>126.0</ele><time>2026-04-18T10:18:20.951Z</time></trkpt><trkpt lat="45.38826" lon="10.7377"><ele>123.50000000000001</ele><time>2026-04-18T10:18:23.913Z</time></trkpt><trkpt lat="45.388305" lon="10.7377667"><ele>121.0</ele><time>2026-04-18T10:18:35.912Z</time></trkpt><trkpt lat="45.3883783" lon="10.7378583"><ele>120.50000000000001</ele><time>2026-04-18T10:18:37.92Z</time></trkpt><trkpt lat="45.3884083" lon="10.73795"><ele>120.0</ele><time>2026-04-18T10:18:39.92Z</time></trkpt><trkpt lat="45.38837" lon="10.7380317"><ele>119.5</ele><time>2026-04-18T10:18:41.947Z</time></trkpt><trkpt lat="45.3882833" lon="10.7381317"><ele>119.0</ele><time>2026-04-18T10:18:43.907Z</time></trkpt><trkpt lat="45.38822" lon="10.7381883"><ele>118.50000000000001</ele><time>2026-04-18T10:18:44.914Z</time></trkpt><trkpt lat="45.3881633" lon="10.7382583"><ele>118.0</ele><time>2026-04-18T10:18:45.917Z</time></trkpt><trkpt lat="45.38811" lon="10.7383467"><ele>118.00000000000001</ele><time>2026-04-18T10:18:46.911Z</time></trkpt><trkpt lat="45.3880567" lon="10.7384367"><ele>118.0</ele><time>2026-04-18T10:18:47.921Z</time></trkpt><trkpt lat="45.3880117" lon="10.7385317"><ele>118.0</ele><time>2026-04-18T10:18:48.933Z</time></trkpt><trkpt lat="45.3879767" lon="10.7386283"><ele>118.0</ele><time>2026-04-18T10:18:49.906Z</time></trkpt><trkpt lat="45.3879483" lon="10.7387367"><ele>118.00000000000001</ele><time>2026-04-18T10:18:50.91Z</time></trkpt><trkpt lat="45.3879217" lon="10.73885"><ele>118.0</ele><time>2026-04-18T10:18:51.925Z</time></trkpt><trkpt lat="45.3878933" lon="10.7389667"><ele>119.80000000000001</ele><time>2026-04-18T10:18:52.919Z</time></trkpt><trkpt lat="45.3878617" lon="10.739085"><ele>121.60000000000001</ele><time>2026-04-18T10:18:53.924Z</time></trkpt><trkpt lat="45.3878283" lon="10.7392067"><ele>123.39999999999999</ele><time>2026-04-18T10:18:54.909Z</time></trkpt><trkpt lat="45.3877917" lon="10.73933"><ele>125.19999999999999</ele><time>2026-04-18T10:18:55.927Z</time></trkpt><trkpt lat="45.3877617" lon="10.739455"><ele>127.0</ele><time>2026-04-18T10:18:56.908Z</time></trkpt><trkpt lat="45.3877367" lon="10.7395767"><ele>127.00000000000001</ele><time>2026-04-18T10:18:57.94Z</time></trkpt><trkpt lat="45.3877183" lon="10.7396933"><ele>127.0</ele><time>2026-04-18T10:18:58.952Z</time></trkpt><trkpt lat="45.3877033" lon="10.7397933"><ele>127.0</ele><time>2026-04-18T10:18:59.921Z</time></trkpt><trkpt lat="45.3876983" lon="10.7398833"><ele>127.0</ele><time>2026-04-18T10:19:00.928Z</time></trkpt><trkpt lat="45.3877267" lon="10.7400583"><ele>127.00000000000001</ele><time>2026-04-18T10:19:02.918Z</time></trkpt><trkpt lat="45.3877517" lon="10.740145"><ele>127.0</ele><time>2026-04-18T10:19:03.916Z</time></trkpt><trkpt lat="45.38778" lon="10.7402367"><ele>127.28571428571429</ele><time>2026-04-18T10:19:04.938Z</time></trkpt><trkpt lat="45.3878083" lon="10.7403217"><ele>127.57142857142856</ele><time>2026-04-18T10:19:05.92Z</time></trkpt><trkpt lat="45.3878367" lon="10.7404067"><ele>127.85714285714285</ele><time>2026-04-18T10:19:06.913Z</time></trkpt><trkpt lat="45.38786" lon="10.7404983"><ele>128.14285714285714</ele><time>2026-04-18T10:19:07.931Z</time></trkpt><trkpt lat="45.3878783" lon="10.740595"><ele>128.42857142857142</ele><time>2026-04-18T10:19:08.909Z</time></trkpt><trkpt lat="45.387895" lon="10.7406933"><ele>128.7142857142857</ele><time>2026-04-18T10:19:09.933Z</time></trkpt><trkpt lat="45.3879217" lon="10.740795"><ele>129.0</ele><time>2026-04-18T10:19:10.914Z</time></trkpt><trkpt lat="45.3879483" lon="10.7409017"><ele>128.99999999999997</ele><time>2026-04-18T10:19:11.912Z</time></trkpt><trkpt lat="45.387975" lon="10.7410083"><ele>129.0</ele><time>2026-04-18T10:19:12.926Z</time></trkpt><trkpt lat="45.3879967" lon="10.7411067"><ele>129.0</ele><time>2026-04-18T10:19:13.912Z</time></trkpt><trkpt lat="45.3880083" lon="10.7411967"><ele>129.0</ele><time>2026-04-18T10:19:14.912Z</time></trkpt><trkpt lat="45.3880117" lon="10.7412883"><ele>129.0</ele><time>2026-04-18T10:19:15.916Z</time></trkpt><trkpt lat="45.3879967" lon="10.741385"><ele>128.99999999999997</ele><time>2026-04-18T10:19:16.941Z</time></trkpt><trkpt lat="45.38797" lon="10.7414917"><ele>129.0</ele><time>2026-04-18T10:19:17.912Z</time></trkpt><trkpt lat="45.3879417" lon="10.741605"><ele>128.99999999999997</ele><time>2026-04-18T10:19:18.941Z</time></trkpt><trkpt lat="45.38791" lon="10.7417133"><ele>129.0</ele><time>2026-04-18T10:19:19.931Z</time></trkpt><trkpt lat="45.387885" lon="10.7418083"><ele>129.0</ele><time>2026-04-18T10:19:20.914Z</time></trkpt><trkpt lat="45.38786" lon="10.741895"><ele>129.0</ele><time>2026-04-18T10:19:21.909Z</time></trkpt><trkpt lat="45.3878383" lon="10.7419867"><ele>129.0</ele><time>2026-04-18T10:19:22.91Z</time></trkpt><trkpt lat="45.3878233" lon="10.7420783"><ele>128.99999999999997</ele><time>2026-04-18T10:19:23.916Z</time></trkpt><trkpt lat="45.3878117" lon="10.7421683"><ele>129.0</ele><time>2026-04-18T10:19:24.914Z</time></trkpt><trkpt lat="45.3878033" lon="10.74226"><ele>128.6</ele><time>2026-04-18T10:19:25.907Z</time></trkpt><trkpt lat="45.3878033" lon="10.74235"><ele>128.2</ele><time>2026-04-18T10:19:26.921Z</time></trkpt><trkpt lat="45.3878267" lon="10.7425233"><ele>127.79999999999998</ele><time>2026-04-18T10:19:28.922Z</time></trkpt><trkpt lat="45.387865" lon="10.7426733"><ele>127.39999999999999</ele><time>2026-04-18T10:19:31.904Z</time></trkpt><trkpt lat="45.3878817" lon="10.7428033"><ele>127.0</ele><time>2026-04-18T10:19:47.931Z</time></trkpt><trkpt lat="45.38788" lon="10.742905"><ele>127.0</ele><time>2026-04-18T10:19:48.92Z</time></trkpt><trkpt lat="45.3878733" lon="10.7430217"><ele>126.99999999999999</ele><time>2026-04-18T10:19:49.915Z</time></trkpt><trkpt lat="45.3878633" lon="10.7431417"><ele>126.99999999999999</ele><time>2026-04-18T10:19:50.914Z</time></trkpt><trkpt lat="45.3878433" lon="10.74326"><ele>127.0</ele><time>2026-04-18T10:19:51.912Z</time></trkpt><trkpt lat="45.3878083" lon="10.743375"><ele>127.0</ele><time>2026-04-18T10:19:52.917Z</time></trkpt><trkpt lat="45.3877183" lon="10.7436"><ele>125.19999999999999</ele><time>2026-04-18T10:19:54.938Z</time></trkpt><trkpt lat="45.387675" lon="10.7437167"><ele>123.39999999999999</ele><time>2026-04-18T10:19:55.956Z</time></trkpt><trkpt lat="45.3876267" lon="10.7438533"><ele>121.60000000000001</ele><time>2026-04-18T10:19:56.948Z</time></trkpt><trkpt lat="45.3875917" lon="10.7439767"><ele>119.80000000000001</ele><time>2026-04-18T10:19:57.912Z</time></trkpt><trkpt lat="45.3875667" lon="10.7440967"><ele>118.0</ele><time>2026-04-18T10:19:58.93Z</time></trkpt><trkpt lat="45.3875333" lon="10.744215"><ele>118.00000000000001</ele><time>2026-04-18T10:19:59.928Z</time></trkpt><trkpt lat="45.3875083" lon="10.7443367"><ele>118.0</ele><time>2026-04-18T10:20:00.919Z</time></trkpt><trkpt lat="45.3874933" lon="10.7444433"><ele>118.0</ele><time>2026-04-18T10:20:01.952Z</time></trkpt><trkpt lat="45.3874817" lon="10.744535"><ele>118.0</ele><time>2026-04-18T10:20:02.925Z</time></trkpt><trkpt lat="45.38748" lon="10.74466"><ele>118.00000000000001</ele><time>2026-04-18T10:20:04.917Z</time></trkpt><trkpt lat="45.38746" lon="10.7447783"><ele>118.0</ele><time>2026-04-18T10:20:06.905Z</time></trkpt><trkpt lat="45.3874117" lon="10.7448583"><ele>117.00000000000001</ele><time>2026-04-18T10:20:08.929Z</time></trkpt><trkpt lat="45.3872983" lon="10.74491"><ele>116.0</ele><time>2026-04-18T10:20:10.902Z</time></trkpt><trkpt lat="45.3872333" lon="10.74494"><ele>115.0</ele><time>2026-04-18T10:20:11.917Z</time></trkpt><trkpt lat="45.387165" lon="10.7449783"><ele>114.0</ele><time>2026-04-18T10:20:12.905Z</time></trkpt><trkpt lat="45.3870967" lon="10.7450233"><ele>113.00000000000001</ele><time>2026-04-18T10:20:13.908Z</time></trkpt><trkpt lat="45.3870283" lon="10.74507"><ele>112.0</ele><time>2026-04-18T10:20:14.933Z</time></trkpt><trkpt lat="45.3869617" lon="10.745115"><ele>114.50000000000001</ele><time>2026-04-18T10:20:15.93Z</time></trkpt><trkpt lat="45.386895" lon="10.7451633"><ele>117.0</ele><time>2026-04-18T10:20:16.913Z</time></trkpt><trkpt lat="45.3868283" lon="10.745215"><ele>119.5</ele><time>2026-04-18T10:20:17.906Z</time></trkpt><trkpt lat="45.386755" lon="10.745265"><ele>122.0</ele><time>2026-04-18T10:20:18.909Z</time></trkpt><trkpt lat="45.3866783" lon="10.7453167"><ele>124.50000000000001</ele><time>2026-04-18T10:20:19.936Z</time></trkpt><trkpt lat="45.3866017" lon="10.7453633"><ele>127.0</ele><time>2026-04-18T10:20:20.94Z</time></trkpt><trkpt lat="45.3865267" lon="10.7454117"><ele>127.33333333333334</ele><time>2026-04-18T10:20:21.915Z</time></trkpt><trkpt lat="45.3864583" lon="10.7454517"><ele>127.66666666666667</ele><time>2026-04-18T10:20:22.916Z</time></trkpt><trkpt lat="45.3863583" lon="10.7455267"><ele>128.0</ele><time>2026-04-18T10:20:24.913Z</time></trkpt><trkpt lat="45.3863283" lon="10.745635"><ele>128.33333333333334</ele><time>2026-04-18T10:20:26.92Z</time></trkpt><trkpt lat="45.3863767" lon="10.7457433"><ele>128.66666666666666</ele><time>2026-04-18T10:20:28.942Z</time></trkpt><trkpt lat="45.38643" lon="10.7458"><ele>129.0</ele><time>2026-04-18T10:20:29.912Z</time></trkpt><trkpt lat="45.3864833" lon="10.7458617"><ele>129.0</ele><time>2026-04-18T10:20:30.915Z</time></trkpt><trkpt lat="45.3865317" lon="10.74593"><ele>129.0</ele><time>2026-04-18T10:20:31.932Z</time></trkpt><trkpt lat="45.386555" lon="10.7460917"><ele>129.0</ele><time>2026-04-18T10:20:33.917Z</time></trkpt><trkpt lat="45.3865833" lon="10.7461733"><ele>129.0</ele><time>2026-04-18T10:20:34.93Z</time></trkpt><trkpt lat="45.3866567" lon="10.7462967"><ele>129.0</ele><time>2026-04-18T10:20:36.907Z</time></trkpt><trkpt lat="45.3867033" lon="10.7463617"><ele>129.0</ele><time>2026-04-18T10:20:37.931Z</time></trkpt><trkpt lat="45.3868017" lon="10.7464717"><ele>129.16666666666666</ele><time>2026-04-18T10:20:39.939Z</time></trkpt><trkpt lat="45.3868567" lon="10.7465383"><ele>129.33333333333334</ele><time>2026-04-18T10:20:40.94Z</time></trkpt><trkpt lat="45.3869217" lon="10.7466133"><ele>129.5</ele><time>2026-04-18T10:20:41.913Z</time></trkpt><trkpt lat="45.38699" lon="10.746685"><ele>129.66666666666669</ele><time>2026-04-18T10:20:42.907Z</time></trkpt><trkpt lat="45.387055" lon="10.7467467"><ele>129.83333333333334</ele><time>2026-04-18T10:20:43.919Z</time></trkpt><trkpt lat="45.38711" lon="10.746795"><ele>130.0</ele><time>2026-04-18T10:20:44.923Z</time></trkpt><trkpt lat="45.3871983" lon="10.7468717"><ele>127.0</ele><time>2026-04-18T10:20:46.908Z</time></trkpt><trkpt lat="45.3872867" lon="10.7469433"><ele>124.0</ele><time>2026-04-18T10:20:48.93Z</time></trkpt><trkpt lat="45.387375" lon="10.74705"><ele>121.0</ele><time>2026-04-18T10:20:50.934Z</time></trkpt><trkpt lat="45.3874567" lon="10.7471933"><ele>118.0</ele><time>2026-04-18T10:20:52.924Z</time></trkpt><trkpt lat="45.3875017" lon="10.7472567"><ele>115.0</ele><time>2026-04-18T10:20:53.918Z</time></trkpt><trkpt lat="45.387605" lon="10.7473267"><ele>115.0</ele><time>2026-04-18T10:20:55.915Z</time></trkpt><trkpt lat="45.3877133" lon="10.7473517"><ele>115.0</ele><time>2026-04-18T10:20:57.917Z</time></trkpt><trkpt lat="45.387825" lon="10.74736"><ele>115.0</ele><time>2026-04-18T10:20:59.916Z</time></trkpt><trkpt lat="45.3879083" lon="10.74742"><ele>115.0</ele><time>2026-04-18T10:21:01.903Z</time></trkpt><trkpt lat="45.3879417" lon="10.74757"><ele>115.0</ele><time>2026-04-18T10:21:03.909Z</time></trkpt><trkpt lat="45.387965" lon="10.7477283"><ele>114.6</ele><time>2026-04-18T10:21:05.934Z</time></trkpt><trkpt lat="45.3879783" lon="10.7478667"><ele>114.2</ele><time>2026-04-18T10:21:07.917Z</time></trkpt><trkpt lat="45.3880033" lon="10.7480083"><ele>113.80000000000001</ele><time>2026-04-18T10:21:09.936Z</time></trkpt><trkpt lat="45.38808" lon="10.7481567"><ele>113.4</ele><time>2026-04-18T10:21:11.925Z</time></trkpt><trkpt lat="45.38813" lon="10.748245"><ele>113.0</ele><time>2026-04-18T10:21:12.941Z</time></trkpt><trkpt lat="45.3881817" lon="10.74834"><ele>113.0</ele><time>2026-04-18T10:21:13.911Z</time></trkpt><trkpt lat="45.3882333" lon="10.7484433"><ele>113.00000000000001</ele><time>2026-04-18T10:21:14.929Z</time></trkpt><trkpt lat="45.3882883" lon="10.748555"><ele>113.00000000000001</ele><time>2026-04-18T10:21:15.938Z</time></trkpt><trkpt lat="45.3883483" lon="10.7486883"><ele>113.0</ele><time>2026-04-18T10:21:16.924Z</time></trkpt><trkpt lat="45.3884" lon="10.748795"><ele>113.0</ele><time>2026-04-18T10:21:17.908Z</time></trkpt><trkpt lat="45.3884617" lon="10.7489017"><ele>112.60000000000001</ele><time>2026-04-18T10:21:18.932Z</time></trkpt><trkpt lat="45.3885283" lon="10.7490017"><ele>112.20000000000002</ele><time>2026-04-18T10:21:19.918Z</time></trkpt><trkpt lat="45.38861" lon="10.7490417"><ele>111.8</ele><time>2026-04-18T10:21:20.907Z</time></trkpt><trkpt lat="45.3887" lon="10.7491217"><ele>111.4</ele><time>2026-04-18T10:21:21.939Z</time></trkpt><trkpt lat="45.388785" lon="10.7491933"><ele>111.0</ele><time>2026-04-18T10:21:22.911Z</time></trkpt><trkpt lat="45.3888733" lon="10.749255"><ele>110.8</ele><time>2026-04-18T10:21:23.909Z</time></trkpt><trkpt lat="45.3889733" lon="10.7493067"><ele>110.6</ele><time>2026-04-18T10:21:24.914Z</time></trkpt><trkpt lat="45.389065" lon="10.7493817"><ele>110.4</ele><time>2026-04-18T10:21:25.919Z</time></trkpt><trkpt lat="45.3891567" lon="10.7494583"><ele>110.2</ele><time>2026-04-18T10:21:26.916Z</time></trkpt><trkpt lat="45.3892533" lon="10.7495517"><ele>110.0</ele><time>2026-04-18T10:21:27.919Z</time></trkpt><trkpt lat="45.3893667" lon="10.7496383"><ele>110.0</ele><time>2026-04-18T10:21:28.91Z</time></trkpt><trkpt lat="45.3894617" lon="10.7497167"><ele>110.0</ele><time>2026-04-18T10:21:29.936Z</time></trkpt><trkpt lat="45.3895583" lon="10.749795"><ele>110.0</ele><time>2026-04-18T10:21:30.912Z</time></trkpt><trkpt lat="45.38966" lon="10.749885"><ele>110.0</ele><time>2026-04-18T10:21:31.92Z</time></trkpt><trkpt lat="45.3897817" lon="10.7499733"><ele>110.0</ele><time>2026-04-18T10:21:32.92Z</time></trkpt><trkpt lat="45.3898967" lon="10.7500683"><ele>110.0</ele><time>2026-04-18T10:21:33.913Z</time></trkpt><trkpt lat="45.3900133" lon="10.7501333"><ele>110.0</ele><time>2026-04-18T10:21:34.92Z</time></trkpt><trkpt lat="45.39013" lon="10.7502183"><ele>110.0</ele><time>2026-04-18T10:21:35.92Z</time></trkpt><trkpt lat="45.3902433" lon="10.7503117"><ele>110.0</ele><time>2026-04-18T10:21:36.903Z</time></trkpt><trkpt lat="45.390355" lon="10.7504133"><ele>110.0</ele><time>2026-04-18T10:21:38.002Z</time></trkpt><trkpt lat="45.3904567" lon="10.7504883"><ele>110.0</ele><time>2026-04-18T10:21:38.924Z</time></trkpt><trkpt lat="45.3905433" lon="10.75053"><ele>110.0</ele><time>2026-04-18T10:21:39.907Z</time></trkpt><trkpt lat="45.3906267" lon="10.7505717"><ele>110.0</ele><time>2026-04-18T10:21:40.911Z</time></trkpt><trkpt lat="45.3906933" lon="10.750635"><ele>109.66666666666666</ele><time>2026-04-18T10:21:41.918Z</time></trkpt><trkpt lat="45.3907533" lon="10.75069"><ele>109.33333333333333</ele><time>2026-04-18T10:21:42.908Z</time></trkpt><trkpt lat="45.3908083" lon="10.7507417"><ele>109.0</ele><time>2026-04-18T10:21:43.911Z</time></trkpt><trkpt lat="45.3909067" lon="10.75082"><ele>108.66666666666666</ele><time>2026-04-18T10:21:45.918Z</time></trkpt><trkpt lat="45.3909633" lon="10.7508633"><ele>108.33333333333333</ele><time>2026-04-18T10:21:46.929Z</time></trkpt><trkpt lat="45.39103" lon="10.7509183"><ele>108.0</ele><time>2026-04-18T10:21:47.947Z</time></trkpt><trkpt lat="45.3911067" lon="10.750985"><ele>108.0</ele><time>2026-04-18T10:21:48.903Z</time></trkpt><trkpt lat="45.3911983" lon="10.7510533"><ele>108.00000000000001</ele><time>2026-04-18T10:21:49.916Z</time></trkpt><trkpt lat="45.3913" lon="10.7511217"><ele>108.00000000000001</ele><time>2026-04-18T10:21:50.925Z</time></trkpt><trkpt lat="45.391405" lon="10.7512"><ele>108.0</ele><time>2026-04-18T10:21:51.941Z</time></trkpt><trkpt lat="45.3915017" lon="10.75125"><ele>108.0</ele><time>2026-04-18T10:21:52.91Z</time></trkpt><trkpt lat="45.3915883" lon="10.7513033"><ele>108.0</ele><time>2026-04-18T10:21:53.915Z</time></trkpt><trkpt lat="45.39165" lon="10.7513283"><ele>108.0</ele><time>2026-04-18T10:21:54.909Z</time></trkpt><trkpt lat="45.3917167" lon="10.7513633"><ele>108.0</ele><time>2026-04-18T10:21:55.912Z</time></trkpt><trkpt lat="45.3917967" lon="10.7513933"><ele>108.0</ele><time>2026-04-18T10:21:56.916Z</time></trkpt><trkpt lat="45.3918767" lon="10.7514533"><ele>108.0</ele><time>2026-04-18T10:21:57.916Z</time></trkpt><trkpt lat="45.3919517" lon="10.7515567"><ele>108.0</ele><time>2026-04-18T10:21:58.909Z</time></trkpt><trkpt lat="45.3920083" lon="10.751655"><ele>108.0</ele><time>2026-04-18T10:21:59.941Z</time></trkpt><trkpt lat="45.392055" lon="10.751765"><ele>108.00000000000001</ele><time>2026-04-18T10:22:00.933Z</time></trkpt><trkpt lat="45.392085" lon="10.7518917"><ele>108.00000000000001</ele><time>2026-04-18T10:22:01.931Z</time></trkpt><trkpt lat="45.3920817" lon="10.7520367"><ele>108.0</ele><time>2026-04-18T10:22:02.94Z</time></trkpt><trkpt lat="45.3920917" lon="10.752175"><ele>108.0</ele><time>2026-04-18T10:22:03.938Z</time></trkpt><trkpt lat="45.3921133" lon="10.7523033"><ele>108.16666666666667</ele><time>2026-04-18T10:22:04.939Z</time></trkpt><trkpt lat="45.3921133" lon="10.75243"><ele>108.33333333333334</ele><time>2026-04-18T10:22:05.918Z</time></trkpt><trkpt lat="45.39211" lon="10.7525483"><ele>108.5</ele><time>2026-04-18T10:22:06.943Z</time></trkpt><trkpt lat="45.3921033" lon="10.7526567"><ele>108.66666666666667</ele><time>2026-04-18T10:22:07.928Z</time></trkpt><trkpt lat="45.39209" lon="10.75276"><ele>108.83333333333334</ele><time>2026-04-18T10:22:08.929Z</time></trkpt><trkpt lat="45.3920767" lon="10.752855"><ele>109.0</ele><time>2026-04-18T10:22:09.923Z</time></trkpt><trkpt lat="45.3920717" lon="10.7529517"><ele>108.71428571428572</ele><time>2026-04-18T10:22:10.913Z</time></trkpt><trkpt lat="45.3920717" lon="10.7530467"><ele>108.42857142857143</ele><time>2026-04-18T10:22:11.92Z</time></trkpt><trkpt lat="45.3920833" lon="10.7531433"><ele>108.14285714285714</ele><time>2026-04-18T10:22:12.935Z</time></trkpt><trkpt lat="45.3921033" lon="10.7532417"><ele>107.85714285714286</ele><time>2026-04-18T10:22:13.932Z</time></trkpt><trkpt lat="45.39212" lon="10.75334"><ele>107.57142857142857</ele><time>2026-04-18T10:22:14.912Z</time></trkpt><trkpt lat="45.392125" lon="10.753435"><ele>107.28571428571429</ele><time>2026-04-18T10:22:15.915Z</time></trkpt><trkpt lat="45.3921067" lon="10.7535233"><ele>107.0</ele><time>2026-04-18T10:22:16.919Z</time></trkpt><trkpt lat="45.39207" lon="10.7536067"><ele>106.99999999999999</ele><time>2026-04-18T10:22:17.951Z</time></trkpt><trkpt lat="45.3920183" lon="10.75368"><ele>107.0</ele><time>2026-04-18T10:22:18.911Z</time></trkpt><trkpt lat="45.3919683" lon="10.7537433"><ele>107.0</ele><time>2026-04-18T10:22:19.912Z</time></trkpt><trkpt lat="45.3918833" lon="10.753845"><ele>107.0</ele><time>2026-04-18T10:22:21.91Z</time></trkpt><trkpt lat="45.39181" lon="10.753925"><ele>106.99999999999999</ele><time>2026-04-18T10:22:23.914Z</time></trkpt><trkpt lat="45.39179" lon="10.7540217"><ele>107.0</ele><time>2026-04-18T10:22:26.93Z</time></trkpt><trkpt lat="45.391875" lon="10.7539367"><ele>107.0</ele><time>2026-04-18T10:22:29.908Z</time></trkpt><trkpt lat="45.3919183" lon="10.7538683"><ele>106.99999999999999</ele><time>2026-04-18T10:22:30.93Z</time></trkpt><trkpt lat="45.3920417" lon="10.7536867"><ele>106.99999999999999</ele><time>2026-04-18T10:22:32.912Z</time></trkpt><trkpt lat="45.3921017" lon="10.75357"><ele>107.0</ele><time>2026-04-18T10:22:33.905Z</time></trkpt><trkpt lat="45.3921317" lon="10.75345"><ele>107.0</ele><time>2026-04-18T10:22:34.934Z</time></trkpt><trkpt lat="45.3921433" lon="10.75332"><ele>107.0</ele><time>2026-04-18T10:22:35.926Z</time></trkpt><trkpt lat="45.3921117" lon="10.753175"><ele>107.0</ele><time>2026-04-18T10:22:36.948Z</time></trkpt><trkpt lat="45.39207" lon="10.7529967"><ele>107.0</ele><time>2026-04-18T10:22:37.911Z</time></trkpt><trkpt lat="45.3920683" lon="10.7528183"><ele>107.0</ele><time>2026-04-18T10:22:38.922Z</time></trkpt><trkpt lat="45.3920933" lon="10.7526233"><ele>107.5</ele><time>2026-04-18T10:22:39.916Z</time></trkpt><trkpt lat="45.3921083" lon="10.7524117"><ele>108.0</ele><time>2026-04-18T10:22:40.908Z</time></trkpt><trkpt lat="45.3921183" lon="10.75222"><ele>108.5</ele><time>2026-04-18T10:22:41.918Z</time></trkpt><trkpt lat="45.3920917" lon="10.7520517"><ele>109.0</ele><time>2026-04-18T10:22:42.932Z</time></trkpt><trkpt lat="45.3920667" lon="10.751915"><ele>108.83333333333334</ele><time>2026-04-18T10:22:43.909Z</time></trkpt><trkpt lat="45.3920417" lon="10.7517883"><ele>108.66666666666667</ele><time>2026-04-18T10:22:44.935Z</time></trkpt><trkpt lat="45.3919983" lon="10.7516517"><ele>108.5</ele><time>2026-04-18T10:22:45.913Z</time></trkpt><trkpt lat="45.3919667" lon="10.751545"><ele>108.33333333333334</ele><time>2026-04-18T10:22:46.916Z</time></trkpt><trkpt lat="45.3919367" lon="10.7514483"><ele>108.16666666666667</ele><time>2026-04-18T10:22:47.942Z</time></trkpt><trkpt lat="45.3918967" lon="10.7513733"><ele>108.0</ele><time>2026-04-18T10:22:48.92Z</time></trkpt><trkpt lat="45.3918367" lon="10.7512833"><ele>108.0</ele><time>2026-04-18T10:22:50.927Z</time></trkpt><trkpt lat="45.3917633" lon="10.7512483"><ele>108.00000000000001</ele><time>2026-04-18T10:22:53.917Z</time></trkpt><trkpt lat="45.3916817" lon="10.7512467"><ele>108.00000000000001</ele><time>2026-04-18T10:22:57.926Z</time></trkpt><trkpt lat="45.3917433" lon="10.7513567"><ele>108.0</ele><time>2026-04-18T10:23:23.924Z</time></trkpt><trkpt lat="45.3918417" lon="10.7514133"><ele>108.0</ele><time>2026-04-18T10:23:25.909Z</time></trkpt><trkpt lat="45.3919067" lon="10.7515083"><ele>108.0</ele><time>2026-04-18T10:23:26.927Z</time></trkpt><trkpt lat="45.3919583" lon="10.7516183"><ele>108.00000000000001</ele><time>2026-04-18T10:23:27.915Z</time></trkpt><trkpt lat="45.3919967" lon="10.751745"><ele>108.00000000000001</ele><time>2026-04-18T10:23:28.913Z</time></trkpt><trkpt lat="45.3920217" lon="10.75188"><ele>108.0</ele><time>2026-04-18T10:23:29.927Z</time></trkpt><trkpt lat="45.3920433" lon="10.75201"><ele>108.0</ele><time>2026-04-18T10:23:30.973Z</time></trkpt><trkpt lat="45.3920567" lon="10.752145"><ele>108.2</ele><time>2026-04-18T10:23:31.929Z</time></trkpt><trkpt lat="45.392065" lon="10.75228"><ele>108.4</ele><time>2026-04-18T10:23:32.916Z</time></trkpt><trkpt lat="45.3920717" lon="10.7524383"><ele>108.60000000000001</ele><time>2026-04-18T10:23:33.907Z</time></trkpt><trkpt lat="45.3920567" lon="10.7525933"><ele>108.80000000000001</ele><time>2026-04-18T10:23:34.943Z</time></trkpt><trkpt lat="45.3920567" lon="10.7527333"><ele>109.0</ele><time>2026-04-18T10:23:35.918Z</time></trkpt><trkpt lat="45.3920433" lon="10.752875"><ele>108.6</ele><time>2026-04-18T10:23:36.943Z</time></trkpt><trkpt lat="45.392035" lon="10.7530133"><ele>108.2</ele><time>2026-04-18T10:23:37.923Z</time></trkpt><trkpt lat="45.3920667" lon="10.7531567"><ele>107.79999999999998</ele><time>2026-04-18T10:23:38.919Z</time></trkpt><trkpt lat="45.3920967" lon="10.753285"><ele>107.39999999999999</ele><time>2026-04-18T10:23:39.918Z</time></trkpt><trkpt lat="45.3921167" lon="10.7533983"><ele>107.0</ele><time>2026-04-18T10:23:40.91Z</time></trkpt><trkpt lat="45.3921083" lon="10.7535067"><ele>107.0</ele><time>2026-04-18T10:23:41.934Z</time></trkpt><trkpt lat="45.3920767" lon="10.753605"><ele>107.0</ele><time>2026-04-18T10:23:42.944Z</time></trkpt><trkpt lat="45.3920067" lon="10.7536933"><ele>107.0</ele><time>2026-04-18T10:23:43.949Z</time></trkpt><trkpt lat="45.391855" lon="10.753875"><ele>107.0</ele><time>2026-04-18T10:23:45.93Z</time></trkpt><trkpt lat="45.391775" lon="10.7539733"><ele>107.0</ele><time>2026-04-18T10:23:46.917Z</time></trkpt><trkpt lat="45.3916817" lon="10.7540617"><ele>107.0</ele><time>2026-04-18T10:23:47.909Z</time></trkpt><trkpt lat="45.3915917" lon="10.7541633"><ele>107.0</ele><time>2026-04-18T10:23:48.913Z</time></trkpt><trkpt lat="45.3915117" lon="10.7542617"><ele>107.0</ele><time>2026-04-18T10:23:49.907Z</time></trkpt><trkpt lat="45.3914133" lon="10.7543683"><ele>107.5</ele><time>2026-04-18T10:23:50.918Z</time></trkpt><trkpt lat="45.391325" lon="10.7544767"><ele>108.0</ele><time>2026-04-18T10:23:51.927Z</time></trkpt><trkpt lat="45.3912333" lon="10.75458"><ele>108.5</ele><time>2026-04-18T10:23:52.908Z</time></trkpt><trkpt lat="45.3911417" lon="10.75469"><ele>109.0</ele><time>2026-04-18T10:23:53.916Z</time></trkpt><trkpt lat="45.3910483" lon="10.75481"><ele>109.0</ele><time>2026-04-18T10:23:54.91Z</time></trkpt><trkpt lat="45.3909583" lon="10.7549117"><ele>109.0</ele><time>2026-04-18T10:23:55.93Z</time></trkpt><trkpt lat="45.39086" lon="10.7550117"><ele>109.0</ele><time>2026-04-18T10:23:56.905Z</time></trkpt><trkpt lat="45.39078" lon="10.7551067"><ele>109.0</ele><time>2026-04-18T10:23:57.914Z</time></trkpt><trkpt lat="45.390705" lon="10.75519"><ele>109.0</ele><time>2026-04-18T10:23:58.924Z</time></trkpt><trkpt lat="45.3906317" lon="10.7552733"><ele>108.83333333333334</ele><time>2026-04-18T10:23:59.918Z</time></trkpt><trkpt lat="45.39055" lon="10.75536"><ele>108.66666666666667</ele><time>2026-04-18T10:24:00.917Z</time></trkpt><trkpt lat="45.3904817" lon="10.7554367"><ele>108.5</ele><time>2026-04-18T10:24:01.947Z</time></trkpt><trkpt lat="45.390425" lon="10.7555117"><ele>108.33333333333334</ele><time>2026-04-18T10:24:02.922Z</time></trkpt><trkpt lat="45.3903583" lon="10.7556033"><ele>108.16666666666667</ele><time>2026-04-18T10:24:03.929Z</time></trkpt><trkpt lat="45.3903017" lon="10.7557033"><ele>108.0</ele><time>2026-04-18T10:24:04.935Z</time></trkpt><trkpt lat="45.3902467" lon="10.7558367"><ele>108.0</ele><time>2026-04-18T10:24:05.954Z</time></trkpt><trkpt lat="45.3902033" lon="10.7559917"><ele>108.00000000000001</ele><time>2026-04-18T10:24:06.917Z</time></trkpt><trkpt lat="45.39018" lon="10.7561233"><ele>108.00000000000001</ele><time>2026-04-18T10:24:07.919Z</time></trkpt><trkpt lat="45.39015" lon="10.7562583"><ele>108.0</ele><time>2026-04-18T10:24:08.919Z</time></trkpt><trkpt lat="45.3901317" lon="10.756395"><ele>108.0</ele><time>2026-04-18T10:24:09.905Z</time></trkpt><trkpt lat="45.3901117" lon="10.7565183"><ele>108.0</ele><time>2026-04-18T10:24:10.92Z</time></trkpt><trkpt lat="45.3900683" lon="10.75663"><ele>108.00000000000001</ele><time>2026-04-18T10:24:11.917Z</time></trkpt><trkpt lat="45.3900467" lon="10.7567533"><ele>108.00000000000001</ele><time>2026-04-18T10:24:12.919Z</time></trkpt><trkpt lat="45.390005" lon="10.75686"><ele>108.0</ele><time>2026-04-18T10:24:13.919Z</time></trkpt><trkpt lat="45.38994" lon="10.7569883"><ele>108.0</ele><time>2026-04-18T10:24:14.941Z</time></trkpt><trkpt lat="45.3898717" lon="10.7570883"><ele>108.16666666666667</ele><time>2026-04-18T10:24:15.921Z</time></trkpt><trkpt lat="45.3898" lon="10.75718"><ele>108.33333333333334</ele><time>2026-04-18T10:24:16.924Z</time></trkpt><trkpt lat="45.389735" lon="10.757285"><ele>108.5</ele><time>2026-04-18T10:24:17.915Z</time></trkpt><trkpt lat="45.38968" lon="10.7573783"><ele>108.66666666666667</ele><time>2026-04-18T10:24:18.909Z</time></trkpt><trkpt lat="45.3896317" lon="10.757455"><ele>108.83333333333334</ele><time>2026-04-18T10:24:19.925Z</time></trkpt><trkpt lat="45.3895833" lon="10.7575383"><ele>109.0</ele><time>2026-04-18T10:24:36.925Z</time></trkpt><trkpt lat="45.3895467" lon="10.757665"><ele>109.0</ele><time>2026-04-18T10:24:38.918Z</time></trkpt><trkpt lat="45.38952" lon="10.75776"><ele>109.0</ele><time>2026-04-18T10:24:39.908Z</time></trkpt><trkpt lat="45.3894917" lon="10.7578667"><ele>109.0</ele><time>2026-04-18T10:24:40.916Z</time></trkpt><trkpt lat="45.3894583" lon="10.7579883"><ele>109.0</ele><time>2026-04-18T10:24:41.911Z</time></trkpt><trkpt lat="45.3894217" lon="10.75811"><ele>109.0</ele><time>2026-04-18T10:24:42.912Z</time></trkpt><trkpt lat="45.3893683" lon="10.7582683"><ele>109.0</ele><time>2026-04-18T10:24:43.92Z</time></trkpt><trkpt lat="45.3893067" lon="10.758405"><ele>109.0</ele><time>2026-04-18T10:24:44.937Z</time></trkpt><trkpt lat="45.3892667" lon="10.7585733"><ele>109.0</ele><time>2026-04-18T10:24:45.915Z</time></trkpt><trkpt lat="45.3892383" lon="10.7587517"><ele>109.0</ele><time>2026-04-18T10:24:46.921Z</time></trkpt><trkpt lat="45.3892" lon="10.758945"><ele>108.75</ele><time>2026-04-18T10:24:47.917Z</time></trkpt><trkpt lat="45.3891567" lon="10.75914"><ele>108.5</ele><time>2026-04-18T10:24:48.91Z</time></trkpt><trkpt lat="45.3891167" lon="10.7593183"><ele>108.25</ele><time>2026-04-18T10:24:49.915Z</time></trkpt><trkpt lat="45.38907" lon="10.75951"><ele>108.0</ele><time>2026-04-18T10:24:50.931Z</time></trkpt><trkpt lat="45.3890167" lon="10.75967"><ele>108.0</ele><time>2026-04-18T10:24:51.91Z</time></trkpt><trkpt lat="45.3889483" lon="10.7598233"><ele>108.00000000000001</ele><time>2026-04-18T10:24:52.905Z</time></trkpt><trkpt lat="45.3888883" lon="10.7599467"><ele>108.00000000000001</ele><time>2026-04-18T10:24:53.925Z</time></trkpt><trkpt lat="45.3888183" lon="10.7600583"><ele>108.0</ele><time>2026-04-18T10:24:54.968Z</time></trkpt><trkpt lat="45.3887617" lon="10.7601617"><ele>108.0</ele><time>2026-04-18T10:24:55.923Z</time></trkpt><trkpt lat="45.3887083" lon="10.7602583"><ele>109.2</ele><time>2026-04-18T10:24:56.924Z</time></trkpt><trkpt lat="45.38866" lon="10.7603417"><ele>110.4</ele><time>2026-04-18T10:24:57.922Z</time></trkpt><trkpt lat="45.388615" lon="10.7604083"><ele>111.60000000000001</ele><time>2026-04-18T10:24:58.904Z</time></trkpt><trkpt lat="45.3885217" lon="10.760455"><ele>112.80000000000001</ele><time>2026-04-18T10:25:00.909Z</time></trkpt><trkpt lat="45.3883967" lon="10.76037"><ele>114.0</ele><time>2026-04-18T10:25:02.918Z</time></trkpt><trkpt lat="45.3883233" lon="10.7603"><ele>114.0</ele><time>2026-04-18T10:25:03.914Z</time></trkpt><trkpt lat="45.3882467" lon="10.76022"><ele>114.0</ele><time>2026-04-18T10:25:04.933Z</time></trkpt><trkpt lat="45.388155" lon="10.76012"><ele>114.0</ele><time>2026-04-18T10:25:05.919Z</time></trkpt><trkpt lat="45.3880867" lon="10.7599883"><ele>114.0</ele><time>2026-04-18T10:25:06.922Z</time></trkpt><trkpt lat="45.3880067" lon="10.75982"><ele>114.75</ele><time>2026-04-18T10:25:07.907Z</time></trkpt><trkpt lat="45.38793" lon="10.7596517"><ele>115.5</ele><time>2026-04-18T10:25:08.911Z</time></trkpt><trkpt lat="45.387835" lon="10.7594967"><ele>116.25</ele><time>2026-04-18T10:25:09.936Z</time></trkpt><trkpt lat="45.3877383" lon="10.7593267"><ele>117.0</ele><time>2026-04-18T10:25:10.911Z</time></trkpt><trkpt lat="45.3876383" lon="10.7591783"><ele>117.0</ele><time>2026-04-18T10:25:11.913Z</time></trkpt><trkpt lat="45.3875317" lon="10.7590483"><ele>117.0</ele><time>2026-04-18T10:25:12.909Z</time></trkpt><trkpt lat="45.3874167" lon="10.7589433"><ele>117.0</ele><time>2026-04-18T10:25:13.906Z</time></trkpt><trkpt lat="45.3872917" lon="10.7588517"><ele>117.0</ele><time>2026-04-18T10:25:14.911Z</time></trkpt><trkpt lat="45.38717" lon="10.7587617"><ele>119.75</ele><time>2026-04-18T10:25:15.931Z</time></trkpt><trkpt lat="45.387055" lon="10.7586683"><ele>122.5</ele><time>2026-04-18T10:25:16.942Z</time></trkpt><trkpt lat="45.3869517" lon="10.7586217"><ele>125.25</ele><time>2026-04-18T10:25:17.905Z</time></trkpt><trkpt lat="45.386835" lon="10.7585333"><ele>128.0</ele><time>2026-04-18T10:25:18.944Z</time></trkpt><trkpt lat="45.386755" lon="10.7584283"><ele>128.25</ele><time>2026-04-18T10:25:19.92Z</time></trkpt><trkpt lat="45.3866817" lon="10.7582933"><ele>128.5</ele><time>2026-04-18T10:25:20.939Z</time></trkpt><trkpt lat="45.3865967" lon="10.7581517"><ele>128.75</ele><time>2026-04-18T10:25:21.972Z</time></trkpt><trkpt lat="45.3865233" lon="10.7580133"><ele>129.0</ele><time>2026-04-18T10:25:22.915Z</time></trkpt><trkpt lat="45.3864517" lon="10.7578667"><ele>129.0</ele><time>2026-04-18T10:25:23.919Z</time></trkpt><trkpt lat="45.38638" lon="10.7577583"><ele>129.0</ele><time>2026-04-18T10:25:24.937Z</time></trkpt><trkpt lat="45.3863017" lon="10.7576433"><ele>129.0</ele><time>2026-04-18T10:25:25.932Z</time></trkpt><trkpt lat="45.3862233" lon="10.7575583"><ele>129.0</ele><time>2026-04-18T10:25:26.912Z</time></trkpt><trkpt lat="45.3861367" lon="10.7574567"><ele>129.0</ele><time>2026-04-18T10:25:27.93Z</time></trkpt><trkpt lat="45.3860467" lon="10.7573583"><ele>129.0</ele><time>2026-04-18T10:25:28.92Z</time></trkpt><trkpt lat="45.3859617" lon="10.7572617"><ele>129.0</ele><time>2026-04-18T10:25:29.927Z</time></trkpt><trkpt lat="45.3858833" lon="10.7571667"><ele>129.0</ele><time>2026-04-18T10:25:30.918Z</time></trkpt><trkpt lat="45.38582" lon="10.7570967"><ele>129.0</ele><time>2026-04-18T10:25:31.923Z</time></trkpt><trkpt lat="45.3857683" lon="10.7570317"><ele>129.0</ele><time>2026-04-18T10:25:32.913Z</time></trkpt><trkpt lat="45.38572" lon="10.7569483"><ele>129.0</ele><time>2026-04-18T10:25:33.934Z</time></trkpt><trkpt lat="45.385665" lon="10.7568617"><ele>129.6</ele><time>2026-04-18T10:25:34.907Z</time></trkpt><trkpt lat="45.3856083" lon="10.7567533"><ele>130.2</ele><time>2026-04-18T10:25:35.93Z</time></trkpt><trkpt lat="45.3855367" lon="10.7566283"><ele>130.79999999999998</ele><time>2026-04-18T10:25:36.904Z</time></trkpt><trkpt lat="45.38549" lon="10.7564983"><ele>131.4</ele><time>2026-04-18T10:25:37.907Z</time></trkpt><trkpt lat="45.3854217" lon="10.756385"><ele>132.0</ele><time>2026-04-18T10:25:38.92Z</time></trkpt><trkpt lat="45.3853733" lon="10.7562617"><ele>132.0</ele><time>2026-04-18T10:25:39.935Z</time></trkpt><trkpt lat="45.3853383" lon="10.7561417"><ele>132.0</ele><time>2026-04-18T10:25:40.939Z</time></trkpt><trkpt lat="45.3853083" lon="10.7560617"><ele>132.0</ele><time>2026-04-18T10:25:41.917Z</time></trkpt><trkpt lat="45.3852833" lon="10.7559683"><ele>132.0</ele><time>2026-04-18T10:25:49.913Z</time></trkpt><trkpt lat="45.3852783" lon="10.7560767"><ele>132.0</ele><time>2026-04-18T10:25:55.006Z</time></trkpt><trkpt lat="45.38534" lon="10.756175"><ele>132.0</ele><time>2026-04-18T10:25:56.94Z</time></trkpt><trkpt lat="45.385375" lon="10.75626"><ele>132.0</ele><time>2026-04-18T10:25:57.915Z</time></trkpt><trkpt lat="45.38541" lon="10.7563617"><ele>132.0</ele><time>2026-04-18T10:25:58.924Z</time></trkpt><trkpt lat="45.38545" lon="10.756475"><ele>132.0</ele><time>2026-04-18T10:25:59.935Z</time></trkpt><trkpt lat="45.385495" lon="10.75659"><ele>132.0</ele><time>2026-04-18T10:26:00.935Z</time></trkpt><trkpt lat="45.385545" lon="10.7567217"><ele>132.0</ele><time>2026-04-18T10:26:01.935Z</time></trkpt><trkpt lat="45.3855983" lon="10.7568383"><ele>131.57142857142856</ele><time>2026-04-18T10:26:02.982Z</time></trkpt><trkpt lat="45.38564" lon="10.7569417"><ele>131.14285714285714</ele><time>2026-04-18T10:26:03.944Z</time></trkpt><trkpt lat="45.3856833" lon="10.7570383"><ele>130.71428571428572</ele><time>2026-04-18T10:26:04.918Z</time></trkpt><trkpt lat="45.38572" lon="10.7571317"><ele>130.28571428571428</ele><time>2026-04-18T10:26:05.92Z</time></trkpt><trkpt lat="45.3857433" lon="10.7572267"><ele>129.85714285714286</ele><time>2026-04-18T10:26:06.95Z</time></trkpt><trkpt lat="45.38576" lon="10.75732"><ele>129.42857142857142</ele><time>2026-04-18T10:26:07.934Z</time></trkpt><trkpt lat="45.3857767" lon="10.7574183"><ele>129.0</ele><time>2026-04-18T10:26:08.91Z</time></trkpt><trkpt lat="45.385795" lon="10.7575233"><ele>129.0</ele><time>2026-04-18T10:26:09.919Z</time></trkpt><trkpt lat="45.3858133" lon="10.7576283"><ele>129.0</ele><time>2026-04-18T10:26:10.97Z</time></trkpt><trkpt lat="45.3858317" lon="10.7577317"><ele>129.0</ele><time>2026-04-18T10:26:11.912Z</time></trkpt><trkpt lat="45.3858417" lon="10.7578333"><ele>129.0</ele><time>2026-04-18T10:26:12.927Z</time></trkpt><trkpt lat="45.3858483" lon="10.757935"><ele>129.0</ele><time>2026-04-18T10:26:13.963Z</time></trkpt><trkpt lat="45.3858533" lon="10.7580267"><ele>129.0</ele><time>2026-04-18T10:26:14.919Z</time></trkpt><trkpt lat="45.385865" lon="10.7582633"><ele>128.66666666666666</ele><time>2026-04-18T10:26:17.952Z</time></trkpt><trkpt lat="45.3858617" lon="10.758415"><ele>128.33333333333334</ele><time>2026-04-18T10:26:19.934Z</time></trkpt><trkpt lat="45.3858583" lon="10.7585367"><ele>128.0</ele><time>2026-04-18T10:26:21.905Z</time></trkpt><trkpt lat="45.38589" lon="10.7586183"><ele>127.66666666666667</ele><time>2026-04-18T10:26:23.999Z</time></trkpt><trkpt lat="45.3859483" lon="10.7586767"><ele>127.33333333333334</ele><time>2026-04-18T10:26:25.92Z</time></trkpt><trkpt lat="45.3860217" lon="10.75875"><ele>127.0</ele><time>2026-04-18T10:26:27.939Z</time></trkpt><trkpt lat="45.38608" lon="10.758855"><ele>126.8</ele><time>2026-04-18T10:26:29.907Z</time></trkpt><trkpt lat="45.386165" lon="10.758955"><ele>126.6</ele><time>2026-04-18T10:26:31.912Z</time></trkpt><trkpt lat="45.386265" lon="10.7590167"><ele>126.39999999999999</ele><time>2026-04-18T10:26:33.914Z</time></trkpt><trkpt lat="45.386355" lon="10.75907"><ele>126.19999999999999</ele><time>2026-04-18T10:26:35.92Z</time></trkpt><trkpt lat="45.3864217" lon="10.7591317"><ele>126.0</ele><time>2026-04-18T10:26:37.913Z</time></trkpt><trkpt lat="45.3864717" lon="10.759215"><ele>126.33333333333333</ele><time>2026-04-18T10:26:39.911Z</time></trkpt><trkpt lat="45.3865067" lon="10.7593633"><ele>126.66666666666666</ele><time>2026-04-18T10:26:41.908Z</time></trkpt><trkpt lat="45.3865133" lon="10.75946"><ele>127.0</ele><time>2026-04-18T10:26:42.93Z</time></trkpt><trkpt lat="45.3865133" lon="10.759565"><ele>127.33333333333333</ele><time>2026-04-18T10:26:43.946Z</time></trkpt><trkpt lat="45.3865067" lon="10.7596733"><ele>127.66666666666666</ele><time>2026-04-18T10:26:44.959Z</time></trkpt><trkpt lat="45.3864967" lon="10.7597867"><ele>128.0</ele><time>2026-04-18T10:26:45.922Z</time></trkpt><trkpt lat="45.3864767" lon="10.7599017"><ele>128.0</ele><time>2026-04-18T10:26:46.943Z</time></trkpt><trkpt lat="45.3864533" lon="10.760025"><ele>128.0</ele><time>2026-04-18T10:26:47.918Z</time></trkpt><trkpt lat="45.386435" lon="10.7601417"><ele>128.0</ele><time>2026-04-18T10:26:48.925Z</time></trkpt><trkpt lat="45.3864217" lon="10.7602567"><ele>128.0</ele><time>2026-04-18T10:26:49.905Z</time></trkpt><trkpt lat="45.3864183" lon="10.76039"><ele>128.0</ele><time>2026-04-18T10:26:50.919Z</time></trkpt><trkpt lat="45.3864217" lon="10.7605433"><ele>127.25</ele><time>2026-04-18T10:26:51.926Z</time></trkpt><trkpt lat="45.3864267" lon="10.76071"><ele>126.5</ele><time>2026-04-18T10:26:52.932Z</time></trkpt><trkpt lat="45.3864183" lon="10.7608817"><ele>125.75</ele><time>2026-04-18T10:26:53.934Z</time></trkpt><trkpt lat="45.3864217" lon="10.7610583"><ele>125.0</ele><time>2026-04-18T10:26:54.918Z</time></trkpt><trkpt lat="45.3864317" lon="10.761235"><ele>124.75</ele><time>2026-04-18T10:26:55.916Z</time></trkpt><trkpt lat="45.3864483" lon="10.7614133"><ele>124.5</ele><time>2026-04-18T10:26:56.93Z</time></trkpt><trkpt lat="45.38646" lon="10.7615933"><ele>124.25</ele><time>2026-04-18T10:26:57.916Z</time></trkpt><trkpt lat="45.3864583" lon="10.7617533"><ele>124.0</ele><time>2026-04-18T10:26:58.909Z</time></trkpt><trkpt lat="45.3864583" lon="10.7619"><ele>124.00000000000001</ele><time>2026-04-18T10:26:59.915Z</time></trkpt><trkpt lat="45.3864633" lon="10.7620183"><ele>124.0</ele><time>2026-04-18T10:27:00.904Z</time></trkpt><trkpt lat="45.3864617" lon="10.7621267"><ele>124.0</ele><time>2026-04-18T10:27:01.951Z</time></trkpt><trkpt lat="45.3864667" lon="10.7622467"><ele>124.0</ele><time>2026-04-18T10:27:03.931Z</time></trkpt><trkpt lat="45.386395" lon="10.7623433"><ele>124.00000000000001</ele><time>2026-04-18T10:27:06.934Z</time></trkpt><trkpt lat="45.3863267" lon="10.76236"><ele>124.0</ele><time>2026-04-18T10:27:07.952Z</time></trkpt><trkpt lat="45.3862483" lon="10.7623833"><ele>123.4</ele><time>2026-04-18T10:27:08.93Z</time></trkpt><trkpt lat="45.386155" lon="10.7624233"><ele>122.80000000000001</ele><time>2026-04-18T10:27:09.908Z</time></trkpt><trkpt lat="45.386045" lon="10.7624733"><ele>122.19999999999999</ele><time>2026-04-18T10:27:10.962Z</time></trkpt><trkpt lat="45.3859217" lon="10.7625083"><ele>121.6</ele><time>2026-04-18T10:27:11.947Z</time></trkpt><trkpt lat="45.38583" lon="10.7625667"><ele>121.0</ele><time>2026-04-18T10:27:12.924Z</time></trkpt><trkpt lat="45.3857317" lon="10.7626933"><ele>121.25</ele><time>2026-04-18T10:27:13.92Z</time></trkpt><trkpt lat="45.3856583" lon="10.7628683"><ele>121.5</ele><time>2026-04-18T10:27:14.926Z</time></trkpt><trkpt lat="45.38563" lon="10.7630767"><ele>121.75</ele><time>2026-04-18T10:27:15.933Z</time></trkpt><trkpt lat="45.3855817" lon="10.7632617"><ele>122.0</ele><time>2026-04-18T10:27:16.919Z</time></trkpt><trkpt lat="45.385525" lon="10.7634733"><ele>122.75</ele><time>2026-04-18T10:27:17.924Z</time></trkpt><trkpt lat="45.38548" lon="10.7636583"><ele>123.5</ele><time>2026-04-18T10:27:18.918Z</time></trkpt><trkpt lat="45.3854233" lon="10.7638167"><ele>124.25</ele><time>2026-04-18T10:27:19.907Z</time></trkpt><trkpt lat="45.3853633" lon="10.7639733"><ele>125.0</ele><time>2026-04-18T10:27:20.94Z</time></trkpt><trkpt lat="45.38528" lon="10.76413"><ele>125.0</ele><time>2026-04-18T10:27:21.907Z</time></trkpt><trkpt lat="45.3851983" lon="10.7642883"><ele>125.0</ele><time>2026-04-18T10:27:22.909Z</time></trkpt><trkpt lat="45.3850983" lon="10.764465"><ele>125.0</ele><time>2026-04-18T10:27:23.925Z</time></trkpt><trkpt lat="45.38501" lon="10.764635"><ele>125.0</ele><time>2026-04-18T10:27:24.909Z</time></trkpt><trkpt lat="45.3848983" lon="10.7647967"><ele>124.75</ele><time>2026-04-18T10:27:25.916Z</time></trkpt><trkpt lat="45.38482" lon="10.7649417"><ele>124.5</ele><time>2026-04-18T10:27:26.925Z</time></trkpt><trkpt lat="45.3847417" lon="10.7650467"><ele>124.25</ele><time>2026-04-18T10:27:27.948Z</time></trkpt><trkpt lat="45.3846783" lon="10.7651767"><ele>124.0</ele><time>2026-04-18T10:27:28.92Z</time></trkpt><trkpt lat="45.3846133" lon="10.765335"><ele>126.75</ele><time>2026-04-18T10:27:29.918Z</time></trkpt><trkpt lat="45.384605" lon="10.7655383"><ele>129.5</ele><time>2026-04-18T10:27:30.921Z</time></trkpt><trkpt lat="45.3845633" lon="10.7657167"><ele>132.25</ele><time>2026-04-18T10:27:31.938Z</time></trkpt><trkpt lat="45.3845233" lon="10.76589"><ele>135.0</ele><time>2026-04-18T10:27:32.908Z</time></trkpt><trkpt lat="45.38448" lon="10.766035"><ele>135.0</ele><time>2026-04-18T10:27:33.935Z</time></trkpt><trkpt lat="45.3844183" lon="10.7661917"><ele>135.0</ele><time>2026-04-18T10:27:34.939Z</time></trkpt><trkpt lat="45.3843367" lon="10.766395"><ele>135.0</ele><time>2026-04-18T10:27:35.924Z</time></trkpt><trkpt lat="45.3842733" lon="10.766555"><ele>135.0</ele><time>2026-04-18T10:27:36.937Z</time></trkpt><trkpt lat="45.38422" lon="10.7666967"><ele>134.6</ele><time>2026-04-18T10:27:37.919Z</time></trkpt><trkpt lat="45.3841417" lon="10.76688"><ele>134.2</ele><time>2026-04-18T10:27:38.944Z</time></trkpt><trkpt lat="45.3840867" lon="10.7669383"><ele>133.8</ele><time>2026-04-18T10:27:39.924Z</time></trkpt><trkpt lat="45.384035" lon="10.7670417"><ele>133.4</ele><time>2026-04-18T10:27:40.911Z</time></trkpt><trkpt lat="45.38399" lon="10.7671667"><ele>133.0</ele><time>2026-04-18T10:27:41.917Z</time></trkpt><trkpt lat="45.3839483" lon="10.7672817"><ele>133.0</ele><time>2026-04-18T10:27:42.912Z</time></trkpt><trkpt lat="45.3838967" lon="10.767385"><ele>133.0</ele><time>2026-04-18T10:27:43.925Z</time></trkpt><trkpt lat="45.3838533" lon="10.7674883"><ele>133.0</ele><time>2026-04-18T10:27:44.912Z</time></trkpt><trkpt lat="45.3838017" lon="10.767565"><ele>133.0</ele><time>2026-04-18T10:27:45.93Z</time></trkpt><trkpt lat="45.3837333" lon="10.76764"><ele>133.0</ele><time>2026-04-18T10:27:46.923Z</time></trkpt><trkpt lat="45.38366" lon="10.7677217"><ele>133.0</ele><time>2026-04-18T10:27:47.933Z</time></trkpt><trkpt lat="45.3835833" lon="10.7678033"><ele>132.4</ele><time>2026-04-18T10:27:48.937Z</time></trkpt><trkpt lat="45.38351" lon="10.7678767"><ele>131.8</ele><time>2026-04-18T10:27:49.916Z</time></trkpt><trkpt lat="45.38345" lon="10.767975"><ele>131.2</ele><time>2026-04-18T10:27:50.941Z</time></trkpt><trkpt lat="45.3833883" lon="10.7680683"><ele>130.6</ele><time>2026-04-18T10:27:51.922Z</time></trkpt><trkpt lat="45.38334" lon="10.76824"><ele>130.0</ele><time>2026-04-18T10:27:52.939Z</time></trkpt><trkpt lat="45.3833083" lon="10.7684033"><ele>129.25</ele><time>2026-04-18T10:27:53.922Z</time></trkpt><trkpt lat="45.3832833" lon="10.7685883"><ele>128.5</ele><time>2026-04-18T10:27:54.941Z</time></trkpt><trkpt lat="45.3832467" lon="10.76878"><ele>127.75</ele><time>2026-04-18T10:27:55.937Z</time></trkpt><trkpt lat="45.383215" lon="10.7689467"><ele>127.0</ele><time>2026-04-18T10:27:56.928Z</time></trkpt><trkpt lat="45.3831783" lon="10.7691017"><ele>127.0</ele><time>2026-04-18T10:27:57.938Z</time></trkpt><trkpt lat="45.3831583" lon="10.7692467"><ele>126.99999999999999</ele><time>2026-04-18T10:27:58.913Z</time></trkpt><trkpt lat="45.3831233" lon="10.7693667"><ele>126.99999999999999</ele><time>2026-04-18T10:27:59.913Z</time></trkpt><trkpt lat="45.3830817" lon="10.7695033"><ele>127.0</ele><time>2026-04-18T10:28:00.926Z</time></trkpt><trkpt lat="45.383035" lon="10.7696467"><ele>127.0</ele><time>2026-04-18T10:28:01.924Z</time></trkpt><trkpt lat="45.3829633" lon="10.769745"><ele>124.33333333333334</ele><time>2026-04-18T10:28:02.915Z</time></trkpt><trkpt lat="45.3828767" lon="10.7698333"><ele>121.66666666666667</ele><time>2026-04-18T10:28:03.907Z</time></trkpt><trkpt lat="45.3827917" lon="10.769905"><ele>119.0</ele><time>2026-04-18T10:28:04.92Z</time></trkpt><trkpt lat="45.38273" lon="10.7699633"><ele>116.33333333333334</ele><time>2026-04-18T10:28:05.931Z</time></trkpt><trkpt lat="45.3826767" lon="10.7700117"><ele>113.66666666666667</ele><time>2026-04-18T10:28:06.917Z</time></trkpt><trkpt lat="45.3826167" lon="10.7700717"><ele>111.0</ele><time>2026-04-18T10:28:09.953Z</time></trkpt><trkpt lat="45.3826367" lon="10.7701583"><ele>110.75</ele><time>2026-04-18T10:28:11.908Z</time></trkpt><trkpt lat="45.38267" lon="10.770235"><ele>110.5</ele><time>2026-04-18T10:28:12.907Z</time></trkpt><trkpt lat="45.382715" lon="10.7703333"><ele>110.25</ele><time>2026-04-18T10:28:13.939Z</time></trkpt><trkpt lat="45.3827683" lon="10.770445"><ele>110.0</ele><time>2026-04-18T10:28:14.95Z</time></trkpt><trkpt lat="45.382935" lon="10.7706917"><ele>110.0</ele><time>2026-04-18T10:28:16.924Z</time></trkpt><trkpt lat="45.38301" lon="10.7708583"><ele>110.0</ele><time>2026-04-18T10:28:17.918Z</time></trkpt><trkpt lat="45.3831" lon="10.771025"><ele>110.0</ele><time>2026-04-18T10:28:18.937Z</time></trkpt><trkpt lat="45.3831867" lon="10.7711783"><ele>110.0</ele><time>2026-04-18T10:28:19.949Z</time></trkpt><trkpt lat="45.38326" lon="10.7713383"><ele>110.0</ele><time>2026-04-18T10:28:20.934Z</time></trkpt><trkpt lat="45.3833467" lon="10.7714767"><ele>110.0</ele><time>2026-04-18T10:28:21.905Z</time></trkpt><trkpt lat="45.3834533" lon="10.77162"><ele>110.0</ele><time>2026-04-18T10:28:22.94Z</time></trkpt><trkpt lat="45.3835683" lon="10.77174"><ele>110.0</ele><time>2026-04-18T10:28:23.912Z</time></trkpt><trkpt lat="45.383685" lon="10.77186"><ele>110.0</ele><time>2026-04-18T10:28:24.917Z</time></trkpt><trkpt lat="45.3838" lon="10.7719917"><ele>110.0</ele><time>2026-04-18T10:28:25.938Z</time></trkpt><trkpt lat="45.3839217" lon="10.7721283"><ele>110.0</ele><time>2026-04-18T10:28:26.904Z</time></trkpt><trkpt lat="45.38405" lon="10.77227"><ele>112.33333333333333</ele><time>2026-04-18T10:28:27.911Z</time></trkpt><trkpt lat="45.384185" lon="10.7724117"><ele>114.66666666666666</ele><time>2026-04-18T10:28:28.921Z</time></trkpt><trkpt lat="45.3843133" lon="10.7725267"><ele>117.0</ele><time>2026-04-18T10:28:29.909Z</time></trkpt><trkpt lat="45.3844233" lon="10.7726433"><ele>117.0</ele><time>2026-04-18T10:28:30.993Z</time></trkpt><trkpt lat="45.3845183" lon="10.7727717"><ele>116.99999999999999</ele><time>2026-04-18T10:28:31.911Z</time></trkpt><trkpt lat="45.3846067" lon="10.7728533"><ele>116.99999999999999</ele><time>2026-04-18T10:28:32.943Z</time></trkpt><trkpt lat="45.3846933" lon="10.7729383"><ele>117.0</ele><time>2026-04-18T10:28:33.923Z</time></trkpt><trkpt lat="45.384775" lon="10.7730067"><ele>117.0</ele><time>2026-04-18T10:28:34.929Z</time></trkpt><trkpt lat="45.3848517" lon="10.7730533"><ele>117.0</ele><time>2026-04-18T10:28:35.909Z</time></trkpt><trkpt lat="45.384935" lon="10.773085"><ele>117.0</ele><time>2026-04-18T10:28:36.91Z</time></trkpt><trkpt lat="45.3850217" lon="10.7731117"><ele>117.0</ele><time>2026-04-18T10:28:37.956Z</time></trkpt><trkpt lat="45.3851067" lon="10.7731333"><ele>117.0</ele><time>2026-04-18T10:28:38.912Z</time></trkpt><trkpt lat="45.3851883" lon="10.7731533"><ele>117.0</ele><time>2026-04-18T10:28:39.938Z</time></trkpt><trkpt lat="45.3852733" lon="10.7731683"><ele>117.0</ele><time>2026-04-18T10:28:40.92Z</time></trkpt><trkpt lat="45.3853583" lon="10.7731783"><ele>117.0</ele><time>2026-04-18T10:28:41.912Z</time></trkpt><trkpt lat="45.3854567" lon="10.7732083"><ele>117.0</ele><time>2026-04-18T10:28:42.937Z</time></trkpt><trkpt lat="45.38554" lon="10.773235"><ele>117.0</ele><time>2026-04-18T10:28:43.937Z</time></trkpt><trkpt lat="45.3856167" lon="10.7732967"><ele>117.0</ele><time>2026-04-18T10:28:44.934Z</time></trkpt><trkpt lat="45.3856883" lon="10.7733633"><ele>117.0</ele><time>2026-04-18T10:28:45.913Z</time></trkpt><trkpt lat="45.38575" lon="10.7734533"><ele>117.0</ele><time>2026-04-18T10:28:46.917Z</time></trkpt><trkpt lat="45.3858" lon="10.7735483"><ele>117.39999999999999</ele><time>2026-04-18T10:28:47.924Z</time></trkpt><trkpt lat="45.3858617" lon="10.77363"><ele>117.79999999999998</ele><time>2026-04-18T10:28:48.913Z</time></trkpt><trkpt lat="45.38593" lon="10.773705"><ele>118.2</ele><time>2026-04-18T10:28:49.944Z</time></trkpt><trkpt lat="45.3860233" lon="10.7737667"><ele>118.6</ele><time>2026-04-18T10:28:50.915Z</time></trkpt><trkpt lat="45.386135" lon="10.773835"><ele>119.0</ele><time>2026-04-18T10:28:51.939Z</time></trkpt><trkpt lat="45.3862417" lon="10.7738967"><ele>119.0</ele><time>2026-04-18T10:28:52.925Z</time></trkpt><trkpt lat="45.38634" lon="10.77398"><ele>119.0</ele><time>2026-04-18T10:28:53.918Z</time></trkpt><trkpt lat="45.3864117" lon="10.77408"><ele>119.0</ele><time>2026-04-18T10:28:54.929Z</time></trkpt><trkpt lat="45.3864767" lon="10.7741817"><ele>119.0</ele><time>2026-04-18T10:28:55.931Z</time></trkpt><trkpt lat="45.386565" lon="10.774285"><ele>119.0</ele><time>2026-04-18T10:28:56.914Z</time></trkpt><trkpt lat="45.386615" lon="10.7743633"><ele>119.4</ele><time>2026-04-18T10:28:57.922Z</time></trkpt><trkpt lat="45.3866867" lon="10.7744183"><ele>119.80000000000001</ele><time>2026-04-18T10:28:58.91Z</time></trkpt><trkpt lat="45.3867533" lon="10.774505"><ele>120.19999999999999</ele><time>2026-04-18T10:28:59.915Z</time></trkpt><trkpt lat="45.3868233" lon="10.7745933"><ele>120.6</ele><time>2026-04-18T10:29:00.918Z</time></trkpt><trkpt lat="45.3868867" lon="10.7747"><ele>121.0</ele><time>2026-04-18T10:29:01.908Z</time></trkpt><trkpt lat="45.38695" lon="10.7748067"><ele>121.0</ele><time>2026-04-18T10:29:02.918Z</time></trkpt><trkpt lat="45.3870317" lon="10.7749117"><ele>121.0</ele><time>2026-04-18T10:29:03.92Z</time></trkpt><trkpt lat="45.3871117" lon="10.775015"><ele>121.0</ele><time>2026-04-18T10:29:04.927Z</time></trkpt><trkpt lat="45.3871667" lon="10.77512"><ele>121.0</ele><time>2026-04-18T10:29:05.917Z</time></trkpt><trkpt lat="45.3872217" lon="10.77522"><ele>121.0</ele><time>2026-04-18T10:29:06.933Z</time></trkpt><trkpt lat="45.3873" lon="10.7753217"><ele>121.19999999999999</ele><time>2026-04-18T10:29:07.908Z</time></trkpt><trkpt lat="45.3873917" lon="10.77541"><ele>121.39999999999999</ele><time>2026-04-18T10:29:08.924Z</time></trkpt><trkpt lat="45.38749" lon="10.7754917"><ele>121.6</ele><time>2026-04-18T10:29:09.917Z</time></trkpt><trkpt lat="45.387565" lon="10.7755367"><ele>121.8</ele><time>2026-04-18T10:29:10.924Z</time></trkpt><trkpt lat="45.3876367" lon="10.7756433"><ele>122.0</ele><time>2026-04-18T10:29:11.914Z</time></trkpt><trkpt lat="45.3877567" lon="10.7757133"><ele>122.0</ele><time>2026-04-18T10:29:12.92Z</time></trkpt><trkpt lat="45.3878533" lon="10.77578"><ele>121.99999999999999</ele><time>2026-04-18T10:29:13.921Z</time></trkpt><trkpt lat="45.3879367" lon="10.7758717"><ele>121.99999999999999</ele><time>2026-04-18T10:29:14.923Z</time></trkpt><trkpt lat="45.388" lon="10.77597"><ele>122.0</ele><time>2026-04-18T10:29:15.919Z</time></trkpt><trkpt lat="45.3880633" lon="10.7760617"><ele>122.0</ele><time>2026-04-18T10:29:16.918Z</time></trkpt><trkpt lat="45.3881283" lon="10.7761417"><ele>121.6</ele><time>2026-04-18T10:29:17.931Z</time></trkpt><trkpt lat="45.3881917" lon="10.7762433"><ele>121.19999999999999</ele><time>2026-04-18T10:29:18.915Z</time></trkpt><trkpt lat="45.3882583" lon="10.7763533"><ele>120.8</ele><time>2026-04-18T10:29:19.914Z</time></trkpt><trkpt lat="45.388335" lon="10.776485"><ele>120.4</ele><time>2026-04-18T10:29:20.937Z</time></trkpt><trkpt lat="45.3884033" lon="10.7766117"><ele>120.0</ele><time>2026-04-18T10:29:21.918Z</time></trkpt><trkpt lat="45.3884583" lon="10.7767383"><ele>117.2</ele><time>2026-04-18T10:29:22.941Z</time></trkpt><trkpt lat="45.38851" lon="10.7768683"><ele>114.4</ele><time>2026-04-18T10:29:23.914Z</time></trkpt><trkpt lat="45.388575" lon="10.7770067"><ele>111.6</ele><time>2026-04-18T10:29:24.937Z</time></trkpt><trkpt lat="45.3886417" lon="10.777145"><ele>108.8</ele><time>2026-04-18T10:29:25.916Z</time></trkpt><trkpt lat="45.3886967" lon="10.7772667"><ele>106.0</ele><time>2026-04-18T10:29:26.924Z</time></trkpt><trkpt lat="45.3887417" lon="10.7773933"><ele>106.0</ele><time>2026-04-18T10:29:27.911Z</time></trkpt><trkpt lat="45.3887867" lon="10.7775433"><ele>106.0</ele><time>2026-04-18T10:29:28.945Z</time></trkpt><trkpt lat="45.3888033" lon="10.7776783"><ele>106.0</ele><time>2026-04-18T10:29:29.911Z</time></trkpt><trkpt lat="45.3888267" lon="10.7778083"><ele>106.0</ele><time>2026-04-18T10:29:30.932Z</time></trkpt><trkpt lat="45.3888483" lon="10.7779233"><ele>106.0</ele><time>2026-04-18T10:29:31.947Z</time></trkpt><trkpt lat="45.3888833" lon="10.7780117"><ele>106.83333333333334</ele><time>2026-04-18T10:29:32.952Z</time></trkpt><trkpt lat="45.38892" lon="10.7780967"><ele>107.66666666666667</ele><time>2026-04-18T10:29:33.939Z</time></trkpt><trkpt lat="45.38901" lon="10.778175"><ele>108.5</ele><time>2026-04-18T10:29:35.938Z</time></trkpt><trkpt lat="45.389075" lon="10.7782133"><ele>109.33333333333334</ele><time>2026-04-18T10:29:36.916Z</time></trkpt><trkpt lat="45.3891583" lon="10.77825"><ele>110.16666666666667</ele><time>2026-04-18T10:29:37.918Z</time></trkpt><trkpt lat="45.3892533" lon="10.7782933"><ele>111.0</ele><time>2026-04-18T10:29:38.912Z</time></trkpt><trkpt lat="45.3893633" lon="10.7783383"><ele>111.0</ele><time>2026-04-18T10:29:39.914Z</time></trkpt><trkpt lat="45.3894633" lon="10.7783833"><ele>111.0</ele><time>2026-04-18T10:29:40.908Z</time></trkpt><trkpt lat="45.38956" lon="10.7784583"><ele>111.0</ele><time>2026-04-18T10:29:41.961Z</time></trkpt><trkpt lat="45.3896467" lon="10.7785067"><ele>111.0</ele><time>2026-04-18T10:29:42.943Z</time></trkpt><trkpt lat="45.3897533" lon="10.7785967"><ele>111.0</ele><time>2026-04-18T10:29:43.915Z</time></trkpt><trkpt lat="45.3898483" lon="10.7786567"><ele>110.5</ele><time>2026-04-18T10:29:44.91Z</time></trkpt><trkpt lat="45.3899433" lon="10.7787183"><ele>110.0</ele><time>2026-04-18T10:29:45.92Z</time></trkpt><trkpt lat="45.3900367" lon="10.7787867"><ele>109.5</ele><time>2026-04-18T10:29:46.925Z</time></trkpt><trkpt lat="45.39022" lon="10.7789"><ele>109.0</ele><time>2026-04-18T10:29:48.907Z</time></trkpt><trkpt lat="45.3902883" lon="10.778945"><ele>109.00000000000001</ele><time>2026-04-18T10:29:49.922Z</time></trkpt><trkpt lat="45.3903917" lon="10.779"><ele>109.0</ele><time>2026-04-18T10:29:51.925Z</time></trkpt><trkpt lat="45.3904617" lon="10.7789183"><ele>109.0</ele><time>2026-04-18T10:29:53.911Z</time></trkpt><trkpt lat="45.390475" lon="10.778825"><ele>109.0</ele><time>2026-04-18T10:29:54.935Z</time></trkpt><trkpt lat="45.3904867" lon="10.7787133"><ele>109.00000000000001</ele><time>2026-04-18T10:29:55.91Z</time></trkpt><trkpt lat="45.3905033" lon="10.7785867"><ele>109.0</ele><time>2026-04-18T10:29:56.936Z</time></trkpt><trkpt lat="45.39053" lon="10.7784583"><ele>110.00000000000001</ele><time>2026-04-18T10:29:57.921Z</time></trkpt><trkpt lat="45.390555" lon="10.7783117"><ele>111.0</ele><time>2026-04-18T10:29:58.909Z</time></trkpt><trkpt lat="45.3905933" lon="10.7781983"><ele>112.0</ele><time>2026-04-18T10:29:59.908Z</time></trkpt><trkpt lat="45.3906183" lon="10.7781033"><ele>113.0</ele><time>2026-04-18T10:30:00.95Z</time></trkpt><trkpt lat="45.3906417" lon="10.77802"><ele>114.00000000000001</ele><time>2026-04-18T10:30:01.924Z</time></trkpt><trkpt lat="45.3906767" lon="10.7779433"><ele>115.0</ele><time>2026-04-18T10:30:02.941Z</time></trkpt><trkpt lat="45.3907283" lon="10.77788"><ele>115.00000000000001</ele><time>2026-04-18T10:30:03.928Z</time></trkpt><trkpt lat="45.3907867" lon="10.7778167"><ele>115.0</ele><time>2026-04-18T10:30:04.921Z</time></trkpt><trkpt lat="45.3909117" lon="10.7776867"><ele>115.0</ele><time>2026-04-18T10:30:06.943Z</time></trkpt><trkpt lat="45.3909617" lon="10.7776217"><ele>115.0</ele><time>2026-04-18T10:30:07.925Z</time></trkpt><trkpt lat="45.391" lon="10.777545"><ele>115.00000000000001</ele><time>2026-04-18T10:30:08.91Z</time></trkpt><trkpt lat="45.39103" lon="10.7774583"><ele>115.0</ele><time>2026-04-18T10:30:09.916Z</time></trkpt><trkpt lat="45.3910517" lon="10.77737"><ele>114.83333333333334</ele><time>2026-04-18T10:30:10.932Z</time></trkpt><trkpt lat="45.39107" lon="10.7772767"><ele>114.66666666666667</ele><time>2026-04-18T10:30:11.932Z</time></trkpt><trkpt lat="45.3910783" lon="10.77717"><ele>114.5</ele><time>2026-04-18T10:30:12.905Z</time></trkpt><trkpt lat="45.391075" lon="10.777045"><ele>114.33333333333334</ele><time>2026-04-18T10:30:13.952Z</time></trkpt><trkpt lat="45.3910667" lon="10.7769167"><ele>114.16666666666667</ele><time>2026-04-18T10:30:14.906Z</time></trkpt><trkpt lat="45.39104" lon="10.7767917"><ele>114.0</ele><time>2026-04-18T10:30:15.913Z</time></trkpt><trkpt lat="45.3909983" lon="10.7766783"><ele>114.0</ele><time>2026-04-18T10:30:16.915Z</time></trkpt><trkpt lat="45.39094" lon="10.7765567"><ele>114.0</ele><time>2026-04-18T10:30:17.925Z</time></trkpt><trkpt lat="45.39087" lon="10.7764583"><ele>114.0</ele><time>2026-04-18T10:30:18.927Z</time></trkpt><trkpt lat="45.3908033" lon="10.7763567"><ele>114.0</ele><time>2026-04-18T10:30:19.939Z</time></trkpt><trkpt lat="45.3907367" lon="10.7762667"><ele>114.0</ele><time>2026-04-18T10:30:20.919Z</time></trkpt><trkpt lat="45.39068" lon="10.7761983"><ele>114.0</ele><time>2026-04-18T10:30:21.905Z</time></trkpt><trkpt lat="45.39063" lon="10.7761217"><ele>114.0</ele><time>2026-04-18T10:30:22.923Z</time></trkpt><trkpt lat="45.3905917" lon="10.7760383"><ele>114.0</ele><time>2026-04-18T10:30:23.957Z</time></trkpt><trkpt lat="45.3905867" lon="10.7759433"><ele>114.0</ele><time>2026-04-18T10:30:24.929Z</time></trkpt><trkpt lat="45.3905967" lon="10.7758333"><ele>114.0</ele><time>2026-04-18T10:30:25.911Z</time></trkpt><trkpt lat="45.3906167" lon="10.7757067"><ele>114.0</ele><time>2026-04-18T10:30:26.938Z</time></trkpt><trkpt lat="45.3906267" lon="10.7755683"><ele>112.2</ele><time>2026-04-18T10:30:27.92Z</time></trkpt><trkpt lat="45.3906233" lon="10.7754383"><ele>110.4</ele><time>2026-04-18T10:30:28.919Z</time></trkpt><trkpt lat="45.3906067" lon="10.77529"><ele>108.6</ele><time>2026-04-18T10:30:29.96Z</time></trkpt><trkpt lat="45.3906033" lon="10.7751683"><ele>106.8</ele><time>2026-04-18T10:30:30.942Z</time></trkpt><trkpt lat="45.3906117" lon="10.7750417"><ele>105.0</ele><time>2026-04-18T10:30:31.913Z</time></trkpt><trkpt lat="45.390615" lon="10.7749083"><ele>104.8</ele><time>2026-04-18T10:30:32.93Z</time></trkpt><trkpt lat="45.3906083" lon="10.7747883"><ele>104.6</ele><time>2026-04-18T10:30:33.917Z</time></trkpt><trkpt lat="45.3906017" lon="10.77466"><ele>104.4</ele><time>2026-04-18T10:30:34.912Z</time></trkpt><trkpt lat="45.3905683" lon="10.7745267"><ele>104.2</ele><time>2026-04-18T10:30:35.908Z</time></trkpt><trkpt lat="45.39052" lon="10.7744"><ele>104.0</ele><time>2026-04-18T10:30:36.92Z</time></trkpt><trkpt lat="45.3904767" lon="10.77424"><ele>104.80000000000001</ele><time>2026-04-18T10:30:37.908Z</time></trkpt><trkpt lat="45.39043" lon="10.774085"><ele>105.60000000000001</ele><time>2026-04-18T10:30:38.937Z</time></trkpt><trkpt lat="45.39039" lon="10.773935"><ele>106.4</ele><time>2026-04-18T10:30:39.935Z</time></trkpt><trkpt lat="45.39037" lon="10.7737817"><ele>107.2</ele><time>2026-04-18T10:30:40.919Z</time></trkpt><trkpt lat="45.3903733" lon="10.773665"><ele>108.0</ele><time>2026-04-18T10:30:41.915Z</time></trkpt><trkpt lat="45.3904383" lon="10.7735317"><ele>106.0</ele><time>2026-04-18T10:30:43.913Z</time></trkpt><trkpt lat="45.3905733" lon="10.7734567"><ele>104.00000000000001</ele><time>2026-04-18T10:30:45.909Z</time></trkpt><trkpt lat="45.3906517" lon="10.773425"><ele>102.0</ele><time>2026-04-18T10:30:46.931Z</time></trkpt><trkpt lat="45.3907267" lon="10.773385"><ele>100.0</ele><time>2026-04-18T10:30:47.953Z</time></trkpt><trkpt lat="45.3908" lon="10.7733367"><ele>98.0</ele><time>2026-04-18T10:30:48.922Z</time></trkpt><trkpt lat="45.3908783" lon="10.773285"><ele>98.0</ele><time>2026-04-18T10:30:49.942Z</time></trkpt><trkpt lat="45.3909617" lon="10.773225"><ele>98.0</ele><time>2026-04-18T10:30:50.936Z</time></trkpt><trkpt lat="45.39106" lon="10.7731633"><ele>98.0</ele><time>2026-04-18T10:30:51.916Z</time></trkpt><trkpt lat="45.3911733" lon="10.7730683"><ele>98.0</ele><time>2026-04-18T10:30:52.939Z</time></trkpt><trkpt lat="45.3912517" lon="10.773"><ele>98.0</ele><time>2026-04-18T10:30:53.909Z</time></trkpt><trkpt lat="45.3913317" lon="10.772875"><ele>95.66666666666666</ele><time>2026-04-18T10:30:54.917Z</time></trkpt><trkpt lat="45.3914533" lon="10.7727333"><ele>93.33333333333333</ele><time>2026-04-18T10:30:55.921Z</time></trkpt><trkpt lat="45.3915583" lon="10.7726433"><ele>91.0</ele><time>2026-04-18T10:30:56.934Z</time></trkpt><trkpt lat="45.3917483" lon="10.772465"><ele>90.0</ele><time>2026-04-18T10:30:58.942Z</time></trkpt><trkpt lat="45.3918283" lon="10.7723817"><ele>89.0</ele><time>2026-04-18T10:30:59.932Z</time></trkpt><trkpt lat="45.39191" lon="10.77228"><ele>88.0</ele><time>2026-04-18T10:31:00.934Z</time></trkpt><trkpt lat="45.392055" lon="10.7720833"><ele>87.0</ele><time>2026-04-18T10:31:02.944Z</time></trkpt><trkpt lat="45.3921367" lon="10.7719633"><ele>86.8</ele><time>2026-04-18T10:31:03.91Z</time></trkpt><trkpt lat="45.3921983" lon="10.7718667"><ele>86.6</ele><time>2026-04-18T10:31:04.916Z</time></trkpt><trkpt lat="45.3922633" lon="10.7717867"><ele>86.39999999999999</ele><time>2026-04-18T10:31:05.919Z</time></trkpt><trkpt lat="45.39235" lon="10.7717233"><ele>86.19999999999999</ele><time>2026-04-18T10:31:06.925Z</time></trkpt><trkpt lat="45.3924317" lon="10.771655"><ele>86.0</ele><time>2026-04-18T10:31:07.921Z</time></trkpt><trkpt lat="45.3925167" lon="10.771595"><ele>86.0</ele><time>2026-04-18T10:31:08.922Z</time></trkpt><trkpt lat="45.3925733" lon="10.7715183"><ele>86.0</ele><time>2026-04-18T10:31:09.917Z</time></trkpt><trkpt lat="45.39261" lon="10.771415"><ele>86.0</ele><time>2026-04-18T10:31:10.923Z</time></trkpt><trkpt lat="45.3926317" lon="10.7712933"><ele>86.0</ele><time>2026-04-18T10:31:11.939Z</time></trkpt><trkpt lat="45.39261" lon="10.7711483"><ele>86.0</ele><time>2026-04-18T10:31:12.91Z</time></trkpt><trkpt lat="45.3925933" lon="10.771015"><ele>86.0</ele><time>2026-04-18T10:31:13.916Z</time></trkpt><trkpt lat="45.3925567" lon="10.7708633"><ele>85.8</ele><time>2026-04-18T10:31:14.917Z</time></trkpt><trkpt lat="45.3925283" lon="10.7707283"><ele>85.6</ele><time>2026-04-18T10:31:15.924Z</time></trkpt><trkpt lat="45.3924983" lon="10.7705867"><ele>85.4</ele><time>2026-04-18T10:31:16.907Z</time></trkpt><trkpt lat="45.39249" lon="10.7704767"><ele>85.2</ele><time>2026-04-18T10:31:17.909Z</time></trkpt><trkpt lat="45.3925333" lon="10.7703333"><ele>85.0</ele><time>2026-04-18T10:31:19.918Z</time></trkpt><trkpt lat="45.3926383" lon="10.7702533"><ele>85.0</ele><time>2026-04-18T10:31:21.92Z</time></trkpt><trkpt lat="45.3927017" lon="10.7702317"><ele>85.0</ele><time>2026-04-18T10:31:22.907Z</time></trkpt><trkpt lat="45.39279" lon="10.77023"><ele>85.0</ele><time>2026-04-18T10:31:23.919Z</time></trkpt><trkpt lat="45.3928967" lon="10.77024"><ele>85.0</ele><time>2026-04-18T10:31:24.91Z</time></trkpt><trkpt lat="45.393" lon="10.7702467"><ele>85.0</ele><time>2026-04-18T10:31:25.95Z</time></trkpt><trkpt lat="45.3931067" lon="10.7702533"><ele>85.5</ele><time>2026-04-18T10:31:26.909Z</time></trkpt><trkpt lat="45.3932333" lon="10.7702683"><ele>86.0</ele><time>2026-04-18T10:31:27.936Z</time></trkpt><trkpt lat="45.3933533" lon="10.7702783"><ele>86.5</ele><time>2026-04-18T10:31:28.904Z</time></trkpt><trkpt lat="45.3934833" lon="10.77028"><ele>87.0</ele><time>2026-04-18T10:31:29.928Z</time></trkpt><trkpt lat="45.3935917" lon="10.770325"><ele>87.0</ele><time>2026-04-18T10:31:30.932Z</time></trkpt><trkpt lat="45.3937133" lon="10.7703683"><ele>87.0</ele><time>2026-04-18T10:31:31.906Z</time></trkpt><trkpt lat="45.39384" lon="10.7704"><ele>87.0</ele><time>2026-04-18T10:31:32.922Z</time></trkpt><trkpt lat="45.3939733" lon="10.7704467"><ele>87.0</ele><time>2026-04-18T10:31:33.933Z</time></trkpt><trkpt lat="45.3940833" lon="10.77051"><ele>89.0</ele><time>2026-04-18T10:31:34.909Z</time></trkpt><trkpt lat="45.3942183" lon="10.7706083"><ele>91.0</ele><time>2026-04-18T10:31:35.91Z</time></trkpt><trkpt lat="45.394325" lon="10.77071"><ele>93.0</ele><time>2026-04-18T10:31:36.919Z</time></trkpt><trkpt lat="45.39444" lon="10.7708267"><ele>95.0</ele><time>2026-04-18T10:31:37.928Z</time></trkpt><trkpt lat="45.3945667" lon="10.7709383"><ele>96.25</ele><time>2026-04-18T10:31:38.91Z</time></trkpt><trkpt lat="45.3946783" lon="10.7710517"><ele>97.5</ele><time>2026-04-18T10:31:39.924Z</time></trkpt><trkpt lat="45.3947917" lon="10.7711683"><ele>98.75</ele><time>2026-04-18T10:31:40.934Z</time></trkpt><trkpt lat="45.39489" lon="10.7713033"><ele>100.0</ele><time>2026-04-18T10:31:41.909Z</time></trkpt><trkpt lat="45.3949883" lon="10.7714267"><ele>100.0</ele><time>2026-04-18T10:31:42.924Z</time></trkpt><trkpt lat="45.39508" lon="10.77156"><ele>100.0</ele><time>2026-04-18T10:31:43.918Z</time></trkpt><trkpt lat="45.3951683" lon="10.771675"><ele>100.0</ele><time>2026-04-18T10:31:44.918Z</time></trkpt><trkpt lat="45.39524" lon="10.7717733"><ele>100.0</ele><time>2026-04-18T10:31:45.91Z</time></trkpt><trkpt lat="45.3953117" lon="10.7718783"><ele>98.6</ele><time>2026-04-18T10:31:46.921Z</time></trkpt><trkpt lat="45.395355" lon="10.77199"><ele>97.2</ele><time>2026-04-18T10:31:47.946Z</time></trkpt><trkpt lat="45.3953917" lon="10.7720767"><ele>95.80000000000001</ele><time>2026-04-18T10:31:48.945Z</time></trkpt><trkpt lat="45.39545" lon="10.7722083"><ele>94.4</ele><time>2026-04-18T10:31:50.909Z</time></trkpt><trkpt lat="45.395505" lon="10.7723317"><ele>93.0</ele><time>2026-04-18T10:31:52.944Z</time></trkpt><trkpt lat="45.3955567" lon="10.7724567"><ele>96.0</ele><time>2026-04-18T10:31:54.924Z</time></trkpt><trkpt lat="45.3955983" lon="10.7725883"><ele>99.0</ele><time>2026-04-18T10:31:56.905Z</time></trkpt><trkpt lat="45.3956617" lon="10.77273"><ele>102.00000000000001</ele><time>2026-04-18T10:31:58.925Z</time></trkpt><trkpt lat="45.3957117" lon="10.7728667"><ele>105.0</ele><time>2026-04-18T10:32:00.915Z</time></trkpt><trkpt lat="45.3957517" lon="10.7730117"><ele>108.0</ele><time>2026-04-18T10:32:02.927Z</time></trkpt><trkpt lat="45.3957717" lon="10.7731"><ele>108.0</ele><time>2026-04-18T10:32:03.908Z</time></trkpt><trkpt lat="45.39579" lon="10.7731883"><ele>108.0</ele><time>2026-04-18T10:32:04.927Z</time></trkpt><trkpt lat="45.39581" lon="10.77328"><ele>108.0</ele><time>2026-04-18T10:32:05.92Z</time></trkpt><trkpt lat="45.395825" lon="10.773385"><ele>108.0</ele><time>2026-04-18T10:32:06.929Z</time></trkpt><trkpt lat="45.3958483" lon="10.7735133"><ele>108.0</ele><time>2026-04-18T10:32:07.934Z</time></trkpt><trkpt lat="45.3958783" lon="10.77366"><ele>108.0</ele><time>2026-04-18T10:32:08.909Z</time></trkpt><trkpt lat="45.3959167" lon="10.7738033"><ele>107.5</ele><time>2026-04-18T10:32:09.906Z</time></trkpt><trkpt lat="45.3959383" lon="10.7739167"><ele>107.0</ele><time>2026-04-18T10:32:10.973Z</time></trkpt><trkpt lat="45.3959733" lon="10.7740233"><ele>106.5</ele><time>2026-04-18T10:32:11.562Z</time></trkpt><trkpt lat="45.3959967" lon="10.7741133"><ele>106.0</ele><time>2026-04-18T10:32:12.566Z</time></trkpt><trkpt lat="45.39602" lon="10.7742217"><ele>105.5</ele><time>2026-04-18T10:32:13.592Z</time></trkpt><trkpt lat="45.39604" lon="10.7743583"><ele>105.0</ele><time>2026-04-18T10:32:14.586Z</time></trkpt><trkpt lat="45.3960683" lon="10.7746617"><ele>104.5</ele><time>2026-04-18T10:32:16.577Z</time></trkpt><trkpt lat="45.3960683" lon="10.7748333"><ele>104.0</ele><time>2026-04-18T10:32:17.591Z</time></trkpt><trkpt lat="45.396085" lon="10.7750167"><ele>103.5</ele><time>2026-04-18T10:32:18.562Z</time></trkpt><trkpt lat="45.396065" lon="10.7752183"><ele>103.0</ele><time>2026-04-18T10:32:19.59Z</time></trkpt><trkpt lat="45.39602" lon="10.77556"><ele>103.00000000000001</ele><time>2026-04-18T10:32:21.603Z</time></trkpt><trkpt lat="45.395985" lon="10.7756683"><ele>103.0</ele><time>2026-04-18T10:32:22.567Z</time></trkpt><trkpt lat="45.3959917" lon="10.7757933"><ele>103.0</ele><time>2026-04-18T10:32:23.579Z</time></trkpt><trkpt lat="45.3960233" lon="10.77592"><ele>103.0</ele><time>2026-04-18T10:32:24.569Z</time></trkpt><trkpt lat="45.3960417" lon="10.7760367"><ele>103.00000000000001</ele><time>2026-04-18T10:32:25.568Z</time></trkpt><trkpt lat="45.3960767" lon="10.7761267"><ele>103.0</ele><time>2026-04-18T10:32:26.568Z</time></trkpt><trkpt lat="45.396125" lon="10.776205"><ele>103.60000000000001</ele><time>2026-04-18T10:32:27.57Z</time></trkpt><trkpt lat="45.3961717" lon="10.7762683"><ele>104.2</ele><time>2026-04-18T10:32:28.587Z</time></trkpt><trkpt lat="45.3962483" lon="10.7763467"><ele>104.8</ele><time>2026-04-18T10:32:30.589Z</time></trkpt><trkpt lat="45.3963433" lon="10.7764"><ele>105.4</ele><time>2026-04-18T10:32:32.561Z</time></trkpt><trkpt lat="45.39647" lon="10.7764217"><ele>106.0</ele><time>2026-04-18T10:32:34.199Z</time></trkpt><trkpt lat="45.396555" lon="10.7763767"><ele>107.4</ele><time>2026-04-18T10:32:36.205Z</time></trkpt><trkpt lat="45.39664" lon="10.776295"><ele>108.8</ele><time>2026-04-18T10:32:38.209Z</time></trkpt><trkpt lat="45.3967067" lon="10.7762267"><ele>110.20000000000002</ele><time>2026-04-18T10:32:40.21Z</time></trkpt><trkpt lat="45.3968083" lon="10.7762133"><ele>111.60000000000001</ele><time>2026-04-18T10:32:42.185Z</time></trkpt><trkpt lat="45.3969233" lon="10.7762367"><ele>113.0</ele><time>2026-04-18T10:32:44.19Z</time></trkpt><trkpt lat="45.3969917" lon="10.77624"><ele>113.0</ele><time>2026-04-18T10:32:45.199Z</time></trkpt><trkpt lat="45.3970617" lon="10.7762467"><ele>113.0</ele><time>2026-04-18T10:32:46.171Z</time></trkpt><trkpt lat="45.3971267" lon="10.7762483"><ele>113.0</ele><time>2026-04-18T10:32:47.188Z</time></trkpt><trkpt lat="45.39719" lon="10.7762583"><ele>113.0</ele><time>2026-04-18T10:32:48.176Z</time></trkpt><trkpt lat="45.3972583" lon="10.7762733"><ele>113.0</ele><time>2026-04-18T10:32:49.174Z</time></trkpt><trkpt lat="45.3973267" lon="10.7763"><ele>113.0</ele><time>2026-04-18T10:32:50.186Z</time></trkpt><trkpt lat="45.3973867" lon="10.77633"><ele>113.0</ele><time>2026-04-18T10:32:51.175Z</time></trkpt><trkpt lat="45.3974667" lon="10.7764167"><ele>113.80000000000001</ele><time>2026-04-18T10:32:53.181Z</time></trkpt><trkpt lat="45.39749" lon="10.7765733"><ele>114.60000000000001</ele><time>2026-04-18T10:32:55.174Z</time></trkpt><trkpt lat="45.3974917" lon="10.7766833"><ele>115.39999999999999</ele><time>2026-04-18T10:32:56.191Z</time></trkpt><trkpt lat="45.3974967" lon="10.7768167"><ele>116.19999999999999</ele><time>2026-04-18T10:32:57.205Z</time></trkpt><trkpt lat="45.397505" lon="10.7769733"><ele>117.0</ele><time>2026-04-18T10:32:58.205Z</time></trkpt><trkpt lat="45.3975033" lon="10.7771267"><ele>117.0</ele><time>2026-04-18T10:32:59.181Z</time></trkpt><trkpt lat="45.3975083" lon="10.7772817"><ele>117.0</ele><time>2026-04-18T10:33:00.214Z</time></trkpt><trkpt lat="45.3975017" lon="10.7774617"><ele>117.0</ele><time>2026-04-18T10:33:01.198Z</time></trkpt><trkpt lat="45.3975083" lon="10.7776367"><ele>117.0</ele><time>2026-04-18T10:33:02.172Z</time></trkpt><trkpt lat="45.397515" lon="10.7777717"><ele>116.83333333333333</ele><time>2026-04-18T10:33:03.18Z</time></trkpt><trkpt lat="45.3975317" lon="10.7778883"><ele>116.66666666666666</ele><time>2026-04-18T10:33:04.21Z</time></trkpt><trkpt lat="45.3975367" lon="10.7780183"><ele>116.5</ele><time>2026-04-18T10:33:05.172Z</time></trkpt><trkpt lat="45.39754" lon="10.7781417"><ele>116.33333333333333</ele><time>2026-04-18T10:33:06.179Z</time></trkpt><trkpt lat="45.3975283" lon="10.7782583"><ele>116.16666666666666</ele><time>2026-04-18T10:33:07.206Z</time></trkpt><trkpt lat="45.3975" lon="10.7783683"><ele>116.0</ele><time>2026-04-18T10:33:08.181Z</time></trkpt><trkpt lat="45.3974517" lon="10.7784833"><ele>116.5</ele><time>2026-04-18T10:33:09.196Z</time></trkpt><trkpt lat="45.3973783" lon="10.7786033"><ele>117.0</ele><time>2026-04-18T10:33:10.185Z</time></trkpt><trkpt lat="45.3973033" lon="10.7787367"><ele>117.5</ele><time>2026-04-18T10:33:11.186Z</time></trkpt><trkpt lat="45.397235" lon="10.7788883"><ele>118.0</ele><time>2026-04-18T10:33:12.178Z</time></trkpt><trkpt lat="45.3971167" lon="10.77903"><ele>118.0</ele><time>2026-04-18T10:33:13.168Z</time></trkpt><trkpt lat="45.3970717" lon="10.7791967"><ele>118.00000000000001</ele><time>2026-04-18T10:33:14.185Z</time></trkpt><trkpt lat="45.3970167" lon="10.7793317"><ele>118.00000000000001</ele><time>2026-04-18T10:33:15.176Z</time></trkpt><trkpt lat="45.3969617" lon="10.7794467"><ele>118.0</ele><time>2026-04-18T10:33:16.211Z</time></trkpt><trkpt lat="45.396895" lon="10.7795583"><ele>118.0</ele><time>2026-04-18T10:33:17.215Z</time></trkpt><trkpt lat="45.396825" lon="10.779635"><ele>118.60000000000001</ele><time>2026-04-18T10:33:18.173Z</time></trkpt><trkpt lat="45.39676" lon="10.7796917"><ele>119.20000000000002</ele><time>2026-04-18T10:33:19.173Z</time></trkpt><trkpt lat="45.3967267" lon="10.7797683"><ele>119.8</ele><time>2026-04-18T10:33:20.18Z</time></trkpt><trkpt lat="45.396745" lon="10.7799483"><ele>120.4</ele><time>2026-04-18T10:33:22.206Z</time></trkpt><trkpt lat="45.396825" lon="10.7800467"><ele>121.0</ele><time>2026-04-18T10:33:23.194Z</time></trkpt><trkpt lat="45.3968833" lon="10.780135"><ele>121.28571428571428</ele><time>2026-04-18T10:33:24.206Z</time></trkpt><trkpt lat="45.396925" lon="10.7802233"><ele>121.57142857142856</ele><time>2026-04-18T10:33:25.18Z</time></trkpt><trkpt lat="45.396955" lon="10.78031"><ele>121.85714285714286</ele><time>2026-04-18T10:33:26.166Z</time></trkpt><trkpt lat="45.3969717" lon="10.7804"><ele>122.14285714285714</ele><time>2026-04-18T10:33:27.181Z</time></trkpt><trkpt lat="45.396975" lon="10.780495"><ele>122.42857142857143</ele><time>2026-04-18T10:33:28.204Z</time></trkpt><trkpt lat="45.3969717" lon="10.7805917"><ele>122.71428571428572</ele><time>2026-04-18T10:33:29.184Z</time></trkpt><trkpt lat="45.3969817" lon="10.7806933"><ele>123.00000000000001</ele><time>2026-04-18T10:33:30.193Z</time></trkpt><trkpt lat="45.3970017" lon="10.7808067"><ele>123.0</ele><time>2026-04-18T10:33:31.179Z</time></trkpt><trkpt lat="45.3970183" lon="10.780925"><ele>123.00000000000001</ele><time>2026-04-18T10:33:32.198Z</time></trkpt><trkpt lat="45.397025" lon="10.7810517"><ele>123.00000000000001</ele><time>2026-04-18T10:33:33.195Z</time></trkpt><trkpt lat="45.3970217" lon="10.7811817"><ele>123.0</ele><time>2026-04-18T10:33:34.179Z</time></trkpt><trkpt lat="45.3970067" lon="10.7813433"><ele>123.0</ele><time>2026-04-18T10:33:35.18Z</time></trkpt><trkpt lat="45.3970117" lon="10.7814717"><ele>123.80000000000001</ele><time>2026-04-18T10:33:36.177Z</time></trkpt><trkpt lat="45.3970283" lon="10.7815783"><ele>124.60000000000001</ele><time>2026-04-18T10:33:37.183Z</time></trkpt><trkpt lat="45.3970317" lon="10.7816867"><ele>125.39999999999999</ele><time>2026-04-18T10:33:38.185Z</time></trkpt><trkpt lat="45.3970383" lon="10.781795"><ele>126.19999999999999</ele><time>2026-04-18T10:33:39.174Z</time></trkpt><trkpt lat="45.3970533" lon="10.7819217"><ele>127.0</ele><time>2026-04-18T10:33:40.2Z</time></trkpt><trkpt lat="45.3971083" lon="10.7821983"><ele>127.0</ele><time>2026-04-18T10:33:42.205Z</time></trkpt><trkpt lat="45.3971117" lon="10.7823033"><ele>126.99999999999999</ele><time>2026-04-18T10:33:43.172Z</time></trkpt><trkpt lat="45.397095" lon="10.7824183"><ele>126.99999999999999</ele><time>2026-04-18T10:33:44.183Z</time></trkpt><trkpt lat="45.397055" lon="10.7825317"><ele>127.0</ele><time>2026-04-18T10:33:45.202Z</time></trkpt><trkpt lat="45.397" lon="10.782655"><ele>127.0</ele><time>2026-04-18T10:33:46.183Z</time></trkpt><trkpt lat="45.3969417" lon="10.78278"><ele>127.00000000000001</ele><time>2026-04-18T10:33:47.186Z</time></trkpt><trkpt lat="45.3968733" lon="10.7828733"><ele>127.0</ele><time>2026-04-18T10:33:48.238Z</time></trkpt><trkpt lat="45.396815" lon="10.7829883"><ele>127.0</ele><time>2026-04-18T10:33:49.198Z</time></trkpt><trkpt lat="45.3967617" lon="10.7830883"><ele>127.0</ele><time>2026-04-18T10:33:50.197Z</time></trkpt><trkpt lat="45.396715" lon="10.78318"><ele>127.00000000000001</ele><time>2026-04-18T10:33:51.174Z</time></trkpt><trkpt lat="45.39667" lon="10.78326"><ele>127.0</ele><time>2026-04-18T10:33:52.196Z</time></trkpt><trkpt lat="45.3966433" lon="10.7833467"><ele>127.00000000000001</ele><time>2026-04-18T10:33:53.177Z</time></trkpt><trkpt lat="45.3966317" lon="10.7834383"><ele>127.0</ele><time>2026-04-18T10:33:54.189Z</time></trkpt><trkpt lat="45.3966583" lon="10.7835967"><ele>127.0</ele><time>2026-04-18T10:33:56.164Z</time></trkpt><trkpt lat="45.39669" lon="10.783675"><ele>127.0</ele><time>2026-04-18T10:33:57.204Z</time></trkpt><trkpt lat="45.3967383" lon="10.7837617"><ele>127.00000000000001</ele><time>2026-04-18T10:33:58.17Z</time></trkpt><trkpt lat="45.396805" lon="10.78386"><ele>127.0</ele><time>2026-04-18T10:33:59.181Z</time></trkpt><trkpt lat="45.3968833" lon="10.7839717"><ele>126.8</ele><time>2026-04-18T10:34:00.178Z</time></trkpt><trkpt lat="45.3969483" lon="10.7840733"><ele>126.6</ele><time>2026-04-18T10:34:01.172Z</time></trkpt><trkpt lat="45.3969867" lon="10.7841867"><ele>126.39999999999999</ele><time>2026-04-18T10:34:02.166Z</time></trkpt><trkpt lat="45.3970167" lon="10.7843017"><ele>126.19999999999999</ele><time>2026-04-18T10:34:03.193Z</time></trkpt><trkpt lat="45.3970483" lon="10.7844283"><ele>126.0</ele><time>2026-04-18T10:34:04.176Z</time></trkpt><trkpt lat="45.3970667" lon="10.784575"><ele>125.19999999999999</ele><time>2026-04-18T10:34:05.17Z</time></trkpt><trkpt lat="45.3970833" lon="10.7846967"><ele>124.39999999999999</ele><time>2026-04-18T10:34:06.185Z</time></trkpt><trkpt lat="45.3970983" lon="10.7848133"><ele>123.6</ele><time>2026-04-18T10:34:07.173Z</time></trkpt><trkpt lat="45.39712" lon="10.7849417"><ele>122.8</ele><time>2026-04-18T10:34:08.189Z</time></trkpt><trkpt lat="45.397165" lon="10.7850967"><ele>122.0</ele><time>2026-04-18T10:34:09.19Z</time></trkpt><trkpt lat="45.39718" lon="10.7852517"><ele>120.66666666666666</ele><time>2026-04-18T10:34:10.175Z</time></trkpt><trkpt lat="45.3972183" lon="10.7856083"><ele>119.33333333333334</ele><time>2026-04-18T10:34:12.207Z</time></trkpt><trkpt lat="45.39723" lon="10.78578"><ele>118.0</ele><time>2026-04-18T10:34:13.186Z</time></trkpt><trkpt lat="45.39724" lon="10.7859583"><ele>117.80000000000001</ele><time>2026-04-18T10:34:14.172Z</time></trkpt><trkpt lat="45.3972433" lon="10.786135"><ele>117.60000000000001</ele><time>2026-04-18T10:34:15.173Z</time></trkpt><trkpt lat="45.397245" lon="10.7862933"><ele>117.39999999999999</ele><time>2026-04-18T10:34:16.172Z</time></trkpt><trkpt lat="45.3972517" lon="10.7864467"><ele>117.19999999999999</ele><time>2026-04-18T10:34:17.168Z</time></trkpt><trkpt lat="45.397275" lon="10.7865783"><ele>117.0</ele><time>2026-04-18T10:34:18.168Z</time></trkpt><trkpt lat="45.3972933" lon="10.7867283"><ele>115.8</ele><time>2026-04-18T10:34:19.176Z</time></trkpt><trkpt lat="45.3973317" lon="10.7868567"><ele>114.6</ele><time>2026-04-18T10:34:20.2Z</time></trkpt><trkpt lat="45.3973683" lon="10.78698"><ele>113.39999999999999</ele><time>2026-04-18T10:34:21.173Z</time></trkpt><trkpt lat="45.3974267" lon="10.7871017"><ele>112.19999999999999</ele><time>2026-04-18T10:34:22.22Z</time></trkpt><trkpt lat="45.3974833" lon="10.7872167"><ele>111.0</ele><time>2026-04-18T10:34:23.198Z</time></trkpt><trkpt lat="45.397555" lon="10.787315"><ele>111.0</ele><time>2026-04-18T10:34:24.191Z</time></trkpt><trkpt lat="45.397625" lon="10.7874183"><ele>111.0</ele><time>2026-04-18T10:34:25.194Z</time></trkpt><trkpt lat="45.3976867" lon="10.7874917"><ele>111.0</ele><time>2026-04-18T10:34:26.23Z</time></trkpt><trkpt lat="45.397735" lon="10.7875617"><ele>111.0</ele><time>2026-04-18T10:34:27.202Z</time></trkpt><trkpt lat="45.39784" lon="10.78767"><ele>111.0</ele><time>2026-04-18T10:34:29.186Z</time></trkpt><trkpt lat="45.3979017" lon="10.7877233"><ele>110.83333333333333</ele><time>2026-04-18T10:34:30.189Z</time></trkpt><trkpt lat="45.397975" lon="10.7877767"><ele>110.66666666666666</ele><time>2026-04-18T10:34:31.181Z</time></trkpt><trkpt lat="45.3980617" lon="10.7878183"><ele>110.5</ele><time>2026-04-18T10:34:32.195Z</time></trkpt><trkpt lat="45.3981467" lon="10.78787"><ele>110.33333333333333</ele><time>2026-04-18T10:34:33.179Z</time></trkpt><trkpt lat="45.3982317" lon="10.7879117"><ele>110.16666666666666</ele><time>2026-04-18T10:34:34.185Z</time></trkpt><trkpt lat="45.3983167" lon="10.7879533"><ele>110.0</ele><time>2026-04-18T10:34:35.208Z</time></trkpt><trkpt lat="45.3983917" lon="10.7879917"><ele>109.99999999999999</ele><time>2026-04-18T10:34:36.173Z</time></trkpt><trkpt lat="45.3984633" lon="10.7880233"><ele>110.0</ele><time>2026-04-18T10:34:37.194Z</time></trkpt><trkpt lat="45.398535" lon="10.7880517"><ele>110.0</ele><time>2026-04-18T10:34:38.171Z</time></trkpt><trkpt lat="45.3986" lon="10.788075"><ele>110.0</ele><time>2026-04-18T10:34:39.18Z</time></trkpt><trkpt lat="45.3986733" lon="10.7881083"><ele>109.99999999999999</ele><time>2026-04-18T10:34:40.169Z</time></trkpt><trkpt lat="45.3987483" lon="10.7881367"><ele>110.0</ele><time>2026-04-18T10:34:41.168Z</time></trkpt><trkpt lat="45.398835" lon="10.7881717"><ele>109.6</ele><time>2026-04-18T10:34:42.195Z</time></trkpt><trkpt lat="45.39892" lon="10.7882033"><ele>109.2</ele><time>2026-04-18T10:34:43.177Z</time></trkpt><trkpt lat="45.3990033" lon="10.7882283"><ele>108.80000000000001</ele><time>2026-04-18T10:34:44.214Z</time></trkpt><trkpt lat="45.3990883" lon="10.7882617"><ele>108.4</ele><time>2026-04-18T10:34:45.184Z</time></trkpt><trkpt lat="45.3992317" lon="10.7883017"><ele>108.0</ele><time>2026-04-18T10:34:47.163Z</time></trkpt><trkpt lat="45.3993067" lon="10.7883217"><ele>108.0</ele><time>2026-04-18T10:34:48.245Z</time></trkpt><trkpt lat="45.3993867" lon="10.78835"><ele>108.0</ele><time>2026-04-18T10:34:49.181Z</time></trkpt><trkpt lat="45.39946" lon="10.7883767"><ele>108.0</ele><time>2026-04-18T10:34:50.202Z</time></trkpt><trkpt lat="45.3995233" lon="10.7884017"><ele>108.0</ele><time>2026-04-18T10:34:51.182Z</time></trkpt><trkpt lat="45.3995867" lon="10.7884233"><ele>108.0</ele><time>2026-04-18T10:34:52.193Z</time></trkpt><trkpt lat="45.39965" lon="10.7884417"><ele>108.0</ele><time>2026-04-18T10:34:53.203Z</time></trkpt><trkpt lat="45.399715" lon="10.78846"><ele>108.0</ele><time>2026-04-18T10:34:54.182Z</time></trkpt><trkpt lat="45.3997817" lon="10.7884833"><ele>107.75</ele><time>2026-04-18T10:34:55.183Z</time></trkpt><trkpt lat="45.3999033" lon="10.7885317"><ele>107.5</ele><time>2026-04-18T10:34:57.194Z</time></trkpt><trkpt lat="45.4000167" lon="10.7885733"><ele>107.25</ele><time>2026-04-18T10:34:59.186Z</time></trkpt><trkpt lat="45.4001333" lon="10.7886167"><ele>107.0</ele><time>2026-04-18T10:35:01.186Z</time></trkpt><trkpt lat="45.4002517" lon="10.7886617"><ele>106.99999999999999</ele><time>2026-04-18T10:35:03.188Z</time></trkpt><trkpt lat="45.400315" lon="10.7886867"><ele>107.0</ele><time>2026-04-18T10:35:04.186Z</time></trkpt><trkpt lat="45.4003817" lon="10.7887117"><ele>107.0</ele><time>2026-04-18T10:35:05.189Z</time></trkpt><trkpt lat="45.4004467" lon="10.78874"><ele>107.0</ele><time>2026-04-18T10:35:06.174Z</time></trkpt><trkpt lat="45.4005133" lon="10.7887717"><ele>106.99999999999999</ele><time>2026-04-18T10:35:07.177Z</time></trkpt><trkpt lat="45.4005833" lon="10.7888033"><ele>107.0</ele><time>2026-04-18T10:35:08.189Z</time></trkpt><trkpt lat="45.4007033" lon="10.788865"><ele>106.99999999999999</ele><time>2026-04-18T10:35:10.231Z</time></trkpt><trkpt lat="45.4007717" lon="10.7888833"><ele>107.0</ele><time>2026-04-18T10:35:11.179Z</time></trkpt><trkpt lat="45.4008967" lon="10.7889317"><ele>107.0</ele><time>2026-04-18T10:35:13.21Z</time></trkpt><trkpt lat="45.400965" lon="10.788955"><ele>107.0</ele><time>2026-04-18T10:35:14.197Z</time></trkpt><trkpt lat="45.40104" lon="10.7889733"><ele>106.99999999999999</ele><time>2026-04-18T10:35:15.184Z</time></trkpt><trkpt lat="45.4011167" lon="10.78899"><ele>107.0</ele><time>2026-04-18T10:35:16.184Z</time></trkpt><trkpt lat="45.4011983" lon="10.7890033"><ele>106.99999999999999</ele><time>2026-04-18T10:35:17.176Z</time></trkpt><trkpt lat="45.401275" lon="10.789015"><ele>107.0</ele><time>2026-04-18T10:35:18.186Z</time></trkpt><trkpt lat="45.40136" lon="10.7890267"><ele>107.0</ele><time>2026-04-18T10:35:19.182Z</time></trkpt><trkpt lat="45.401445" lon="10.7890367"><ele>107.0</ele><time>2026-04-18T10:35:20.184Z</time></trkpt><trkpt lat="45.40153" lon="10.7890483"><ele>106.99999999999999</ele><time>2026-04-18T10:35:21.168Z</time></trkpt><trkpt lat="45.4016133" lon="10.789055"><ele>107.0</ele><time>2026-04-18T10:35:22.213Z</time></trkpt><trkpt lat="45.4016917" lon="10.7890633"><ele>107.16666666666666</ele><time>2026-04-18T10:35:23.182Z</time></trkpt><trkpt lat="45.4017817" lon="10.7890783"><ele>107.33333333333333</ele><time>2026-04-18T10:35:24.179Z</time></trkpt><trkpt lat="45.40187" lon="10.7890933"><ele>107.5</ele><time>2026-04-18T10:35:25.185Z</time></trkpt><trkpt lat="45.401955" lon="10.789105"><ele>107.66666666666666</ele><time>2026-04-18T10:35:26.17Z</time></trkpt><trkpt lat="45.402035" lon="10.789115"><ele>107.83333333333333</ele><time>2026-04-18T10:35:27.182Z</time></trkpt><trkpt lat="45.4021217" lon="10.7891283"><ele>108.0</ele><time>2026-04-18T10:35:28.182Z</time></trkpt><trkpt lat="45.4022033" lon="10.7891433"><ele>108.0</ele><time>2026-04-18T10:35:29.182Z</time></trkpt><trkpt lat="45.4022833" lon="10.7891567"><ele>108.0</ele><time>2026-04-18T10:35:30.187Z</time></trkpt><trkpt lat="45.4023667" lon="10.7891783"><ele>108.0</ele><time>2026-04-18T10:35:31.191Z</time></trkpt><trkpt lat="45.4024467" lon="10.7891967"><ele>108.0</ele><time>2026-04-18T10:35:32.192Z</time></trkpt><trkpt lat="45.4025317" lon="10.7892167"><ele>108.0</ele><time>2026-04-18T10:35:33.192Z</time></trkpt><trkpt lat="45.4026167" lon="10.78923"><ele>108.0</ele><time>2026-04-18T10:35:34.187Z</time></trkpt><trkpt lat="45.402695" lon="10.7892417"><ele>108.0</ele><time>2026-04-18T10:35:35.168Z</time></trkpt><trkpt lat="45.4027867" lon="10.7892583"><ele>108.00000000000001</ele><time>2026-04-18T10:35:36.187Z</time></trkpt><trkpt lat="45.4028833" lon="10.7892733"><ele>108.00000000000001</ele><time>2026-04-18T10:35:37.21Z</time></trkpt><trkpt lat="45.4029783" lon="10.7893"><ele>108.0</ele><time>2026-04-18T10:35:38.188Z</time></trkpt><trkpt lat="45.4030733" lon="10.789315"><ele>108.0</ele><time>2026-04-18T10:35:39.207Z</time></trkpt><trkpt lat="45.40318" lon="10.7893283"><ele>108.25</ele><time>2026-04-18T10:35:40.21Z</time></trkpt><trkpt lat="45.4033133" lon="10.7893383"><ele>108.5</ele><time>2026-04-18T10:35:41.178Z</time></trkpt><trkpt lat="45.4034367" lon="10.7893567"><ele>108.75</ele><time>2026-04-18T10:35:42.183Z</time></trkpt><trkpt lat="45.4035567" lon="10.7893783"><ele>109.0</ele><time>2026-04-18T10:35:43.17Z</time></trkpt><trkpt lat="45.403675" lon="10.789385"><ele>109.25</ele><time>2026-04-18T10:35:44.188Z</time></trkpt><trkpt lat="45.4038017" lon="10.789395"><ele>109.5</ele><time>2026-04-18T10:35:45.188Z</time></trkpt><trkpt lat="45.4039267" lon="10.78943"><ele>109.75</ele><time>2026-04-18T10:35:46.174Z</time></trkpt><trkpt lat="45.404055" lon="10.78945"><ele>110.0</ele><time>2026-04-18T10:35:47.212Z</time></trkpt><trkpt lat="45.4041467" lon="10.789485"><ele>110.0</ele><time>2026-04-18T10:35:48.179Z</time></trkpt><trkpt lat="45.4042467" lon="10.789495"><ele>110.0</ele><time>2026-04-18T10:35:49.172Z</time></trkpt><trkpt lat="45.4043383" lon="10.7895067"><ele>110.0</ele><time>2026-04-18T10:35:50.209Z</time></trkpt><trkpt lat="45.4044267" lon="10.7895117"><ele>110.0</ele><time>2026-04-18T10:35:51.19Z</time></trkpt><trkpt lat="45.40452" lon="10.78952"><ele>110.0</ele><time>2026-04-18T10:35:52.172Z</time></trkpt><trkpt lat="45.4046" lon="10.78952"><ele>110.2</ele><time>2026-04-18T10:35:53.199Z</time></trkpt><trkpt lat="45.4046817" lon="10.7895267"><ele>110.4</ele><time>2026-04-18T10:35:54.209Z</time></trkpt><trkpt lat="45.404755" lon="10.7895383"><ele>110.6</ele><time>2026-04-18T10:35:55.187Z</time></trkpt><trkpt lat="45.4048183" lon="10.7895517"><ele>110.8</ele><time>2026-04-18T10:35:56.166Z</time></trkpt><trkpt lat="45.4049217" lon="10.789715"><ele>111.0</ele><time>2026-04-18T10:35:59.166Z</time></trkpt><trkpt lat="45.4049067" lon="10.7898717"><ele>111.0</ele><time>2026-04-18T10:36:01.173Z</time></trkpt><trkpt lat="45.4049017" lon="10.789965"><ele>111.0</ele><time>2026-04-18T10:36:02.183Z</time></trkpt><trkpt lat="45.4049033" lon="10.79007"><ele>111.0</ele><time>2026-04-18T10:36:03.172Z</time></trkpt><trkpt lat="45.4049083" lon="10.7901783"><ele>111.0</ele><time>2026-04-18T10:36:04.193Z</time></trkpt><trkpt lat="45.404915" lon="10.790295"><ele>111.0</ele><time>2026-04-18T10:36:05.17Z</time></trkpt><trkpt lat="45.4049233" lon="10.7904133"><ele>111.0</ele><time>2026-04-18T10:36:06.166Z</time></trkpt><trkpt lat="45.4049283" lon="10.790535"><ele>110.83333333333333</ele><time>2026-04-18T10:36:07.186Z</time></trkpt><trkpt lat="45.4049317" lon="10.79066"><ele>110.66666666666666</ele><time>2026-04-18T10:36:08.194Z</time></trkpt><trkpt lat="45.4049333" lon="10.79078"><ele>110.5</ele><time>2026-04-18T10:36:09.187Z</time></trkpt><trkpt lat="45.4049383" lon="10.7908933"><ele>110.33333333333333</ele><time>2026-04-18T10:36:10.167Z</time></trkpt><trkpt lat="45.4049383" lon="10.790995"><ele>110.16666666666666</ele><time>2026-04-18T10:36:11.211Z</time></trkpt><trkpt lat="45.4049383" lon="10.79109"><ele>110.0</ele><time>2026-04-18T10:36:12.185Z</time></trkpt><trkpt lat="45.4049317" lon="10.7911817"><ele>110.33333333333333</ele><time>2026-04-18T10:36:13.196Z</time></trkpt><trkpt lat="45.404935" lon="10.7913383"><ele>110.66666666666666</ele><time>2026-04-18T10:36:15.241Z</time></trkpt><trkpt lat="45.40498" lon="10.7914467"><ele>111.0</ele><time>2026-04-18T10:36:17.177Z</time></trkpt><trkpt lat="45.4050717" lon="10.7915067"><ele>111.33333333333334</ele><time>2026-04-18T10:36:19.165Z</time></trkpt><trkpt lat="45.405135" lon="10.7915133"><ele>111.66666666666667</ele><time>2026-04-18T10:36:20.177Z</time></trkpt><trkpt lat="45.405215" lon="10.7915117"><ele>112.0</ele><time>2026-04-18T10:36:21.201Z</time></trkpt><trkpt lat="45.405295" lon="10.7915017"><ele>112.0</ele><time>2026-04-18T10:36:22.175Z</time></trkpt><trkpt lat="45.4053717" lon="10.7914883"><ele>112.0</ele><time>2026-04-18T10:36:23.164Z</time></trkpt><trkpt lat="45.4054467" lon="10.79148"><ele>112.0</ele><time>2026-04-18T10:36:24.18Z</time></trkpt><trkpt lat="45.4055233" lon="10.7914733"><ele>112.0</ele><time>2026-04-18T10:36:25.178Z</time></trkpt><trkpt lat="45.4055933" lon="10.7914633"><ele>112.0</ele><time>2026-04-18T10:36:26.165Z</time></trkpt><trkpt lat="45.405665" lon="10.7914533"><ele>112.0</ele><time>2026-04-18T10:36:27.172Z</time></trkpt><trkpt lat="45.4057367" lon="10.791445"><ele>112.0</ele><time>2026-04-18T10:36:28.169Z</time></trkpt><trkpt lat="45.4058117" lon="10.791445"><ele>112.14285714285714</ele><time>2026-04-18T10:36:29.174Z</time></trkpt><trkpt lat="45.4058783" lon="10.79143"><ele>112.28571428571428</ele><time>2026-04-18T10:36:30.17Z</time></trkpt><trkpt lat="45.4059467" lon="10.7914233"><ele>112.42857142857143</ele><time>2026-04-18T10:36:31.179Z</time></trkpt><trkpt lat="45.4060183" lon="10.7914183"><ele>112.57142857142857</ele><time>2026-04-18T10:36:32.171Z</time></trkpt><trkpt lat="45.4060867" lon="10.79141"><ele>112.71428571428571</ele><time>2026-04-18T10:36:33.204Z</time></trkpt><trkpt lat="45.4061567" lon="10.7914017"><ele>112.85714285714286</ele><time>2026-04-18T10:36:34.169Z</time></trkpt><trkpt lat="45.4062267" lon="10.791395"><ele>113.0</ele><time>2026-04-18T10:36:35.204Z</time></trkpt><trkpt lat="45.4062983" lon="10.7913867"><ele>112.83333333333333</ele><time>2026-04-18T10:36:36.179Z</time></trkpt><trkpt lat="45.4063717" lon="10.79138"><ele>112.66666666666666</ele><time>2026-04-18T10:36:37.233Z</time></trkpt><trkpt lat="45.4064467" lon="10.7913733"><ele>112.5</ele><time>2026-04-18T10:36:38.186Z</time></trkpt><trkpt lat="45.406525" lon="10.7913683"><ele>112.33333333333334</ele><time>2026-04-18T10:36:39.184Z</time></trkpt><trkpt lat="45.4066117" lon="10.79136"><ele>112.16666666666667</ele><time>2026-04-18T10:36:40.191Z</time></trkpt><trkpt lat="45.4066933" lon="10.7913517"><ele>112.0</ele><time>2026-04-18T10:36:41.19Z</time></trkpt><trkpt lat="45.4067817" lon="10.7913417"><ele>112.0</ele><time>2026-04-18T10:36:42.195Z</time></trkpt><trkpt lat="45.4068733" lon="10.79133"><ele>111.99999999999999</ele><time>2026-04-18T10:36:43.213Z</time></trkpt><trkpt lat="45.40698" lon="10.7913133"><ele>111.99999999999999</ele><time>2026-04-18T10:36:44.162Z</time></trkpt><trkpt lat="45.4070833" lon="10.7913067"><ele>112.0</ele><time>2026-04-18T10:36:45.178Z</time></trkpt><trkpt lat="45.4072017" lon="10.7912933"><ele>112.0</ele><time>2026-04-18T10:36:46.173Z</time></trkpt><trkpt lat="45.4073133" lon="10.7912817"><ele>112.0</ele><time>2026-04-18T10:36:47.185Z</time></trkpt><trkpt lat="45.40743" lon="10.7912867"><ele>111.99999999999999</ele><time>2026-04-18T10:36:48.223Z</time></trkpt><trkpt lat="45.407535" lon="10.791295"><ele>111.99999999999999</ele><time>2026-04-18T10:36:49.192Z</time></trkpt><trkpt lat="45.4076467" lon="10.791315"><ele>112.0</ele><time>2026-04-18T10:36:50.194Z</time></trkpt><trkpt lat="45.4077217" lon="10.7912833"><ele>112.0</ele><time>2026-04-18T10:36:51.196Z</time></trkpt><trkpt lat="45.4078133" lon="10.7912933"><ele>112.0</ele><time>2026-04-18T10:36:52.185Z</time></trkpt><trkpt lat="45.4079017" lon="10.7912867"><ele>111.99999999999999</ele><time>2026-04-18T10:36:53.18Z</time></trkpt><trkpt lat="45.407995" lon="10.7912833"><ele>111.99999999999999</ele><time>2026-04-18T10:36:54.193Z</time></trkpt><trkpt lat="45.4080983" lon="10.7912833"><ele>112.0</ele><time>2026-04-18T10:36:55.194Z</time></trkpt><trkpt lat="45.4081883" lon="10.7912933"><ele>112.0</ele><time>2026-04-18T10:36:56.225Z</time></trkpt><trkpt lat="45.408265" lon="10.79129"><ele>112.19999999999999</ele><time>2026-04-18T10:36:57.186Z</time></trkpt><trkpt lat="45.4083517" lon="10.7912783"><ele>112.39999999999999</ele><time>2026-04-18T10:36:58.176Z</time></trkpt><trkpt lat="45.4084533" lon="10.7912617"><ele>112.60000000000001</ele><time>2026-04-18T10:36:59.17Z</time></trkpt><trkpt lat="45.4085467" lon="10.791245"><ele>112.80000000000001</ele><time>2026-04-18T10:37:00.177Z</time></trkpt><trkpt lat="45.4086417" lon="10.7912167"><ele>113.0</ele><time>2026-04-18T10:37:01.193Z</time></trkpt><trkpt lat="45.4087333" lon="10.7911933"><ele>113.0</ele><time>2026-04-18T10:37:02.207Z</time></trkpt><trkpt lat="45.4088233" lon="10.79119"><ele>113.00000000000001</ele><time>2026-04-18T10:37:03.169Z</time></trkpt><trkpt lat="45.4089183" lon="10.7911917"><ele>113.00000000000001</ele><time>2026-04-18T10:37:04.215Z</time></trkpt><trkpt lat="45.409005" lon="10.79119"><ele>113.0</ele><time>2026-04-18T10:37:05.176Z</time></trkpt><trkpt lat="45.4091467" lon="10.7911867"><ele>113.0</ele><time>2026-04-18T10:37:07.166Z</time></trkpt><trkpt lat="45.4092517" lon="10.7911883"><ele>112.99999999999999</ele><time>2026-04-18T10:37:09.178Z</time></trkpt><trkpt lat="45.4093183" lon="10.791215"><ele>113.0</ele><time>2026-04-18T10:37:11.177Z</time></trkpt><trkpt lat="45.4093567" lon="10.7913017"><ele>113.0</ele><time>2026-04-18T10:37:13.215Z</time></trkpt><trkpt lat="45.409375" lon="10.7913983"><ele>113.0</ele><time>2026-04-18T10:37:14.166Z</time></trkpt><trkpt lat="45.409395" lon="10.7915167"><ele>112.99999999999999</ele><time>2026-04-18T10:37:15.173Z</time></trkpt><trkpt lat="45.4094067" lon="10.791635"><ele>113.0</ele><time>2026-04-18T10:37:16.187Z</time></trkpt><trkpt lat="45.409415" lon="10.7917417"><ele>113.0</ele><time>2026-04-18T10:37:17.191Z</time></trkpt><trkpt lat="45.4094533" lon="10.7918833"><ele>113.00000000000001</ele><time>2026-04-18T10:37:19.207Z</time></trkpt><trkpt lat="45.4095617" lon="10.79188"><ele>113.00000000000001</ele><time>2026-04-18T10:37:21.209Z</time></trkpt><trkpt lat="45.4096383" lon="10.7918683"><ele>113.0</ele><time>2026-04-18T10:37:22.179Z</time></trkpt><trkpt lat="45.409725" lon="10.791855"><ele>113.0</ele><time>2026-04-18T10:37:23.216Z</time></trkpt><trkpt lat="45.4098217" lon="10.7918383"><ele>113.0</ele><time>2026-04-18T10:37:24.183Z</time></trkpt><trkpt lat="45.4099283" lon="10.79182"><ele>113.0</ele><time>2026-04-18T10:37:25.218Z</time></trkpt><trkpt lat="45.4100517" lon="10.7918017"><ele>113.0</ele><time>2026-04-18T10:37:26.192Z</time></trkpt><trkpt lat="45.41018" lon="10.7918117"><ele>113.0</ele><time>2026-04-18T10:37:27.162Z</time></trkpt><trkpt lat="45.4102933" lon="10.79182"><ele>113.0</ele><time>2026-04-18T10:37:28.178Z</time></trkpt><trkpt lat="45.4104083" lon="10.7918183"><ele>113.0</ele><time>2026-04-18T10:37:29.164Z</time></trkpt><trkpt lat="45.410535" lon="10.791815"><ele>113.0</ele><time>2026-04-18T10:37:30.178Z</time></trkpt><trkpt lat="45.4106533" lon="10.79181"><ele>113.0</ele><time>2026-04-18T10:37:31.176Z</time></trkpt><trkpt lat="45.4107867" lon="10.791775"><ele>113.0</ele><time>2026-04-18T10:37:32.22Z</time></trkpt><trkpt lat="45.4109033" lon="10.7917533"><ele>113.00000000000001</ele><time>2026-04-18T10:37:33.193Z</time></trkpt><trkpt lat="45.4110183" lon="10.7917367"><ele>113.00000000000001</ele><time>2026-04-18T10:37:34.17Z</time></trkpt><trkpt lat="45.4111167" lon="10.7917417"><ele>113.0</ele><time>2026-04-18T10:37:35.181Z</time></trkpt><trkpt lat="45.411225" lon="10.79179"><ele>113.0</ele><time>2026-04-18T10:37:36.187Z</time></trkpt><trkpt lat="45.4114633" lon="10.79188"><ele>113.0</ele><time>2026-04-18T10:37:38.189Z</time></trkpt><trkpt lat="45.411585" lon="10.7919567"><ele>113.0</ele><time>2026-04-18T10:37:39.165Z</time></trkpt><trkpt lat="45.4117183" lon="10.7920267"><ele>113.0</ele><time>2026-04-18T10:37:40.171Z</time></trkpt><trkpt lat="45.4118533" lon="10.7921217"><ele>113.0</ele><time>2026-04-18T10:37:41.194Z</time></trkpt><trkpt lat="45.4120117" lon="10.7922317"><ele>114.5</ele><time>2026-04-18T10:37:42.188Z</time></trkpt><trkpt lat="45.4123033" lon="10.7923817"><ele>116.0</ele><time>2026-04-18T10:37:44.179Z</time></trkpt><trkpt lat="45.4124567" lon="10.792455"><ele>116.0</ele><time>2026-04-18T10:37:45.185Z</time></trkpt><trkpt lat="45.4126033" lon="10.792525"><ele>116.0</ele><time>2026-04-18T10:37:46.207Z</time></trkpt><trkpt lat="45.4127283" lon="10.792585"><ele>116.0</ele><time>2026-04-18T10:37:47.171Z</time></trkpt><trkpt lat="45.4128483" lon="10.7926267"><ele>116.0</ele><time>2026-04-18T10:37:48.193Z</time></trkpt><trkpt lat="45.4129583" lon="10.7926483"><ele>115.83333333333333</ele><time>2026-04-18T10:37:49.216Z</time></trkpt><trkpt lat="45.4130417" lon="10.792695"><ele>115.66666666666666</ele><time>2026-04-18T10:37:50.175Z</time></trkpt><trkpt lat="45.4131583" lon="10.7927117"><ele>115.5</ele><time>2026-04-18T10:37:52.217Z</time></trkpt><trkpt lat="45.41322" lon="10.7926917"><ele>115.33333333333334</ele><time>2026-04-18T10:37:53.164Z</time></trkpt><trkpt lat="45.4132783" lon="10.7926417"><ele>115.16666666666667</ele><time>2026-04-18T10:37:54.173Z</time></trkpt><trkpt lat="45.41334" lon="10.7925683"><ele>115.0</ele><time>2026-04-18T10:37:55.204Z</time></trkpt><trkpt lat="45.4134617" lon="10.792455"><ele>116.00000000000001</ele><time>2026-04-18T10:37:57.222Z</time></trkpt><trkpt lat="45.413525" lon="10.792415"><ele>117.0</ele><time>2026-04-18T10:37:58.19Z</time></trkpt><trkpt lat="45.413585" lon="10.7923867"><ele>118.0</ele><time>2026-04-18T10:37:59.178Z</time></trkpt><trkpt lat="45.413685" lon="10.7923083"><ele>119.0</ele><time>2026-04-18T10:38:01.171Z</time></trkpt><trkpt lat="45.4137467" lon="10.7922567"><ele>120.00000000000001</ele><time>2026-04-18T10:38:02.177Z</time></trkpt><trkpt lat="45.413825" lon="10.7922067"><ele>121.0</ele><time>2026-04-18T10:38:03.177Z</time></trkpt><trkpt lat="45.413915" lon="10.79216"><ele>121.66666666666667</ele><time>2026-04-18T10:38:04.2Z</time></trkpt><trkpt lat="45.4140083" lon="10.7921017"><ele>122.33333333333334</ele><time>2026-04-18T10:38:05.186Z</time></trkpt><trkpt lat="45.4140683" lon="10.792055"><ele>123.0</ele><time>2026-04-18T10:38:06.17Z</time></trkpt><trkpt lat="45.41412" lon="10.791955"><ele>123.66666666666666</ele><time>2026-04-18T10:38:08.173Z</time></trkpt><trkpt lat="45.4141367" lon="10.79181"><ele>124.33333333333333</ele><time>2026-04-18T10:38:10.194Z</time></trkpt><trkpt lat="45.414155" lon="10.7917033"><ele>125.0</ele><time>2026-04-18T10:38:11.168Z</time></trkpt><trkpt lat="45.4141867" lon="10.7915933"><ele>125.83333333333333</ele><time>2026-04-18T10:38:12.199Z</time></trkpt><trkpt lat="45.4142133" lon="10.7914733"><ele>126.66666666666666</ele><time>2026-04-18T10:38:13.201Z</time></trkpt><trkpt lat="45.414235" lon="10.7913417"><ele>127.5</ele><time>2026-04-18T10:38:14.183Z</time></trkpt><trkpt lat="45.41425" lon="10.7912267"><ele>128.33333333333334</ele><time>2026-04-18T10:38:15.169Z</time></trkpt><trkpt lat="45.41426" lon="10.791125"><ele>129.16666666666669</ele><time>2026-04-18T10:38:16.195Z</time></trkpt><trkpt lat="45.414265" lon="10.7910317"><ele>130.0</ele><time>2026-04-18T10:38:17.171Z</time></trkpt><trkpt lat="45.4142967" lon="10.7909017"><ele>130.0</ele><time>2026-04-18T10:38:19.178Z</time></trkpt><trkpt lat="45.414395" lon="10.7908783"><ele>130.0</ele><time>2026-04-18T10:38:21.173Z</time></trkpt><trkpt lat="45.4144683" lon="10.79092"><ele>130.0</ele><time>2026-04-18T10:38:22.178Z</time></trkpt><trkpt lat="45.4145517" lon="10.7909717"><ele>130.0</ele><time>2026-04-18T10:38:23.172Z</time></trkpt><trkpt lat="45.4146483" lon="10.79102"><ele>130.0</ele><time>2026-04-18T10:38:24.2Z</time></trkpt><trkpt lat="45.4147667" lon="10.7910783"><ele>130.0</ele><time>2026-04-18T10:38:25.176Z</time></trkpt><trkpt lat="45.414875" lon="10.7911233"><ele>130.0</ele><time>2026-04-18T10:38:26.216Z</time></trkpt><trkpt lat="45.4149917" lon="10.7911617"><ele>130.0</ele><time>2026-04-18T10:38:27.17Z</time></trkpt><trkpt lat="45.4151" lon="10.79122"><ele>130.0</ele><time>2026-04-18T10:38:28.178Z</time></trkpt><trkpt lat="45.4152067" lon="10.7912767"><ele>130.0</ele><time>2026-04-18T10:38:29.179Z</time></trkpt><trkpt lat="45.4153233" lon="10.791335"><ele>130.0</ele><time>2026-04-18T10:38:30.171Z</time></trkpt><trkpt lat="45.4154317" lon="10.7913883"><ele>130.0</ele><time>2026-04-18T10:38:31.194Z</time></trkpt><trkpt lat="45.415545" lon="10.7914417"><ele>130.0</ele><time>2026-04-18T10:38:32.167Z</time></trkpt><trkpt lat="45.4156583" lon="10.7914933"><ele>129.8</ele><time>2026-04-18T10:38:33.206Z</time></trkpt><trkpt lat="45.4157617" lon="10.7915433"><ele>129.6</ele><time>2026-04-18T10:38:34.176Z</time></trkpt><trkpt lat="45.4158567" lon="10.7915917"><ele>129.4</ele><time>2026-04-18T10:38:35.175Z</time></trkpt><trkpt lat="45.415955" lon="10.791635"><ele>129.2</ele><time>2026-04-18T10:38:36.185Z</time></trkpt><trkpt lat="45.4160483" lon="10.7916883"><ele>129.0</ele><time>2026-04-18T10:38:37.19Z</time></trkpt><trkpt lat="45.4161533" lon="10.791745"><ele>129.0</ele><time>2026-04-18T10:38:38.171Z</time></trkpt><trkpt lat="45.4162467" lon="10.79177"><ele>129.0</ele><time>2026-04-18T10:38:39.204Z</time></trkpt><trkpt lat="45.4163267" lon="10.791805"><ele>129.0</ele><time>2026-04-18T10:38:40.164Z</time></trkpt><trkpt lat="45.4164017" lon="10.791855"><ele>129.0</ele><time>2026-04-18T10:38:41.186Z</time></trkpt><trkpt lat="45.4164683" lon="10.7918917"><ele>129.0</ele><time>2026-04-18T10:38:42.172Z</time></trkpt><trkpt lat="45.4165767" lon="10.7919117"><ele>129.0</ele><time>2026-04-18T10:38:44.196Z</time></trkpt><trkpt lat="45.4166733" lon="10.7918333"><ele>128.25</ele><time>2026-04-18T10:38:46.199Z</time></trkpt><trkpt lat="45.4167117" lon="10.7916283"><ele>127.5</ele><time>2026-04-18T10:38:48.181Z</time></trkpt><trkpt lat="45.4167283" lon="10.79149"><ele>126.75</ele><time>2026-04-18T10:38:49.19Z</time></trkpt><trkpt lat="45.41675" lon="10.79129"><ele>126.0</ele><time>2026-04-18T10:38:50.176Z</time></trkpt><trkpt lat="45.416775" lon="10.79089"><ele>126.0</ele><time>2026-04-18T10:38:52.175Z</time></trkpt><trkpt lat="45.4168" lon="10.7906883"><ele>126.0</ele><time>2026-04-18T10:38:53.183Z</time></trkpt><trkpt lat="45.416835" lon="10.7905117"><ele>126.0</ele><time>2026-04-18T10:38:54.189Z</time></trkpt><trkpt lat="45.416865" lon="10.79037"><ele>126.0</ele><time>2026-04-18T10:38:55.189Z</time></trkpt><trkpt lat="45.4169267" lon="10.790255"><ele>126.0</ele><time>2026-04-18T10:38:57.21Z</time></trkpt><trkpt lat="45.4170233" lon="10.7901867"><ele>126.0</ele><time>2026-04-18T10:38:59.189Z</time></trkpt><trkpt lat="45.41717" lon="10.7902267"><ele>126.0</ele><time>2026-04-18T10:39:01.17Z</time></trkpt><trkpt lat="45.41727" lon="10.7902833"><ele>126.0</ele><time>2026-04-18T10:39:02.224Z</time></trkpt><trkpt lat="45.4173717" lon="10.7903517"><ele>126.5</ele><time>2026-04-18T10:39:03.169Z</time></trkpt><trkpt lat="45.4175017" lon="10.7903867"><ele>127.0</ele><time>2026-04-18T10:39:04.175Z</time></trkpt><trkpt lat="45.417625" lon="10.7903917"><ele>127.5</ele><time>2026-04-18T10:39:05.168Z</time></trkpt><trkpt lat="45.4177683" lon="10.7904067"><ele>128.0</ele><time>2026-04-18T10:39:06.167Z</time></trkpt><trkpt lat="45.417915" lon="10.79042"><ele>127.80000000000001</ele><time>2026-04-18T10:39:07.2Z</time></trkpt><trkpt lat="45.4180467" lon="10.79044"><ele>127.60000000000001</ele><time>2026-04-18T10:39:08.168Z</time></trkpt><trkpt lat="45.4181433" lon="10.79045"><ele>127.39999999999999</ele><time>2026-04-18T10:39:09.166Z</time></trkpt><trkpt lat="45.4182533" lon="10.7904367"><ele>127.19999999999999</ele><time>2026-04-18T10:39:10.17Z</time></trkpt><trkpt lat="45.4183583" lon="10.790455"><ele>127.0</ele><time>2026-04-18T10:39:11.177Z</time></trkpt><trkpt lat="45.4184217" lon="10.7904717"><ele>127.0</ele><time>2026-04-18T10:39:12.175Z</time></trkpt><trkpt lat="45.41853" lon="10.790435"><ele>127.0</ele><time>2026-04-18T10:39:14.206Z</time></trkpt><trkpt lat="45.4186067" lon="10.7902817"><ele>127.0</ele><time>2026-04-18T10:39:16.17Z</time></trkpt><trkpt lat="45.418645" lon="10.7901583"><ele>127.0</ele><time>2026-04-18T10:39:17.22Z</time></trkpt><trkpt lat="45.4186933" lon="10.7899767"><ele>127.0</ele><time>2026-04-18T10:39:18.199Z</time></trkpt><trkpt lat="45.4187367" lon="10.7898"><ele>127.0</ele><time>2026-04-18T10:39:19.204Z</time></trkpt><trkpt lat="45.4187817" lon="10.789605"><ele>127.0</ele><time>2026-04-18T10:39:20.18Z</time></trkpt><trkpt lat="45.418805" lon="10.789425"><ele>127.0</ele><time>2026-04-18T10:39:21.192Z</time></trkpt><trkpt lat="45.418825" lon="10.7892633"><ele>126.0</ele><time>2026-04-18T10:39:22.198Z</time></trkpt><trkpt lat="45.4188883" lon="10.7891"><ele>125.0</ele><time>2026-04-18T10:39:23.229Z</time></trkpt><trkpt lat="45.41891" lon="10.7888883"><ele>124.0</ele><time>2026-04-18T10:39:24.179Z</time></trkpt><trkpt lat="45.41896" lon="10.7887083"><ele>123.0</ele><time>2026-04-18T10:39:25.193Z</time></trkpt><trkpt lat="45.4189967" lon="10.7885267"><ele>122.5</ele><time>2026-04-18T10:39:26.192Z</time></trkpt><trkpt lat="45.4190383" lon="10.78834"><ele>122.0</ele><time>2026-04-18T10:39:27.177Z</time></trkpt><trkpt lat="45.4190883" lon="10.788165"><ele>121.5</ele><time>2026-04-18T10:39:28.226Z</time></trkpt><trkpt lat="45.4191317" lon="10.787955"><ele>121.0</ele><time>2026-04-18T10:39:29.194Z</time></trkpt><trkpt lat="45.4191783" lon="10.787765"><ele>121.5</ele><time>2026-04-18T10:39:30.171Z</time></trkpt><trkpt lat="45.419215" lon="10.7875767"><ele>122.0</ele><time>2026-04-18T10:39:31.186Z</time></trkpt><trkpt lat="45.4192433" lon="10.7874167"><ele>122.5</ele><time>2026-04-18T10:39:32.201Z</time></trkpt><trkpt lat="45.4192717" lon="10.787275"><ele>123.0</ele><time>2026-04-18T10:39:33.179Z</time></trkpt><trkpt lat="45.4193183" lon="10.7870583"><ele>123.0</ele><time>2026-04-18T10:39:35.168Z</time></trkpt><trkpt lat="45.4193783" lon="10.7869283"><ele>123.0</ele><time>2026-04-18T10:39:37.181Z</time></trkpt><trkpt lat="45.41944" lon="10.786895"><ele>123.0</ele><time>2026-04-18T10:39:39.195Z</time></trkpt><trkpt lat="45.41966" lon="10.787035"><ele>123.0</ele><time>2026-04-18T10:39:42.164Z</time></trkpt><trkpt lat="45.4197283" lon="10.787095"><ele>123.4</ele><time>2026-04-18T10:39:43.179Z</time></trkpt><trkpt lat="45.4198367" lon="10.7871583"><ele>123.80000000000001</ele><time>2026-04-18T10:39:44.171Z</time></trkpt><trkpt lat="45.419905" lon="10.78721"><ele>124.2</ele><time>2026-04-18T10:39:45.201Z</time></trkpt><trkpt lat="45.419965" lon="10.78726"><ele>124.6</ele><time>2026-04-18T10:39:46.17Z</time></trkpt><trkpt lat="45.42007" lon="10.7872883"><ele>125.0</ele><time>2026-04-18T10:39:48.17Z</time></trkpt><trkpt lat="45.420095" lon="10.7871767"><ele>125.0</ele><time>2026-04-18T10:39:50.191Z</time></trkpt><trkpt lat="45.4201167" lon="10.7870283"><ele>125.0</ele><time>2026-04-18T10:39:52.206Z</time></trkpt><trkpt lat="45.4201617" lon="10.78689"><ele>125.0</ele><time>2026-04-18T10:39:54.173Z</time></trkpt><trkpt lat="45.4202333" lon="10.786775"><ele>125.0</ele><time>2026-04-18T10:39:56.165Z</time></trkpt><trkpt lat="45.4203617" lon="10.7865933"><ele>125.33333333333333</ele><time>2026-04-18T10:39:59.198Z</time></trkpt><trkpt lat="45.42041" lon="10.7865233"><ele>125.66666666666666</ele><time>2026-04-18T10:40:00.191Z</time></trkpt><trkpt lat="45.4204683" lon="10.7864517"><ele>126.0</ele><time>2026-04-18T10:40:01.169Z</time></trkpt><trkpt lat="45.4205167" lon="10.7863867"><ele>126.33333333333334</ele><time>2026-04-18T10:40:02.173Z</time></trkpt><trkpt lat="45.4206033" lon="10.7862717"><ele>126.66666666666667</ele><time>2026-04-18T10:40:04.172Z</time></trkpt><trkpt lat="45.4206683" lon="10.7861633"><ele>127.0</ele><time>2026-04-18T10:40:06.214Z</time></trkpt><trkpt lat="45.420705" lon="10.786065"><ele>127.16666666666667</ele><time>2026-04-18T10:40:08.216Z</time></trkpt><trkpt lat="45.4207367" lon="10.7859833"><ele>127.33333333333334</ele><time>2026-04-18T10:40:10.179Z</time></trkpt><trkpt lat="45.4207617" lon="10.7858783"><ele>127.5</ele><time>2026-04-18T10:40:19.227Z</time></trkpt><trkpt lat="45.420775" lon="10.7857883"><ele>127.66666666666666</ele><time>2026-04-18T10:40:21.214Z</time></trkpt><trkpt lat="45.4208467" lon="10.7857067"><ele>127.83333333333333</ele><time>2026-04-18T10:40:24.19Z</time></trkpt><trkpt lat="45.4209083" lon="10.7856483"><ele>128.0</ele><time>2026-04-18T10:40:27.207Z</time></trkpt><trkpt lat="45.4208333" lon="10.7856817"><ele>128.0</ele><time>2026-04-18T10:41:00.201Z</time></trkpt><trkpt lat="45.420775" lon="10.7857767"><ele>128.0</ele><time>2026-04-18T10:41:02.211Z</time></trkpt><trkpt lat="45.42073" lon="10.785935"><ele>128.0</ele><time>2026-04-18T10:41:05.193Z</time></trkpt><trkpt lat="45.4207" lon="10.7860767"><ele>128.0</ele><time>2026-04-18T10:41:08.183Z</time></trkpt><trkpt lat="45.4206217" lon="10.7862483"><ele>127.83333333333333</ele><time>2026-04-18T10:41:11.173Z</time></trkpt><trkpt lat="45.4205767" lon="10.78633"><ele>127.66666666666666</ele><time>2026-04-18T10:41:12.217Z</time></trkpt><trkpt lat="45.4205217" lon="10.7864033"><ele>127.5</ele><time>2026-04-18T10:41:13.216Z</time></trkpt><trkpt lat="45.4204617" lon="10.7864883"><ele>127.33333333333334</ele><time>2026-04-18T10:41:14.168Z</time></trkpt><trkpt lat="45.42039" lon="10.7865733"><ele>127.16666666666667</ele><time>2026-04-18T10:41:15.208Z</time></trkpt><trkpt lat="45.4203133" lon="10.7866633"><ele>127.0</ele><time>2026-04-18T10:41:16.194Z</time></trkpt><trkpt lat="45.4202283" lon="10.786775"><ele>126.6</ele><time>2026-04-18T10:41:17.188Z</time></trkpt><trkpt lat="45.4201733" lon="10.7868567"><ele>126.19999999999999</ele><time>2026-04-18T10:41:18.234Z</time></trkpt><trkpt lat="45.42009" lon="10.7870067"><ele>125.8</ele><time>2026-04-18T10:41:20.201Z</time></trkpt><trkpt lat="45.4200483" lon="10.78714"><ele>125.4</ele><time>2026-04-18T10:41:22.21Z</time></trkpt><trkpt lat="45.4200533" lon="10.7872583"><ele>125.0</ele><time>2026-04-18T10:41:24.224Z</time></trkpt><trkpt lat="45.4201083" lon="10.7873983"><ele>124.99999999999999</ele><time>2026-04-18T10:41:26.183Z</time></trkpt><trkpt lat="45.4201533" lon="10.7874667"><ele>125.0</ele><time>2026-04-18T10:41:27.196Z</time></trkpt><trkpt lat="45.4201967" lon="10.78754"><ele>125.0</ele><time>2026-04-18T10:41:28.171Z</time></trkpt><trkpt lat="45.420245" lon="10.7876067"><ele>125.0</ele><time>2026-04-18T10:41:29.176Z</time></trkpt><trkpt lat="45.4202967" lon="10.7876717"><ele>124.99999999999999</ele><time>2026-04-18T10:41:30.231Z</time></trkpt><trkpt lat="45.4203917" lon="10.7878067"><ele>125.0</ele><time>2026-04-18T10:41:32.168Z</time></trkpt><trkpt lat="45.420465" lon="10.7879067"><ele>125.66666666666666</ele><time>2026-04-18T10:41:34.201Z</time></trkpt><trkpt lat="45.4205517" lon="10.788005"><ele>126.33333333333333</ele><time>2026-04-18T10:41:43.177Z</time></trkpt><trkpt lat="45.4206417" lon="10.7881067"><ele>127.0</ele><time>2026-04-18T10:41:45.173Z</time></trkpt><trkpt lat="45.4206933" lon="10.7881583"><ele>127.66666666666666</ele><time>2026-04-18T10:41:46.186Z</time></trkpt><trkpt lat="45.4207467" lon="10.788215"><ele>128.33333333333334</ele><time>2026-04-18T10:41:47.184Z</time></trkpt><trkpt lat="45.4208033" lon="10.7882733"><ele>129.0</ele><time>2026-04-18T10:41:48.179Z</time></trkpt><trkpt lat="45.420865" lon="10.7883383"><ele>128.99999999999997</ele><time>2026-04-18T10:41:49.164Z</time></trkpt><trkpt lat="45.42093" lon="10.7884033"><ele>129.0</ele><time>2026-04-18T10:41:50.18Z</time></trkpt><trkpt lat="45.4209867" lon="10.7884667"><ele>129.0</ele><time>2026-04-18T10:41:51.186Z</time></trkpt><trkpt lat="45.421045" lon="10.7885283"><ele>129.0</ele><time>2026-04-18T10:41:52.187Z</time></trkpt><trkpt lat="45.4210967" lon="10.7885917"><ele>129.0</ele><time>2026-04-18T10:41:53.173Z</time></trkpt><trkpt lat="45.4211483" lon="10.78865"><ele>128.99999999999997</ele><time>2026-04-18T10:41:54.185Z</time></trkpt><trkpt lat="45.4212" lon="10.7887067"><ele>129.0</ele><time>2026-04-18T10:41:55.168Z</time></trkpt><trkpt lat="45.4213017" lon="10.7888167"><ele>129.14285714285714</ele><time>2026-04-18T10:41:57.189Z</time></trkpt><trkpt lat="45.421355" lon="10.7888683"><ele>129.28571428571428</ele><time>2026-04-18T10:41:58.173Z</time></trkpt><trkpt lat="45.421405" lon="10.78893"><ele>129.42857142857144</ele><time>2026-04-18T10:41:59.191Z</time></trkpt><trkpt lat="45.421455" lon="10.7889933"><ele>129.57142857142856</ele><time>2026-04-18T10:42:00.197Z</time></trkpt><trkpt lat="45.421505" lon="10.78907"><ele>129.71428571428572</ele><time>2026-04-18T10:42:01.169Z</time></trkpt><trkpt lat="45.4215617" lon="10.7891433"><ele>129.85714285714286</ele><time>2026-04-18T10:42:02.17Z</time></trkpt><trkpt lat="45.4216167" lon="10.789215"><ele>130.0</ele><time>2026-04-18T10:42:03.18Z</time></trkpt><trkpt lat="45.4216633" lon="10.7893033"><ele>130.16666666666669</ele><time>2026-04-18T10:42:04.232Z</time></trkpt><trkpt lat="45.4217" lon="10.78939"><ele>130.33333333333334</ele><time>2026-04-18T10:42:05.192Z</time></trkpt><trkpt lat="45.421735" lon="10.78947"><ele>130.5</ele><time>2026-04-18T10:42:06.191Z</time></trkpt><trkpt lat="45.4218017" lon="10.7896383"><ele>130.66666666666666</ele><time>2026-04-18T10:42:08.203Z</time></trkpt><trkpt lat="45.421835" lon="10.789725"><ele>130.83333333333331</ele><time>2026-04-18T10:42:09.193Z</time></trkpt><trkpt lat="45.4218717" lon="10.789815"><ele>131.0</ele><time>2026-04-18T10:42:10.179Z</time></trkpt><trkpt lat="45.4219033" lon="10.78992"><ele>131.0</ele><time>2026-04-18T10:42:11.24Z</time></trkpt><trkpt lat="45.421935" lon="10.790035"><ele>131.0</ele><time>2026-04-18T10:42:12.174Z</time></trkpt><trkpt lat="45.4219683" lon="10.7901467"><ele>131.0</ele><time>2026-04-18T10:42:13.199Z</time></trkpt><trkpt lat="45.422005" lon="10.7902533"><ele>131.0</ele><time>2026-04-18T10:42:14.17Z</time></trkpt><trkpt lat="45.422085" lon="10.79045"><ele>131.0</ele><time>2026-04-18T10:42:16.168Z</time></trkpt><trkpt lat="45.422165" lon="10.7905817"><ele>131.0</ele><time>2026-04-18T10:42:18.178Z</time></trkpt><trkpt lat="45.4222333" lon="10.7905633"><ele>131.0</ele><time>2026-04-18T10:42:19.2Z</time></trkpt><trkpt lat="45.4223117" lon="10.7905033"><ele>131.0</ele><time>2026-04-18T10:42:20.171Z</time></trkpt><trkpt lat="45.4224017" lon="10.7904617"><ele>131.0</ele><time>2026-04-18T10:42:21.181Z</time></trkpt><trkpt lat="45.4224817" lon="10.7904333"><ele>131.0</ele><time>2026-04-18T10:42:22.226Z</time></trkpt><trkpt lat="45.422565" lon="10.7904133"><ele>131.0</ele><time>2026-04-18T10:42:23.208Z</time></trkpt><trkpt lat="45.4226583" lon="10.7904"><ele>131.0</ele><time>2026-04-18T10:42:24.17Z</time></trkpt><trkpt lat="45.4227967" lon="10.7903483"><ele>131.0</ele><time>2026-04-18T10:42:25.211Z</time></trkpt><trkpt lat="45.4229117" lon="10.7903367"><ele>131.0</ele><time>2026-04-18T10:42:26.173Z</time></trkpt><trkpt lat="45.423025" lon="10.7902867"><ele>131.0</ele><time>2026-04-18T10:42:27.22Z</time></trkpt><trkpt lat="45.423245" lon="10.79022"><ele>130.75</ele><time>2026-04-18T10:42:29.171Z</time></trkpt><trkpt lat="45.4233633" lon="10.7901733"><ele>130.5</ele><time>2026-04-18T10:42:30.164Z</time></trkpt><trkpt lat="45.423455" lon="10.790175"><ele>130.25</ele><time>2026-04-18T10:42:31.18Z</time></trkpt><trkpt lat="45.4235517" lon="10.7901567"><ele>130.0</ele><time>2026-04-18T10:42:32.18Z</time></trkpt><trkpt lat="45.4237217" lon="10.79013"><ele>130.0</ele><time>2026-04-18T10:42:34.19Z</time></trkpt><trkpt lat="45.42379" lon="10.7900783"><ele>130.0</ele><time>2026-04-18T10:42:35.189Z</time></trkpt><trkpt lat="45.42389" lon="10.7899833"><ele>130.0</ele><time>2026-04-18T10:42:37.172Z</time></trkpt><trkpt lat="45.4239817" lon="10.7899367"><ele>130.0</ele><time>2026-04-18T10:42:39.206Z</time></trkpt><trkpt lat="45.4240483" lon="10.7899117"><ele>130.0</ele><time>2026-04-18T10:42:44.175Z</time></trkpt><trkpt lat="45.424105" lon="10.7898467"><ele>130.0</ele><time>2026-04-18T10:42:46.177Z</time></trkpt><trkpt lat="45.424215" lon="10.789745"><ele>130.25</ele><time>2026-04-18T10:42:48.207Z</time></trkpt><trkpt lat="45.424295" lon="10.7896867"><ele>130.5</ele><time>2026-04-18T10:42:49.211Z</time></trkpt><trkpt lat="45.4243833" lon="10.789625"><ele>130.75</ele><time>2026-04-18T10:42:50.162Z</time></trkpt><trkpt lat="45.42458" lon="10.7894933"><ele>131.0</ele><time>2026-04-18T10:42:52.183Z</time></trkpt><trkpt lat="45.4246517" lon="10.789425"><ele>131.4</ele><time>2026-04-18T10:42:53.168Z</time></trkpt><trkpt lat="45.4247017" lon="10.78933"><ele>131.8</ele><time>2026-04-18T10:42:54.169Z</time></trkpt><trkpt lat="45.4247433" lon="10.7892083"><ele>132.20000000000002</ele><time>2026-04-18T10:42:55.212Z</time></trkpt><trkpt lat="45.4247733" lon="10.7890483"><ele>132.6</ele><time>2026-04-18T10:42:56.176Z</time></trkpt><trkpt lat="45.4248033" lon="10.7888617"><ele>133.0</ele><time>2026-04-18T10:42:57.178Z</time></trkpt><trkpt lat="45.4248117" lon="10.7886683"><ele>133.0</ele><time>2026-04-18T10:42:58.216Z</time></trkpt><trkpt lat="45.424855" lon="10.7885083"><ele>133.0</ele><time>2026-04-18T10:42:59.203Z</time></trkpt><trkpt lat="45.42491" lon="10.78816"><ele>133.0</ele><time>2026-04-18T10:43:01.174Z</time></trkpt><trkpt lat="45.424935" lon="10.7879667"><ele>133.0</ele><time>2026-04-18T10:43:02.206Z</time></trkpt><trkpt lat="45.4249783" lon="10.7877783"><ele>133.0</ele><time>2026-04-18T10:43:03.185Z</time></trkpt><trkpt lat="45.4250117" lon="10.7875983"><ele>133.0</ele><time>2026-04-18T10:43:04.174Z</time></trkpt><trkpt lat="45.425035" lon="10.787425"><ele>133.0</ele><time>2026-04-18T10:43:05.177Z</time></trkpt><trkpt lat="45.4250783" lon="10.7872967"><ele>133.83333333333334</ele><time>2026-04-18T10:43:06.19Z</time></trkpt><trkpt lat="45.4251" lon="10.7871733"><ele>134.66666666666669</ele><time>2026-04-18T10:43:07.188Z</time></trkpt><trkpt lat="45.4251283" lon="10.7870867"><ele>135.5</ele><time>2026-04-18T10:43:08.194Z</time></trkpt><trkpt lat="45.4251833" lon="10.7870067"><ele>136.33333333333334</ele><time>2026-04-18T10:43:10.182Z</time></trkpt><trkpt lat="45.4252533" lon="10.787045"><ele>137.16666666666666</ele><time>2026-04-18T10:43:27.184Z</time></trkpt><trkpt lat="45.425365" lon="10.78709"><ele>138.0</ele><time>2026-04-18T10:43:29.193Z</time></trkpt><trkpt lat="45.4254383" lon="10.787125"><ele>137.25</ele><time>2026-04-18T10:43:30.214Z</time></trkpt><trkpt lat="45.4255983" lon="10.7871883"><ele>136.5</ele><time>2026-04-18T10:43:32.163Z</time></trkpt><trkpt lat="45.42569" lon="10.787225"><ele>135.75</ele><time>2026-04-18T10:43:33.193Z</time></trkpt><trkpt lat="45.4257833" lon="10.7872517"><ele>135.0</ele><time>2026-04-18T10:43:34.187Z</time></trkpt><trkpt lat="45.4258817" lon="10.7872683"><ele>135.0</ele><time>2026-04-18T10:43:35.208Z</time></trkpt><trkpt lat="45.4259833" lon="10.78728"><ele>135.0</ele><time>2026-04-18T10:43:36.236Z</time></trkpt><trkpt lat="45.4260917" lon="10.787305"><ele>135.0</ele><time>2026-04-18T10:43:37.202Z</time></trkpt><trkpt lat="45.4262" lon="10.78734"><ele>135.0</ele><time>2026-04-18T10:43:38.186Z</time></trkpt><trkpt lat="45.4262967" lon="10.78737"><ele>135.0</ele><time>2026-04-18T10:43:39.174Z</time></trkpt><trkpt lat="45.4263833" lon="10.787375"><ele>136.66666666666666</ele><time>2026-04-18T10:43:40.232Z</time></trkpt><trkpt lat="45.4264783" lon="10.787405"><ele>138.33333333333334</ele><time>2026-04-18T10:43:42.171Z</time></trkpt><trkpt lat="45.4265617" lon="10.7873467"><ele>140.0</ele><time>2026-04-18T10:43:44.19Z</time></trkpt><trkpt lat="45.426595" lon="10.7871917"><ele>141.66666666666669</ele><time>2026-04-18T10:43:46.177Z</time></trkpt><trkpt lat="45.4266017" lon="10.787085"><ele>143.33333333333334</ele><time>2026-04-18T10:43:47.17Z</time></trkpt><trkpt lat="45.4266317" lon="10.7870033"><ele>145.0</ele><time>2026-04-18T10:43:48.215Z</time></trkpt><trkpt lat="45.426675" lon="10.7869267"><ele>145.0</ele><time>2026-04-18T10:43:49.22Z</time></trkpt><trkpt lat="45.42674" lon="10.7868667"><ele>145.0</ele><time>2026-04-18T10:43:50.177Z</time></trkpt><trkpt lat="45.4268217" lon="10.7868283"><ele>145.0</ele><time>2026-04-18T10:43:51.171Z</time></trkpt><trkpt lat="45.4269067" lon="10.786795"><ele>145.0</ele><time>2026-04-18T10:43:52.176Z</time></trkpt><trkpt lat="45.4269967" lon="10.7867683"><ele>145.0</ele><time>2026-04-18T10:43:53.208Z</time></trkpt><trkpt lat="45.427095" lon="10.78672"><ele>145.0</ele><time>2026-04-18T10:43:54.216Z</time></trkpt><trkpt lat="45.4272483" lon="10.786615"><ele>143.16666666666669</ele><time>2026-04-18T10:43:56.17Z</time></trkpt><trkpt lat="45.427325" lon="10.7865683"><ele>141.33333333333334</ele><time>2026-04-18T10:43:57.189Z</time></trkpt><trkpt lat="45.4274017" lon="10.78652"><ele>139.5</ele><time>2026-04-18T10:43:58.161Z</time></trkpt><trkpt lat="45.42748" lon="10.7864783"><ele>137.66666666666666</ele><time>2026-04-18T10:43:59.201Z</time></trkpt><trkpt lat="45.4275517" lon="10.78644"><ele>135.83333333333331</ele><time>2026-04-18T10:44:00.206Z</time></trkpt><trkpt lat="45.4276167" lon="10.7864133"><ele>134.0</ele><time>2026-04-18T10:44:01.236Z</time></trkpt><trkpt lat="45.4277017" lon="10.7864133"><ele>134.0</ele><time>2026-04-18T10:44:03.179Z</time></trkpt><trkpt lat="45.4277567" lon="10.7865433"><ele>134.0</ele><time>2026-04-18T10:44:06.194Z</time></trkpt><trkpt lat="45.427775" lon="10.786715"><ele>134.0</ele><time>2026-04-18T10:44:08.208Z</time></trkpt><trkpt lat="45.4277833" lon="10.7868117"><ele>134.0</ele><time>2026-04-18T10:44:09.199Z</time></trkpt><trkpt lat="45.4277967" lon="10.78692"><ele>134.0</ele><time>2026-04-18T10:44:10.178Z</time></trkpt><trkpt lat="45.4278167" lon="10.787035"><ele>136.2</ele><time>2026-04-18T10:44:11.176Z</time></trkpt><trkpt lat="45.4278417" lon="10.7871617"><ele>138.4</ele><time>2026-04-18T10:44:12.169Z</time></trkpt><trkpt lat="45.4278583" lon="10.7872817"><ele>140.6</ele><time>2026-04-18T10:44:13.168Z</time></trkpt><trkpt lat="45.4278617" lon="10.787385"><ele>142.8</ele><time>2026-04-18T10:44:14.172Z</time></trkpt><trkpt lat="45.427855" lon="10.78748"><ele>145.0</ele><time>2026-04-18T10:44:15.217Z</time></trkpt><trkpt lat="45.42778" lon="10.7876417"><ele>145.8</ele><time>2026-04-18T10:44:17.218Z</time></trkpt><trkpt lat="45.4277" lon="10.7877133"><ele>146.6</ele><time>2026-04-18T10:44:18.197Z</time></trkpt><trkpt lat="45.4276417" lon="10.7877617"><ele>147.4</ele><time>2026-04-18T10:44:19.183Z</time></trkpt><trkpt lat="45.4275567" lon="10.78779"><ele>148.2</ele><time>2026-04-18T10:44:20.189Z</time></trkpt><trkpt lat="45.4274817" lon="10.787865"><ele>149.0</ele><time>2026-04-18T10:44:21.236Z</time></trkpt><trkpt lat="45.4273533" lon="10.787985"><ele>149.0</ele><time>2026-04-18T10:44:23.199Z</time></trkpt><trkpt lat="45.4272283" lon="10.7880417"><ele>149.0</ele><time>2026-04-18T10:44:26.225Z</time></trkpt><trkpt lat="45.427135" lon="10.7879967"><ele>149.0</ele><time>2026-04-18T10:44:28.191Z</time></trkpt><trkpt lat="45.4270133" lon="10.7879833"><ele>149.0</ele><time>2026-04-18T10:44:30.169Z</time></trkpt><trkpt lat="45.42689" lon="10.7880783"><ele>147.5</ele><time>2026-04-18T10:44:32.172Z</time></trkpt><trkpt lat="45.42676" lon="10.78823"><ele>146.0</ele><time>2026-04-18T10:44:34.18Z</time></trkpt><trkpt lat="45.426695" lon="10.7883467"><ele>144.5</ele><time>2026-04-18T10:44:35.255Z</time></trkpt><trkpt lat="45.4266267" lon="10.78849"><ele>143.0</ele><time>2026-04-18T10:44:36.165Z</time></trkpt><trkpt lat="45.4265267" lon="10.7886233"><ele>142.75</ele><time>2026-04-18T10:44:37.188Z</time></trkpt><trkpt lat="45.4264433" lon="10.788675"><ele>142.5</ele><time>2026-04-18T10:44:38.185Z</time></trkpt><trkpt lat="45.42627" lon="10.7888383"><ele>142.25</ele><time>2026-04-18T10:44:40.217Z</time></trkpt><trkpt lat="45.426195" lon="10.7889333"><ele>142.0</ele><time>2026-04-18T10:44:41.189Z</time></trkpt><trkpt lat="45.4261333" lon="10.7890267"><ele>140.6</ele><time>2026-04-18T10:44:42.167Z</time></trkpt><trkpt lat="45.4260867" lon="10.7891367"><ele>139.2</ele><time>2026-04-18T10:44:43.181Z</time></trkpt><trkpt lat="45.4260533" lon="10.7892633"><ele>137.8</ele><time>2026-04-18T10:44:44.193Z</time></trkpt><trkpt lat="45.4260067" lon="10.7894033"><ele>136.4</ele><time>2026-04-18T10:44:45.226Z</time></trkpt><trkpt lat="45.4259617" lon="10.78955"><ele>135.0</ele><time>2026-04-18T10:44:46.18Z</time></trkpt><trkpt lat="45.4259183" lon="10.7896917"><ele>135.0</ele><time>2026-04-18T10:44:47.185Z</time></trkpt><trkpt lat="45.4258817" lon="10.7898183"><ele>135.0</ele><time>2026-04-18T10:44:48.214Z</time></trkpt><trkpt lat="45.425875" lon="10.78998"><ele>135.0</ele><time>2026-04-18T10:44:50.187Z</time></trkpt><trkpt lat="45.4259567" lon="10.7900767"><ele>135.0</ele><time>2026-04-18T10:44:52.174Z</time></trkpt><trkpt lat="45.426025" lon="10.7901"><ele>135.0</ele><time>2026-04-18T10:44:53.175Z</time></trkpt><trkpt lat="45.42613" lon="10.7901067"><ele>137.25</ele><time>2026-04-18T10:44:54.229Z</time></trkpt><trkpt lat="45.4263367" lon="10.7901217"><ele>139.5</ele><time>2026-04-18T10:44:56.191Z</time></trkpt><trkpt lat="45.42643" lon="10.79013"><ele>141.75</ele><time>2026-04-18T10:44:57.216Z</time></trkpt><trkpt lat="45.42656" lon="10.79014"><ele>144.0</ele><time>2026-04-18T10:44:58.209Z</time></trkpt><trkpt lat="45.4266817" lon="10.7901483"><ele>144.0</ele><time>2026-04-18T10:44:59.205Z</time></trkpt><trkpt lat="45.426805" lon="10.7901217"><ele>144.0</ele><time>2026-04-18T10:45:00.178Z</time></trkpt><trkpt lat="45.426905" lon="10.7900967"><ele>144.0</ele><time>2026-04-18T10:45:01.174Z</time></trkpt><trkpt lat="45.42699" lon="10.79009"><ele>144.0</ele><time>2026-04-18T10:45:02.213Z</time></trkpt><trkpt lat="45.4270533" lon="10.7900467"><ele>144.0</ele><time>2026-04-18T10:45:03.212Z</time></trkpt><trkpt lat="45.4270933" lon="10.789905"><ele>144.0</ele><time>2026-04-18T10:45:05.189Z</time></trkpt><trkpt lat="45.4270717" lon="10.7897267"><ele>144.0</ele><time>2026-04-18T10:45:07.2Z</time></trkpt><trkpt lat="45.4270267" lon="10.7896267"><ele>144.0</ele><time>2026-04-18T10:45:08.204Z</time></trkpt><trkpt lat="45.4269783" lon="10.7895467"><ele>144.0</ele><time>2026-04-18T10:45:09.179Z</time></trkpt><trkpt lat="45.4269617" lon="10.7894317"><ele>144.0</ele><time>2026-04-18T10:45:11.169Z</time></trkpt><trkpt lat="45.42708" lon="10.7893433"><ele>144.33333333333334</ele><time>2026-04-18T10:45:14.213Z</time></trkpt><trkpt lat="45.4271717" lon="10.7893067"><ele>144.66666666666666</ele><time>2026-04-18T10:45:16.22Z</time></trkpt><trkpt lat="45.427245" lon="10.7892617"><ele>145.0</ele><time>2026-04-18T10:45:19.225Z</time></trkpt><trkpt lat="45.4272983" lon="10.7892"><ele>145.33333333333331</ele><time>2026-04-18T10:45:21.237Z</time></trkpt><trkpt lat="45.4273583" lon="10.7891417"><ele>145.66666666666666</ele><time>2026-04-18T10:45:23.2Z</time></trkpt><trkpt lat="45.4274183" lon="10.7890883"><ele>146.0</ele><time>2026-04-18T10:45:26.194Z</time></trkpt><trkpt lat="45.4274967" lon="10.7890767"><ele>146.0</ele><time>2026-04-18T10:45:30.188Z</time></trkpt></trkseg></trk></gpx>